<?xml version="1.0" encoding="UTF-8" standalone="no" ?>
<gpx xmlns="http://www.topografix.com/GPX/1/1" xmlns:xsi="http://www.w3.org/2001/XMLSchema-instance" xsi:schemaLocation="http://www.topografix.com/GPX/1/1 http://www.topografix.com/GPX/1/1/gpx.xsd" version="1.1" creator="VisuGPX - https://www.visugpx.com">
  <metadata>
    <name>le tour de la foret de Saou </name>
    <desc><![CDATA[sur la base du n°5 VTT de Saou(26) légèrement modifié pour la descente]]></desc>
  </metadata>
  <trk>
    <name><![CDATA[24-MAI-15 13-11-06-MNT]]></name>
    <trkseg>
      <trkpt lat="44.64666" lon="5.06056">
        <ele>330.569855</ele>
        <time>2015-05-24T08:23:39Z</time>
      </trkpt>
      <trkpt lat="44.64656" lon="5.06054">
        <ele>329.790863</ele>
        <time>2015-05-24T08:23:46Z</time>
      </trkpt>
      <trkpt lat="44.64617" lon="5.06069">
        <ele>326.355316</ele>
        <time>2015-05-24T08:24:01Z</time>
      </trkpt>
      <trkpt lat="44.64584" lon="5.06079">
        <ele>323.872498</ele>
        <time>2015-05-24T08:24:13Z</time>
      </trkpt>
      <trkpt lat="44.6458" lon="5.06095">
        <ele>323.390015</ele>
        <time>2015-05-24T08:24:19Z</time>
      </trkpt>
      <trkpt lat="44.64581" lon="5.06161">
        <ele>322.531036</ele>
        <time>2015-05-24T08:24:34Z</time>
      </trkpt>
      <trkpt lat="44.64566" lon="5.06219">
        <ele>321.106232</ele>
        <time>2015-05-24T08:24:46Z</time>
      </trkpt>
      <trkpt lat="44.64583" lon="5.0627">
        <ele>321.071686</ele>
        <time>2015-05-24T08:24:58Z</time>
      </trkpt>
      <trkpt lat="44.64594" lon="5.06311">
        <ele>321.775848</ele>
        <time>2015-05-24T08:25:09Z</time>
      </trkpt>
      <trkpt lat="44.64609" lon="5.06361">
        <ele>324.080627</ele>
        <time>2015-05-24T08:25:23Z</time>
      </trkpt>
      <trkpt lat="44.64632" lon="5.06396">
        <ele>326.300812</ele>
        <time>2015-05-24T08:25:34Z</time>
      </trkpt>
      <trkpt lat="44.64654" lon="5.0643">
        <ele>328.50885</ele>
        <time>2015-05-24T08:25:44Z</time>
      </trkpt>
      <trkpt lat="44.64691" lon="5.06485">
        <ele>331.412506</ele>
        <time>2015-05-24T08:26:00Z</time>
      </trkpt>
      <trkpt lat="44.64722" lon="5.06541">
        <ele>333.787506</ele>
        <time>2015-05-24T08:26:17Z</time>
      </trkpt>
      <trkpt lat="44.64738" lon="5.06594">
        <ele>334.904999</ele>
        <time>2015-05-24T08:26:30Z</time>
      </trkpt>
      <trkpt lat="44.64753" lon="5.06654">
        <ele>336.01001</ele>
        <time>2015-05-24T08:26:44Z</time>
      </trkpt>
      <trkpt lat="44.64768" lon="5.0672">
        <ele>335.922607</ele>
        <time>2015-05-24T08:27:00Z</time>
      </trkpt>
      <trkpt lat="44.64783" lon="5.06786">
        <ele>336.77124</ele>
        <time>2015-05-24T08:27:15Z</time>
      </trkpt>
      <trkpt lat="44.64791" lon="5.06857">
        <ele>336.694794</ele>
        <time>2015-05-24T08:27:29Z</time>
      </trkpt>
      <trkpt lat="44.64794" lon="5.06932">
        <ele>336.533905</ele>
        <time>2015-05-24T08:27:44Z</time>
      </trkpt>
      <trkpt lat="44.64798" lon="5.07012">
        <ele>337.080261</ele>
        <time>2015-05-24T08:28:01Z</time>
      </trkpt>
      <trkpt lat="44.64813" lon="5.07075">
        <ele>338.247498</ele>
        <time>2015-05-24T08:28:14Z</time>
      </trkpt>
      <trkpt lat="44.6483" lon="5.07156">
        <ele>337.465149</ele>
        <time>2015-05-24T08:28:31Z</time>
      </trkpt>
      <trkpt lat="44.64862" lon="5.07224">
        <ele>339.139984</ele>
        <time>2015-05-24T08:28:47Z</time>
      </trkpt>
      <trkpt lat="44.64897" lon="5.07291">
        <ele>341.702301</ele>
        <time>2015-05-24T08:29:03Z</time>
      </trkpt>
      <trkpt lat="44.64922" lon="5.07349">
        <ele>344.649658</ele>
        <time>2015-05-24T08:29:16Z</time>
      </trkpt>
      <trkpt lat="44.64933" lon="5.07426">
        <ele>348.188751</ele>
        <time>2015-05-24T08:29:32Z</time>
      </trkpt>
      <trkpt lat="44.64945" lon="5.07501">
        <ele>351.428741</ele>
        <time>2015-05-24T08:29:50Z</time>
      </trkpt>
      <trkpt lat="44.64956" lon="5.07572">
        <ele>354.599579</ele>
        <time>2015-05-24T08:30:07Z</time>
      </trkpt>
      <trkpt lat="44.64965" lon="5.07635">
        <ele>356.454163</ele>
        <time>2015-05-24T08:30:23Z</time>
      </trkpt>
      <trkpt lat="44.64973" lon="5.07686">
        <ele>356.838745</ele>
        <time>2015-05-24T08:30:35Z</time>
      </trkpt>
      <trkpt lat="44.6498" lon="5.07762">
        <ele>357.93399</ele>
        <time>2015-05-24T08:30:52Z</time>
      </trkpt>
      <trkpt lat="44.64971" lon="5.07816">
        <ele>359.914307</ele>
        <time>2015-05-24T08:31:03Z</time>
      </trkpt>
      <trkpt lat="44.64971" lon="5.0787">
        <ele>360.998383</ele>
        <time>2015-05-24T08:31:15Z</time>
      </trkpt>
      <trkpt lat="44.64964" lon="5.0792">
        <ele>358.183044</ele>
        <time>2015-05-24T08:31:24Z</time>
      </trkpt>
      <trkpt lat="44.64961" lon="5.07926">
        <ele>357.81488</ele>
        <time>2015-05-24T08:31:25Z</time>
      </trkpt>
      <trkpt lat="44.64955" lon="5.07937">
        <ele>357.153656</ele>
        <time>2015-05-24T08:31:27Z</time>
      </trkpt>
      <trkpt lat="44.64952" lon="5.07942">
        <ele>356.838013</ele>
        <time>2015-05-24T08:31:28Z</time>
      </trkpt>
      <trkpt lat="44.64949" lon="5.07946">
        <ele>356.493164</ele>
        <time>2015-05-24T08:31:29Z</time>
      </trkpt>
      <trkpt lat="44.64942" lon="5.07955">
        <ele>356.164368</ele>
        <time>2015-05-24T08:31:31Z</time>
      </trkpt>
      <trkpt lat="44.64931" lon="5.07965">
        <ele>356.157898</ele>
        <time>2015-05-24T08:31:34Z</time>
      </trkpt>
      <trkpt lat="44.64892" lon="5.07979">
        <ele>354.095062</ele>
        <time>2015-05-24T08:31:44Z</time>
      </trkpt>
      <trkpt lat="44.64888" lon="5.07982">
        <ele>353.482574</ele>
        <time>2015-05-24T08:31:45Z</time>
      </trkpt>
      <trkpt lat="44.64855" lon="5.08">
        <ele>352.552063</ele>
        <time>2015-05-24T08:31:56Z</time>
      </trkpt>
      <trkpt lat="44.64849" lon="5.08006">
        <ele>352.19812</ele>
        <time>2015-05-24T08:31:59Z</time>
      </trkpt>
      <trkpt lat="44.64846" lon="5.08007">
        <ele>352.179443</ele>
        <time>2015-05-24T08:32:00Z</time>
      </trkpt>
      <trkpt lat="44.64835" lon="5.08015">
        <ele>352.26059</ele>
        <time>2015-05-24T08:32:05Z</time>
      </trkpt>
      <trkpt lat="44.64835" lon="5.08046">
        <ele>350.863007</ele>
        <time>2015-05-24T08:32:13Z</time>
      </trkpt>
      <trkpt lat="44.64863" lon="5.08068">
        <ele>350.335907</ele>
        <time>2015-05-24T08:32:25Z</time>
      </trkpt>
      <trkpt lat="44.64882" lon="5.08085">
        <ele>351.613251</ele>
        <time>2015-05-24T08:32:36Z</time>
      </trkpt>
      <trkpt lat="44.64884" lon="5.08087">
        <ele>351.733765</ele>
        <time>2015-05-24T08:32:37Z</time>
      </trkpt>
      <trkpt lat="44.64885" lon="5.08089">
        <ele>351.858307</ele>
        <time>2015-05-24T08:32:38Z</time>
      </trkpt>
      <trkpt lat="44.64884" lon="5.08089">
        <ele>351.927185</ele>
        <time>2015-05-24T08:32:42Z</time>
      </trkpt>
      <trkpt lat="44.64882" lon="5.08087">
        <ele>351.770294</ele>
        <time>2015-05-24T08:32:43Z</time>
      </trkpt>
      <trkpt lat="44.64881" lon="5.08084">
        <ele>351.497589</ele>
        <time>2015-05-24T08:32:44Z</time>
      </trkpt>
      <trkpt lat="44.6488" lon="5.08081">
        <ele>351.215668</ele>
        <time>2015-05-24T08:32:45Z</time>
      </trkpt>
      <trkpt lat="44.64879" lon="5.0808">
        <ele>351.114716</ele>
        <time>2015-05-24T08:32:46Z</time>
      </trkpt>
      <trkpt lat="44.64876" lon="5.08079">
        <ele>351.132629</ele>
        <time>2015-05-24T08:32:47Z</time>
      </trkpt>
      <trkpt lat="44.64874" lon="5.08078">
        <ele>351.118988</ele>
        <time>2015-05-24T08:32:48Z</time>
      </trkpt>
      <trkpt lat="44.64872" lon="5.08077">
        <ele>351.096863</ele>
        <time>2015-05-24T08:32:49Z</time>
      </trkpt>
      <trkpt lat="44.64869" lon="5.08076">
        <ele>351.086487</ele>
        <time>2015-05-24T08:32:50Z</time>
      </trkpt>
      <trkpt lat="44.64867" lon="5.08075">
        <ele>351.116119</ele>
        <time>2015-05-24T08:32:51Z</time>
      </trkpt>
      <trkpt lat="44.64836" lon="5.08053">
        <ele>351.697418</ele>
        <time>2015-05-24T08:33:02Z</time>
      </trkpt>
      <trkpt lat="44.64828" lon="5.08027">
        <ele>352.461884</ele>
        <time>2015-05-24T08:33:08Z</time>
      </trkpt>
      <trkpt lat="44.6483" lon="5.08022">
        <ele>352.40451</ele>
        <time>2015-05-24T08:33:09Z</time>
      </trkpt>
      <trkpt lat="44.64833" lon="5.08019">
        <ele>352.27597</ele>
        <time>2015-05-24T08:33:10Z</time>
      </trkpt>
      <trkpt lat="44.64837" lon="5.08016">
        <ele>352.117493</ele>
        <time>2015-05-24T08:33:11Z</time>
      </trkpt>
      <trkpt lat="44.6484" lon="5.08014">
        <ele>352.005615</ele>
        <time>2015-05-24T08:33:12Z</time>
      </trkpt>
      <trkpt lat="44.64843" lon="5.08012">
        <ele>352.025116</ele>
        <time>2015-05-24T08:33:13Z</time>
      </trkpt>
      <trkpt lat="44.64846" lon="5.08009">
        <ele>352.132019</ele>
        <time>2015-05-24T08:33:14Z</time>
      </trkpt>
      <trkpt lat="44.64866" lon="5.07997">
        <ele>352.308746</ele>
        <time>2015-05-24T08:33:23Z</time>
      </trkpt>
      <trkpt lat="44.64896" lon="5.07979">
        <ele>353.897125</ele>
        <time>2015-05-24T08:33:34Z</time>
      </trkpt>
      <trkpt lat="44.64933" lon="5.07955">
        <ele>357.319366</ele>
        <time>2015-05-24T08:33:47Z</time>
      </trkpt>
      <trkpt lat="44.64962" lon="5.07908">
        <ele>359.233887</ele>
        <time>2015-05-24T08:34:01Z</time>
      </trkpt>
      <trkpt lat="44.64965" lon="5.07899">
        <ele>359.808411</ele>
        <time>2015-05-24T08:34:04Z</time>
      </trkpt>
      <trkpt lat="44.64966" lon="5.0785">
        <ele>361.81778</ele>
        <time>2015-05-24T08:34:15Z</time>
      </trkpt>
      <trkpt lat="44.64973" lon="5.07809">
        <ele>359.570984</ele>
        <time>2015-05-24T08:34:24Z</time>
      </trkpt>
      <trkpt lat="44.64976" lon="5.07808">
        <ele>359.309601</ele>
        <time>2015-05-24T08:34:25Z</time>
      </trkpt>
      <trkpt lat="44.64979" lon="5.07811">
        <ele>359.072418</ele>
        <time>2015-05-24T08:34:26Z</time>
      </trkpt>
      <trkpt lat="44.64999" lon="5.07849">
        <ele>358.000702</ele>
        <time>2015-05-24T08:34:36Z</time>
      </trkpt>
      <trkpt lat="44.65033" lon="5.07917">
        <ele>358.535492</ele>
        <time>2015-05-24T08:34:53Z</time>
      </trkpt>
      <trkpt lat="44.65064" lon="5.07981">
        <ele>359.713806</ele>
        <time>2015-05-24T08:35:09Z</time>
      </trkpt>
      <trkpt lat="44.65093" lon="5.0804">
        <ele>360.361511</ele>
        <time>2015-05-24T08:35:24Z</time>
      </trkpt>
      <trkpt lat="44.65119" lon="5.0811">
        <ele>360.347961</ele>
        <time>2015-05-24T08:35:41Z</time>
      </trkpt>
      <trkpt lat="44.65146" lon="5.08191">
        <ele>360.380676</ele>
        <time>2015-05-24T08:35:59Z</time>
      </trkpt>
      <trkpt lat="44.6517" lon="5.08271">
        <ele>361.524017</ele>
        <time>2015-05-24T08:36:17Z</time>
      </trkpt>
      <trkpt lat="44.65185" lon="5.08358">
        <ele>363.390564</ele>
        <time>2015-05-24T08:36:36Z</time>
      </trkpt>
      <trkpt lat="44.65198" lon="5.08438">
        <ele>363.492523</ele>
        <time>2015-05-24T08:36:53Z</time>
      </trkpt>
      <trkpt lat="44.65217" lon="5.08501">
        <ele>365.861237</ele>
        <time>2015-05-24T08:37:07Z</time>
      </trkpt>
      <trkpt lat="44.6524" lon="5.08568">
        <ele>366.654663</ele>
        <time>2015-05-24T08:37:22Z</time>
      </trkpt>
      <trkpt lat="44.65256" lon="5.08633">
        <ele>365.906158</ele>
        <time>2015-05-24T08:37:37Z</time>
      </trkpt>
      <trkpt lat="44.65273" lon="5.08688">
        <ele>366.233887</ele>
        <time>2015-05-24T08:37:50Z</time>
      </trkpt>
      <trkpt lat="44.65301" lon="5.08763">
        <ele>369.371582</ele>
        <time>2015-05-24T08:38:07Z</time>
      </trkpt>
      <trkpt lat="44.65327" lon="5.08826">
        <ele>369.973572</ele>
        <time>2015-05-24T08:38:22Z</time>
      </trkpt>
      <trkpt lat="44.65345" lon="5.08887">
        <ele>374.065552</ele>
        <time>2015-05-24T08:38:35Z</time>
      </trkpt>
      <trkpt lat="44.65358" lon="5.08963">
        <ele>374.200287</ele>
        <time>2015-05-24T08:38:50Z</time>
      </trkpt>
      <trkpt lat="44.65365" lon="5.09001">
        <ele>373.077209</ele>
        <time>2015-05-24T08:38:57Z</time>
      </trkpt>
      <trkpt lat="44.65366" lon="5.09006">
        <ele>372.839661</ele>
        <time>2015-05-24T08:38:58Z</time>
      </trkpt>
      <trkpt lat="44.65377" lon="5.09085">
        <ele>373.9505</ele>
        <time>2015-05-24T08:39:13Z</time>
      </trkpt>
      <trkpt lat="44.6539" lon="5.09159">
        <ele>376.837341</ele>
        <time>2015-05-24T08:39:28Z</time>
      </trkpt>
      <trkpt lat="44.65402" lon="5.0922">
        <ele>379.494263</ele>
        <time>2015-05-24T08:39:41Z</time>
      </trkpt>
      <trkpt lat="44.65408" lon="5.0929">
        <ele>379.904327</ele>
        <time>2015-05-24T08:39:56Z</time>
      </trkpt>
      <trkpt lat="44.65417" lon="5.09355">
        <ele>385.976288</ele>
        <time>2015-05-24T08:40:09Z</time>
      </trkpt>
      <trkpt lat="44.65437" lon="5.09412">
        <ele>382.40921</ele>
        <time>2015-05-24T08:40:22Z</time>
      </trkpt>
      <trkpt lat="44.6547" lon="5.09462">
        <ele>388.868317</ele>
        <time>2015-05-24T08:40:36Z</time>
      </trkpt>
      <trkpt lat="44.65474" lon="5.09478">
        <ele>389.22699</ele>
        <time>2015-05-24T08:40:40Z</time>
      </trkpt>
      <trkpt lat="44.65473" lon="5.09482">
        <ele>389.573456</ele>
        <time>2015-05-24T08:40:41Z</time>
      </trkpt>
      <trkpt lat="44.65473" lon="5.09533">
        <ele>394.088165</ele>
        <time>2015-05-24T08:40:52Z</time>
      </trkpt>
      <trkpt lat="44.65491" lon="5.0958">
        <ele>387.738495</ele>
        <time>2015-05-24T08:41:04Z</time>
      </trkpt>
      <trkpt lat="44.65523" lon="5.09631">
        <ele>385.628693</ele>
        <time>2015-05-24T08:41:18Z</time>
      </trkpt>
      <trkpt lat="44.65562" lon="5.09682">
        <ele>387.579987</ele>
        <time>2015-05-24T08:41:32Z</time>
      </trkpt>
      <trkpt lat="44.65586" lon="5.09724">
        <ele>390.488464</ele>
        <time>2015-05-24T08:41:44Z</time>
      </trkpt>
      <trkpt lat="44.6561" lon="5.09772">
        <ele>392.377625</ele>
        <time>2015-05-24T08:41:56Z</time>
      </trkpt>
      <trkpt lat="44.65632" lon="5.09822">
        <ele>391.858734</ele>
        <time>2015-05-24T08:42:08Z</time>
      </trkpt>
      <trkpt lat="44.65654" lon="5.09887">
        <ele>390.742493</ele>
        <time>2015-05-24T08:42:23Z</time>
      </trkpt>
      <trkpt lat="44.6566" lon="5.09944">
        <ele>390.111694</ele>
        <time>2015-05-24T08:42:35Z</time>
      </trkpt>
      <trkpt lat="44.65647" lon="5.10007">
        <ele>392.414398</ele>
        <time>2015-05-24T08:42:48Z</time>
      </trkpt>
      <trkpt lat="44.65643" lon="5.10071">
        <ele>394.535583</ele>
        <time>2015-05-24T08:43:01Z</time>
      </trkpt>
      <trkpt lat="44.65648" lon="5.10137">
        <ele>395.544586</ele>
        <time>2015-05-24T08:43:14Z</time>
      </trkpt>
      <trkpt lat="44.65649" lon="5.10199">
        <ele>397.40744</ele>
        <time>2015-05-24T08:43:27Z</time>
      </trkpt>
      <trkpt lat="44.65655" lon="5.10252">
        <ele>397.815155</ele>
        <time>2015-05-24T08:43:39Z</time>
      </trkpt>
      <trkpt lat="44.65672" lon="5.103">
        <ele>399.080536</ele>
        <time>2015-05-24T08:43:51Z</time>
      </trkpt>
      <trkpt lat="44.65681" lon="5.10351">
        <ele>399.938385</ele>
        <time>2015-05-24T08:44:03Z</time>
      </trkpt>
      <trkpt lat="44.65679" lon="5.10418">
        <ele>403.994446</ele>
        <time>2015-05-24T08:44:16Z</time>
      </trkpt>
      <trkpt lat="44.65681" lon="5.10478">
        <ele>404.06665</ele>
        <time>2015-05-24T08:44:28Z</time>
      </trkpt>
      <trkpt lat="44.65685" lon="5.10543">
        <ele>401.070923</ele>
        <time>2015-05-24T08:44:42Z</time>
      </trkpt>
      <trkpt lat="44.65682" lon="5.10605">
        <ele>402.130005</ele>
        <time>2015-05-24T08:44:54Z</time>
      </trkpt>
      <trkpt lat="44.65674" lon="5.10664">
        <ele>407.327515</ele>
        <time>2015-05-24T08:45:06Z</time>
      </trkpt>
      <trkpt lat="44.65665" lon="5.10713">
        <ele>411.95694</ele>
        <time>2015-05-24T08:45:15Z</time>
      </trkpt>
      <trkpt lat="44.65669" lon="5.10774">
        <ele>409.915253</ele>
        <time>2015-05-24T08:45:27Z</time>
      </trkpt>
      <trkpt lat="44.65684" lon="5.10839">
        <ele>405.552399</ele>
        <time>2015-05-24T08:45:40Z</time>
      </trkpt>
      <trkpt lat="44.65689" lon="5.10917">
        <ele>405.065582</ele>
        <time>2015-05-24T08:45:55Z</time>
      </trkpt>
      <trkpt lat="44.65695" lon="5.10963">
        <ele>406.172485</ele>
        <time>2015-05-24T08:46:05Z</time>
      </trkpt>
      <trkpt lat="44.65696" lon="5.10964">
        <ele>406.17749</ele>
        <time>2015-05-24T08:46:06Z</time>
      </trkpt>
      <trkpt lat="44.65698" lon="5.10963">
        <ele>406.140015</ele>
        <time>2015-05-24T08:46:07Z</time>
      </trkpt>
      <trkpt lat="44.65699" lon="5.10961">
        <ele>406.092499</ele>
        <time>2015-05-24T08:46:08Z</time>
      </trkpt>
      <trkpt lat="44.657" lon="5.1096">
        <ele>406.040009</ele>
        <time>2015-05-24T08:46:09Z</time>
      </trkpt>
      <trkpt lat="44.65701" lon="5.10958">
        <ele>405.98999</ele>
        <time>2015-05-24T08:46:10Z</time>
      </trkpt>
      <trkpt lat="44.65698" lon="5.10956">
        <ele>405.932495</ele>
        <time>2015-05-24T08:46:25Z</time>
      </trkpt>
      <trkpt lat="44.65699" lon="5.10954">
        <ele>405.872498</ele>
        <time>2015-05-24T08:46:31Z</time>
      </trkpt>
      <trkpt lat="44.65715" lon="5.10957">
        <ele>405.929993</ele>
        <time>2015-05-24T08:46:40Z</time>
      </trkpt>
      <trkpt lat="44.65749" lon="5.10967">
        <ele>407.486359</ele>
        <time>2015-05-24T08:46:52Z</time>
      </trkpt>
      <trkpt lat="44.65764" lon="5.10965">
        <ele>408.238129</ele>
        <time>2015-05-24T08:46:58Z</time>
      </trkpt>
      <trkpt lat="44.65771" lon="5.10957">
        <ele>408.540009</ele>
        <time>2015-05-24T08:47:02Z</time>
      </trkpt>
      <trkpt lat="44.65778" lon="5.10948">
        <ele>409.121246</ele>
        <time>2015-05-24T08:47:11Z</time>
      </trkpt>
      <trkpt lat="44.65778" lon="5.10948">
        <ele>409.121246</ele>
        <time>2015-05-24T08:47:12Z</time>
      </trkpt>
      <trkpt lat="44.65778" lon="5.10947">
        <ele>409.141235</ele>
        <time>2015-05-24T08:47:17Z</time>
      </trkpt>
      <trkpt lat="44.65778" lon="5.10947">
        <ele>409.152496</ele>
        <time>2015-05-24T08:47:18Z</time>
      </trkpt>
      <trkpt lat="44.65778" lon="5.10947">
        <ele>409.162506</ele>
        <time>2015-05-24T08:47:20Z</time>
      </trkpt>
      <trkpt lat="44.65778" lon="5.10947">
        <ele>409.163757</ele>
        <time>2015-05-24T08:47:21Z</time>
      </trkpt>
      <trkpt lat="44.65778" lon="5.10947">
        <ele>409.17627</ele>
        <time>2015-05-24T08:47:22Z</time>
      </trkpt>
      <trkpt lat="44.65778" lon="5.10947">
        <ele>409.17627</ele>
        <time>2015-05-24T08:47:23Z</time>
      </trkpt>
      <trkpt lat="44.65778" lon="5.10947">
        <ele>409.184998</ele>
        <time>2015-05-24T08:47:28Z</time>
      </trkpt>
      <trkpt lat="44.65778" lon="5.10947">
        <ele>409.184998</ele>
        <time>2015-05-24T08:47:29Z</time>
      </trkpt>
      <trkpt lat="44.65778" lon="5.10947">
        <ele>409.183746</ele>
        <time>2015-05-24T08:47:30Z</time>
      </trkpt>
      <trkpt lat="44.65778" lon="5.10947">
        <ele>409.183746</ele>
        <time>2015-05-24T08:47:31Z</time>
      </trkpt>
      <trkpt lat="44.65778" lon="5.10947">
        <ele>409.172516</ele>
        <time>2015-05-24T08:47:32Z</time>
      </trkpt>
      <trkpt lat="44.65778" lon="5.10947">
        <ele>409.182495</ele>
        <time>2015-05-24T08:47:33Z</time>
      </trkpt>
      <trkpt lat="44.65781" lon="5.10941">
        <ele>409.320007</ele>
        <time>2015-05-24T08:47:35Z</time>
      </trkpt>
      <trkpt lat="44.65788" lon="5.10922">
        <ele>409.652496</ele>
        <time>2015-05-24T08:47:39Z</time>
      </trkpt>
      <trkpt lat="44.6579" lon="5.10917">
        <ele>409.69751</ele>
        <time>2015-05-24T08:47:40Z</time>
      </trkpt>
      <trkpt lat="44.6581" lon="5.10853">
        <ele>409.600006</ele>
        <time>2015-05-24T08:47:51Z</time>
      </trkpt>
      <trkpt lat="44.65811" lon="5.10847">
        <ele>409.565002</ele>
        <time>2015-05-24T08:47:52Z</time>
      </trkpt>
      <trkpt lat="44.65813" lon="5.10841">
        <ele>409.545013</ele>
        <time>2015-05-24T08:47:53Z</time>
      </trkpt>
      <trkpt lat="44.65814" lon="5.10836">
        <ele>409.55249</ele>
        <time>2015-05-24T08:47:54Z</time>
      </trkpt>
      <trkpt lat="44.65816" lon="5.10831">
        <ele>409.55249</ele>
        <time>2015-05-24T08:47:55Z</time>
      </trkpt>
      <trkpt lat="44.65817" lon="5.10828">
        <ele>409.5625</ele>
        <time>2015-05-24T08:47:56Z</time>
      </trkpt>
      <trkpt lat="44.65834" lon="5.10773">
        <ele>410.139984</ele>
        <time>2015-05-24T08:48:09Z</time>
      </trkpt>
      <trkpt lat="44.65851" lon="5.10723">
        <ele>410.945007</ele>
        <time>2015-05-24T08:48:23Z</time>
      </trkpt>
      <trkpt lat="44.65857" lon="5.10684">
        <ele>410.464996</ele>
        <time>2015-05-24T08:48:34Z</time>
      </trkpt>
      <trkpt lat="44.6587" lon="5.10636">
        <ele>410.958252</ele>
        <time>2015-05-24T08:48:48Z</time>
      </trkpt>
      <trkpt lat="44.65889" lon="5.10611">
        <ele>413.982605</ele>
        <time>2015-05-24T08:48:58Z</time>
      </trkpt>
      <trkpt lat="44.65907" lon="5.10582">
        <ele>415.412231</ele>
        <time>2015-05-24T08:49:10Z</time>
      </trkpt>
      <trkpt lat="44.65929" lon="5.10549">
        <ele>416.352386</ele>
        <time>2015-05-24T08:49:21Z</time>
      </trkpt>
      <trkpt lat="44.65945" lon="5.1052">
        <ele>415.910736</ele>
        <time>2015-05-24T08:49:31Z</time>
      </trkpt>
      <trkpt lat="44.65946" lon="5.10518">
        <ele>415.835968</ele>
        <time>2015-05-24T08:49:32Z</time>
      </trkpt>
      <trkpt lat="44.65947" lon="5.10515">
        <ele>415.743927</ele>
        <time>2015-05-24T08:49:33Z</time>
      </trkpt>
      <trkpt lat="44.65949" lon="5.10509">
        <ele>415.40271</ele>
        <time>2015-05-24T08:49:35Z</time>
      </trkpt>
      <trkpt lat="44.6595" lon="5.10506">
        <ele>415.199707</ele>
        <time>2015-05-24T08:49:36Z</time>
      </trkpt>
      <trkpt lat="44.65953" lon="5.10501">
        <ele>415.047455</ele>
        <time>2015-05-24T08:49:38Z</time>
      </trkpt>
      <trkpt lat="44.65971" lon="5.10474">
        <ele>417.548157</ele>
        <time>2015-05-24T08:49:49Z</time>
      </trkpt>
      <trkpt lat="44.65988" lon="5.10449">
        <ele>420.264252</ele>
        <time>2015-05-24T08:49:59Z</time>
      </trkpt>
      <trkpt lat="44.66005" lon="5.1043">
        <ele>423.468048</ele>
        <time>2015-05-24T08:50:09Z</time>
      </trkpt>
      <trkpt lat="44.66009" lon="5.10422">
        <ele>424.494995</ele>
        <time>2015-05-24T08:50:12Z</time>
      </trkpt>
      <trkpt lat="44.66013" lon="5.10414">
        <ele>425.512512</ele>
        <time>2015-05-24T08:50:14Z</time>
      </trkpt>
      <trkpt lat="44.66014" lon="5.10411">
        <ele>425.959991</ele>
        <time>2015-05-24T08:50:15Z</time>
      </trkpt>
      <trkpt lat="44.66016" lon="5.10406">
        <ele>426.488739</ele>
        <time>2015-05-24T08:50:17Z</time>
      </trkpt>
      <trkpt lat="44.66018" lon="5.10403">
        <ele>426.926239</ele>
        <time>2015-05-24T08:50:18Z</time>
      </trkpt>
      <trkpt lat="44.66019" lon="5.104">
        <ele>427.39624</ele>
        <time>2015-05-24T08:50:19Z</time>
      </trkpt>
      <trkpt lat="44.66021" lon="5.10396">
        <ele>427.878754</ele>
        <time>2015-05-24T08:50:20Z</time>
      </trkpt>
      <trkpt lat="44.66024" lon="5.10388">
        <ele>428.877502</ele>
        <time>2015-05-24T08:50:23Z</time>
      </trkpt>
      <trkpt lat="44.66025" lon="5.10386">
        <ele>429.149994</ele>
        <time>2015-05-24T08:50:24Z</time>
      </trkpt>
      <trkpt lat="44.66027" lon="5.10384">
        <ele>429.605011</ele>
        <time>2015-05-24T08:50:25Z</time>
      </trkpt>
      <trkpt lat="44.66029" lon="5.10379">
        <ele>430.25</ele>
        <time>2015-05-24T08:50:27Z</time>
      </trkpt>
      <trkpt lat="44.6603" lon="5.10376">
        <ele>430.60376</ele>
        <time>2015-05-24T08:50:28Z</time>
      </trkpt>
      <trkpt lat="44.66032" lon="5.10374">
        <ele>430.915009</ele>
        <time>2015-05-24T08:50:29Z</time>
      </trkpt>
      <trkpt lat="44.66032" lon="5.10373">
        <ele>431.081238</ele>
        <time>2015-05-24T08:50:30Z</time>
      </trkpt>
      <trkpt lat="44.66034" lon="5.10369">
        <ele>431.535004</ele>
        <time>2015-05-24T08:50:31Z</time>
      </trkpt>
      <trkpt lat="44.66034" lon="5.10367">
        <ele>431.767517</ele>
        <time>2015-05-24T08:50:32Z</time>
      </trkpt>
      <trkpt lat="44.66036" lon="5.10364">
        <ele>432.179993</ele>
        <time>2015-05-24T08:50:33Z</time>
      </trkpt>
      <trkpt lat="44.66037" lon="5.10361">
        <ele>432.613739</ele>
        <time>2015-05-24T08:50:34Z</time>
      </trkpt>
      <trkpt lat="44.6604" lon="5.10356">
        <ele>433.421265</ele>
        <time>2015-05-24T08:50:36Z</time>
      </trkpt>
      <trkpt lat="44.66042" lon="5.10353">
        <ele>433.862488</ele>
        <time>2015-05-24T08:50:37Z</time>
      </trkpt>
      <trkpt lat="44.66044" lon="5.1035">
        <ele>434.506256</ele>
        <time>2015-05-24T08:50:38Z</time>
      </trkpt>
      <trkpt lat="44.66046" lon="5.10346">
        <ele>434.957489</ele>
        <time>2015-05-24T08:50:39Z</time>
      </trkpt>
      <trkpt lat="44.66047" lon="5.10343">
        <ele>435.276245</ele>
        <time>2015-05-24T08:50:40Z</time>
      </trkpt>
      <trkpt lat="44.66051" lon="5.10325">
        <ele>436.678741</ele>
        <time>2015-05-24T08:50:46Z</time>
      </trkpt>
      <trkpt lat="44.66049" lon="5.10303">
        <ele>435.887146</ele>
        <time>2015-05-24T08:50:53Z</time>
      </trkpt>
      <trkpt lat="44.66049" lon="5.103">
        <ele>435.824799</ele>
        <time>2015-05-24T08:50:54Z</time>
      </trkpt>
      <trkpt lat="44.66049" lon="5.10297">
        <ele>435.613434</ele>
        <time>2015-05-24T08:50:55Z</time>
      </trkpt>
      <trkpt lat="44.66047" lon="5.10289">
        <ele>434.922791</ele>
        <time>2015-05-24T08:50:57Z</time>
      </trkpt>
      <trkpt lat="44.66047" lon="5.10286">
        <ele>434.75946</ele>
        <time>2015-05-24T08:50:58Z</time>
      </trkpt>
      <trkpt lat="44.66044" lon="5.10272">
        <ele>433.578522</ele>
        <time>2015-05-24T08:51:03Z</time>
      </trkpt>
      <trkpt lat="44.66043" lon="5.10269">
        <ele>433.428131</ele>
        <time>2015-05-24T08:51:04Z</time>
      </trkpt>
      <trkpt lat="44.66042" lon="5.10266">
        <ele>433.10791</ele>
        <time>2015-05-24T08:51:05Z</time>
      </trkpt>
      <trkpt lat="44.66044" lon="5.10232">
        <ele>431.390015</ele>
        <time>2015-05-24T08:51:16Z</time>
      </trkpt>
      <trkpt lat="44.66045" lon="5.1023">
        <ele>431.417511</ele>
        <time>2015-05-24T08:51:17Z</time>
      </trkpt>
      <trkpt lat="44.66065" lon="5.10205">
        <ele>433.894775</ele>
        <time>2015-05-24T08:51:30Z</time>
      </trkpt>
      <trkpt lat="44.6609" lon="5.10195">
        <ele>437.691437</ele>
        <time>2015-05-24T08:51:42Z</time>
      </trkpt>
      <trkpt lat="44.6611" lon="5.10193">
        <ele>441.500977</ele>
        <time>2015-05-24T08:51:52Z</time>
      </trkpt>
      <trkpt lat="44.66138" lon="5.10182">
        <ele>445.272522</ele>
        <time>2015-05-24T08:52:04Z</time>
      </trkpt>
      <trkpt lat="44.66165" lon="5.10173">
        <ele>448.917328</ele>
        <time>2015-05-24T08:52:17Z</time>
      </trkpt>
      <trkpt lat="44.66178" lon="5.10171">
        <ele>450.987122</ele>
        <time>2015-05-24T08:52:23Z</time>
      </trkpt>
      <trkpt lat="44.66182" lon="5.10169">
        <ele>451.470062</ele>
        <time>2015-05-24T08:52:25Z</time>
      </trkpt>
      <trkpt lat="44.66184" lon="5.10168">
        <ele>451.449249</ele>
        <time>2015-05-24T08:52:26Z</time>
      </trkpt>
      <trkpt lat="44.66186" lon="5.10165">
        <ele>451.297485</ele>
        <time>2015-05-24T08:52:27Z</time>
      </trkpt>
      <trkpt lat="44.66191" lon="5.10158">
        <ele>450.988129</ele>
        <time>2015-05-24T08:52:30Z</time>
      </trkpt>
      <trkpt lat="44.66212" lon="5.10136">
        <ele>449.824066</ele>
        <time>2015-05-24T08:52:41Z</time>
      </trkpt>
      <trkpt lat="44.66218" lon="5.10131">
        <ele>449.612488</ele>
        <time>2015-05-24T08:52:45Z</time>
      </trkpt>
      <trkpt lat="44.66235" lon="5.10116">
        <ele>449.170013</ele>
        <time>2015-05-24T08:52:55Z</time>
      </trkpt>
      <trkpt lat="44.66241" lon="5.10109">
        <ele>448.644989</ele>
        <time>2015-05-24T08:52:59Z</time>
      </trkpt>
      <trkpt lat="44.66263" lon="5.10099">
        <ele>449.98999</ele>
        <time>2015-05-24T08:53:09Z</time>
      </trkpt>
      <trkpt lat="44.66265" lon="5.10098">
        <ele>450.175018</ele>
        <time>2015-05-24T08:53:10Z</time>
      </trkpt>
      <trkpt lat="44.66268" lon="5.10097">
        <ele>450.463745</ele>
        <time>2015-05-24T08:53:11Z</time>
      </trkpt>
      <trkpt lat="44.66293" lon="5.10075">
        <ele>450.152496</ele>
        <time>2015-05-24T08:53:24Z</time>
      </trkpt>
      <trkpt lat="44.6631" lon="5.10062">
        <ele>450.452667</ele>
        <time>2015-05-24T08:53:33Z</time>
      </trkpt>
      <trkpt lat="44.66323" lon="5.10065">
        <ele>452.539276</ele>
        <time>2015-05-24T08:53:39Z</time>
      </trkpt>
      <trkpt lat="44.66326" lon="5.10067">
        <ele>453.060974</ele>
        <time>2015-05-24T08:53:40Z</time>
      </trkpt>
      <trkpt lat="44.66351" lon="5.10083">
        <ele>458.737274</ele>
        <time>2015-05-24T08:53:52Z</time>
      </trkpt>
      <trkpt lat="44.66376" lon="5.10077">
        <ele>460.770966</ele>
        <time>2015-05-24T08:54:03Z</time>
      </trkpt>
      <trkpt lat="44.66382" lon="5.10072">
        <ele>461.078766</ele>
        <time>2015-05-24T08:54:06Z</time>
      </trkpt>
      <trkpt lat="44.66401" lon="5.10031">
        <ele>458.846802</ele>
        <time>2015-05-24T08:54:21Z</time>
      </trkpt>
      <trkpt lat="44.66424" lon="5.10001">
        <ele>458.753754</ele>
        <time>2015-05-24T08:54:34Z</time>
      </trkpt>
      <trkpt lat="44.66447" lon="5.09973">
        <ele>460.950012</ele>
        <time>2015-05-24T08:54:47Z</time>
      </trkpt>
      <trkpt lat="44.66459" lon="5.09954">
        <ele>461.650757</ele>
        <time>2015-05-24T08:54:55Z</time>
      </trkpt>
      <trkpt lat="44.66461" lon="5.09953">
        <ele>461.985504</ele>
        <time>2015-05-24T08:54:56Z</time>
      </trkpt>
      <trkpt lat="44.66463" lon="5.09953">
        <ele>462.440735</ele>
        <time>2015-05-24T08:54:57Z</time>
      </trkpt>
      <trkpt lat="44.66465" lon="5.09955">
        <ele>462.939728</ele>
        <time>2015-05-24T08:54:58Z</time>
      </trkpt>
      <trkpt lat="44.66468" lon="5.09962">
        <ele>464.207489</ele>
        <time>2015-05-24T08:55:01Z</time>
      </trkpt>
      <trkpt lat="44.66468" lon="5.09966">
        <ele>464.380005</ele>
        <time>2015-05-24T08:55:02Z</time>
      </trkpt>
      <trkpt lat="44.66467" lon="5.09969">
        <ele>464.42749</ele>
        <time>2015-05-24T08:55:03Z</time>
      </trkpt>
      <trkpt lat="44.6645" lon="5.1">
        <ele>463.875</ele>
        <time>2015-05-24T08:55:15Z</time>
      </trkpt>
      <trkpt lat="44.66446" lon="5.10014">
        <ele>464.142487</ele>
        <time>2015-05-24T08:55:20Z</time>
      </trkpt>
      <trkpt lat="44.66431" lon="5.10052">
        <ele>466.036377</ele>
        <time>2015-05-24T08:55:35Z</time>
      </trkpt>
      <trkpt lat="44.66413" lon="5.10078">
        <ele>466.448059</ele>
        <time>2015-05-24T08:55:46Z</time>
      </trkpt>
      <trkpt lat="44.66405" lon="5.10117">
        <ele>472.752502</ele>
        <time>2015-05-24T08:55:59Z</time>
      </trkpt>
      <trkpt lat="44.66392" lon="5.10145">
        <ele>476.720947</ele>
        <time>2015-05-24T08:56:12Z</time>
      </trkpt>
      <trkpt lat="44.66365" lon="5.10137">
        <ele>470.944611</ele>
        <time>2015-05-24T08:56:25Z</time>
      </trkpt>
      <trkpt lat="44.66361" lon="5.10135">
        <ele>469.994385</ele>
        <time>2015-05-24T08:56:27Z</time>
      </trkpt>
      <trkpt lat="44.66359" lon="5.10135">
        <ele>469.566101</ele>
        <time>2015-05-24T08:56:28Z</time>
      </trkpt>
      <trkpt lat="44.66343" lon="5.1015">
        <ele>470.906982</ele>
        <time>2015-05-24T08:56:40Z</time>
      </trkpt>
      <trkpt lat="44.66334" lon="5.10176">
        <ele>476.335815</ele>
        <time>2015-05-24T08:56:50Z</time>
      </trkpt>
      <trkpt lat="44.66312" lon="5.10198">
        <ele>478.350403</ele>
        <time>2015-05-24T08:57:04Z</time>
      </trkpt>
      <trkpt lat="44.66284" lon="5.10226">
        <ele>481.378204</ele>
        <time>2015-05-24T08:57:19Z</time>
      </trkpt>
      <trkpt lat="44.66264" lon="5.10236">
        <ele>480.171082</ele>
        <time>2015-05-24T08:57:29Z</time>
      </trkpt>
      <trkpt lat="44.66262" lon="5.10238">
        <ele>480.354614</ele>
        <time>2015-05-24T08:57:30Z</time>
      </trkpt>
      <trkpt lat="44.6626" lon="5.1024">
        <ele>480.399994</ele>
        <time>2015-05-24T08:57:31Z</time>
      </trkpt>
      <trkpt lat="44.66258" lon="5.1024">
        <ele>480.194214</ele>
        <time>2015-05-24T08:57:32Z</time>
      </trkpt>
      <trkpt lat="44.66246" lon="5.10274">
        <ele>484.417725</ele>
        <time>2015-05-24T08:57:43Z</time>
      </trkpt>
      <trkpt lat="44.66237" lon="5.10308">
        <ele>487.306854</ele>
        <time>2015-05-24T08:57:55Z</time>
      </trkpt>
      <trkpt lat="44.66224" lon="5.10344">
        <ele>488.753235</ele>
        <time>2015-05-24T08:58:07Z</time>
      </trkpt>
      <trkpt lat="44.6621" lon="5.10382">
        <ele>490.049561</ele>
        <time>2015-05-24T08:58:19Z</time>
      </trkpt>
      <trkpt lat="44.66195" lon="5.10423">
        <ele>488.343201</ele>
        <time>2015-05-24T08:58:32Z</time>
      </trkpt>
      <trkpt lat="44.66209" lon="5.10465">
        <ele>498.175537</ele>
        <time>2015-05-24T08:58:45Z</time>
      </trkpt>
      <trkpt lat="44.66208" lon="5.10481">
        <ele>499.907776</ele>
        <time>2015-05-24T08:58:50Z</time>
      </trkpt>
      <trkpt lat="44.66205" lon="5.10485">
        <ele>499.352539</ele>
        <time>2015-05-24T08:58:52Z</time>
      </trkpt>
      <trkpt lat="44.66203" lon="5.10487">
        <ele>498.789673</ele>
        <time>2015-05-24T08:58:53Z</time>
      </trkpt>
      <trkpt lat="44.66177" lon="5.10518">
        <ele>491.799011</ele>
        <time>2015-05-24T08:59:06Z</time>
      </trkpt>
      <trkpt lat="44.6616" lon="5.10552">
        <ele>489.381378</ele>
        <time>2015-05-24T08:59:19Z</time>
      </trkpt>
      <trkpt lat="44.66171" lon="5.10585">
        <ele>496.672485</ele>
        <time>2015-05-24T08:59:29Z</time>
      </trkpt>
      <trkpt lat="44.66178" lon="5.10626">
        <ele>500.775543</ele>
        <time>2015-05-24T08:59:41Z</time>
      </trkpt>
      <trkpt lat="44.66176" lon="5.10662">
        <ele>500.313751</ele>
        <time>2015-05-24T08:59:53Z</time>
      </trkpt>
      <trkpt lat="44.66172" lon="5.10703">
        <ele>499.342499</ele>
        <time>2015-05-24T09:00:05Z</time>
      </trkpt>
      <trkpt lat="44.66164" lon="5.10746">
        <ele>502.402496</ele>
        <time>2015-05-24T09:00:16Z</time>
      </trkpt>
      <trkpt lat="44.66145" lon="5.10784">
        <ele>503.199982</ele>
        <time>2015-05-24T09:00:29Z</time>
      </trkpt>
      <trkpt lat="44.66116" lon="5.10804">
        <ele>498.811646</ele>
        <time>2015-05-24T09:00:41Z</time>
      </trkpt>
      <trkpt lat="44.66086" lon="5.10813">
        <ele>491.061646</ele>
        <time>2015-05-24T09:00:53Z</time>
      </trkpt>
      <trkpt lat="44.66071" lon="5.10845">
        <ele>489.156738</ele>
        <time>2015-05-24T09:01:05Z</time>
      </trkpt>
      <trkpt lat="44.66086" lon="5.10869">
        <ele>497.658997</ele>
        <time>2015-05-24T09:01:16Z</time>
      </trkpt>
      <trkpt lat="44.66089" lon="5.10876">
        <ele>499.842529</ele>
        <time>2015-05-24T09:01:19Z</time>
      </trkpt>
      <trkpt lat="44.66089" lon="5.10878">
        <ele>500.276733</ele>
        <time>2015-05-24T09:01:20Z</time>
      </trkpt>
      <trkpt lat="44.6609" lon="5.10881">
        <ele>500.994415</ele>
        <time>2015-05-24T09:01:21Z</time>
      </trkpt>
      <trkpt lat="44.66091" lon="5.10884">
        <ele>501.524384</ele>
        <time>2015-05-24T09:01:22Z</time>
      </trkpt>
      <trkpt lat="44.66091" lon="5.10887">
        <ele>501.748291</ele>
        <time>2015-05-24T09:01:23Z</time>
      </trkpt>
      <trkpt lat="44.66091" lon="5.1089">
        <ele>501.97348</ele>
        <time>2015-05-24T09:01:24Z</time>
      </trkpt>
      <trkpt lat="44.66091" lon="5.10893">
        <ele>501.987244</ele>
        <time>2015-05-24T09:01:25Z</time>
      </trkpt>
      <trkpt lat="44.66091" lon="5.10895">
        <ele>502.216248</ele>
        <time>2015-05-24T09:01:26Z</time>
      </trkpt>
      <trkpt lat="44.66092" lon="5.10899">
        <ele>502.522339</ele>
        <time>2015-05-24T09:01:27Z</time>
      </trkpt>
      <trkpt lat="44.66093" lon="5.10911">
        <ele>503.399139</ele>
        <time>2015-05-24T09:01:31Z</time>
      </trkpt>
      <trkpt lat="44.66092" lon="5.10914">
        <ele>503.201599</ele>
        <time>2015-05-24T09:01:32Z</time>
      </trkpt>
      <trkpt lat="44.66092" lon="5.10917">
        <ele>503.371155</ele>
        <time>2015-05-24T09:01:33Z</time>
      </trkpt>
      <trkpt lat="44.66092" lon="5.1092">
        <ele>503.389954</ele>
        <time>2015-05-24T09:01:34Z</time>
      </trkpt>
      <trkpt lat="44.66092" lon="5.10923">
        <ele>503.331879</ele>
        <time>2015-05-24T09:01:35Z</time>
      </trkpt>
      <trkpt lat="44.66093" lon="5.10944">
        <ele>504.559082</ele>
        <time>2015-05-24T09:01:41Z</time>
      </trkpt>
      <trkpt lat="44.66072" lon="5.10968">
        <ele>501.844452</ele>
        <time>2015-05-24T09:01:53Z</time>
      </trkpt>
      <trkpt lat="44.66045" lon="5.10993">
        <ele>497.182129</ele>
        <time>2015-05-24T09:02:06Z</time>
      </trkpt>
      <trkpt lat="44.66027" lon="5.11038">
        <ele>497.513092</ele>
        <time>2015-05-24T09:02:21Z</time>
      </trkpt>
      <trkpt lat="44.66034" lon="5.11075">
        <ele>506.39444</ele>
        <time>2015-05-24T09:02:33Z</time>
      </trkpt>
      <trkpt lat="44.66035" lon="5.11078">
        <ele>507.57196</ele>
        <time>2015-05-24T09:02:34Z</time>
      </trkpt>
      <trkpt lat="44.66036" lon="5.11081">
        <ele>508.661987</ele>
        <time>2015-05-24T09:02:35Z</time>
      </trkpt>
      <trkpt lat="44.66038" lon="5.11101">
        <ele>514.353638</ele>
        <time>2015-05-24T09:02:42Z</time>
      </trkpt>
      <trkpt lat="44.66037" lon="5.11104">
        <ele>514.378479</ele>
        <time>2015-05-24T09:02:43Z</time>
      </trkpt>
      <trkpt lat="44.66036" lon="5.11107">
        <ele>514.203674</ele>
        <time>2015-05-24T09:02:44Z</time>
      </trkpt>
      <trkpt lat="44.66034" lon="5.11109">
        <ele>513.846558</ele>
        <time>2015-05-24T09:02:45Z</time>
      </trkpt>
      <trkpt lat="44.66032" lon="5.11111">
        <ele>513.4422</ele>
        <time>2015-05-24T09:02:46Z</time>
      </trkpt>
      <trkpt lat="44.66031" lon="5.11113">
        <ele>513.097168</ele>
        <time>2015-05-24T09:02:47Z</time>
      </trkpt>
      <trkpt lat="44.66028" lon="5.11114">
        <ele>512.523254</ele>
        <time>2015-05-24T09:02:48Z</time>
      </trkpt>
      <trkpt lat="44.66026" lon="5.11116">
        <ele>511.965973</ele>
        <time>2015-05-24T09:02:49Z</time>
      </trkpt>
      <trkpt lat="44.66024" lon="5.11117">
        <ele>511.635895</ele>
        <time>2015-05-24T09:02:50Z</time>
      </trkpt>
      <trkpt lat="44.66012" lon="5.11125">
        <ele>509.366089</ele>
        <time>2015-05-24T09:02:56Z</time>
      </trkpt>
      <trkpt lat="44.66011" lon="5.11126">
        <ele>509.198822</ele>
        <time>2015-05-24T09:02:57Z</time>
      </trkpt>
      <trkpt lat="44.66009" lon="5.11128">
        <ele>508.974457</ele>
        <time>2015-05-24T09:02:58Z</time>
      </trkpt>
      <trkpt lat="44.66007" lon="5.11129">
        <ele>508.623383</ele>
        <time>2015-05-24T09:02:59Z</time>
      </trkpt>
      <trkpt lat="44.66004" lon="5.1113">
        <ele>508.307861</ele>
        <time>2015-05-24T09:03:00Z</time>
      </trkpt>
      <trkpt lat="44.65976" lon="5.11141">
        <ele>502.441864</ele>
        <time>2015-05-24T09:03:13Z</time>
      </trkpt>
      <trkpt lat="44.65961" lon="5.11149">
        <ele>498.945923</ele>
        <time>2015-05-24T09:03:20Z</time>
      </trkpt>
      <trkpt lat="44.6596" lon="5.11152">
        <ele>498.85199</ele>
        <time>2015-05-24T09:03:21Z</time>
      </trkpt>
      <trkpt lat="44.65959" lon="5.11156">
        <ele>498.94812</ele>
        <time>2015-05-24T09:03:22Z</time>
      </trkpt>
      <trkpt lat="44.65958" lon="5.11159">
        <ele>499.245575</ele>
        <time>2015-05-24T09:03:23Z</time>
      </trkpt>
      <trkpt lat="44.65958" lon="5.11163">
        <ele>499.722687</ele>
        <time>2015-05-24T09:03:24Z</time>
      </trkpt>
      <trkpt lat="44.65959" lon="5.11166">
        <ele>500.481995</ele>
        <time>2015-05-24T09:03:25Z</time>
      </trkpt>
      <trkpt lat="44.6596" lon="5.11169">
        <ele>501.310974</ele>
        <time>2015-05-24T09:03:26Z</time>
      </trkpt>
      <trkpt lat="44.65961" lon="5.11172">
        <ele>502.14505</ele>
        <time>2015-05-24T09:03:27Z</time>
      </trkpt>
      <trkpt lat="44.65963" lon="5.11175">
        <ele>503.050415</ele>
        <time>2015-05-24T09:03:28Z</time>
      </trkpt>
      <trkpt lat="44.65964" lon="5.11177">
        <ele>504.020508</ele>
        <time>2015-05-24T09:03:29Z</time>
      </trkpt>
      <trkpt lat="44.65966" lon="5.11179">
        <ele>505.09729</ele>
        <time>2015-05-24T09:03:30Z</time>
      </trkpt>
      <trkpt lat="44.65968" lon="5.11181">
        <ele>506.246857</ele>
        <time>2015-05-24T09:03:31Z</time>
      </trkpt>
      <trkpt lat="44.65969" lon="5.11183">
        <ele>507.289948</ele>
        <time>2015-05-24T09:03:32Z</time>
      </trkpt>
      <trkpt lat="44.65983" lon="5.11211">
        <ele>513.056885</ele>
        <time>2015-05-24T09:03:43Z</time>
      </trkpt>
      <trkpt lat="44.65996" lon="5.11248">
        <ele>515.123901</ele>
        <time>2015-05-24T09:03:56Z</time>
      </trkpt>
      <trkpt lat="44.6601" lon="5.11283">
        <ele>521.423218</ele>
        <time>2015-05-24T09:04:08Z</time>
      </trkpt>
      <trkpt lat="44.66024" lon="5.11319">
        <ele>523.856018</ele>
        <time>2015-05-24T09:04:20Z</time>
      </trkpt>
      <trkpt lat="44.66007" lon="5.11349">
        <ele>519.994995</ele>
        <time>2015-05-24T09:04:31Z</time>
      </trkpt>
      <trkpt lat="44.65987" lon="5.11385">
        <ele>517.110779</ele>
        <time>2015-05-24T09:04:43Z</time>
      </trkpt>
      <trkpt lat="44.65988" lon="5.1142">
        <ele>525.640381</ele>
        <time>2015-05-24T09:04:54Z</time>
      </trkpt>
      <trkpt lat="44.65986" lon="5.11421">
        <ele>525.132568</ele>
        <time>2015-05-24T09:04:55Z</time>
      </trkpt>
      <trkpt lat="44.65984" lon="5.11422">
        <ele>524.499084</ele>
        <time>2015-05-24T09:04:56Z</time>
      </trkpt>
      <trkpt lat="44.65983" lon="5.11422">
        <ele>523.857239</ele>
        <time>2015-05-24T09:04:57Z</time>
      </trkpt>
      <trkpt lat="44.65981" lon="5.11422">
        <ele>523.47113</ele>
        <time>2015-05-24T09:04:58Z</time>
      </trkpt>
      <trkpt lat="44.65979" lon="5.11421">
        <ele>523.085693</ele>
        <time>2015-05-24T09:04:59Z</time>
      </trkpt>
      <trkpt lat="44.65942" lon="5.11413">
        <ele>515.77887</ele>
        <time>2015-05-24T09:05:11Z</time>
      </trkpt>
      <trkpt lat="44.65916" lon="5.11427">
        <ele>514.066345</ele>
        <time>2015-05-24T09:05:22Z</time>
      </trkpt>
      <trkpt lat="44.65911" lon="5.11465">
        <ele>516.717407</ele>
        <time>2015-05-24T09:05:34Z</time>
      </trkpt>
      <trkpt lat="44.6592" lon="5.11497">
        <ele>520.77594</ele>
        <time>2015-05-24T09:05:44Z</time>
      </trkpt>
      <trkpt lat="44.65938" lon="5.11525">
        <ele>530.349915</ele>
        <time>2015-05-24T09:05:55Z</time>
      </trkpt>
      <trkpt lat="44.65944" lon="5.11539">
        <ele>534.142944</ele>
        <time>2015-05-24T09:06:00Z</time>
      </trkpt>
      <trkpt lat="44.65942" lon="5.11559">
        <ele>533.893677</ele>
        <time>2015-05-24T09:06:07Z</time>
      </trkpt>
      <trkpt lat="44.65936" lon="5.11568">
        <ele>530.963989</ele>
        <time>2015-05-24T09:06:11Z</time>
      </trkpt>
      <trkpt lat="44.65911" lon="5.1159">
        <ele>531.483093</ele>
        <time>2015-05-24T09:06:24Z</time>
      </trkpt>
      <trkpt lat="44.6589" lon="5.11619">
        <ele>536.258728</ele>
        <time>2015-05-24T09:06:38Z</time>
      </trkpt>
      <trkpt lat="44.6587" lon="5.11637">
        <ele>535.331482</ele>
        <time>2015-05-24T09:06:50Z</time>
      </trkpt>
      <trkpt lat="44.65847" lon="5.11658">
        <ele>534.304688</ele>
        <time>2015-05-24T09:07:03Z</time>
      </trkpt>
      <trkpt lat="44.65846" lon="5.1166">
        <ele>534.291748</ele>
        <time>2015-05-24T09:07:04Z</time>
      </trkpt>
      <trkpt lat="44.65822" lon="5.11689">
        <ele>534.436768</ele>
        <time>2015-05-24T09:07:20Z</time>
      </trkpt>
      <trkpt lat="44.65804" lon="5.11719">
        <ele>536.078186</ele>
        <time>2015-05-24T09:07:35Z</time>
      </trkpt>
      <trkpt lat="44.6579" lon="5.11749">
        <ele>539.167175</ele>
        <time>2015-05-24T09:07:49Z</time>
      </trkpt>
      <trkpt lat="44.65789" lon="5.11787">
        <ele>539.569885</ele>
        <time>2015-05-24T09:08:03Z</time>
      </trkpt>
      <trkpt lat="44.65802" lon="5.11814">
        <ele>550.78772</ele>
        <time>2015-05-24T09:08:17Z</time>
      </trkpt>
      <trkpt lat="44.65811" lon="5.11843">
        <ele>565.415405</ele>
        <time>2015-05-24T09:08:30Z</time>
      </trkpt>
      <trkpt lat="44.65797" lon="5.11873">
        <ele>564.005981</ele>
        <time>2015-05-24T09:08:43Z</time>
      </trkpt>
      <trkpt lat="44.65776" lon="5.11882">
        <ele>555.720032</ele>
        <time>2015-05-24T09:08:55Z</time>
      </trkpt>
      <trkpt lat="44.65757" lon="5.11908">
        <ele>551.288757</ele>
        <time>2015-05-24T09:09:11Z</time>
      </trkpt>
      <trkpt lat="44.65757" lon="5.11927">
        <ele>554.904785</ele>
        <time>2015-05-24T09:09:19Z</time>
      </trkpt>
      <trkpt lat="44.65757" lon="5.11929">
        <ele>555.251648</ele>
        <time>2015-05-24T09:09:20Z</time>
      </trkpt>
      <trkpt lat="44.65757" lon="5.11932">
        <ele>555.900269</ele>
        <time>2015-05-24T09:09:21Z</time>
      </trkpt>
      <trkpt lat="44.65758" lon="5.11934">
        <ele>556.865173</ele>
        <time>2015-05-24T09:09:22Z</time>
      </trkpt>
      <trkpt lat="44.65759" lon="5.11936">
        <ele>557.991272</ele>
        <time>2015-05-24T09:09:23Z</time>
      </trkpt>
      <trkpt lat="44.65761" lon="5.11937">
        <ele>559.233582</ele>
        <time>2015-05-24T09:09:24Z</time>
      </trkpt>
      <trkpt lat="44.65762" lon="5.1194">
        <ele>559.982544</ele>
        <time>2015-05-24T09:09:25Z</time>
      </trkpt>
      <trkpt lat="44.65762" lon="5.11942">
        <ele>560.150696</ele>
        <time>2015-05-24T09:09:26Z</time>
      </trkpt>
      <trkpt lat="44.65763" lon="5.11945">
        <ele>560.540283</ele>
        <time>2015-05-24T09:09:27Z</time>
      </trkpt>
      <trkpt lat="44.65764" lon="5.11947">
        <ele>560.934692</ele>
        <time>2015-05-24T09:09:28Z</time>
      </trkpt>
      <trkpt lat="44.65778" lon="5.11971">
        <ele>568.030701</ele>
        <time>2015-05-24T09:09:42Z</time>
      </trkpt>
      <trkpt lat="44.6578" lon="5.11972">
        <ele>568.675171</ele>
        <time>2015-05-24T09:09:43Z</time>
      </trkpt>
      <trkpt lat="44.65781" lon="5.11973">
        <ele>569.469421</ele>
        <time>2015-05-24T09:09:44Z</time>
      </trkpt>
      <trkpt lat="44.65783" lon="5.11974">
        <ele>570.37323</ele>
        <time>2015-05-24T09:09:45Z</time>
      </trkpt>
      <trkpt lat="44.65784" lon="5.11975">
        <ele>571.117065</ele>
        <time>2015-05-24T09:09:46Z</time>
      </trkpt>
      <trkpt lat="44.65785" lon="5.11976">
        <ele>571.700989</ele>
        <time>2015-05-24T09:09:47Z</time>
      </trkpt>
      <trkpt lat="44.65793" lon="5.11981">
        <ele>575.625</ele>
        <time>2015-05-24T09:09:52Z</time>
      </trkpt>
      <trkpt lat="44.65794" lon="5.11983">
        <ele>576.116272</ele>
        <time>2015-05-24T09:09:53Z</time>
      </trkpt>
      <trkpt lat="44.65788" lon="5.12013">
        <ele>573.417786</ele>
        <time>2015-05-24T09:10:07Z</time>
      </trkpt>
      <trkpt lat="44.65781" lon="5.12023">
        <ele>574.001892</ele>
        <time>2015-05-24T09:10:12Z</time>
      </trkpt>
      <trkpt lat="44.6578" lon="5.12024">
        <ele>573.797363</ele>
        <time>2015-05-24T09:10:13Z</time>
      </trkpt>
      <trkpt lat="44.65779" lon="5.12026">
        <ele>573.800232</ele>
        <time>2015-05-24T09:10:14Z</time>
      </trkpt>
      <trkpt lat="44.65777" lon="5.12028">
        <ele>573.718689</ele>
        <time>2015-05-24T09:10:15Z</time>
      </trkpt>
      <trkpt lat="44.65776" lon="5.12029">
        <ele>573.495056</ele>
        <time>2015-05-24T09:10:16Z</time>
      </trkpt>
      <trkpt lat="44.65774" lon="5.1203">
        <ele>573.359802</ele>
        <time>2015-05-24T09:10:17Z</time>
      </trkpt>
      <trkpt lat="44.65756" lon="5.12049">
        <ele>572.172607</ele>
        <time>2015-05-24T09:10:30Z</time>
      </trkpt>
      <trkpt lat="44.65742" lon="5.12073">
        <ele>572.817139</ele>
        <time>2015-05-24T09:10:42Z</time>
      </trkpt>
      <trkpt lat="44.65743" lon="5.12073">
        <ele>573.317261</ele>
        <time>2015-05-24T09:10:53Z</time>
      </trkpt>
      <trkpt lat="44.65741" lon="5.12074">
        <ele>572.500916</ele>
        <time>2015-05-24T09:11:11Z</time>
      </trkpt>
      <trkpt lat="44.65733" lon="5.12091">
        <ele>570.607117</ele>
        <time>2015-05-24T09:11:23Z</time>
      </trkpt>
      <trkpt lat="44.65733" lon="5.12092">
        <ele>570.963257</ele>
        <time>2015-05-24T09:11:43Z</time>
      </trkpt>
      <trkpt lat="44.65732" lon="5.12106">
        <ele>572.560059</ele>
        <time>2015-05-24T09:12:03Z</time>
      </trkpt>
      <trkpt lat="44.65733" lon="5.12111">
        <ele>573.781677</ele>
        <time>2015-05-24T09:12:05Z</time>
      </trkpt>
      <trkpt lat="44.65733" lon="5.12114">
        <ele>574.566956</ele>
        <time>2015-05-24T09:12:06Z</time>
      </trkpt>
      <trkpt lat="44.65734" lon="5.12116">
        <ele>575.228943</ele>
        <time>2015-05-24T09:12:07Z</time>
      </trkpt>
      <trkpt lat="44.65735" lon="5.12119">
        <ele>576.072937</ele>
        <time>2015-05-24T09:12:08Z</time>
      </trkpt>
      <trkpt lat="44.65735" lon="5.12121">
        <ele>576.721008</ele>
        <time>2015-05-24T09:12:09Z</time>
      </trkpt>
      <trkpt lat="44.65736" lon="5.12123">
        <ele>577.516785</ele>
        <time>2015-05-24T09:12:10Z</time>
      </trkpt>
      <trkpt lat="44.65737" lon="5.12126">
        <ele>578.523621</ele>
        <time>2015-05-24T09:12:11Z</time>
      </trkpt>
      <trkpt lat="44.6575" lon="5.12156">
        <ele>588.079041</ele>
        <time>2015-05-24T09:12:25Z</time>
      </trkpt>
      <trkpt lat="44.65752" lon="5.12188">
        <ele>590.349792</ele>
        <time>2015-05-24T09:12:38Z</time>
      </trkpt>
      <trkpt lat="44.65738" lon="5.12215">
        <ele>586.466431</ele>
        <time>2015-05-24T09:12:50Z</time>
      </trkpt>
      <trkpt lat="44.65736" lon="5.12221">
        <ele>586.397339</ele>
        <time>2015-05-24T09:12:53Z</time>
      </trkpt>
      <trkpt lat="44.65732" lon="5.12233">
        <ele>586.903015</ele>
        <time>2015-05-24T09:12:58Z</time>
      </trkpt>
      <trkpt lat="44.65731" lon="5.12235">
        <ele>586.566284</ele>
        <time>2015-05-24T09:12:59Z</time>
      </trkpt>
      <trkpt lat="44.6573" lon="5.12237">
        <ele>586.256531</ele>
        <time>2015-05-24T09:13:00Z</time>
      </trkpt>
      <trkpt lat="44.65724" lon="5.12251">
        <ele>586.371704</ele>
        <time>2015-05-24T09:13:06Z</time>
      </trkpt>
      <trkpt lat="44.65723" lon="5.12253">
        <ele>586.116516</ele>
        <time>2015-05-24T09:13:07Z</time>
      </trkpt>
      <trkpt lat="44.65721" lon="5.1226">
        <ele>584.164612</ele>
        <time>2015-05-24T09:13:10Z</time>
      </trkpt>
      <trkpt lat="44.6572" lon="5.12267">
        <ele>583.612915</ele>
        <time>2015-05-24T09:13:13Z</time>
      </trkpt>
      <trkpt lat="44.65721" lon="5.12269">
        <ele>583.618652</ele>
        <time>2015-05-24T09:13:14Z</time>
      </trkpt>
      <trkpt lat="44.65721" lon="5.12273">
        <ele>583.675964</ele>
        <time>2015-05-24T09:13:16Z</time>
      </trkpt>
      <trkpt lat="44.65731" lon="5.12302">
        <ele>587.173096</ele>
        <time>2015-05-24T09:13:29Z</time>
      </trkpt>
      <trkpt lat="44.65733" lon="5.12306">
        <ele>587.855286</ele>
        <time>2015-05-24T09:13:31Z</time>
      </trkpt>
      <trkpt lat="44.65735" lon="5.1231">
        <ele>588.968079</ele>
        <time>2015-05-24T09:13:33Z</time>
      </trkpt>
      <trkpt lat="44.65736" lon="5.12312">
        <ele>589.366394</ele>
        <time>2015-05-24T09:13:34Z</time>
      </trkpt>
      <trkpt lat="44.65737" lon="5.12314">
        <ele>590.002014</ele>
        <time>2015-05-24T09:13:35Z</time>
      </trkpt>
      <trkpt lat="44.65738" lon="5.12316">
        <ele>590.346558</ele>
        <time>2015-05-24T09:13:36Z</time>
      </trkpt>
      <trkpt lat="44.65739" lon="5.12318">
        <ele>590.784851</ele>
        <time>2015-05-24T09:13:37Z</time>
      </trkpt>
      <trkpt lat="44.65739" lon="5.1232">
        <ele>591.230469</ele>
        <time>2015-05-24T09:13:38Z</time>
      </trkpt>
      <trkpt lat="44.6574" lon="5.12322">
        <ele>591.586121</ele>
        <time>2015-05-24T09:13:39Z</time>
      </trkpt>
      <trkpt lat="44.65741" lon="5.12324">
        <ele>592.009521</ele>
        <time>2015-05-24T09:13:40Z</time>
      </trkpt>
      <trkpt lat="44.65742" lon="5.12326">
        <ele>592.513245</ele>
        <time>2015-05-24T09:13:41Z</time>
      </trkpt>
      <trkpt lat="44.65745" lon="5.12334">
        <ele>594.304565</ele>
        <time>2015-05-24T09:13:45Z</time>
      </trkpt>
      <trkpt lat="44.65746" lon="5.12336">
        <ele>594.918091</ele>
        <time>2015-05-24T09:13:46Z</time>
      </trkpt>
      <trkpt lat="44.65747" lon="5.12338">
        <ele>595.430054</ele>
        <time>2015-05-24T09:13:47Z</time>
      </trkpt>
      <trkpt lat="44.65749" lon="5.12339">
        <ele>596.119568</ele>
        <time>2015-05-24T09:13:48Z</time>
      </trkpt>
      <trkpt lat="44.6575" lon="5.12341">
        <ele>596.957458</ele>
        <time>2015-05-24T09:13:49Z</time>
      </trkpt>
      <trkpt lat="44.65751" lon="5.12343">
        <ele>597.485413</ele>
        <time>2015-05-24T09:13:50Z</time>
      </trkpt>
      <trkpt lat="44.65752" lon="5.12345">
        <ele>597.764832</ele>
        <time>2015-05-24T09:13:51Z</time>
      </trkpt>
      <trkpt lat="44.65753" lon="5.12347">
        <ele>598.266541</ele>
        <time>2015-05-24T09:13:52Z</time>
      </trkpt>
      <trkpt lat="44.65754" lon="5.12349">
        <ele>598.945984</ele>
        <time>2015-05-24T09:13:53Z</time>
      </trkpt>
      <trkpt lat="44.65755" lon="5.12351">
        <ele>599.632751</ele>
        <time>2015-05-24T09:13:54Z</time>
      </trkpt>
      <trkpt lat="44.65765" lon="5.12361">
        <ele>605.616333</ele>
        <time>2015-05-24T09:14:01Z</time>
      </trkpt>
      <trkpt lat="44.65766" lon="5.12362">
        <ele>606.506592</ele>
        <time>2015-05-24T09:14:02Z</time>
      </trkpt>
      <trkpt lat="44.65768" lon="5.12364">
        <ele>607.472229</ele>
        <time>2015-05-24T09:14:03Z</time>
      </trkpt>
      <trkpt lat="44.65769" lon="5.12365">
        <ele>608.439148</ele>
        <time>2015-05-24T09:14:04Z</time>
      </trkpt>
      <trkpt lat="44.6577" lon="5.12366">
        <ele>609.003723</ele>
        <time>2015-05-24T09:14:05Z</time>
      </trkpt>
      <trkpt lat="44.65771" lon="5.12368">
        <ele>609.484375</ele>
        <time>2015-05-24T09:14:06Z</time>
      </trkpt>
      <trkpt lat="44.65766" lon="5.12395">
        <ele>609.722229</ele>
        <time>2015-05-24T09:14:18Z</time>
      </trkpt>
      <trkpt lat="44.65743" lon="5.12415">
        <ele>604.732117</ele>
        <time>2015-05-24T09:14:32Z</time>
      </trkpt>
      <trkpt lat="44.65723" lon="5.12447">
        <ele>609.34967</ele>
        <time>2015-05-24T09:14:46Z</time>
      </trkpt>
      <trkpt lat="44.65704" lon="5.12466">
        <ele>607.528748</ele>
        <time>2015-05-24T09:14:59Z</time>
      </trkpt>
      <trkpt lat="44.65687" lon="5.12489">
        <ele>606.858887</ele>
        <time>2015-05-24T09:15:12Z</time>
      </trkpt>
      <trkpt lat="44.65686" lon="5.12491">
        <ele>606.480469</ele>
        <time>2015-05-24T09:15:13Z</time>
      </trkpt>
      <trkpt lat="44.65684" lon="5.12492">
        <ele>606.092102</ele>
        <time>2015-05-24T09:15:14Z</time>
      </trkpt>
      <trkpt lat="44.65682" lon="5.12494">
        <ele>605.815613</ele>
        <time>2015-05-24T09:15:15Z</time>
      </trkpt>
      <trkpt lat="44.65681" lon="5.12496">
        <ele>605.807861</ele>
        <time>2015-05-24T09:15:16Z</time>
      </trkpt>
      <trkpt lat="44.65681" lon="5.12497">
        <ele>605.834351</ele>
        <time>2015-05-24T09:15:17Z</time>
      </trkpt>
      <trkpt lat="44.6568" lon="5.12499">
        <ele>605.848877</ele>
        <time>2015-05-24T09:15:18Z</time>
      </trkpt>
      <trkpt lat="44.65678" lon="5.12503">
        <ele>605.824951</ele>
        <time>2015-05-24T09:15:20Z</time>
      </trkpt>
      <trkpt lat="44.65677" lon="5.12506">
        <ele>605.396179</ele>
        <time>2015-05-24T09:15:21Z</time>
      </trkpt>
      <trkpt lat="44.65676" lon="5.12508">
        <ele>604.906311</ele>
        <time>2015-05-24T09:15:22Z</time>
      </trkpt>
      <trkpt lat="44.65675" lon="5.12511">
        <ele>604.782227</ele>
        <time>2015-05-24T09:15:23Z</time>
      </trkpt>
      <trkpt lat="44.65675" lon="5.12514">
        <ele>604.779358</ele>
        <time>2015-05-24T09:15:24Z</time>
      </trkpt>
      <trkpt lat="44.65673" lon="5.12561">
        <ele>605.40094</ele>
        <time>2015-05-24T09:15:39Z</time>
      </trkpt>
      <trkpt lat="44.65673" lon="5.12563">
        <ele>605.397644</ele>
        <time>2015-05-24T09:15:40Z</time>
      </trkpt>
      <trkpt lat="44.65674" lon="5.12566">
        <ele>605.609985</ele>
        <time>2015-05-24T09:15:41Z</time>
      </trkpt>
      <trkpt lat="44.65674" lon="5.1257">
        <ele>605.41748</ele>
        <time>2015-05-24T09:15:42Z</time>
      </trkpt>
      <trkpt lat="44.65683" lon="5.12613">
        <ele>606.467346</ele>
        <time>2015-05-24T09:15:56Z</time>
      </trkpt>
      <trkpt lat="44.65698" lon="5.12652">
        <ele>609.967346</ele>
        <time>2015-05-24T09:16:09Z</time>
      </trkpt>
      <trkpt lat="44.65714" lon="5.12684">
        <ele>613.297546</ele>
        <time>2015-05-24T09:16:21Z</time>
      </trkpt>
      <trkpt lat="44.65727" lon="5.12705">
        <ele>620.755127</ele>
        <time>2015-05-24T09:16:29Z</time>
      </trkpt>
      <trkpt lat="44.65727" lon="5.12712">
        <ele>622.42749</ele>
        <time>2015-05-24T09:16:31Z</time>
      </trkpt>
      <trkpt lat="44.6571" lon="5.12738">
        <ele>619.249634</ele>
        <time>2015-05-24T09:16:42Z</time>
      </trkpt>
      <trkpt lat="44.65688" lon="5.12781">
        <ele>621.719849</ele>
        <time>2015-05-24T09:16:56Z</time>
      </trkpt>
      <trkpt lat="44.65667" lon="5.1281">
        <ele>622.014099</ele>
        <time>2015-05-24T09:17:11Z</time>
      </trkpt>
      <trkpt lat="44.65654" lon="5.12836">
        <ele>617.504822</ele>
        <time>2015-05-24T09:17:22Z</time>
      </trkpt>
      <trkpt lat="44.65652" lon="5.12871">
        <ele>616.270935</ele>
        <time>2015-05-24T09:17:34Z</time>
      </trkpt>
      <trkpt lat="44.65653" lon="5.12874">
        <ele>616.766724</ele>
        <time>2015-05-24T09:17:35Z</time>
      </trkpt>
      <trkpt lat="44.65655" lon="5.12876">
        <ele>617.516602</ele>
        <time>2015-05-24T09:17:36Z</time>
      </trkpt>
      <trkpt lat="44.65656" lon="5.12878">
        <ele>618.169495</ele>
        <time>2015-05-24T09:17:37Z</time>
      </trkpt>
      <trkpt lat="44.65677" lon="5.12897">
        <ele>625.645203</ele>
        <time>2015-05-24T09:17:49Z</time>
      </trkpt>
      <trkpt lat="44.6569" lon="5.12926">
        <ele>632.082642</ele>
        <time>2015-05-24T09:18:00Z</time>
      </trkpt>
      <trkpt lat="44.65677" lon="5.12972">
        <ele>619.835388</ele>
        <time>2015-05-24T09:18:14Z</time>
      </trkpt>
      <trkpt lat="44.65689" lon="5.13025">
        <ele>630.688293</ele>
        <time>2015-05-24T09:18:30Z</time>
      </trkpt>
      <trkpt lat="44.65694" lon="5.1306">
        <ele>637.911011</ele>
        <time>2015-05-24T09:18:42Z</time>
      </trkpt>
      <trkpt lat="44.65692" lon="5.13061">
        <ele>637.396729</ele>
        <time>2015-05-24T09:18:43Z</time>
      </trkpt>
      <trkpt lat="44.6566" lon="5.13073">
        <ele>629.834595</ele>
        <time>2015-05-24T09:18:58Z</time>
      </trkpt>
      <trkpt lat="44.65638" lon="5.1309">
        <ele>628.107178</ele>
        <time>2015-05-24T09:19:10Z</time>
      </trkpt>
      <trkpt lat="44.6562" lon="5.13123">
        <ele>628.747681</ele>
        <time>2015-05-24T09:19:22Z</time>
      </trkpt>
      <trkpt lat="44.65619" lon="5.13153">
        <ele>629.171143</ele>
        <time>2015-05-24T09:19:32Z</time>
      </trkpt>
      <trkpt lat="44.65626" lon="5.13204">
        <ele>635.566895</ele>
        <time>2015-05-24T09:19:48Z</time>
      </trkpt>
      <trkpt lat="44.65628" lon="5.13246">
        <ele>643.223022</ele>
        <time>2015-05-24T09:20:00Z</time>
      </trkpt>
      <trkpt lat="44.65609" lon="5.13264">
        <ele>639.122375</ele>
        <time>2015-05-24T09:20:11Z</time>
      </trkpt>
      <trkpt lat="44.65588" lon="5.13289">
        <ele>639.358826</ele>
        <time>2015-05-24T09:20:23Z</time>
      </trkpt>
      <trkpt lat="44.65565" lon="5.13329">
        <ele>637.962524</ele>
        <time>2015-05-24T09:20:38Z</time>
      </trkpt>
      <trkpt lat="44.65565" lon="5.1338">
        <ele>637.880859</ele>
        <time>2015-05-24T09:20:53Z</time>
      </trkpt>
      <trkpt lat="44.65582" lon="5.13414">
        <ele>640.412842</ele>
        <time>2015-05-24T09:21:07Z</time>
      </trkpt>
      <trkpt lat="44.65607" lon="5.13441">
        <ele>647.452942</ele>
        <time>2015-05-24T09:21:22Z</time>
      </trkpt>
      <trkpt lat="44.65621" lon="5.13459">
        <ele>650.21405</ele>
        <time>2015-05-24T09:21:32Z</time>
      </trkpt>
      <trkpt lat="44.65622" lon="5.13461">
        <ele>650.204773</ele>
        <time>2015-05-24T09:21:33Z</time>
      </trkpt>
      <trkpt lat="44.6564" lon="5.13486">
        <ele>653.49054</ele>
        <time>2015-05-24T09:21:46Z</time>
      </trkpt>
      <trkpt lat="44.65662" lon="5.1351">
        <ele>658.092529</ele>
        <time>2015-05-24T09:22:00Z</time>
      </trkpt>
      <trkpt lat="44.65678" lon="5.13527">
        <ele>668.574341</ele>
        <time>2015-05-24T09:22:11Z</time>
      </trkpt>
      <trkpt lat="44.65675" lon="5.13547">
        <ele>670.233154</ele>
        <time>2015-05-24T09:22:19Z</time>
      </trkpt>
      <trkpt lat="44.65652" lon="5.13573">
        <ele>663.741333</ele>
        <time>2015-05-24T09:22:34Z</time>
      </trkpt>
      <trkpt lat="44.65636" lon="5.13597">
        <ele>662.80481</ele>
        <time>2015-05-24T09:22:46Z</time>
      </trkpt>
      <trkpt lat="44.65629" lon="5.13632">
        <ele>666.273499</ele>
        <time>2015-05-24T09:23:00Z</time>
      </trkpt>
      <trkpt lat="44.65626" lon="5.13672">
        <ele>667.456604</ele>
        <time>2015-05-24T09:23:14Z</time>
      </trkpt>
      <trkpt lat="44.65625" lon="5.13703">
        <ele>669.075256</ele>
        <time>2015-05-24T09:23:26Z</time>
      </trkpt>
      <trkpt lat="44.6562" lon="5.13743">
        <ele>671.177246</ele>
        <time>2015-05-24T09:23:41Z</time>
      </trkpt>
      <trkpt lat="44.65623" lon="5.13778">
        <ele>680.925171</ele>
        <time>2015-05-24T09:23:54Z</time>
      </trkpt>
      <trkpt lat="44.65625" lon="5.13785">
        <ele>683.793884</ele>
        <time>2015-05-24T09:23:57Z</time>
      </trkpt>
      <trkpt lat="44.65614" lon="5.13807">
        <ele>686.966431</ele>
        <time>2015-05-24T09:24:09Z</time>
      </trkpt>
      <trkpt lat="44.65588" lon="5.13805">
        <ele>684.69574</ele>
        <time>2015-05-24T09:24:23Z</time>
      </trkpt>
      <trkpt lat="44.65583" lon="5.13803">
        <ele>684.069946</ele>
        <time>2015-05-24T09:24:26Z</time>
      </trkpt>
      <trkpt lat="44.65565" lon="5.13797">
        <ele>682.009094</ele>
        <time>2015-05-24T09:24:36Z</time>
      </trkpt>
      <trkpt lat="44.65563" lon="5.13796">
        <ele>681.723694</ele>
        <time>2015-05-24T09:24:37Z</time>
      </trkpt>
      <trkpt lat="44.65561" lon="5.13795">
        <ele>681.174683</ele>
        <time>2015-05-24T09:24:38Z</time>
      </trkpt>
      <trkpt lat="44.65559" lon="5.13794">
        <ele>680.694031</ele>
        <time>2015-05-24T09:24:39Z</time>
      </trkpt>
      <trkpt lat="44.65558" lon="5.13794">
        <ele>680.392029</ele>
        <time>2015-05-24T09:24:40Z</time>
      </trkpt>
      <trkpt lat="44.65555" lon="5.13793">
        <ele>679.981384</ele>
        <time>2015-05-24T09:24:41Z</time>
      </trkpt>
      <trkpt lat="44.65553" lon="5.13792">
        <ele>679.554321</ele>
        <time>2015-05-24T09:24:42Z</time>
      </trkpt>
      <trkpt lat="44.65551" lon="5.13791">
        <ele>679.064087</ele>
        <time>2015-05-24T09:24:43Z</time>
      </trkpt>
      <trkpt lat="44.6553" lon="5.13799">
        <ele>678.901855</ele>
        <time>2015-05-24T09:24:55Z</time>
      </trkpt>
      <trkpt lat="44.65523" lon="5.13828">
        <ele>683.068726</ele>
        <time>2015-05-24T09:25:07Z</time>
      </trkpt>
      <trkpt lat="44.65521" lon="5.13869">
        <ele>686.198364</ele>
        <time>2015-05-24T09:25:22Z</time>
      </trkpt>
      <trkpt lat="44.65534" lon="5.13906">
        <ele>689.620056</ele>
        <time>2015-05-24T09:25:37Z</time>
      </trkpt>
      <trkpt lat="44.65537" lon="5.13913">
        <ele>690.534973</ele>
        <time>2015-05-24T09:25:40Z</time>
      </trkpt>
      <trkpt lat="44.65554" lon="5.13944">
        <ele>696.207947</ele>
        <time>2015-05-24T09:25:54Z</time>
      </trkpt>
      <trkpt lat="44.65557" lon="5.1395">
        <ele>697.125</ele>
        <time>2015-05-24T09:25:57Z</time>
      </trkpt>
      <trkpt lat="44.65559" lon="5.13951">
        <ele>697.793396</ele>
        <time>2015-05-24T09:25:58Z</time>
      </trkpt>
      <trkpt lat="44.65578" lon="5.13982">
        <ele>700.239868</ele>
        <time>2015-05-24T09:26:13Z</time>
      </trkpt>
      <trkpt lat="44.65582" lon="5.13989">
        <ele>700.825073</ele>
        <time>2015-05-24T09:26:17Z</time>
      </trkpt>
      <trkpt lat="44.65586" lon="5.13998">
        <ele>701.051331</ele>
        <time>2015-05-24T09:26:21Z</time>
      </trkpt>
      <trkpt lat="44.65587" lon="5.14">
        <ele>700.983826</ele>
        <time>2015-05-24T09:26:22Z</time>
      </trkpt>
      <trkpt lat="44.65588" lon="5.14002">
        <ele>701.180176</ele>
        <time>2015-05-24T09:26:23Z</time>
      </trkpt>
      <trkpt lat="44.65589" lon="5.14004">
        <ele>701.426025</ele>
        <time>2015-05-24T09:26:24Z</time>
      </trkpt>
      <trkpt lat="44.65591" lon="5.14007">
        <ele>701.8078</ele>
        <time>2015-05-24T09:26:25Z</time>
      </trkpt>
      <trkpt lat="44.65592" lon="5.14009">
        <ele>702.096985</ele>
        <time>2015-05-24T09:26:26Z</time>
      </trkpt>
      <trkpt lat="44.656" lon="5.1404">
        <ele>707.289063</ele>
        <time>2015-05-24T09:26:38Z</time>
      </trkpt>
      <trkpt lat="44.656" lon="5.14042">
        <ele>707.539978</ele>
        <time>2015-05-24T09:26:39Z</time>
      </trkpt>
      <trkpt lat="44.656" lon="5.14044">
        <ele>707.574707</ele>
        <time>2015-05-24T09:26:40Z</time>
      </trkpt>
      <trkpt lat="44.65599" lon="5.14047">
        <ele>707.389526</ele>
        <time>2015-05-24T09:26:41Z</time>
      </trkpt>
      <trkpt lat="44.65598" lon="5.1405">
        <ele>707.223816</ele>
        <time>2015-05-24T09:26:42Z</time>
      </trkpt>
      <trkpt lat="44.65597" lon="5.14052">
        <ele>706.791199</ele>
        <time>2015-05-24T09:26:43Z</time>
      </trkpt>
      <trkpt lat="44.65597" lon="5.14055">
        <ele>706.531006</ele>
        <time>2015-05-24T09:26:44Z</time>
      </trkpt>
      <trkpt lat="44.65596" lon="5.14058">
        <ele>706.411743</ele>
        <time>2015-05-24T09:26:45Z</time>
      </trkpt>
      <trkpt lat="44.6559" lon="5.14096">
        <ele>710.786011</ele>
        <time>2015-05-24T09:27:00Z</time>
      </trkpt>
      <trkpt lat="44.65574" lon="5.1413">
        <ele>713.93988</ele>
        <time>2015-05-24T09:27:14Z</time>
      </trkpt>
      <trkpt lat="44.65564" lon="5.14143">
        <ele>713.174438</ele>
        <time>2015-05-24T09:27:21Z</time>
      </trkpt>
      <trkpt lat="44.65562" lon="5.14144">
        <ele>713.161987</ele>
        <time>2015-05-24T09:27:22Z</time>
      </trkpt>
      <trkpt lat="44.65561" lon="5.14145">
        <ele>712.941223</ele>
        <time>2015-05-24T09:27:23Z</time>
      </trkpt>
      <trkpt lat="44.65559" lon="5.14147">
        <ele>712.681702</ele>
        <time>2015-05-24T09:27:24Z</time>
      </trkpt>
      <trkpt lat="44.65558" lon="5.14148">
        <ele>712.517334</ele>
        <time>2015-05-24T09:27:25Z</time>
      </trkpt>
      <trkpt lat="44.65556" lon="5.1415">
        <ele>712.359985</ele>
        <time>2015-05-24T09:27:26Z</time>
      </trkpt>
      <trkpt lat="44.65539" lon="5.14165">
        <ele>712.596252</ele>
        <time>2015-05-24T09:27:37Z</time>
      </trkpt>
      <trkpt lat="44.65523" lon="5.14175">
        <ele>711.256226</ele>
        <time>2015-05-24T09:27:47Z</time>
      </trkpt>
      <trkpt lat="44.65522" lon="5.14176">
        <ele>711.275024</ele>
        <time>2015-05-24T09:27:48Z</time>
      </trkpt>
      <trkpt lat="44.6552" lon="5.14178">
        <ele>711.601257</ele>
        <time>2015-05-24T09:27:49Z</time>
      </trkpt>
      <trkpt lat="44.65519" lon="5.1418">
        <ele>711.861267</ele>
        <time>2015-05-24T09:27:50Z</time>
      </trkpt>
      <trkpt lat="44.65517" lon="5.14182">
        <ele>711.816284</ele>
        <time>2015-05-24T09:27:51Z</time>
      </trkpt>
      <trkpt lat="44.65515" lon="5.14183">
        <ele>711.742493</ele>
        <time>2015-05-24T09:27:52Z</time>
      </trkpt>
      <trkpt lat="44.65513" lon="5.14184">
        <ele>711.651245</ele>
        <time>2015-05-24T09:27:53Z</time>
      </trkpt>
      <trkpt lat="44.65512" lon="5.14186">
        <ele>711.778748</ele>
        <time>2015-05-24T09:27:54Z</time>
      </trkpt>
      <trkpt lat="44.6551" lon="5.14188">
        <ele>711.877502</ele>
        <time>2015-05-24T09:27:55Z</time>
      </trkpt>
      <trkpt lat="44.65498" lon="5.14212">
        <ele>709.610596</ele>
        <time>2015-05-24T09:28:06Z</time>
      </trkpt>
      <trkpt lat="44.65501" lon="5.14235">
        <ele>710.617493</ele>
        <time>2015-05-24T09:28:16Z</time>
      </trkpt>
      <trkpt lat="44.65502" lon="5.14236">
        <ele>711.12323</ele>
        <time>2015-05-24T09:28:17Z</time>
      </trkpt>
      <trkpt lat="44.65504" lon="5.14238">
        <ele>711.859497</ele>
        <time>2015-05-24T09:28:18Z</time>
      </trkpt>
      <trkpt lat="44.65505" lon="5.1424">
        <ele>712.502625</ele>
        <time>2015-05-24T09:28:19Z</time>
      </trkpt>
      <trkpt lat="44.65506" lon="5.14242">
        <ele>713.094727</ele>
        <time>2015-05-24T09:28:20Z</time>
      </trkpt>
      <trkpt lat="44.65507" lon="5.14243">
        <ele>713.50824</ele>
        <time>2015-05-24T09:28:21Z</time>
      </trkpt>
      <trkpt lat="44.65524" lon="5.14266">
        <ele>718.775269</ele>
        <time>2015-05-24T09:28:34Z</time>
      </trkpt>
      <trkpt lat="44.65546" lon="5.14291">
        <ele>722.922241</ele>
        <time>2015-05-24T09:28:49Z</time>
      </trkpt>
      <trkpt lat="44.65568" lon="5.14312">
        <ele>727.642456</ele>
        <time>2015-05-24T09:29:02Z</time>
      </trkpt>
      <trkpt lat="44.65585" lon="5.14335">
        <ele>730.099976</ele>
        <time>2015-05-24T09:29:14Z</time>
      </trkpt>
      <trkpt lat="44.65587" lon="5.14337">
        <ele>730.224976</ele>
        <time>2015-05-24T09:29:15Z</time>
      </trkpt>
      <trkpt lat="44.65593" lon="5.14346">
        <ele>730.174988</ele>
        <time>2015-05-24T09:29:20Z</time>
      </trkpt>
      <trkpt lat="44.65618" lon="5.14376">
        <ele>731.752502</ele>
        <time>2015-05-24T09:29:36Z</time>
      </trkpt>
      <trkpt lat="44.65636" lon="5.14403">
        <ele>731.556519</ele>
        <time>2015-05-24T09:29:49Z</time>
      </trkpt>
      <trkpt lat="44.65659" lon="5.14433">
        <ele>732.526794</ele>
        <time>2015-05-24T09:30:04Z</time>
      </trkpt>
      <trkpt lat="44.65685" lon="5.14458">
        <ele>736.365967</ele>
        <time>2015-05-24T09:30:19Z</time>
      </trkpt>
      <trkpt lat="44.65709" lon="5.1448">
        <ele>741.581848</ele>
        <time>2015-05-24T09:30:33Z</time>
      </trkpt>
      <trkpt lat="44.65725" lon="5.14505">
        <ele>741.148682</ele>
        <time>2015-05-24T09:30:46Z</time>
      </trkpt>
      <trkpt lat="44.65734" lon="5.14523">
        <ele>740.215393</ele>
        <time>2015-05-24T09:30:55Z</time>
      </trkpt>
      <trkpt lat="44.65736" lon="5.1453">
        <ele>741.328552</ele>
        <time>2015-05-24T09:30:58Z</time>
      </trkpt>
      <trkpt lat="44.65738" lon="5.14541">
        <ele>742.585999</ele>
        <time>2015-05-24T09:31:02Z</time>
      </trkpt>
      <trkpt lat="44.6574" lon="5.14543">
        <ele>743.341492</ele>
        <time>2015-05-24T09:31:03Z</time>
      </trkpt>
      <trkpt lat="44.65745" lon="5.14577">
        <ele>746.449951</ele>
        <time>2015-05-24T09:31:15Z</time>
      </trkpt>
      <trkpt lat="44.65751" lon="5.14597">
        <ele>752.789978</ele>
        <time>2015-05-24T09:31:23Z</time>
      </trkpt>
      <trkpt lat="44.65751" lon="5.146">
        <ele>753.64502</ele>
        <time>2015-05-24T09:31:24Z</time>
      </trkpt>
      <trkpt lat="44.65751" lon="5.14602">
        <ele>754.214966</ele>
        <time>2015-05-24T09:31:25Z</time>
      </trkpt>
      <trkpt lat="44.65751" lon="5.14605">
        <ele>754.877502</ele>
        <time>2015-05-24T09:31:26Z</time>
      </trkpt>
      <trkpt lat="44.65751" lon="5.14607">
        <ele>755.565002</ele>
        <time>2015-05-24T09:31:27Z</time>
      </trkpt>
      <trkpt lat="44.6575" lon="5.14609">
        <ele>756.137512</ele>
        <time>2015-05-24T09:31:28Z</time>
      </trkpt>
      <trkpt lat="44.65738" lon="5.14631">
        <ele>756.470032</ele>
        <time>2015-05-24T09:31:39Z</time>
      </trkpt>
      <trkpt lat="44.65728" lon="5.14653">
        <ele>757.441833</ele>
        <time>2015-05-24T09:31:49Z</time>
      </trkpt>
      <trkpt lat="44.65724" lon="5.1467">
        <ele>758.989441</ele>
        <time>2015-05-24T09:31:59Z</time>
      </trkpt>
      <trkpt lat="44.6572" lon="5.14684">
        <ele>760.005005</ele>
        <time>2015-05-24T09:32:04Z</time>
      </trkpt>
      <trkpt lat="44.6572" lon="5.14687">
        <ele>760.176575</ele>
        <time>2015-05-24T09:32:05Z</time>
      </trkpt>
      <trkpt lat="44.65716" lon="5.14708">
        <ele>762.10083</ele>
        <time>2015-05-24T09:32:15Z</time>
      </trkpt>
      <trkpt lat="44.65713" lon="5.14737">
        <ele>767.412781</ele>
        <time>2015-05-24T09:32:27Z</time>
      </trkpt>
      <trkpt lat="44.6571" lon="5.14757">
        <ele>770.997864</ele>
        <time>2015-05-24T09:32:36Z</time>
      </trkpt>
      <trkpt lat="44.6571" lon="5.14762">
        <ele>771.926697</ele>
        <time>2015-05-24T09:32:39Z</time>
      </trkpt>
      <trkpt lat="44.65705" lon="5.14778">
        <ele>773.701172</ele>
        <time>2015-05-24T09:32:45Z</time>
      </trkpt>
      <trkpt lat="44.65695" lon="5.14791">
        <ele>773.627502</ele>
        <time>2015-05-24T09:32:54Z</time>
      </trkpt>
      <trkpt lat="44.65682" lon="5.14804">
        <ele>771.929749</ele>
        <time>2015-05-24T09:33:05Z</time>
      </trkpt>
      <trkpt lat="44.65681" lon="5.14807">
        <ele>772.42572</ele>
        <time>2015-05-24T09:33:07Z</time>
      </trkpt>
      <trkpt lat="44.65676" lon="5.14819">
        <ele>774.556274</ele>
        <time>2015-05-24T09:33:13Z</time>
      </trkpt>
      <trkpt lat="44.65675" lon="5.14821">
        <ele>774.737244</ele>
        <time>2015-05-24T09:33:14Z</time>
      </trkpt>
      <trkpt lat="44.65664" lon="5.14845">
        <ele>777.02124</ele>
        <time>2015-05-24T09:33:26Z</time>
      </trkpt>
      <trkpt lat="44.65663" lon="5.14847">
        <ele>777.15625</ele>
        <time>2015-05-24T09:33:27Z</time>
      </trkpt>
      <trkpt lat="44.65662" lon="5.14849">
        <ele>777.284973</ele>
        <time>2015-05-24T09:33:28Z</time>
      </trkpt>
      <trkpt lat="44.65661" lon="5.14851">
        <ele>777.288757</ele>
        <time>2015-05-24T09:33:29Z</time>
      </trkpt>
      <trkpt lat="44.6566" lon="5.14853">
        <ele>777.38501</ele>
        <time>2015-05-24T09:33:30Z</time>
      </trkpt>
      <trkpt lat="44.65659" lon="5.14855">
        <ele>777.527527</ele>
        <time>2015-05-24T09:33:31Z</time>
      </trkpt>
      <trkpt lat="44.65651" lon="5.14879">
        <ele>780.807495</ele>
        <time>2015-05-24T09:33:43Z</time>
      </trkpt>
      <trkpt lat="44.6564" lon="5.14905">
        <ele>783.053345</ele>
        <time>2015-05-24T09:33:56Z</time>
      </trkpt>
      <trkpt lat="44.65636" lon="5.14928">
        <ele>789.100342</ele>
        <time>2015-05-24T09:34:07Z</time>
      </trkpt>
      <trkpt lat="44.65634" lon="5.14936">
        <ele>790.836243</ele>
        <time>2015-05-24T09:34:11Z</time>
      </trkpt>
      <trkpt lat="44.65628" lon="5.14945">
        <ele>791.235596</ele>
        <time>2015-05-24T09:34:16Z</time>
      </trkpt>
      <trkpt lat="44.6561" lon="5.14952">
        <ele>787.159363</ele>
        <time>2015-05-24T09:34:30Z</time>
      </trkpt>
      <trkpt lat="44.65601" lon="5.14957">
        <ele>786.245728</ele>
        <time>2015-05-24T09:34:37Z</time>
      </trkpt>
      <trkpt lat="44.65596" lon="5.14959">
        <ele>785.480652</ele>
        <time>2015-05-24T09:34:40Z</time>
      </trkpt>
      <trkpt lat="44.65595" lon="5.14961">
        <ele>785.450073</ele>
        <time>2015-05-24T09:34:41Z</time>
      </trkpt>
      <trkpt lat="44.65578" lon="5.14982">
        <ele>787.21582</ele>
        <time>2015-05-24T09:34:55Z</time>
      </trkpt>
      <trkpt lat="44.6557" lon="5.15008">
        <ele>792.434631</ele>
        <time>2015-05-24T09:35:07Z</time>
      </trkpt>
      <trkpt lat="44.6556" lon="5.15028">
        <ele>794.545166</ele>
        <time>2015-05-24T09:35:17Z</time>
      </trkpt>
      <trkpt lat="44.65559" lon="5.15029">
        <ele>794.442139</ele>
        <time>2015-05-24T09:35:18Z</time>
      </trkpt>
      <trkpt lat="44.65558" lon="5.1503">
        <ele>794.273865</ele>
        <time>2015-05-24T09:35:19Z</time>
      </trkpt>
      <trkpt lat="44.65545" lon="5.15047">
        <ele>793.18512</ele>
        <time>2015-05-24T09:35:31Z</time>
      </trkpt>
      <trkpt lat="44.65529" lon="5.15075">
        <ele>793.441528</ele>
        <time>2015-05-24T09:35:45Z</time>
      </trkpt>
      <trkpt lat="44.65522" lon="5.15107">
        <ele>791.598877</ele>
        <time>2015-05-24T09:36:01Z</time>
      </trkpt>
      <trkpt lat="44.65523" lon="5.15115">
        <ele>792.598755</ele>
        <time>2015-05-24T09:36:05Z</time>
      </trkpt>
      <trkpt lat="44.65524" lon="5.15117">
        <ele>793.099243</ele>
        <time>2015-05-24T09:36:06Z</time>
      </trkpt>
      <trkpt lat="44.65534" lon="5.15146">
        <ele>800.651001</ele>
        <time>2015-05-24T09:36:20Z</time>
      </trkpt>
      <trkpt lat="44.65539" lon="5.15159">
        <ele>804.715088</ele>
        <time>2015-05-24T09:36:27Z</time>
      </trkpt>
      <trkpt lat="44.65539" lon="5.15161">
        <ele>805.060852</ele>
        <time>2015-05-24T09:36:28Z</time>
      </trkpt>
      <trkpt lat="44.6554" lon="5.15163">
        <ele>805.48407</ele>
        <time>2015-05-24T09:36:29Z</time>
      </trkpt>
      <trkpt lat="44.6554" lon="5.15165">
        <ele>805.980103</ele>
        <time>2015-05-24T09:36:30Z</time>
      </trkpt>
      <trkpt lat="44.65541" lon="5.15167">
        <ele>806.630615</ele>
        <time>2015-05-24T09:36:31Z</time>
      </trkpt>
      <trkpt lat="44.65542" lon="5.15169">
        <ele>807.124817</ele>
        <time>2015-05-24T09:36:32Z</time>
      </trkpt>
      <trkpt lat="44.65543" lon="5.1517">
        <ele>807.775024</ele>
        <time>2015-05-24T09:36:33Z</time>
      </trkpt>
      <trkpt lat="44.65543" lon="5.15172">
        <ele>808.345398</ele>
        <time>2015-05-24T09:36:34Z</time>
      </trkpt>
      <trkpt lat="44.65544" lon="5.15174">
        <ele>809.069946</ele>
        <time>2015-05-24T09:36:35Z</time>
      </trkpt>
      <trkpt lat="44.65545" lon="5.15175">
        <ele>809.714661</ele>
        <time>2015-05-24T09:36:36Z</time>
      </trkpt>
      <trkpt lat="44.65546" lon="5.15177">
        <ele>810.282043</ele>
        <time>2015-05-24T09:36:37Z</time>
      </trkpt>
      <trkpt lat="44.65552" lon="5.15206">
        <ele>815.049988</ele>
        <time>2015-05-24T09:36:50Z</time>
      </trkpt>
      <trkpt lat="44.65538" lon="5.15229">
        <ele>812.158142</ele>
        <time>2015-05-24T09:37:02Z</time>
      </trkpt>
      <trkpt lat="44.65536" lon="5.1523">
        <ele>811.349365</ele>
        <time>2015-05-24T09:37:03Z</time>
      </trkpt>
      <trkpt lat="44.65533" lon="5.15231">
        <ele>809.131226</ele>
        <time>2015-05-24T09:37:05Z</time>
      </trkpt>
      <trkpt lat="44.65531" lon="5.15232">
        <ele>808.442505</ele>
        <time>2015-05-24T09:37:06Z</time>
      </trkpt>
      <trkpt lat="44.6553" lon="5.15233">
        <ele>807.9104</ele>
        <time>2015-05-24T09:37:07Z</time>
      </trkpt>
      <trkpt lat="44.65523" lon="5.15253">
        <ele>807.94281</ele>
        <time>2015-05-24T09:37:16Z</time>
      </trkpt>
      <trkpt lat="44.65522" lon="5.15256">
        <ele>808.626343</ele>
        <time>2015-05-24T09:37:17Z</time>
      </trkpt>
      <trkpt lat="44.6552" lon="5.15277">
        <ele>810.723816</ele>
        <time>2015-05-24T09:37:27Z</time>
      </trkpt>
      <trkpt lat="44.6552" lon="5.1528">
        <ele>810.886047</ele>
        <time>2015-05-24T09:37:28Z</time>
      </trkpt>
      <trkpt lat="44.65519" lon="5.15282">
        <ele>811.005005</ele>
        <time>2015-05-24T09:37:29Z</time>
      </trkpt>
      <trkpt lat="44.6552" lon="5.15295">
        <ele>812.786621</ele>
        <time>2015-05-24T09:37:36Z</time>
      </trkpt>
      <trkpt lat="44.6552" lon="5.15297">
        <ele>813.118774</ele>
        <time>2015-05-24T09:37:37Z</time>
      </trkpt>
      <trkpt lat="44.6552" lon="5.15299">
        <ele>813.252319</ele>
        <time>2015-05-24T09:37:38Z</time>
      </trkpt>
      <trkpt lat="44.6552" lon="5.15301">
        <ele>813.449402</ele>
        <time>2015-05-24T09:37:39Z</time>
      </trkpt>
      <trkpt lat="44.6552" lon="5.15303">
        <ele>813.624573</ele>
        <time>2015-05-24T09:37:40Z</time>
      </trkpt>
      <trkpt lat="44.6552" lon="5.15311">
        <ele>814.753906</ele>
        <time>2015-05-24T09:37:44Z</time>
      </trkpt>
      <trkpt lat="44.65525" lon="5.15338">
        <ele>821.604797</ele>
        <time>2015-05-24T09:37:58Z</time>
      </trkpt>
      <trkpt lat="44.65527" lon="5.1537">
        <ele>830.830811</ele>
        <time>2015-05-24T09:38:14Z</time>
      </trkpt>
      <trkpt lat="44.65525" lon="5.15381">
        <ele>831.968811</ele>
        <time>2015-05-24T09:38:20Z</time>
      </trkpt>
      <trkpt lat="44.65524" lon="5.15383">
        <ele>831.76178</ele>
        <time>2015-05-24T09:38:21Z</time>
      </trkpt>
      <trkpt lat="44.65523" lon="5.15385">
        <ele>831.524536</ele>
        <time>2015-05-24T09:38:22Z</time>
      </trkpt>
      <trkpt lat="44.65522" lon="5.15387">
        <ele>831.367798</ele>
        <time>2015-05-24T09:38:23Z</time>
      </trkpt>
      <trkpt lat="44.65521" lon="5.15389">
        <ele>831.413818</ele>
        <time>2015-05-24T09:38:24Z</time>
      </trkpt>
      <trkpt lat="44.65517" lon="5.1539">
        <ele>830.794678</ele>
        <time>2015-05-24T09:38:28Z</time>
      </trkpt>
      <trkpt lat="44.65515" lon="5.15391">
        <ele>830.5448</ele>
        <time>2015-05-24T09:38:30Z</time>
      </trkpt>
      <trkpt lat="44.65507" lon="5.15393">
        <ele>829.397522</ele>
        <time>2015-05-24T09:38:36Z</time>
      </trkpt>
      <trkpt lat="44.65489" lon="5.154">
        <ele>828.936096</ele>
        <time>2015-05-24T09:38:49Z</time>
      </trkpt>
      <trkpt lat="44.65476" lon="5.15402">
        <ele>826.848022</ele>
        <time>2015-05-24T09:38:57Z</time>
      </trkpt>
      <trkpt lat="44.65455" lon="5.15409">
        <ele>824.084045</ele>
        <time>2015-05-24T09:39:11Z</time>
      </trkpt>
      <trkpt lat="44.65451" lon="5.1541">
        <ele>823.421448</ele>
        <time>2015-05-24T09:39:13Z</time>
      </trkpt>
      <trkpt lat="44.6545" lon="5.15411">
        <ele>823.456482</ele>
        <time>2015-05-24T09:39:14Z</time>
      </trkpt>
      <trkpt lat="44.65438" lon="5.15435">
        <ele>828.671997</ele>
        <time>2015-05-24T09:39:25Z</time>
      </trkpt>
      <trkpt lat="44.65437" lon="5.15437">
        <ele>829.307617</ele>
        <time>2015-05-24T09:39:26Z</time>
      </trkpt>
      <trkpt lat="44.65436" lon="5.15441">
        <ele>830.059875</ele>
        <time>2015-05-24T09:39:27Z</time>
      </trkpt>
      <trkpt lat="44.6543" lon="5.15476">
        <ele>837.15155</ele>
        <time>2015-05-24T09:39:39Z</time>
      </trkpt>
      <trkpt lat="44.65426" lon="5.15506">
        <ele>841.466125</ele>
        <time>2015-05-24T09:39:49Z</time>
      </trkpt>
      <trkpt lat="44.65426" lon="5.15508">
        <ele>842.0755</ele>
        <time>2015-05-24T09:39:50Z</time>
      </trkpt>
      <trkpt lat="44.65426" lon="5.15511">
        <ele>842.801941</ele>
        <time>2015-05-24T09:39:51Z</time>
      </trkpt>
      <trkpt lat="44.65424" lon="5.1552">
        <ele>843.371582</ele>
        <time>2015-05-24T09:39:54Z</time>
      </trkpt>
      <trkpt lat="44.65412" lon="5.15556">
        <ele>844.795837</ele>
        <time>2015-05-24T09:40:07Z</time>
      </trkpt>
      <trkpt lat="44.65398" lon="5.15583">
        <ele>843.052185</ele>
        <time>2015-05-24T09:40:17Z</time>
      </trkpt>
      <trkpt lat="44.65396" lon="5.15585">
        <ele>842.566895</ele>
        <time>2015-05-24T09:40:18Z</time>
      </trkpt>
      <trkpt lat="44.65383" lon="5.15612">
        <ele>843.615234</ele>
        <time>2015-05-24T09:40:29Z</time>
      </trkpt>
      <trkpt lat="44.65372" lon="5.15645">
        <ele>845.169983</ele>
        <time>2015-05-24T09:40:42Z</time>
      </trkpt>
      <trkpt lat="44.65366" lon="5.15677">
        <ele>843.038513</ele>
        <time>2015-05-24T09:40:54Z</time>
      </trkpt>
      <trkpt lat="44.65368" lon="5.15708">
        <ele>846.354614</ele>
        <time>2015-05-24T09:41:08Z</time>
      </trkpt>
      <trkpt lat="44.65369" lon="5.1571">
        <ele>846.811401</ele>
        <time>2015-05-24T09:41:09Z</time>
      </trkpt>
      <trkpt lat="44.65369" lon="5.15712">
        <ele>847.256897</ele>
        <time>2015-05-24T09:41:10Z</time>
      </trkpt>
      <trkpt lat="44.6537" lon="5.15714">
        <ele>847.766663</ele>
        <time>2015-05-24T09:41:11Z</time>
      </trkpt>
      <trkpt lat="44.6537" lon="5.15715">
        <ele>848.188293</ele>
        <time>2015-05-24T09:41:12Z</time>
      </trkpt>
      <trkpt lat="44.65371" lon="5.15718">
        <ele>848.537048</ele>
        <time>2015-05-24T09:41:13Z</time>
      </trkpt>
      <trkpt lat="44.65371" lon="5.1572">
        <ele>849.011414</ele>
        <time>2015-05-24T09:41:14Z</time>
      </trkpt>
      <trkpt lat="44.65372" lon="5.15722">
        <ele>849.609375</ele>
        <time>2015-05-24T09:41:15Z</time>
      </trkpt>
      <trkpt lat="44.65374" lon="5.1573">
        <ele>851.277039</ele>
        <time>2015-05-24T09:41:19Z</time>
      </trkpt>
      <trkpt lat="44.65375" lon="5.15732">
        <ele>851.845947</ele>
        <time>2015-05-24T09:41:20Z</time>
      </trkpt>
      <trkpt lat="44.65378" lon="5.15735">
        <ele>853.050049</ele>
        <time>2015-05-24T09:41:22Z</time>
      </trkpt>
      <trkpt lat="44.6538" lon="5.15741">
        <ele>854.569092</ele>
        <time>2015-05-24T09:41:25Z</time>
      </trkpt>
      <trkpt lat="44.65381" lon="5.15743">
        <ele>854.825989</ele>
        <time>2015-05-24T09:41:26Z</time>
      </trkpt>
      <trkpt lat="44.65383" lon="5.15746">
        <ele>856.02124</ele>
        <time>2015-05-24T09:41:28Z</time>
      </trkpt>
      <trkpt lat="44.65395" lon="5.1576">
        <ele>861.50293</ele>
        <time>2015-05-24T09:41:39Z</time>
      </trkpt>
      <trkpt lat="44.65396" lon="5.15766">
        <ele>861.738586</ele>
        <time>2015-05-24T09:41:43Z</time>
      </trkpt>
      <trkpt lat="44.65395" lon="5.15771">
        <ele>863.006836</ele>
        <time>2015-05-24T09:41:46Z</time>
      </trkpt>
      <trkpt lat="44.65395" lon="5.15773">
        <ele>863.343872</ele>
        <time>2015-05-24T09:41:47Z</time>
      </trkpt>
      <trkpt lat="44.65385" lon="5.15789">
        <ele>865.144531</ele>
        <time>2015-05-24T09:42:00Z</time>
      </trkpt>
      <trkpt lat="44.65374" lon="5.15798">
        <ele>864.887085</ele>
        <time>2015-05-24T09:42:11Z</time>
      </trkpt>
      <trkpt lat="44.65358" lon="5.15813">
        <ele>867.098206</ele>
        <time>2015-05-24T09:42:23Z</time>
      </trkpt>
      <trkpt lat="44.65351" lon="5.15819">
        <ele>868.474976</ele>
        <time>2015-05-24T09:42:28Z</time>
      </trkpt>
      <trkpt lat="44.6535" lon="5.1582">
        <ele>868.914246</ele>
        <time>2015-05-24T09:42:29Z</time>
      </trkpt>
      <trkpt lat="44.65343" lon="5.15825">
        <ele>869.707031</ele>
        <time>2015-05-24T09:42:33Z</time>
      </trkpt>
      <trkpt lat="44.65335" lon="5.15831">
        <ele>870.413025</ele>
        <time>2015-05-24T09:42:40Z</time>
      </trkpt>
      <trkpt lat="44.65321" lon="5.1584">
        <ele>869.595337</ele>
        <time>2015-05-24T09:42:51Z</time>
      </trkpt>
      <trkpt lat="44.653" lon="5.15858">
        <ele>867.857971</ele>
        <time>2015-05-24T09:43:04Z</time>
      </trkpt>
      <trkpt lat="44.65299" lon="5.15885">
        <ele>872.437012</ele>
        <time>2015-05-24T09:43:17Z</time>
      </trkpt>
      <trkpt lat="44.653" lon="5.15888">
        <ele>873.115295</ele>
        <time>2015-05-24T09:43:19Z</time>
      </trkpt>
      <trkpt lat="44.65301" lon="5.1589">
        <ele>873.251526</ele>
        <time>2015-05-24T09:43:20Z</time>
      </trkpt>
      <trkpt lat="44.65302" lon="5.15892">
        <ele>873.213379</ele>
        <time>2015-05-24T09:43:22Z</time>
      </trkpt>
      <trkpt lat="44.65309" lon="5.15908">
        <ele>874.344116</ele>
        <time>2015-05-24T09:43:31Z</time>
      </trkpt>
      <trkpt lat="44.6531" lon="5.15909">
        <ele>874.689514</ele>
        <time>2015-05-24T09:43:32Z</time>
      </trkpt>
      <trkpt lat="44.65322" lon="5.15932">
        <ele>878.737244</ele>
        <time>2015-05-24T09:43:47Z</time>
      </trkpt>
      <trkpt lat="44.65331" lon="5.15958">
        <ele>881.484558</ele>
        <time>2015-05-24T09:44:02Z</time>
      </trkpt>
      <trkpt lat="44.65331" lon="5.15961">
        <ele>880.981262</ele>
        <time>2015-05-24T09:44:04Z</time>
      </trkpt>
      <trkpt lat="44.65331" lon="5.15963">
        <ele>880.861511</ele>
        <time>2015-05-24T09:44:05Z</time>
      </trkpt>
      <trkpt lat="44.65338" lon="5.1598">
        <ele>882.133301</ele>
        <time>2015-05-24T09:44:15Z</time>
      </trkpt>
      <trkpt lat="44.65339" lon="5.15982">
        <ele>882.152344</ele>
        <time>2015-05-24T09:44:16Z</time>
      </trkpt>
      <trkpt lat="44.6534" lon="5.15983">
        <ele>882.24353</ele>
        <time>2015-05-24T09:44:17Z</time>
      </trkpt>
      <trkpt lat="44.65342" lon="5.15991">
        <ele>882.368286</ele>
        <time>2015-05-24T09:44:22Z</time>
      </trkpt>
      <trkpt lat="44.65344" lon="5.15996">
        <ele>883.166931</ele>
        <time>2015-05-24T09:44:25Z</time>
      </trkpt>
      <trkpt lat="44.65345" lon="5.15997">
        <ele>883.346497</ele>
        <time>2015-05-24T09:44:26Z</time>
      </trkpt>
      <trkpt lat="44.65351" lon="5.16004">
        <ele>886.041138</ele>
        <time>2015-05-24T09:44:32Z</time>
      </trkpt>
      <trkpt lat="44.65365" lon="5.16014">
        <ele>894.244202</ele>
        <time>2015-05-24T09:44:45Z</time>
      </trkpt>
      <trkpt lat="44.65372" lon="5.1603">
        <ele>901.443726</ele>
        <time>2015-05-24T09:44:56Z</time>
      </trkpt>
      <trkpt lat="44.65372" lon="5.16034">
        <ele>902.166748</ele>
        <time>2015-05-24T09:44:59Z</time>
      </trkpt>
      <trkpt lat="44.65362" lon="5.16046">
        <ele>899.778503</ele>
        <time>2015-05-24T09:45:11Z</time>
      </trkpt>
      <trkpt lat="44.65351" lon="5.16055">
        <ele>896.701538</ele>
        <time>2015-05-24T09:45:20Z</time>
      </trkpt>
      <trkpt lat="44.65333" lon="5.16076">
        <ele>895.77771</ele>
        <time>2015-05-24T09:45:36Z</time>
      </trkpt>
      <trkpt lat="44.65314" lon="5.16087">
        <ele>895.874146</ele>
        <time>2015-05-24T09:45:50Z</time>
      </trkpt>
      <trkpt lat="44.65296" lon="5.16104">
        <ele>898.8396</ele>
        <time>2015-05-24T09:46:04Z</time>
      </trkpt>
      <trkpt lat="44.6529" lon="5.16113">
        <ele>901.249084</ele>
        <time>2015-05-24T09:46:09Z</time>
      </trkpt>
      <trkpt lat="44.65288" lon="5.16114">
        <ele>901.282349</ele>
        <time>2015-05-24T09:46:10Z</time>
      </trkpt>
      <trkpt lat="44.65287" lon="5.16115">
        <ele>901.140625</ele>
        <time>2015-05-24T09:46:11Z</time>
      </trkpt>
      <trkpt lat="44.65282" lon="5.16119">
        <ele>901.377563</ele>
        <time>2015-05-24T09:46:16Z</time>
      </trkpt>
      <trkpt lat="44.65272" lon="5.16132">
        <ele>903.213623</ele>
        <time>2015-05-24T09:46:26Z</time>
      </trkpt>
      <trkpt lat="44.65256" lon="5.16159">
        <ele>902.895447</ele>
        <time>2015-05-24T09:46:39Z</time>
      </trkpt>
      <trkpt lat="44.65251" lon="5.16164">
        <ele>901.991394</ele>
        <time>2015-05-24T09:46:43Z</time>
      </trkpt>
      <trkpt lat="44.6525" lon="5.16167">
        <ele>901.885559</ele>
        <time>2015-05-24T09:46:44Z</time>
      </trkpt>
      <trkpt lat="44.65243" lon="5.16192">
        <ele>902.854431</ele>
        <time>2015-05-24T09:46:56Z</time>
      </trkpt>
      <trkpt lat="44.65243" lon="5.16194">
        <ele>902.873962</ele>
        <time>2015-05-24T09:46:57Z</time>
      </trkpt>
      <trkpt lat="44.65242" lon="5.16197">
        <ele>903.197449</ele>
        <time>2015-05-24T09:46:58Z</time>
      </trkpt>
      <trkpt lat="44.65242" lon="5.16199">
        <ele>903.399353</ele>
        <time>2015-05-24T09:46:59Z</time>
      </trkpt>
      <trkpt lat="44.65242" lon="5.16202">
        <ele>903.108398</ele>
        <time>2015-05-24T09:47:00Z</time>
      </trkpt>
      <trkpt lat="44.65242" lon="5.16204">
        <ele>902.885925</ele>
        <time>2015-05-24T09:47:01Z</time>
      </trkpt>
      <trkpt lat="44.65242" lon="5.16206">
        <ele>902.77356</ele>
        <time>2015-05-24T09:47:02Z</time>
      </trkpt>
      <trkpt lat="44.65242" lon="5.16209">
        <ele>902.614685</ele>
        <time>2015-05-24T09:47:03Z</time>
      </trkpt>
      <trkpt lat="44.65241" lon="5.16211">
        <ele>902.350342</ele>
        <time>2015-05-24T09:47:04Z</time>
      </trkpt>
      <trkpt lat="44.65245" lon="5.16234">
        <ele>902.753845</ele>
        <time>2015-05-24T09:47:16Z</time>
      </trkpt>
      <trkpt lat="44.65245" lon="5.16235">
        <ele>903.061279</ele>
        <time>2015-05-24T09:47:17Z</time>
      </trkpt>
      <trkpt lat="44.6525" lon="5.16253">
        <ele>904.463745</ele>
        <time>2015-05-24T09:47:27Z</time>
      </trkpt>
      <trkpt lat="44.6525" lon="5.16254">
        <ele>904.669556</ele>
        <time>2015-05-24T09:47:28Z</time>
      </trkpt>
      <trkpt lat="44.65259" lon="5.16274">
        <ele>910.413025</ele>
        <time>2015-05-24T09:47:40Z</time>
      </trkpt>
      <trkpt lat="44.65264" lon="5.16289">
        <ele>913.562378</ele>
        <time>2015-05-24T09:47:48Z</time>
      </trkpt>
      <trkpt lat="44.65272" lon="5.16303">
        <ele>916.275879</ele>
        <time>2015-05-24T09:47:58Z</time>
      </trkpt>
      <trkpt lat="44.65273" lon="5.16305">
        <ele>916.397034</ele>
        <time>2015-05-24T09:47:59Z</time>
      </trkpt>
      <trkpt lat="44.65274" lon="5.16307">
        <ele>916.578003</ele>
        <time>2015-05-24T09:48:00Z</time>
      </trkpt>
      <trkpt lat="44.65276" lon="5.16324">
        <ele>917.532654</ele>
        <time>2015-05-24T09:48:09Z</time>
      </trkpt>
      <trkpt lat="44.65271" lon="5.16329">
        <ele>916.937012</ele>
        <time>2015-05-24T09:48:14Z</time>
      </trkpt>
      <trkpt lat="44.65268" lon="5.1633">
        <ele>917.194519</ele>
        <time>2015-05-24T09:48:17Z</time>
      </trkpt>
      <trkpt lat="44.65263" lon="5.16332">
        <ele>918.171509</ele>
        <time>2015-05-24T09:48:20Z</time>
      </trkpt>
      <trkpt lat="44.65262" lon="5.16333">
        <ele>918.434448</ele>
        <time>2015-05-24T09:48:21Z</time>
      </trkpt>
      <trkpt lat="44.65251" lon="5.16334">
        <ele>918.928101</ele>
        <time>2015-05-24T09:48:31Z</time>
      </trkpt>
      <trkpt lat="44.65251" lon="5.16335">
        <ele>919.125</ele>
        <time>2015-05-24T09:48:56Z</time>
      </trkpt>
      <trkpt lat="44.65251" lon="5.16334">
        <ele>918.893311</ele>
        <time>2015-05-24T09:49:24Z</time>
      </trkpt>
      <trkpt lat="44.65246" lon="5.16339">
        <ele>921.057312</ele>
        <time>2015-05-24T09:49:53Z</time>
      </trkpt>
      <trkpt lat="44.65245" lon="5.16339">
        <ele>921.071472</ele>
        <time>2015-05-24T09:50:13Z</time>
      </trkpt>
      <trkpt lat="44.65244" lon="5.16338">
        <ele>920.471008</ele>
        <time>2015-05-24T09:50:40Z</time>
      </trkpt>
      <trkpt lat="44.65244" lon="5.16337">
        <ele>920.216797</ele>
        <time>2015-05-24T09:51:16Z</time>
      </trkpt>
      <trkpt lat="44.65244" lon="5.16338">
        <ele>920.783142</ele>
        <time>2015-05-24T09:51:41Z</time>
      </trkpt>
      <trkpt lat="44.65244" lon="5.16337">
        <ele>919.905029</ele>
        <time>2015-05-24T09:52:12Z</time>
      </trkpt>
      <trkpt lat="44.65243" lon="5.16336">
        <ele>919.805847</ele>
        <time>2015-05-24T09:52:44Z</time>
      </trkpt>
      <trkpt lat="44.65243" lon="5.16336">
        <ele>919.758911</ele>
        <time>2015-05-24T09:53:04Z</time>
      </trkpt>
      <trkpt lat="44.65239" lon="5.16338">
        <ele>920.611694</ele>
        <time>2015-05-24T09:53:30Z</time>
      </trkpt>
      <trkpt lat="44.65217" lon="5.16339">
        <ele>922.181519</ele>
        <time>2015-05-24T09:53:46Z</time>
      </trkpt>
      <trkpt lat="44.65197" lon="5.16338">
        <ele>924.408386</ele>
        <time>2015-05-24T09:53:59Z</time>
      </trkpt>
      <trkpt lat="44.6518" lon="5.16338">
        <ele>926.144836</ele>
        <time>2015-05-24T09:54:13Z</time>
      </trkpt>
      <trkpt lat="44.65176" lon="5.16339">
        <ele>926.663391</ele>
        <time>2015-05-24T09:54:15Z</time>
      </trkpt>
      <trkpt lat="44.65175" lon="5.16339">
        <ele>926.857422</ele>
        <time>2015-05-24T09:54:16Z</time>
      </trkpt>
      <trkpt lat="44.65173" lon="5.16339">
        <ele>927.132629</ele>
        <time>2015-05-24T09:54:17Z</time>
      </trkpt>
      <trkpt lat="44.65148" lon="5.16344">
        <ele>930.373535</ele>
        <time>2015-05-24T09:54:32Z</time>
      </trkpt>
      <trkpt lat="44.65126" lon="5.16347">
        <ele>930.744324</ele>
        <time>2015-05-24T09:54:45Z</time>
      </trkpt>
      <trkpt lat="44.65124" lon="5.16347">
        <ele>930.51178</ele>
        <time>2015-05-24T09:54:47Z</time>
      </trkpt>
      <trkpt lat="44.65122" lon="5.16348">
        <ele>930.489319</ele>
        <time>2015-05-24T09:54:48Z</time>
      </trkpt>
      <trkpt lat="44.65099" lon="5.16348">
        <ele>928.131042</ele>
        <time>2015-05-24T09:55:00Z</time>
      </trkpt>
      <trkpt lat="44.65094" lon="5.16371">
        <ele>929.620056</ele>
        <time>2015-05-24T09:55:12Z</time>
      </trkpt>
      <trkpt lat="44.65097" lon="5.16401">
        <ele>931.164124</ele>
        <time>2015-05-24T09:55:26Z</time>
      </trkpt>
      <trkpt lat="44.65107" lon="5.16426">
        <ele>933.826355</ele>
        <time>2015-05-24T09:55:40Z</time>
      </trkpt>
      <trkpt lat="44.65114" lon="5.1644">
        <ele>935.788879</ele>
        <time>2015-05-24T09:55:49Z</time>
      </trkpt>
      <trkpt lat="44.65115" lon="5.16441">
        <ele>936.111816</ele>
        <time>2015-05-24T09:55:50Z</time>
      </trkpt>
      <trkpt lat="44.65128" lon="5.16455">
        <ele>938.379944</ele>
        <time>2015-05-24T09:56:03Z</time>
      </trkpt>
      <trkpt lat="44.65141" lon="5.16467">
        <ele>940.843994</ele>
        <time>2015-05-24T09:56:15Z</time>
      </trkpt>
      <trkpt lat="44.65151" lon="5.16474">
        <ele>943.140686</ele>
        <time>2015-05-24T09:56:24Z</time>
      </trkpt>
      <trkpt lat="44.65165" lon="5.1649">
        <ele>946.663269</ele>
        <time>2015-05-24T09:56:37Z</time>
      </trkpt>
      <trkpt lat="44.65172" lon="5.16504">
        <ele>948.055542</ele>
        <time>2015-05-24T09:56:46Z</time>
      </trkpt>
      <trkpt lat="44.65173" lon="5.16506">
        <ele>948.046753</ele>
        <time>2015-05-24T09:56:48Z</time>
      </trkpt>
      <trkpt lat="44.65176" lon="5.16514">
        <ele>948.832458</ele>
        <time>2015-05-24T09:56:53Z</time>
      </trkpt>
      <trkpt lat="44.65184" lon="5.16529">
        <ele>950.713745</ele>
        <time>2015-05-24T09:57:03Z</time>
      </trkpt>
      <trkpt lat="44.65185" lon="5.16531">
        <ele>950.943665</ele>
        <time>2015-05-24T09:57:04Z</time>
      </trkpt>
      <trkpt lat="44.65198" lon="5.16557">
        <ele>955.646484</ele>
        <time>2015-05-24T09:57:19Z</time>
      </trkpt>
      <trkpt lat="44.65204" lon="5.16572">
        <ele>958.104126</ele>
        <time>2015-05-24T09:57:27Z</time>
      </trkpt>
      <trkpt lat="44.65211" lon="5.16591">
        <ele>961.733826</ele>
        <time>2015-05-24T09:57:38Z</time>
      </trkpt>
      <trkpt lat="44.65212" lon="5.16593">
        <ele>962.236145</ele>
        <time>2015-05-24T09:57:39Z</time>
      </trkpt>
      <trkpt lat="44.65212" lon="5.16595">
        <ele>962.49823</ele>
        <time>2015-05-24T09:57:40Z</time>
      </trkpt>
      <trkpt lat="44.65219" lon="5.16622">
        <ele>965.282532</ele>
        <time>2015-05-24T09:57:55Z</time>
      </trkpt>
      <trkpt lat="44.65229" lon="5.1665">
        <ele>968.781189</ele>
        <time>2015-05-24T09:58:10Z</time>
      </trkpt>
      <trkpt lat="44.65229" lon="5.16651">
        <ele>969.011658</ele>
        <time>2015-05-24T09:58:11Z</time>
      </trkpt>
      <trkpt lat="44.65231" lon="5.16659">
        <ele>969.587769</ele>
        <time>2015-05-24T09:58:15Z</time>
      </trkpt>
      <trkpt lat="44.65232" lon="5.1666">
        <ele>969.882202</ele>
        <time>2015-05-24T09:58:16Z</time>
      </trkpt>
      <trkpt lat="44.65233" lon="5.16662">
        <ele>970.110779</ele>
        <time>2015-05-24T09:58:17Z</time>
      </trkpt>
      <trkpt lat="44.65237" lon="5.16677">
        <ele>970.937256</ele>
        <time>2015-05-24T09:58:25Z</time>
      </trkpt>
      <trkpt lat="44.65237" lon="5.16679">
        <ele>970.914734</ele>
        <time>2015-05-24T09:58:26Z</time>
      </trkpt>
      <trkpt lat="44.65237" lon="5.1668">
        <ele>971.033142</ele>
        <time>2015-05-24T09:58:27Z</time>
      </trkpt>
      <trkpt lat="44.65238" lon="5.16682">
        <ele>971.188477</ele>
        <time>2015-05-24T09:58:28Z</time>
      </trkpt>
      <trkpt lat="44.65239" lon="5.16684">
        <ele>971.364197</ele>
        <time>2015-05-24T09:58:29Z</time>
      </trkpt>
      <trkpt lat="44.65248" lon="5.16709">
        <ele>973.790161</ele>
        <time>2015-05-24T09:58:44Z</time>
      </trkpt>
      <trkpt lat="44.65252" lon="5.16715">
        <ele>975.578247</ele>
        <time>2015-05-24T09:58:48Z</time>
      </trkpt>
      <trkpt lat="44.65257" lon="5.16725">
        <ele>977.250793</ele>
        <time>2015-05-24T09:58:54Z</time>
      </trkpt>
      <trkpt lat="44.65268" lon="5.16744">
        <ele>980.673279</ele>
        <time>2015-05-24T09:59:09Z</time>
      </trkpt>
      <trkpt lat="44.65272" lon="5.16748">
        <ele>981.943726</ele>
        <time>2015-05-24T09:59:13Z</time>
      </trkpt>
      <trkpt lat="44.65285" lon="5.16759">
        <ele>985.571228</ele>
        <time>2015-05-24T09:59:24Z</time>
      </trkpt>
      <trkpt lat="44.65287" lon="5.16763">
        <ele>986.048584</ele>
        <time>2015-05-24T09:59:26Z</time>
      </trkpt>
      <trkpt lat="44.65293" lon="5.1677">
        <ele>987.283325</ele>
        <time>2015-05-24T09:59:31Z</time>
      </trkpt>
      <trkpt lat="44.65289" lon="5.16786">
        <ele>989.536072</ele>
        <time>2015-05-24T09:59:41Z</time>
      </trkpt>
      <trkpt lat="44.65287" lon="5.16787">
        <ele>989.503723</ele>
        <time>2015-05-24T09:59:42Z</time>
      </trkpt>
      <trkpt lat="44.65275" lon="5.1679">
        <ele>988.970154</ele>
        <time>2015-05-24T09:59:49Z</time>
      </trkpt>
      <trkpt lat="44.65254" lon="5.16791">
        <ele>989.528137</ele>
        <time>2015-05-24T10:00:03Z</time>
      </trkpt>
      <trkpt lat="44.65227" lon="5.16794">
        <ele>994.479736</ele>
        <time>2015-05-24T10:00:19Z</time>
      </trkpt>
      <trkpt lat="44.65223" lon="5.16793">
        <ele>994.923218</ele>
        <time>2015-05-24T10:00:22Z</time>
      </trkpt>
      <trkpt lat="44.65221" lon="5.16793">
        <ele>994.913086</ele>
        <time>2015-05-24T10:00:23Z</time>
      </trkpt>
      <trkpt lat="44.65211" lon="5.16791">
        <ele>996.057312</ele>
        <time>2015-05-24T10:00:30Z</time>
      </trkpt>
      <trkpt lat="44.6521" lon="5.16791">
        <ele>996.428101</ele>
        <time>2015-05-24T10:00:31Z</time>
      </trkpt>
      <trkpt lat="44.65209" lon="5.16791">
        <ele>996.75415</ele>
        <time>2015-05-24T10:00:32Z</time>
      </trkpt>
      <trkpt lat="44.65207" lon="5.16791">
        <ele>996.963989</ele>
        <time>2015-05-24T10:00:33Z</time>
      </trkpt>
      <trkpt lat="44.65206" lon="5.16791">
        <ele>997.143188</ele>
        <time>2015-05-24T10:00:34Z</time>
      </trkpt>
      <trkpt lat="44.65205" lon="5.16791">
        <ele>997.362732</ele>
        <time>2015-05-24T10:00:35Z</time>
      </trkpt>
      <trkpt lat="44.65204" lon="5.16792">
        <ele>997.762085</ele>
        <time>2015-05-24T10:00:36Z</time>
      </trkpt>
      <trkpt lat="44.65195" lon="5.16794">
        <ele>1000.28064</ele>
        <time>2015-05-24T10:00:42Z</time>
      </trkpt>
      <trkpt lat="44.65193" lon="5.16794">
        <ele>1000.556641</ele>
        <time>2015-05-24T10:00:43Z</time>
      </trkpt>
      <trkpt lat="44.65192" lon="5.16794">
        <ele>1000.891846</ele>
        <time>2015-05-24T10:00:44Z</time>
      </trkpt>
      <trkpt lat="44.65191" lon="5.16794">
        <ele>1001.127197</ele>
        <time>2015-05-24T10:00:45Z</time>
      </trkpt>
      <trkpt lat="44.65189" lon="5.16794">
        <ele>1001.515503</ele>
        <time>2015-05-24T10:00:46Z</time>
      </trkpt>
      <trkpt lat="44.65188" lon="5.16795">
        <ele>1002.062378</ele>
        <time>2015-05-24T10:00:47Z</time>
      </trkpt>
      <trkpt lat="44.65186" lon="5.16795">
        <ele>1002.432556</ele>
        <time>2015-05-24T10:00:48Z</time>
      </trkpt>
      <trkpt lat="44.65184" lon="5.16795">
        <ele>1002.763428</ele>
        <time>2015-05-24T10:00:49Z</time>
      </trkpt>
      <trkpt lat="44.65183" lon="5.16795">
        <ele>1003.021667</ele>
        <time>2015-05-24T10:00:50Z</time>
      </trkpt>
      <trkpt lat="44.65181" lon="5.16795">
        <ele>1003.239014</ele>
        <time>2015-05-24T10:00:51Z</time>
      </trkpt>
      <trkpt lat="44.65179" lon="5.16794">
        <ele>1003.451172</ele>
        <time>2015-05-24T10:00:52Z</time>
      </trkpt>
      <trkpt lat="44.65175" lon="5.16794">
        <ele>1004.165955</ele>
        <time>2015-05-24T10:00:55Z</time>
      </trkpt>
      <trkpt lat="44.65173" lon="5.16793">
        <ele>1004.148071</ele>
        <time>2015-05-24T10:00:56Z</time>
      </trkpt>
      <trkpt lat="44.65172" lon="5.16792">
        <ele>1004.119873</ele>
        <time>2015-05-24T10:00:57Z</time>
      </trkpt>
      <trkpt lat="44.65171" lon="5.16791">
        <ele>1004.076477</ele>
        <time>2015-05-24T10:00:58Z</time>
      </trkpt>
      <trkpt lat="44.65169" lon="5.16791">
        <ele>1004.01062</ele>
        <time>2015-05-24T10:00:59Z</time>
      </trkpt>
      <trkpt lat="44.65168" lon="5.1679">
        <ele>1003.775024</ele>
        <time>2015-05-24T10:01:00Z</time>
      </trkpt>
      <trkpt lat="44.65166" lon="5.16789">
        <ele>1003.507263</ele>
        <time>2015-05-24T10:01:01Z</time>
      </trkpt>
      <trkpt lat="44.65164" lon="5.16788">
        <ele>1003.250854</ele>
        <time>2015-05-24T10:01:02Z</time>
      </trkpt>
      <trkpt lat="44.65152" lon="5.16777">
        <ele>1001.014099</ele>
        <time>2015-05-24T10:01:11Z</time>
      </trkpt>
      <trkpt lat="44.6515" lon="5.16776">
        <ele>1000.865417</ele>
        <time>2015-05-24T10:01:12Z</time>
      </trkpt>
      <trkpt lat="44.65149" lon="5.16775">
        <ele>1000.700684</ele>
        <time>2015-05-24T10:01:13Z</time>
      </trkpt>
      <trkpt lat="44.65147" lon="5.16774">
        <ele>1000.588135</ele>
        <time>2015-05-24T10:01:14Z</time>
      </trkpt>
      <trkpt lat="44.65146" lon="5.16773">
        <ele>1000.450195</ele>
        <time>2015-05-24T10:01:15Z</time>
      </trkpt>
      <trkpt lat="44.65144" lon="5.16772">
        <ele>1000.36322</ele>
        <time>2015-05-24T10:01:16Z</time>
      </trkpt>
      <trkpt lat="44.65142" lon="5.16771">
        <ele>1000.295227</ele>
        <time>2015-05-24T10:01:17Z</time>
      </trkpt>
      <trkpt lat="44.65141" lon="5.16771">
        <ele>1000.345337</ele>
        <time>2015-05-24T10:01:18Z</time>
      </trkpt>
      <trkpt lat="44.65139" lon="5.16772">
        <ele>1000.46521</ele>
        <time>2015-05-24T10:01:19Z</time>
      </trkpt>
      <trkpt lat="44.65137" lon="5.16772">
        <ele>1000.625061</ele>
        <time>2015-05-24T10:01:20Z</time>
      </trkpt>
      <trkpt lat="44.65136" lon="5.16774">
        <ele>1000.794983</ele>
        <time>2015-05-24T10:01:21Z</time>
      </trkpt>
      <trkpt lat="44.65134" lon="5.16775">
        <ele>1000.970215</ele>
        <time>2015-05-24T10:01:22Z</time>
      </trkpt>
      <trkpt lat="44.65133" lon="5.16776">
        <ele>1001.153198</ele>
        <time>2015-05-24T10:01:23Z</time>
      </trkpt>
      <trkpt lat="44.65128" lon="5.16789">
        <ele>1002.273621</ele>
        <time>2015-05-24T10:01:29Z</time>
      </trkpt>
      <trkpt lat="44.65129" lon="5.16791">
        <ele>1002.465454</ele>
        <time>2015-05-24T10:01:30Z</time>
      </trkpt>
      <trkpt lat="44.65129" lon="5.16816">
        <ele>1004.781982</ele>
        <time>2015-05-24T10:01:43Z</time>
      </trkpt>
      <trkpt lat="44.65129" lon="5.16827">
        <ele>1005.652954</ele>
        <time>2015-05-24T10:01:48Z</time>
      </trkpt>
      <trkpt lat="44.65129" lon="5.16829">
        <ele>1005.765625</ele>
        <time>2015-05-24T10:01:49Z</time>
      </trkpt>
      <trkpt lat="44.6513" lon="5.16831">
        <ele>1005.888489</ele>
        <time>2015-05-24T10:01:50Z</time>
      </trkpt>
      <trkpt lat="44.65129" lon="5.16833">
        <ele>1005.874146</ele>
        <time>2015-05-24T10:01:51Z</time>
      </trkpt>
      <trkpt lat="44.65129" lon="5.16835">
        <ele>1005.807495</ele>
        <time>2015-05-24T10:01:52Z</time>
      </trkpt>
      <trkpt lat="44.65126" lon="5.16859">
        <ele>1005.405029</ele>
        <time>2015-05-24T10:02:03Z</time>
      </trkpt>
      <trkpt lat="44.65125" lon="5.16882">
        <ele>1005.561035</ele>
        <time>2015-05-24T10:02:13Z</time>
      </trkpt>
      <trkpt lat="44.65126" lon="5.16885">
        <ele>1005.661377</ele>
        <time>2015-05-24T10:02:14Z</time>
      </trkpt>
      <trkpt lat="44.65127" lon="5.16893">
        <ele>1006.361267</ele>
        <time>2015-05-24T10:02:18Z</time>
      </trkpt>
      <trkpt lat="44.65128" lon="5.16894">
        <ele>1006.635132</ele>
        <time>2015-05-24T10:02:19Z</time>
      </trkpt>
      <trkpt lat="44.65129" lon="5.16896">
        <ele>1006.914673</ele>
        <time>2015-05-24T10:02:20Z</time>
      </trkpt>
      <trkpt lat="44.65129" lon="5.16898">
        <ele>1007.201538</ele>
        <time>2015-05-24T10:02:21Z</time>
      </trkpt>
      <trkpt lat="44.6513" lon="5.16899">
        <ele>1007.44574</ele>
        <time>2015-05-24T10:02:22Z</time>
      </trkpt>
      <trkpt lat="44.6513" lon="5.16901">
        <ele>1007.744263</ele>
        <time>2015-05-24T10:02:23Z</time>
      </trkpt>
      <trkpt lat="44.65131" lon="5.16903">
        <ele>1008.049561</ele>
        <time>2015-05-24T10:02:24Z</time>
      </trkpt>
      <trkpt lat="44.65141" lon="5.16933">
        <ele>1014.010193</ele>
        <time>2015-05-24T10:02:39Z</time>
      </trkpt>
      <trkpt lat="44.65142" lon="5.16935">
        <ele>1014.372131</ele>
        <time>2015-05-24T10:02:40Z</time>
      </trkpt>
      <trkpt lat="44.65142" lon="5.16937">
        <ele>1014.51001</ele>
        <time>2015-05-24T10:02:41Z</time>
      </trkpt>
      <trkpt lat="44.65142" lon="5.16939">
        <ele>1014.599976</ele>
        <time>2015-05-24T10:02:42Z</time>
      </trkpt>
      <trkpt lat="44.65142" lon="5.16941">
        <ele>1014.748962</ele>
        <time>2015-05-24T10:02:43Z</time>
      </trkpt>
      <trkpt lat="44.65142" lon="5.16943">
        <ele>1015.015503</ele>
        <time>2015-05-24T10:02:44Z</time>
      </trkpt>
      <trkpt lat="44.65142" lon="5.16945">
        <ele>1015.162537</ele>
        <time>2015-05-24T10:02:45Z</time>
      </trkpt>
      <trkpt lat="44.65142" lon="5.16977">
        <ele>1017.304993</ele>
        <time>2015-05-24T10:03:00Z</time>
      </trkpt>
      <trkpt lat="44.65144" lon="5.17004">
        <ele>1019.823975</ele>
        <time>2015-05-24T10:03:12Z</time>
      </trkpt>
      <trkpt lat="44.65145" lon="5.17007">
        <ele>1020.32135</ele>
        <time>2015-05-24T10:03:13Z</time>
      </trkpt>
      <trkpt lat="44.65145" lon="5.17009">
        <ele>1020.797729</ele>
        <time>2015-05-24T10:03:14Z</time>
      </trkpt>
      <trkpt lat="44.65146" lon="5.17011">
        <ele>1021.204407</ele>
        <time>2015-05-24T10:03:15Z</time>
      </trkpt>
      <trkpt lat="44.65146" lon="5.17014">
        <ele>1021.676453</ele>
        <time>2015-05-24T10:03:16Z</time>
      </trkpt>
      <trkpt lat="44.65147" lon="5.17016">
        <ele>1022.264221</ele>
        <time>2015-05-24T10:03:17Z</time>
      </trkpt>
      <trkpt lat="44.65148" lon="5.1702">
        <ele>1022.682312</ele>
        <time>2015-05-24T10:03:18Z</time>
      </trkpt>
      <trkpt lat="44.65148" lon="5.17022">
        <ele>1023.058899</ele>
        <time>2015-05-24T10:03:19Z</time>
      </trkpt>
      <trkpt lat="44.65152" lon="5.17051">
        <ele>1026.293335</ele>
        <time>2015-05-24T10:03:30Z</time>
      </trkpt>
      <trkpt lat="44.65153" lon="5.17052">
        <ele>1026.751587</ele>
        <time>2015-05-24T10:03:31Z</time>
      </trkpt>
      <trkpt lat="44.65162" lon="5.17081">
        <ele>1030.314941</ele>
        <time>2015-05-24T10:03:44Z</time>
      </trkpt>
      <trkpt lat="44.65161" lon="5.17083">
        <ele>1030.347412</ele>
        <time>2015-05-24T10:03:45Z</time>
      </trkpt>
      <trkpt lat="44.65162" lon="5.17085">
        <ele>1030.524658</ele>
        <time>2015-05-24T10:03:46Z</time>
      </trkpt>
      <trkpt lat="44.6517" lon="5.17121">
        <ele>1035.083862</ele>
        <time>2015-05-24T10:04:00Z</time>
      </trkpt>
      <trkpt lat="44.65169" lon="5.17137">
        <ele>1035.096924</ele>
        <time>2015-05-24T10:04:07Z</time>
      </trkpt>
      <trkpt lat="44.65168" lon="5.17139">
        <ele>1034.432129</ele>
        <time>2015-05-24T10:04:09Z</time>
      </trkpt>
      <trkpt lat="44.65166" lon="5.17138">
        <ele>1033.5802</ele>
        <time>2015-05-24T10:04:10Z</time>
      </trkpt>
      <trkpt lat="44.65164" lon="5.17137">
        <ele>1032.723755</ele>
        <time>2015-05-24T10:04:11Z</time>
      </trkpt>
      <trkpt lat="44.65163" lon="5.17136">
        <ele>1031.968994</ele>
        <time>2015-05-24T10:04:12Z</time>
      </trkpt>
      <trkpt lat="44.65161" lon="5.17135">
        <ele>1032.060547</ele>
        <time>2015-05-24T10:04:13Z</time>
      </trkpt>
      <trkpt lat="44.65159" lon="5.17133">
        <ele>1032.150635</ele>
        <time>2015-05-24T10:04:14Z</time>
      </trkpt>
      <trkpt lat="44.65158" lon="5.17132">
        <ele>1032.169678</ele>
        <time>2015-05-24T10:04:15Z</time>
      </trkpt>
      <trkpt lat="44.6513" lon="5.17116">
        <ele>1030.274292</ele>
        <time>2015-05-24T10:04:30Z</time>
      </trkpt>
      <trkpt lat="44.65101" lon="5.17106">
        <ele>1032.552002</ele>
        <time>2015-05-24T10:04:45Z</time>
      </trkpt>
      <trkpt lat="44.65076" lon="5.17096">
        <ele>1036.837646</ele>
        <time>2015-05-24T10:04:59Z</time>
      </trkpt>
      <trkpt lat="44.65061" lon="5.17085">
        <ele>1037.617065</ele>
        <time>2015-05-24T10:05:09Z</time>
      </trkpt>
      <trkpt lat="44.65059" lon="5.17083">
        <ele>1037.661865</ele>
        <time>2015-05-24T10:05:10Z</time>
      </trkpt>
      <trkpt lat="44.65058" lon="5.17081">
        <ele>1037.331299</ele>
        <time>2015-05-24T10:05:11Z</time>
      </trkpt>
      <trkpt lat="44.65056" lon="5.17078">
        <ele>1037.055908</ele>
        <time>2015-05-24T10:05:12Z</time>
      </trkpt>
      <trkpt lat="44.65055" lon="5.17076">
        <ele>1036.784668</ele>
        <time>2015-05-24T10:05:13Z</time>
      </trkpt>
      <trkpt lat="44.65054" lon="5.17075">
        <ele>1036.690918</ele>
        <time>2015-05-24T10:05:14Z</time>
      </trkpt>
      <trkpt lat="44.65052" lon="5.17073">
        <ele>1036.72998</ele>
        <time>2015-05-24T10:05:15Z</time>
      </trkpt>
      <trkpt lat="44.6505" lon="5.17071">
        <ele>1036.487915</ele>
        <time>2015-05-24T10:05:16Z</time>
      </trkpt>
      <trkpt lat="44.65031" lon="5.17056">
        <ele>1037.19751</ele>
        <time>2015-05-24T10:05:28Z</time>
      </trkpt>
      <trkpt lat="44.65009" lon="5.17047">
        <ele>1041.816528</ele>
        <time>2015-05-24T10:05:40Z</time>
      </trkpt>
      <trkpt lat="44.64982" lon="5.1703">
        <ele>1045.24646</ele>
        <time>2015-05-24T10:05:53Z</time>
      </trkpt>
      <trkpt lat="44.64958" lon="5.17011">
        <ele>1047.25293</ele>
        <time>2015-05-24T10:06:07Z</time>
      </trkpt>
      <trkpt lat="44.64934" lon="5.16991">
        <ele>1048.965088</ele>
        <time>2015-05-24T10:06:21Z</time>
      </trkpt>
      <trkpt lat="44.6492" lon="5.1698">
        <ele>1050.243774</ele>
        <time>2015-05-24T10:06:29Z</time>
      </trkpt>
      <trkpt lat="44.64918" lon="5.16979">
        <ele>1050.352173</ele>
        <time>2015-05-24T10:06:30Z</time>
      </trkpt>
      <trkpt lat="44.64916" lon="5.16978">
        <ele>1050.735718</ele>
        <time>2015-05-24T10:06:31Z</time>
      </trkpt>
      <trkpt lat="44.64914" lon="5.16977">
        <ele>1051.131104</ele>
        <time>2015-05-24T10:06:32Z</time>
      </trkpt>
      <trkpt lat="44.64912" lon="5.16976">
        <ele>1051.489258</ele>
        <time>2015-05-24T10:06:33Z</time>
      </trkpt>
      <trkpt lat="44.64887" lon="5.16963">
        <ele>1055.301025</ele>
        <time>2015-05-24T10:06:47Z</time>
      </trkpt>
      <trkpt lat="44.64866" lon="5.16946">
        <ele>1056.590698</ele>
        <time>2015-05-24T10:06:59Z</time>
      </trkpt>
      <trkpt lat="44.64854" lon="5.16937">
        <ele>1057.84436</ele>
        <time>2015-05-24T10:07:06Z</time>
      </trkpt>
      <trkpt lat="44.64852" lon="5.16936">
        <ele>1058.08252</ele>
        <time>2015-05-24T10:07:07Z</time>
      </trkpt>
      <trkpt lat="44.64851" lon="5.16934">
        <ele>1057.682007</ele>
        <time>2015-05-24T10:07:08Z</time>
      </trkpt>
      <trkpt lat="44.6485" lon="5.16932">
        <ele>1057.454834</ele>
        <time>2015-05-24T10:07:09Z</time>
      </trkpt>
      <trkpt lat="44.64848" lon="5.1693">
        <ele>1057.472534</ele>
        <time>2015-05-24T10:07:10Z</time>
      </trkpt>
      <trkpt lat="44.64847" lon="5.16929">
        <ele>1057.425781</ele>
        <time>2015-05-24T10:07:11Z</time>
      </trkpt>
      <trkpt lat="44.64845" lon="5.16927">
        <ele>1057.322144</ele>
        <time>2015-05-24T10:07:12Z</time>
      </trkpt>
      <trkpt lat="44.64844" lon="5.16926">
        <ele>1057.437134</ele>
        <time>2015-05-24T10:07:13Z</time>
      </trkpt>
      <trkpt lat="44.64842" lon="5.16924">
        <ele>1057.555054</ele>
        <time>2015-05-24T10:07:14Z</time>
      </trkpt>
      <trkpt lat="44.64823" lon="5.16906">
        <ele>1058.040527</ele>
        <time>2015-05-24T10:07:25Z</time>
      </trkpt>
      <trkpt lat="44.64819" lon="5.16902">
        <ele>1058.291138</ele>
        <time>2015-05-24T10:07:28Z</time>
      </trkpt>
      <trkpt lat="44.64818" lon="5.169">
        <ele>1058.268066</ele>
        <time>2015-05-24T10:07:29Z</time>
      </trkpt>
      <trkpt lat="44.64816" lon="5.16898">
        <ele>1058.391602</ele>
        <time>2015-05-24T10:07:30Z</time>
      </trkpt>
      <trkpt lat="44.64813" lon="5.16897">
        <ele>1058.689331</ele>
        <time>2015-05-24T10:07:31Z</time>
      </trkpt>
      <trkpt lat="44.64812" lon="5.16896">
        <ele>1058.980957</ele>
        <time>2015-05-24T10:07:32Z</time>
      </trkpt>
      <trkpt lat="44.6481" lon="5.16895">
        <ele>1059.287476</ele>
        <time>2015-05-24T10:07:33Z</time>
      </trkpt>
      <trkpt lat="44.64808" lon="5.16894">
        <ele>1059.620972</ele>
        <time>2015-05-24T10:07:34Z</time>
      </trkpt>
      <trkpt lat="44.64806" lon="5.16893">
        <ele>1059.705933</ele>
        <time>2015-05-24T10:07:35Z</time>
      </trkpt>
      <trkpt lat="44.64804" lon="5.16891">
        <ele>1059.683716</ele>
        <time>2015-05-24T10:07:36Z</time>
      </trkpt>
      <trkpt lat="44.64802" lon="5.1689">
        <ele>1059.646606</ele>
        <time>2015-05-24T10:07:37Z</time>
      </trkpt>
      <trkpt lat="44.648" lon="5.16888">
        <ele>1059.576782</ele>
        <time>2015-05-24T10:07:38Z</time>
      </trkpt>
      <trkpt lat="44.64799" lon="5.16887">
        <ele>1059.583008</ele>
        <time>2015-05-24T10:07:39Z</time>
      </trkpt>
      <trkpt lat="44.64797" lon="5.16886">
        <ele>1059.71936</ele>
        <time>2015-05-24T10:07:40Z</time>
      </trkpt>
      <trkpt lat="44.64795" lon="5.16885">
        <ele>1059.856812</ele>
        <time>2015-05-24T10:07:41Z</time>
      </trkpt>
      <trkpt lat="44.64794" lon="5.16885">
        <ele>1060.139771</ele>
        <time>2015-05-24T10:07:42Z</time>
      </trkpt>
      <trkpt lat="44.64792" lon="5.16885">
        <ele>1060.494141</ele>
        <time>2015-05-24T10:07:43Z</time>
      </trkpt>
      <trkpt lat="44.6479" lon="5.16885">
        <ele>1060.796021</ele>
        <time>2015-05-24T10:07:44Z</time>
      </trkpt>
      <trkpt lat="44.64788" lon="5.16885">
        <ele>1061.080444</ele>
        <time>2015-05-24T10:07:45Z</time>
      </trkpt>
      <trkpt lat="44.64786" lon="5.16885">
        <ele>1061.384155</ele>
        <time>2015-05-24T10:07:46Z</time>
      </trkpt>
      <trkpt lat="44.64784" lon="5.16884">
        <ele>1061.669434</ele>
        <time>2015-05-24T10:07:47Z</time>
      </trkpt>
      <trkpt lat="44.64782" lon="5.16884">
        <ele>1061.865601</ele>
        <time>2015-05-24T10:07:48Z</time>
      </trkpt>
      <trkpt lat="44.64781" lon="5.16883">
        <ele>1062.064575</ele>
        <time>2015-05-24T10:07:49Z</time>
      </trkpt>
      <trkpt lat="44.64779" lon="5.16883">
        <ele>1062.331055</ele>
        <time>2015-05-24T10:07:50Z</time>
      </trkpt>
      <trkpt lat="44.64768" lon="5.16883">
        <ele>1064.307007</ele>
        <time>2015-05-24T10:07:56Z</time>
      </trkpt>
      <trkpt lat="44.64765" lon="5.16883">
        <ele>1064.646973</ele>
        <time>2015-05-24T10:07:57Z</time>
      </trkpt>
      <trkpt lat="44.64741" lon="5.16888">
        <ele>1065.232544</ele>
        <time>2015-05-24T10:08:10Z</time>
      </trkpt>
      <trkpt lat="44.64715" lon="5.16901">
        <ele>1066.574951</ele>
        <time>2015-05-24T10:08:25Z</time>
      </trkpt>
      <trkpt lat="44.64713" lon="5.16902">
        <ele>1066.512573</ele>
        <time>2015-05-24T10:08:26Z</time>
      </trkpt>
      <trkpt lat="44.6471" lon="5.16904">
        <ele>1066.570679</ele>
        <time>2015-05-24T10:08:27Z</time>
      </trkpt>
      <trkpt lat="44.6469" lon="5.16918">
        <ele>1066.904785</ele>
        <time>2015-05-24T10:08:38Z</time>
      </trkpt>
      <trkpt lat="44.64675" lon="5.1693">
        <ele>1067.880493</ele>
        <time>2015-05-24T10:08:47Z</time>
      </trkpt>
      <trkpt lat="44.64658" lon="5.16949">
        <ele>1068.95166</ele>
        <time>2015-05-24T10:08:57Z</time>
      </trkpt>
      <trkpt lat="44.64639" lon="5.1697">
        <ele>1070.030273</ele>
        <time>2015-05-24T10:09:10Z</time>
      </trkpt>
      <trkpt lat="44.6462" lon="5.16993">
        <ele>1071.175049</ele>
        <time>2015-05-24T10:09:22Z</time>
      </trkpt>
      <trkpt lat="44.64598" lon="5.17024">
        <ele>1070.641235</ele>
        <time>2015-05-24T10:09:36Z</time>
      </trkpt>
      <trkpt lat="44.64582" lon="5.17059">
        <ele>1071.030396</ele>
        <time>2015-05-24T10:09:50Z</time>
      </trkpt>
      <trkpt lat="44.6458" lon="5.17068">
        <ele>1070.861816</ele>
        <time>2015-05-24T10:09:53Z</time>
      </trkpt>
      <trkpt lat="44.6458" lon="5.17071">
        <ele>1070.970581</ele>
        <time>2015-05-24T10:09:54Z</time>
      </trkpt>
      <trkpt lat="44.6458" lon="5.17074">
        <ele>1071.105225</ele>
        <time>2015-05-24T10:09:55Z</time>
      </trkpt>
      <trkpt lat="44.6458" lon="5.17078">
        <ele>1071.208984</ele>
        <time>2015-05-24T10:09:56Z</time>
      </trkpt>
      <trkpt lat="44.64581" lon="5.17081">
        <ele>1071.461792</ele>
        <time>2015-05-24T10:09:57Z</time>
      </trkpt>
      <trkpt lat="44.64581" lon="5.17084">
        <ele>1071.74231</ele>
        <time>2015-05-24T10:09:58Z</time>
      </trkpt>
      <trkpt lat="44.64588" lon="5.17126">
        <ele>1073.58374</ele>
        <time>2015-05-24T10:10:11Z</time>
      </trkpt>
      <trkpt lat="44.64589" lon="5.17131">
        <ele>1073.418457</ele>
        <time>2015-05-24T10:10:13Z</time>
      </trkpt>
      <trkpt lat="44.6459" lon="5.17133">
        <ele>1073.533813</ele>
        <time>2015-05-24T10:10:14Z</time>
      </trkpt>
      <trkpt lat="44.64591" lon="5.17136">
        <ele>1073.601929</ele>
        <time>2015-05-24T10:10:15Z</time>
      </trkpt>
      <trkpt lat="44.64591" lon="5.17138">
        <ele>1073.543335</ele>
        <time>2015-05-24T10:10:16Z</time>
      </trkpt>
      <trkpt lat="44.64592" lon="5.17141">
        <ele>1073.46106</ele>
        <time>2015-05-24T10:10:17Z</time>
      </trkpt>
      <trkpt lat="44.64592" lon="5.17144">
        <ele>1073.436279</ele>
        <time>2015-05-24T10:10:18Z</time>
      </trkpt>
      <trkpt lat="44.64593" lon="5.17147">
        <ele>1073.443359</ele>
        <time>2015-05-24T10:10:19Z</time>
      </trkpt>
      <trkpt lat="44.64594" lon="5.1715">
        <ele>1073.449219</ele>
        <time>2015-05-24T10:10:20Z</time>
      </trkpt>
      <trkpt lat="44.64594" lon="5.17153">
        <ele>1073.466187</ele>
        <time>2015-05-24T10:10:21Z</time>
      </trkpt>
      <trkpt lat="44.64595" lon="5.17155">
        <ele>1073.541138</ele>
        <time>2015-05-24T10:10:22Z</time>
      </trkpt>
      <trkpt lat="44.64598" lon="5.17163">
        <ele>1074.057129</ele>
        <time>2015-05-24T10:10:25Z</time>
      </trkpt>
      <trkpt lat="44.64599" lon="5.17165">
        <ele>1074.083862</ele>
        <time>2015-05-24T10:10:26Z</time>
      </trkpt>
      <trkpt lat="44.64604" lon="5.17176">
        <ele>1075.249512</ele>
        <time>2015-05-24T10:10:32Z</time>
      </trkpt>
      <trkpt lat="44.64606" lon="5.17178">
        <ele>1075.563965</ele>
        <time>2015-05-24T10:10:33Z</time>
      </trkpt>
      <trkpt lat="44.64626" lon="5.17196">
        <ele>1079.1604</ele>
        <time>2015-05-24T10:10:47Z</time>
      </trkpt>
      <trkpt lat="44.64653" lon="5.17205">
        <ele>1084.719971</ele>
        <time>2015-05-24T10:10:58Z</time>
      </trkpt>
      <trkpt lat="44.64658" lon="5.17208">
        <ele>1085.743408</ele>
        <time>2015-05-24T10:11:01Z</time>
      </trkpt>
      <trkpt lat="44.6466" lon="5.17209">
        <ele>1086.146484</ele>
        <time>2015-05-24T10:11:02Z</time>
      </trkpt>
      <trkpt lat="44.64663" lon="5.1721">
        <ele>1086.825562</ele>
        <time>2015-05-24T10:11:03Z</time>
      </trkpt>
      <trkpt lat="44.64674" lon="5.17218">
        <ele>1088.337769</ele>
        <time>2015-05-24T10:11:10Z</time>
      </trkpt>
      <trkpt lat="44.64676" lon="5.1722">
        <ele>1088.41748</ele>
        <time>2015-05-24T10:11:11Z</time>
      </trkpt>
      <trkpt lat="44.64677" lon="5.17222">
        <ele>1088.588623</ele>
        <time>2015-05-24T10:11:12Z</time>
      </trkpt>
      <trkpt lat="44.64679" lon="5.17224">
        <ele>1088.820679</ele>
        <time>2015-05-24T10:11:13Z</time>
      </trkpt>
      <trkpt lat="44.64681" lon="5.17225">
        <ele>1089.016602</ele>
        <time>2015-05-24T10:11:14Z</time>
      </trkpt>
      <trkpt lat="44.64682" lon="5.17228">
        <ele>1089.199097</ele>
        <time>2015-05-24T10:11:15Z</time>
      </trkpt>
      <trkpt lat="44.64684" lon="5.1723">
        <ele>1089.349243</ele>
        <time>2015-05-24T10:11:16Z</time>
      </trkpt>
      <trkpt lat="44.64687" lon="5.17234">
        <ele>1089.806763</ele>
        <time>2015-05-24T10:11:19Z</time>
      </trkpt>
      <trkpt lat="44.64688" lon="5.17235">
        <ele>1089.983032</ele>
        <time>2015-05-24T10:11:20Z</time>
      </trkpt>
      <trkpt lat="44.64694" lon="5.17241">
        <ele>1090.997314</ele>
        <time>2015-05-24T10:11:24Z</time>
      </trkpt>
      <trkpt lat="44.64713" lon="5.17264">
        <ele>1092.085938</ele>
        <time>2015-05-24T10:11:37Z</time>
      </trkpt>
      <trkpt lat="44.64732" lon="5.17286">
        <ele>1093.360107</ele>
        <time>2015-05-24T10:11:49Z</time>
      </trkpt>
      <trkpt lat="44.64734" lon="5.17289">
        <ele>1093.724121</ele>
        <time>2015-05-24T10:11:51Z</time>
      </trkpt>
      <trkpt lat="44.64737" lon="5.17292">
        <ele>1093.993774</ele>
        <time>2015-05-24T10:11:53Z</time>
      </trkpt>
      <trkpt lat="44.6474" lon="5.17295">
        <ele>1094.478027</ele>
        <time>2015-05-24T10:11:55Z</time>
      </trkpt>
      <trkpt lat="44.64741" lon="5.17297">
        <ele>1094.665894</ele>
        <time>2015-05-24T10:11:56Z</time>
      </trkpt>
      <trkpt lat="44.64742" lon="5.17299">
        <ele>1094.859375</ele>
        <time>2015-05-24T10:11:57Z</time>
      </trkpt>
      <trkpt lat="44.64744" lon="5.17301">
        <ele>1095.131226</ele>
        <time>2015-05-24T10:11:58Z</time>
      </trkpt>
      <trkpt lat="44.64746" lon="5.17303">
        <ele>1095.424438</ele>
        <time>2015-05-24T10:11:59Z</time>
      </trkpt>
      <trkpt lat="44.64747" lon="5.17305">
        <ele>1095.685303</ele>
        <time>2015-05-24T10:12:00Z</time>
      </trkpt>
      <trkpt lat="44.64761" lon="5.17321">
        <ele>1096.493408</ele>
        <time>2015-05-24T10:12:10Z</time>
      </trkpt>
      <trkpt lat="44.6477" lon="5.17329">
        <ele>1096.973145</ele>
        <time>2015-05-24T10:12:17Z</time>
      </trkpt>
      <trkpt lat="44.64771" lon="5.17331">
        <ele>1096.992432</ele>
        <time>2015-05-24T10:12:18Z</time>
      </trkpt>
      <trkpt lat="44.64772" lon="5.17333">
        <ele>1097.104736</ele>
        <time>2015-05-24T10:12:19Z</time>
      </trkpt>
      <trkpt lat="44.64774" lon="5.17334">
        <ele>1097.16333</ele>
        <time>2015-05-24T10:12:20Z</time>
      </trkpt>
      <trkpt lat="44.64775" lon="5.17336">
        <ele>1097.214355</ele>
        <time>2015-05-24T10:12:21Z</time>
      </trkpt>
      <trkpt lat="44.64776" lon="5.17337">
        <ele>1097.48999</ele>
        <time>2015-05-24T10:12:22Z</time>
      </trkpt>
      <trkpt lat="44.64779" lon="5.1734">
        <ele>1097.869995</ele>
        <time>2015-05-24T10:12:24Z</time>
      </trkpt>
      <trkpt lat="44.64783" lon="5.17342">
        <ele>1098.701294</ele>
        <time>2015-05-24T10:12:25Z</time>
      </trkpt>
      <trkpt lat="44.64787" lon="5.17344">
        <ele>1099.310669</ele>
        <time>2015-05-24T10:12:26Z</time>
      </trkpt>
      <trkpt lat="44.64789" lon="5.17346">
        <ele>1099.74939</ele>
        <time>2015-05-24T10:12:27Z</time>
      </trkpt>
      <trkpt lat="44.64791" lon="5.17348">
        <ele>1100.199951</ele>
        <time>2015-05-24T10:12:28Z</time>
      </trkpt>
      <trkpt lat="44.64793" lon="5.1735">
        <ele>1100.556641</ele>
        <time>2015-05-24T10:12:29Z</time>
      </trkpt>
      <trkpt lat="44.64795" lon="5.17352">
        <ele>1100.872803</ele>
        <time>2015-05-24T10:12:30Z</time>
      </trkpt>
      <trkpt lat="44.64797" lon="5.17354">
        <ele>1101.222168</ele>
        <time>2015-05-24T10:12:31Z</time>
      </trkpt>
      <trkpt lat="44.64798" lon="5.17355">
        <ele>1101.443115</ele>
        <time>2015-05-24T10:12:32Z</time>
      </trkpt>
      <trkpt lat="44.648" lon="5.17356">
        <ele>1101.601563</ele>
        <time>2015-05-24T10:12:33Z</time>
      </trkpt>
      <trkpt lat="44.64801" lon="5.17357">
        <ele>1101.762451</ele>
        <time>2015-05-24T10:12:34Z</time>
      </trkpt>
      <trkpt lat="44.64803" lon="5.17359">
        <ele>1101.89856</ele>
        <time>2015-05-24T10:12:35Z</time>
      </trkpt>
      <trkpt lat="44.64819" lon="5.17376">
        <ele>1104.076782</ele>
        <time>2015-05-24T10:12:46Z</time>
      </trkpt>
      <trkpt lat="44.64824" lon="5.17379">
        <ele>1104.690186</ele>
        <time>2015-05-24T10:12:49Z</time>
      </trkpt>
      <trkpt lat="44.64826" lon="5.1738">
        <ele>1104.824463</ele>
        <time>2015-05-24T10:12:50Z</time>
      </trkpt>
      <trkpt lat="44.64828" lon="5.17381">
        <ele>1105.16394</ele>
        <time>2015-05-24T10:12:51Z</time>
      </trkpt>
      <trkpt lat="44.6483" lon="5.17382">
        <ele>1105.434082</ele>
        <time>2015-05-24T10:12:52Z</time>
      </trkpt>
      <trkpt lat="44.64832" lon="5.17383">
        <ele>1105.802368</ele>
        <time>2015-05-24T10:12:53Z</time>
      </trkpt>
      <trkpt lat="44.64847" lon="5.17393">
        <ele>1107.697144</ele>
        <time>2015-05-24T10:13:05Z</time>
      </trkpt>
      <trkpt lat="44.64851" lon="5.17397">
        <ele>1108.040527</ele>
        <time>2015-05-24T10:13:08Z</time>
      </trkpt>
      <trkpt lat="44.64853" lon="5.174">
        <ele>1108.247437</ele>
        <time>2015-05-24T10:13:09Z</time>
      </trkpt>
      <trkpt lat="44.64873" lon="5.17431">
        <ele>1111.370117</ele>
        <time>2015-05-24T10:13:22Z</time>
      </trkpt>
      <trkpt lat="44.64879" lon="5.17461">
        <ele>1112.973267</ele>
        <time>2015-05-24T10:13:34Z</time>
      </trkpt>
      <trkpt lat="44.64877" lon="5.17483">
        <ele>1112.60022</ele>
        <time>2015-05-24T10:13:46Z</time>
      </trkpt>
      <trkpt lat="44.64873" lon="5.17514">
        <ele>1111.612061</ele>
        <time>2015-05-24T10:13:59Z</time>
      </trkpt>
      <trkpt lat="44.64868" lon="5.17552">
        <ele>1110.801025</ele>
        <time>2015-05-24T10:14:12Z</time>
      </trkpt>
      <trkpt lat="44.64866" lon="5.17573">
        <ele>1109.919189</ele>
        <time>2015-05-24T10:14:20Z</time>
      </trkpt>
      <trkpt lat="44.64866" lon="5.17576">
        <ele>1109.836548</ele>
        <time>2015-05-24T10:14:21Z</time>
      </trkpt>
      <trkpt lat="44.64866" lon="5.17578">
        <ele>1109.703003</ele>
        <time>2015-05-24T10:14:22Z</time>
      </trkpt>
      <trkpt lat="44.6487" lon="5.17605">
        <ele>1110.449951</ele>
        <time>2015-05-24T10:14:32Z</time>
      </trkpt>
      <trkpt lat="44.64871" lon="5.17608">
        <ele>1111.233032</ele>
        <time>2015-05-24T10:14:34Z</time>
      </trkpt>
      <trkpt lat="44.64877" lon="5.17616">
        <ele>1113.636841</ele>
        <time>2015-05-24T10:14:39Z</time>
      </trkpt>
      <trkpt lat="44.64878" lon="5.17617">
        <ele>1114.275757</ele>
        <time>2015-05-24T10:14:40Z</time>
      </trkpt>
      <trkpt lat="44.64879" lon="5.1762">
        <ele>1114.830933</ele>
        <time>2015-05-24T10:14:41Z</time>
      </trkpt>
      <trkpt lat="44.6488" lon="5.17622">
        <ele>1115.430542</ele>
        <time>2015-05-24T10:14:42Z</time>
      </trkpt>
      <trkpt lat="44.64882" lon="5.17624">
        <ele>1115.927612</ele>
        <time>2015-05-24T10:14:43Z</time>
      </trkpt>
      <trkpt lat="44.64882" lon="5.17626">
        <ele>1116.234131</ele>
        <time>2015-05-24T10:14:44Z</time>
      </trkpt>
      <trkpt lat="44.64888" lon="5.17647">
        <ele>1117.217529</ele>
        <time>2015-05-24T10:14:55Z</time>
      </trkpt>
      <trkpt lat="44.64888" lon="5.1765">
        <ele>1116.925049</ele>
        <time>2015-05-24T10:14:56Z</time>
      </trkpt>
      <trkpt lat="44.64887" lon="5.17654">
        <ele>1116.402344</ele>
        <time>2015-05-24T10:14:58Z</time>
      </trkpt>
      <trkpt lat="44.64887" lon="5.17656">
        <ele>1116.012085</ele>
        <time>2015-05-24T10:14:59Z</time>
      </trkpt>
      <trkpt lat="44.64886" lon="5.1766">
        <ele>1115.509277</ele>
        <time>2015-05-24T10:15:01Z</time>
      </trkpt>
      <trkpt lat="44.64887" lon="5.17662">
        <ele>1115.402466</ele>
        <time>2015-05-24T10:15:02Z</time>
      </trkpt>
      <trkpt lat="44.64887" lon="5.17671">
        <ele>1114.929688</ele>
        <time>2015-05-24T10:15:07Z</time>
      </trkpt>
      <trkpt lat="44.64888" lon="5.17673">
        <ele>1115.281372</ele>
        <time>2015-05-24T10:15:08Z</time>
      </trkpt>
      <trkpt lat="44.64889" lon="5.17675">
        <ele>1115.443848</ele>
        <time>2015-05-24T10:15:09Z</time>
      </trkpt>
      <trkpt lat="44.6489" lon="5.17678">
        <ele>1115.38916</ele>
        <time>2015-05-24T10:15:10Z</time>
      </trkpt>
      <trkpt lat="44.6489" lon="5.17681">
        <ele>1115.208374</ele>
        <time>2015-05-24T10:15:11Z</time>
      </trkpt>
      <trkpt lat="44.6489" lon="5.17684">
        <ele>1115.282104</ele>
        <time>2015-05-24T10:15:12Z</time>
      </trkpt>
      <trkpt lat="44.64891" lon="5.17687">
        <ele>1115.570557</ele>
        <time>2015-05-24T10:15:13Z</time>
      </trkpt>
      <trkpt lat="44.64892" lon="5.17689">
        <ele>1115.811646</ele>
        <time>2015-05-24T10:15:14Z</time>
      </trkpt>
      <trkpt lat="44.64893" lon="5.17691">
        <ele>1116.146729</ele>
        <time>2015-05-24T10:15:15Z</time>
      </trkpt>
      <trkpt lat="44.64895" lon="5.17692">
        <ele>1116.511353</ele>
        <time>2015-05-24T10:15:16Z</time>
      </trkpt>
      <trkpt lat="44.649" lon="5.17702">
        <ele>1118.244385</ele>
        <time>2015-05-24T10:15:21Z</time>
      </trkpt>
      <trkpt lat="44.64902" lon="5.17704">
        <ele>1118.824219</ele>
        <time>2015-05-24T10:15:22Z</time>
      </trkpt>
      <trkpt lat="44.64904" lon="5.17705">
        <ele>1119.455933</ele>
        <time>2015-05-24T10:15:23Z</time>
      </trkpt>
      <trkpt lat="44.64914" lon="5.17718">
        <ele>1122.723755</ele>
        <time>2015-05-24T10:15:31Z</time>
      </trkpt>
      <trkpt lat="44.64928" lon="5.17738">
        <ele>1125.808228</ele>
        <time>2015-05-24T10:15:41Z</time>
      </trkpt>
      <trkpt lat="44.64932" lon="5.17742">
        <ele>1126.584351</ele>
        <time>2015-05-24T10:15:43Z</time>
      </trkpt>
      <trkpt lat="44.64933" lon="5.17744">
        <ele>1126.727173</ele>
        <time>2015-05-24T10:15:44Z</time>
      </trkpt>
      <trkpt lat="44.64934" lon="5.17746">
        <ele>1126.836426</ele>
        <time>2015-05-24T10:15:45Z</time>
      </trkpt>
      <trkpt lat="44.64935" lon="5.17748">
        <ele>1126.929321</ele>
        <time>2015-05-24T10:15:46Z</time>
      </trkpt>
      <trkpt lat="44.64935" lon="5.1775">
        <ele>1126.99585</ele>
        <time>2015-05-24T10:15:47Z</time>
      </trkpt>
      <trkpt lat="44.64936" lon="5.17752">
        <ele>1127.051758</ele>
        <time>2015-05-24T10:15:48Z</time>
      </trkpt>
      <trkpt lat="44.64937" lon="5.17754">
        <ele>1127.120728</ele>
        <time>2015-05-24T10:15:49Z</time>
      </trkpt>
      <trkpt lat="44.64938" lon="5.17757">
        <ele>1127.131958</ele>
        <time>2015-05-24T10:15:50Z</time>
      </trkpt>
      <trkpt lat="44.64938" lon="5.17758">
        <ele>1127.21167</ele>
        <time>2015-05-24T10:15:51Z</time>
      </trkpt>
      <trkpt lat="44.6494" lon="5.1776">
        <ele>1127.494995</ele>
        <time>2015-05-24T10:15:52Z</time>
      </trkpt>
      <trkpt lat="44.64941" lon="5.17763">
        <ele>1127.880005</ele>
        <time>2015-05-24T10:15:53Z</time>
      </trkpt>
      <trkpt lat="44.64942" lon="5.17765">
        <ele>1128.119995</ele>
        <time>2015-05-24T10:15:54Z</time>
      </trkpt>
      <trkpt lat="44.64943" lon="5.17767">
        <ele>1128.265015</ele>
        <time>2015-05-24T10:15:55Z</time>
      </trkpt>
      <trkpt lat="44.64944" lon="5.1777">
        <ele>1128.326294</ele>
        <time>2015-05-24T10:15:56Z</time>
      </trkpt>
      <trkpt lat="44.64947" lon="5.17773">
        <ele>1129.21875</ele>
        <time>2015-05-24T10:15:57Z</time>
      </trkpt>
      <trkpt lat="44.64951" lon="5.1778">
        <ele>1130.265015</ele>
        <time>2015-05-24T10:16:00Z</time>
      </trkpt>
      <trkpt lat="44.64953" lon="5.17783">
        <ele>1130.665039</ele>
        <time>2015-05-24T10:16:01Z</time>
      </trkpt>
      <trkpt lat="44.6496" lon="5.17797">
        <ele>1132.282471</ele>
        <time>2015-05-24T10:16:08Z</time>
      </trkpt>
      <trkpt lat="44.64961" lon="5.17799">
        <ele>1132.313721</ele>
        <time>2015-05-24T10:16:09Z</time>
      </trkpt>
      <trkpt lat="44.64961" lon="5.17801">
        <ele>1132.32373</ele>
        <time>2015-05-24T10:16:10Z</time>
      </trkpt>
      <trkpt lat="44.64962" lon="5.17803">
        <ele>1132.336304</ele>
        <time>2015-05-24T10:16:11Z</time>
      </trkpt>
      <trkpt lat="44.64962" lon="5.17806">
        <ele>1132.46875</ele>
        <time>2015-05-24T10:16:12Z</time>
      </trkpt>
      <trkpt lat="44.64963" lon="5.17808">
        <ele>1132.66626</ele>
        <time>2015-05-24T10:16:13Z</time>
      </trkpt>
      <trkpt lat="44.64963" lon="5.1781">
        <ele>1132.506226</ele>
        <time>2015-05-24T10:16:14Z</time>
      </trkpt>
      <trkpt lat="44.6497" lon="5.17828">
        <ele>1133.572754</ele>
        <time>2015-05-24T10:16:22Z</time>
      </trkpt>
      <trkpt lat="44.6497" lon="5.1783">
        <ele>1133.398315</ele>
        <time>2015-05-24T10:16:23Z</time>
      </trkpt>
      <trkpt lat="44.6497" lon="5.17833">
        <ele>1133.404785</ele>
        <time>2015-05-24T10:16:24Z</time>
      </trkpt>
      <trkpt lat="44.64971" lon="5.17835">
        <ele>1133.31189</ele>
        <time>2015-05-24T10:16:25Z</time>
      </trkpt>
      <trkpt lat="44.64971" lon="5.17838">
        <ele>1133.171875</ele>
        <time>2015-05-24T10:16:26Z</time>
      </trkpt>
      <trkpt lat="44.64971" lon="5.17841">
        <ele>1132.927246</ele>
        <time>2015-05-24T10:16:27Z</time>
      </trkpt>
      <trkpt lat="44.64971" lon="5.17843">
        <ele>1132.860962</ele>
        <time>2015-05-24T10:16:28Z</time>
      </trkpt>
      <trkpt lat="44.64972" lon="5.17845">
        <ele>1132.82666</ele>
        <time>2015-05-24T10:16:29Z</time>
      </trkpt>
      <trkpt lat="44.64972" lon="5.17848">
        <ele>1132.762695</ele>
        <time>2015-05-24T10:16:30Z</time>
      </trkpt>
      <trkpt lat="44.64972" lon="5.1785">
        <ele>1132.629395</ele>
        <time>2015-05-24T10:16:31Z</time>
      </trkpt>
      <trkpt lat="44.64973" lon="5.17853">
        <ele>1132.611938</ele>
        <time>2015-05-24T10:16:32Z</time>
      </trkpt>
      <trkpt lat="44.64974" lon="5.17855">
        <ele>1132.789063</ele>
        <time>2015-05-24T10:16:33Z</time>
      </trkpt>
      <trkpt lat="44.64975" lon="5.17857">
        <ele>1133.082153</ele>
        <time>2015-05-24T10:16:34Z</time>
      </trkpt>
      <trkpt lat="44.64979" lon="5.17867">
        <ele>1133.421631</ele>
        <time>2015-05-24T10:16:39Z</time>
      </trkpt>
      <trkpt lat="44.64979" lon="5.17869">
        <ele>1133.342285</ele>
        <time>2015-05-24T10:16:40Z</time>
      </trkpt>
      <trkpt lat="44.64993" lon="5.17891">
        <ele>1135.665161</ele>
        <time>2015-05-24T10:16:51Z</time>
      </trkpt>
      <trkpt lat="44.65007" lon="5.17919">
        <ele>1137.626953</ele>
        <time>2015-05-24T10:17:05Z</time>
      </trkpt>
      <trkpt lat="44.6502" lon="5.17943">
        <ele>1140.30542</ele>
        <time>2015-05-24T10:17:18Z</time>
      </trkpt>
      <trkpt lat="44.65023" lon="5.17958">
        <ele>1140.913452</ele>
        <time>2015-05-24T10:17:30Z</time>
      </trkpt>
      <trkpt lat="44.65025" lon="5.1796">
        <ele>1141.564331</ele>
        <time>2015-05-24T10:17:31Z</time>
      </trkpt>
      <trkpt lat="44.65027" lon="5.17963">
        <ele>1142.422607</ele>
        <time>2015-05-24T10:17:32Z</time>
      </trkpt>
      <trkpt lat="44.65035" lon="5.17974">
        <ele>1145.25769</ele>
        <time>2015-05-24T10:17:37Z</time>
      </trkpt>
      <trkpt lat="44.65036" lon="5.17977">
        <ele>1145.582764</ele>
        <time>2015-05-24T10:17:38Z</time>
      </trkpt>
      <trkpt lat="44.65037" lon="5.1798">
        <ele>1145.852905</ele>
        <time>2015-05-24T10:17:39Z</time>
      </trkpt>
      <trkpt lat="44.65056" lon="5.18007">
        <ele>1150.850342</ele>
        <time>2015-05-24T10:17:51Z</time>
      </trkpt>
      <trkpt lat="44.65064" lon="5.18034">
        <ele>1154.480835</ele>
        <time>2015-05-24T10:18:04Z</time>
      </trkpt>
      <trkpt lat="44.65059" lon="5.18043">
        <ele>1153.506348</ele>
        <time>2015-05-24T10:18:13Z</time>
      </trkpt>
      <trkpt lat="44.65055" lon="5.18038">
        <ele>1151.447144</ele>
        <time>2015-05-24T10:18:20Z</time>
      </trkpt>
      <trkpt lat="44.65045" lon="5.18048">
        <ele>1150.529175</ele>
        <time>2015-05-24T10:18:23Z</time>
      </trkpt>
      <trkpt lat="44.6502" lon="5.18066">
        <ele>1154.725342</ele>
        <time>2015-05-24T10:18:32Z</time>
      </trkpt>
      <trkpt lat="44.65016" lon="5.1807">
        <ele>1156.170288</ele>
        <time>2015-05-24T10:18:33Z</time>
      </trkpt>
      <trkpt lat="44.65012" lon="5.18072">
        <ele>1156.975708</ele>
        <time>2015-05-24T10:18:34Z</time>
      </trkpt>
      <trkpt lat="44.64991" lon="5.18056">
        <ele>1156.035645</ele>
        <time>2015-05-24T10:18:45Z</time>
      </trkpt>
      <trkpt lat="44.64987" lon="5.18053">
        <ele>1155.88562</ele>
        <time>2015-05-24T10:18:47Z</time>
      </trkpt>
      <trkpt lat="44.64964" lon="5.18032">
        <ele>1153.188354</ele>
        <time>2015-05-24T10:19:00Z</time>
      </trkpt>
      <trkpt lat="44.64934" lon="5.18034">
        <ele>1156.618774</ele>
        <time>2015-05-24T10:19:15Z</time>
      </trkpt>
      <trkpt lat="44.64912" lon="5.1805">
        <ele>1163.071045</ele>
        <time>2015-05-24T10:19:29Z</time>
      </trkpt>
      <trkpt lat="44.64888" lon="5.18045">
        <ele>1166.252441</ele>
        <time>2015-05-24T10:19:42Z</time>
      </trkpt>
      <trkpt lat="44.6488" lon="5.18033">
        <ele>1164.67395</ele>
        <time>2015-05-24T10:19:49Z</time>
      </trkpt>
      <trkpt lat="44.64877" lon="5.18021">
        <ele>1161.764648</ele>
        <time>2015-05-24T10:19:54Z</time>
      </trkpt>
      <trkpt lat="44.64874" lon="5.18011">
        <ele>1159.727783</ele>
        <time>2015-05-24T10:19:58Z</time>
      </trkpt>
      <trkpt lat="44.64871" lon="5.17997">
        <ele>1157.332275</ele>
        <time>2015-05-24T10:20:04Z</time>
      </trkpt>
      <trkpt lat="44.64869" lon="5.17989">
        <ele>1156.489624</ele>
        <time>2015-05-24T10:20:07Z</time>
      </trkpt>
      <trkpt lat="44.64857" lon="5.17976">
        <ele>1157.265503</ele>
        <time>2015-05-24T10:20:12Z</time>
      </trkpt>
      <trkpt lat="44.64846" lon="5.17968">
        <ele>1158.937012</ele>
        <time>2015-05-24T10:20:18Z</time>
      </trkpt>
      <trkpt lat="44.64839" lon="5.17969">
        <ele>1161.447998</ele>
        <time>2015-05-24T10:20:23Z</time>
      </trkpt>
      <trkpt lat="44.64833" lon="5.17969">
        <ele>1162.860229</ele>
        <time>2015-05-24T10:20:27Z</time>
      </trkpt>
      <trkpt lat="44.64814" lon="5.17969">
        <ele>1167.533203</ele>
        <time>2015-05-24T10:20:39Z</time>
      </trkpt>
      <trkpt lat="44.64803" lon="5.17967">
        <ele>1169.065918</ele>
        <time>2015-05-24T10:20:48Z</time>
      </trkpt>
      <trkpt lat="44.64783" lon="5.17969">
        <ele>1173.63916</ele>
        <time>2015-05-24T10:21:03Z</time>
      </trkpt>
      <trkpt lat="44.64768" lon="5.17969">
        <ele>1175.933594</ele>
        <time>2015-05-24T10:21:14Z</time>
      </trkpt>
      <trkpt lat="44.64748" lon="5.17971">
        <ele>1179.094238</ele>
        <time>2015-05-24T10:21:26Z</time>
      </trkpt>
      <trkpt lat="44.6474" lon="5.17973">
        <ele>1180.409302</ele>
        <time>2015-05-24T10:21:31Z</time>
      </trkpt>
      <trkpt lat="44.64736" lon="5.17972">
        <ele>1180.797852</ele>
        <time>2015-05-24T10:21:35Z</time>
      </trkpt>
      <trkpt lat="44.64715" lon="5.17977">
        <ele>1183.474121</ele>
        <time>2015-05-24T10:21:47Z</time>
      </trkpt>
      <trkpt lat="44.64696" lon="5.17974">
        <ele>1184.609253</ele>
        <time>2015-05-24T10:22:00Z</time>
      </trkpt>
      <trkpt lat="44.64686" lon="5.1797">
        <ele>1184.927856</ele>
        <time>2015-05-24T10:22:08Z</time>
      </trkpt>
      <trkpt lat="44.64667" lon="5.17959">
        <ele>1185.316162</ele>
        <time>2015-05-24T10:22:21Z</time>
      </trkpt>
      <trkpt lat="44.64652" lon="5.17938">
        <ele>1184.759888</ele>
        <time>2015-05-24T10:22:35Z</time>
      </trkpt>
      <trkpt lat="44.64646" lon="5.17933">
        <ele>1184.984375</ele>
        <time>2015-05-24T10:22:41Z</time>
      </trkpt>
      <trkpt lat="44.64632" lon="5.17918">
        <ele>1185.254761</ele>
        <time>2015-05-24T10:22:54Z</time>
      </trkpt>
      <trkpt lat="44.64622" lon="5.17907">
        <ele>1185.444214</ele>
        <time>2015-05-24T10:23:04Z</time>
      </trkpt>
      <trkpt lat="44.64605" lon="5.17897">
        <ele>1186.610718</ele>
        <time>2015-05-24T10:23:17Z</time>
      </trkpt>
      <trkpt lat="44.64588" lon="5.17891">
        <ele>1187.785522</ele>
        <time>2015-05-24T10:23:30Z</time>
      </trkpt>
      <trkpt lat="44.64574" lon="5.17885">
        <ele>1188.475586</ele>
        <time>2015-05-24T10:23:41Z</time>
      </trkpt>
      <trkpt lat="44.6456" lon="5.17882">
        <ele>1189.484131</ele>
        <time>2015-05-24T10:23:51Z</time>
      </trkpt>
      <trkpt lat="44.64532" lon="5.17891">
        <ele>1187.65271</ele>
        <time>2015-05-24T10:24:06Z</time>
      </trkpt>
      <trkpt lat="44.64516" lon="5.17917">
        <ele>1186.572632</ele>
        <time>2015-05-24T10:24:20Z</time>
      </trkpt>
      <trkpt lat="44.64518" lon="5.17941">
        <ele>1188.029907</ele>
        <time>2015-05-24T10:24:28Z</time>
      </trkpt>
      <trkpt lat="44.64525" lon="5.17955">
        <ele>1190.437622</ele>
        <time>2015-05-24T10:24:34Z</time>
      </trkpt>
      <trkpt lat="44.64527" lon="5.1796">
        <ele>1191.505005</ele>
        <time>2015-05-24T10:24:36Z</time>
      </trkpt>
      <trkpt lat="44.64533" lon="5.17971">
        <ele>1194.028809</ele>
        <time>2015-05-24T10:24:42Z</time>
      </trkpt>
      <trkpt lat="44.64553" lon="5.18006">
        <ele>1200.97876</ele>
        <time>2015-05-24T10:24:56Z</time>
      </trkpt>
      <trkpt lat="44.64557" lon="5.18055">
        <ele>1196.875488</ele>
        <time>2015-05-24T10:25:11Z</time>
      </trkpt>
      <trkpt lat="44.64557" lon="5.18081">
        <ele>1195.165771</ele>
        <time>2015-05-24T10:25:23Z</time>
      </trkpt>
      <trkpt lat="44.64556" lon="5.18129">
        <ele>1193.33252</ele>
        <time>2015-05-24T10:25:36Z</time>
      </trkpt>
      <trkpt lat="44.64552" lon="5.18199">
        <ele>1195.801514</ele>
        <time>2015-05-24T10:25:51Z</time>
      </trkpt>
      <trkpt lat="44.64543" lon="5.18253">
        <ele>1193.557617</ele>
        <time>2015-05-24T10:26:04Z</time>
      </trkpt>
      <trkpt lat="44.64527" lon="5.18299">
        <ele>1184.873657</ele>
        <time>2015-05-24T10:26:17Z</time>
      </trkpt>
      <trkpt lat="44.64526" lon="5.1831">
        <ele>1183.751343</ele>
        <time>2015-05-24T10:26:26Z</time>
      </trkpt>
      <trkpt lat="44.64524" lon="5.18315">
        <ele>1181.252563</ele>
        <time>2015-05-24T10:26:40Z</time>
      </trkpt>
      <trkpt lat="44.64525" lon="5.18315">
        <ele>1181.433716</ele>
        <time>2015-05-24T10:27:17Z</time>
      </trkpt>
      <trkpt lat="44.64525" lon="5.18317">
        <ele>1181.410767</ele>
        <time>2015-05-24T10:28:00Z</time>
      </trkpt>
      <trkpt lat="44.64525" lon="5.18317">
        <ele>1181.053101</ele>
        <time>2015-05-24T10:28:38Z</time>
      </trkpt>
      <trkpt lat="44.64525" lon="5.18316">
        <ele>1181.379883</ele>
        <time>2015-05-24T10:29:07Z</time>
      </trkpt>
      <trkpt lat="44.64525" lon="5.18316">
        <ele>1181.766968</ele>
        <time>2015-05-24T10:29:31Z</time>
      </trkpt>
      <trkpt lat="44.64525" lon="5.18315">
        <ele>1182.026245</ele>
        <time>2015-05-24T10:30:03Z</time>
      </trkpt>
      <trkpt lat="44.64525" lon="5.18314">
        <ele>1182.121948</ele>
        <time>2015-05-24T10:30:43Z</time>
      </trkpt>
      <trkpt lat="44.64526" lon="5.18313">
        <ele>1182.844849</ele>
        <time>2015-05-24T10:31:18Z</time>
      </trkpt>
      <trkpt lat="44.64526" lon="5.18313">
        <ele>1182.609863</ele>
        <time>2015-05-24T10:31:51Z</time>
      </trkpt>
      <trkpt lat="44.64525" lon="5.18315">
        <ele>1181.959351</ele>
        <time>2015-05-24T10:32:26Z</time>
      </trkpt>
      <trkpt lat="44.64526" lon="5.18315">
        <ele>1182.672852</ele>
        <time>2015-05-24T10:33:04Z</time>
      </trkpt>
      <trkpt lat="44.64526" lon="5.18315">
        <ele>1182.31604</ele>
        <time>2015-05-24T10:33:38Z</time>
      </trkpt>
      <trkpt lat="44.64524" lon="5.18317">
        <ele>1180.919922</ele>
        <time>2015-05-24T10:34:19Z</time>
      </trkpt>
      <trkpt lat="44.64525" lon="5.18315">
        <ele>1181.615234</ele>
        <time>2015-05-24T10:34:58Z</time>
      </trkpt>
      <trkpt lat="44.64525" lon="5.18314">
        <ele>1182.18811</ele>
        <time>2015-05-24T10:35:29Z</time>
      </trkpt>
      <trkpt lat="44.64525" lon="5.18313">
        <ele>1182.308716</ele>
        <time>2015-05-24T10:35:58Z</time>
      </trkpt>
      <trkpt lat="44.64525" lon="5.18314">
        <ele>1182.133911</ele>
        <time>2015-05-24T10:36:19Z</time>
      </trkpt>
      <trkpt lat="44.64537" lon="5.18355">
        <ele>1182.628784</ele>
        <time>2015-05-24T10:36:31Z</time>
      </trkpt>
      <trkpt lat="44.64558" lon="5.18386">
        <ele>1189.436401</ele>
        <time>2015-05-24T10:36:37Z</time>
      </trkpt>
      <trkpt lat="44.6456" lon="5.18394">
        <ele>1189.354492</ele>
        <time>2015-05-24T10:36:38Z</time>
      </trkpt>
      <trkpt lat="44.64562" lon="5.18401">
        <ele>1188.494019</ele>
        <time>2015-05-24T10:36:39Z</time>
      </trkpt>
      <trkpt lat="44.64562" lon="5.18408">
        <ele>1187.398193</ele>
        <time>2015-05-24T10:36:40Z</time>
      </trkpt>
      <trkpt lat="44.64562" lon="5.18414">
        <ele>1186.358276</ele>
        <time>2015-05-24T10:36:41Z</time>
      </trkpt>
      <trkpt lat="44.64563" lon="5.18433">
        <ele>1182.618164</ele>
        <time>2015-05-24T10:36:49Z</time>
      </trkpt>
      <trkpt lat="44.64566" lon="5.18437">
        <ele>1184.590698</ele>
        <time>2015-05-24T10:37:08Z</time>
      </trkpt>
      <trkpt lat="44.64565" lon="5.1844">
        <ele>1184.365723</ele>
        <time>2015-05-24T10:37:26Z</time>
      </trkpt>
      <trkpt lat="44.64565" lon="5.1844">
        <ele>1184.313477</ele>
        <time>2015-05-24T10:37:27Z</time>
      </trkpt>
      <trkpt lat="44.64565" lon="5.1844">
        <ele>1184.564453</ele>
        <time>2015-05-24T10:37:39Z</time>
      </trkpt>
      <trkpt lat="44.64565" lon="5.1844">
        <ele>1184.564453</ele>
        <time>2015-05-24T10:37:40Z</time>
      </trkpt>
      <trkpt lat="44.64565" lon="5.1844">
        <ele>1184.616577</ele>
        <time>2015-05-24T10:37:41Z</time>
      </trkpt>
      <trkpt lat="44.64565" lon="5.1844">
        <ele>1184.616577</ele>
        <time>2015-05-24T10:37:42Z</time>
      </trkpt>
      <trkpt lat="44.64565" lon="5.1844">
        <ele>1184.627197</ele>
        <time>2015-05-24T10:37:43Z</time>
      </trkpt>
      <trkpt lat="44.64565" lon="5.1844">
        <ele>1184.71106</ele>
        <time>2015-05-24T10:37:44Z</time>
      </trkpt>
      <trkpt lat="44.64565" lon="5.1844">
        <ele>1184.816162</ele>
        <time>2015-05-24T10:37:47Z</time>
      </trkpt>
      <trkpt lat="44.64565" lon="5.18441">
        <ele>1184.826782</ele>
        <time>2015-05-24T10:37:48Z</time>
      </trkpt>
      <trkpt lat="44.64566" lon="5.18442">
        <ele>1185.405029</ele>
        <time>2015-05-24T10:37:59Z</time>
      </trkpt>
      <trkpt lat="44.64566" lon="5.18442">
        <ele>1185.415649</ele>
        <time>2015-05-24T10:38:00Z</time>
      </trkpt>
      <trkpt lat="44.64566" lon="5.18443">
        <ele>1185.531616</ele>
        <time>2015-05-24T10:38:03Z</time>
      </trkpt>
      <trkpt lat="44.64566" lon="5.18443">
        <ele>1185.552856</ele>
        <time>2015-05-24T10:38:04Z</time>
      </trkpt>
      <trkpt lat="44.64566" lon="5.18443">
        <ele>1185.668701</ele>
        <time>2015-05-24T10:38:08Z</time>
      </trkpt>
      <trkpt lat="44.64566" lon="5.18443">
        <ele>1185.605957</ele>
        <time>2015-05-24T10:38:09Z</time>
      </trkpt>
      <trkpt lat="44.64566" lon="5.18443">
        <ele>1185.323486</ele>
        <time>2015-05-24T10:38:15Z</time>
      </trkpt>
      <trkpt lat="44.64565" lon="5.18444">
        <ele>1184.916504</ele>
        <time>2015-05-24T10:38:16Z</time>
      </trkpt>
      <trkpt lat="44.64563" lon="5.18446">
        <ele>1184.456177</ele>
        <time>2015-05-24T10:38:17Z</time>
      </trkpt>
      <trkpt lat="44.64562" lon="5.18447">
        <ele>1183.953003</ele>
        <time>2015-05-24T10:38:18Z</time>
      </trkpt>
      <trkpt lat="44.64561" lon="5.18449">
        <ele>1183.637573</ele>
        <time>2015-05-24T10:38:19Z</time>
      </trkpt>
      <trkpt lat="44.6456" lon="5.18451">
        <ele>1183.078613</ele>
        <time>2015-05-24T10:38:20Z</time>
      </trkpt>
      <trkpt lat="44.64558" lon="5.18452">
        <ele>1182.539185</ele>
        <time>2015-05-24T10:38:21Z</time>
      </trkpt>
      <trkpt lat="44.64557" lon="5.18454">
        <ele>1182.188232</ele>
        <time>2015-05-24T10:38:22Z</time>
      </trkpt>
      <trkpt lat="44.64556" lon="5.18456">
        <ele>1181.896729</ele>
        <time>2015-05-24T10:38:23Z</time>
      </trkpt>
      <trkpt lat="44.64554" lon="5.18459">
        <ele>1181.411011</ele>
        <time>2015-05-24T10:38:24Z</time>
      </trkpt>
      <trkpt lat="44.64552" lon="5.18463">
        <ele>1180.812988</ele>
        <time>2015-05-24T10:38:25Z</time>
      </trkpt>
      <trkpt lat="44.64542" lon="5.18488">
        <ele>1178.323608</ele>
        <time>2015-05-24T10:38:30Z</time>
      </trkpt>
      <trkpt lat="44.64539" lon="5.18494">
        <ele>1177.231567</ele>
        <time>2015-05-24T10:38:31Z</time>
      </trkpt>
      <trkpt lat="44.64536" lon="5.18501">
        <ele>1176.838379</ele>
        <time>2015-05-24T10:38:32Z</time>
      </trkpt>
      <trkpt lat="44.64534" lon="5.18507">
        <ele>1176.645752</ele>
        <time>2015-05-24T10:38:33Z</time>
      </trkpt>
      <trkpt lat="44.6451" lon="5.18576">
        <ele>1171.182007</ele>
        <time>2015-05-24T10:38:42Z</time>
      </trkpt>
      <trkpt lat="44.64507" lon="5.18586">
        <ele>1170.367676</ele>
        <time>2015-05-24T10:38:43Z</time>
      </trkpt>
      <trkpt lat="44.64503" lon="5.18604">
        <ele>1169.621582</ele>
        <time>2015-05-24T10:38:45Z</time>
      </trkpt>
      <trkpt lat="44.645" lon="5.18631">
        <ele>1170.576416</ele>
        <time>2015-05-24T10:38:48Z</time>
      </trkpt>
      <trkpt lat="44.64496" lon="5.18695">
        <ele>1170.433838</ele>
        <time>2015-05-24T10:38:58Z</time>
      </trkpt>
      <trkpt lat="44.64497" lon="5.18737">
        <ele>1172.356567</ele>
        <time>2015-05-24T10:39:09Z</time>
      </trkpt>
      <trkpt lat="44.64504" lon="5.18776">
        <ele>1181.929077</ele>
        <time>2015-05-24T10:39:20Z</time>
      </trkpt>
      <trkpt lat="44.64504" lon="5.1879">
        <ele>1183.597412</ele>
        <time>2015-05-24T10:39:23Z</time>
      </trkpt>
      <trkpt lat="44.64499" lon="5.18799">
        <ele>1183.999146</ele>
        <time>2015-05-24T10:39:26Z</time>
      </trkpt>
      <trkpt lat="44.64495" lon="5.18797">
        <ele>1183.008667</ele>
        <time>2015-05-24T10:39:29Z</time>
      </trkpt>
      <trkpt lat="44.64475" lon="5.18782">
        <ele>1184.052124</ele>
        <time>2015-05-24T10:39:41Z</time>
      </trkpt>
      <trkpt lat="44.64468" lon="5.18771">
        <ele>1183.837402</ele>
        <time>2015-05-24T10:39:51Z</time>
      </trkpt>
      <trkpt lat="44.64457" lon="5.18761">
        <ele>1185.177246</ele>
        <time>2015-05-24T10:39:58Z</time>
      </trkpt>
      <trkpt lat="44.64428" lon="5.18736">
        <ele>1190.009155</ele>
        <time>2015-05-24T10:40:12Z</time>
      </trkpt>
      <trkpt lat="44.64426" lon="5.18735">
        <ele>1190.263306</ele>
        <time>2015-05-24T10:40:13Z</time>
      </trkpt>
      <trkpt lat="44.64407" lon="5.18709">
        <ele>1192.24353</ele>
        <time>2015-05-24T10:40:23Z</time>
      </trkpt>
      <trkpt lat="44.64402" lon="5.18703">
        <ele>1192.980835</ele>
        <time>2015-05-24T10:40:27Z</time>
      </trkpt>
      <trkpt lat="44.64373" lon="5.18661">
        <ele>1194.130249</ele>
        <time>2015-05-24T10:40:40Z</time>
      </trkpt>
      <trkpt lat="44.6437" lon="5.18653">
        <ele>1193.072754</ele>
        <time>2015-05-24T10:40:44Z</time>
      </trkpt>
      <trkpt lat="44.64351" lon="5.18628">
        <ele>1193.729492</ele>
        <time>2015-05-24T10:40:54Z</time>
      </trkpt>
      <trkpt lat="44.64333" lon="5.18605">
        <ele>1192.686157</ele>
        <time>2015-05-24T10:41:06Z</time>
      </trkpt>
      <trkpt lat="44.64325" lon="5.186">
        <ele>1193.60498</ele>
        <time>2015-05-24T10:41:10Z</time>
      </trkpt>
      <trkpt lat="44.64295" lon="5.18587">
        <ele>1199.032349</ele>
        <time>2015-05-24T10:41:22Z</time>
      </trkpt>
      <trkpt lat="44.64267" lon="5.18571">
        <ele>1201.787842</ele>
        <time>2015-05-24T10:41:34Z</time>
      </trkpt>
      <trkpt lat="44.6424" lon="5.18562">
        <ele>1206.122925</ele>
        <time>2015-05-24T10:41:45Z</time>
      </trkpt>
      <trkpt lat="44.64213" lon="5.18546">
        <ele>1205.360229</ele>
        <time>2015-05-24T10:41:57Z</time>
      </trkpt>
      <trkpt lat="44.64198" lon="5.18527">
        <ele>1200.491821</ele>
        <time>2015-05-24T10:42:06Z</time>
      </trkpt>
      <trkpt lat="44.64195" lon="5.18521">
        <ele>1198.987061</ele>
        <time>2015-05-24T10:42:09Z</time>
      </trkpt>
      <trkpt lat="44.64189" lon="5.18511">
        <ele>1197.687622</ele>
        <time>2015-05-24T10:42:13Z</time>
      </trkpt>
      <trkpt lat="44.6417" lon="5.18496">
        <ele>1196.662476</ele>
        <time>2015-05-24T10:42:19Z</time>
      </trkpt>
      <trkpt lat="44.64154" lon="5.18507">
        <ele>1197.173828</ele>
        <time>2015-05-24T10:42:26Z</time>
      </trkpt>
      <trkpt lat="44.64166" lon="5.18551">
        <ele>1200.826904</ele>
        <time>2015-05-24T10:42:38Z</time>
      </trkpt>
      <trkpt lat="44.64162" lon="5.18607">
        <ele>1198.760376</ele>
        <time>2015-05-24T10:42:50Z</time>
      </trkpt>
      <trkpt lat="44.64149" lon="5.18666">
        <ele>1192.112671</ele>
        <time>2015-05-24T10:43:02Z</time>
      </trkpt>
      <trkpt lat="44.64141" lon="5.18712">
        <ele>1192.162231</ele>
        <time>2015-05-24T10:43:13Z</time>
      </trkpt>
      <trkpt lat="44.64135" lon="5.18743">
        <ele>1191.196167</ele>
        <time>2015-05-24T10:43:21Z</time>
      </trkpt>
      <trkpt lat="44.64134" lon="5.18785">
        <ele>1194.208252</ele>
        <time>2015-05-24T10:43:33Z</time>
      </trkpt>
      <trkpt lat="44.64122" lon="5.1883">
        <ele>1198.04187</ele>
        <time>2015-05-24T10:43:45Z</time>
      </trkpt>
      <trkpt lat="44.64116" lon="5.18842">
        <ele>1199.22229</ele>
        <time>2015-05-24T10:43:48Z</time>
      </trkpt>
      <trkpt lat="44.64094" lon="5.18881">
        <ele>1202.176514</ele>
        <time>2015-05-24T10:43:59Z</time>
      </trkpt>
      <trkpt lat="44.64086" lon="5.18885">
        <ele>1201.428589</ele>
        <time>2015-05-24T10:44:01Z</time>
      </trkpt>
      <trkpt lat="44.64079" lon="5.18891">
        <ele>1203.769897</ele>
        <time>2015-05-24T10:44:03Z</time>
      </trkpt>
      <trkpt lat="44.64072" lon="5.18897">
        <ele>1209.405518</ele>
        <time>2015-05-24T10:44:05Z</time>
      </trkpt>
      <trkpt lat="44.64059" lon="5.18912">
        <ele>1220.678223</ele>
        <time>2015-05-24T10:44:12Z</time>
      </trkpt>
      <trkpt lat="44.64064" lon="5.18901">
        <ele>1215.451416</ele>
        <time>2015-05-24T10:44:17Z</time>
      </trkpt>
      <trkpt lat="44.64061" lon="5.18858">
        <ele>1209.869995</ele>
        <time>2015-05-24T10:44:29Z</time>
      </trkpt>
      <trkpt lat="44.64061" lon="5.18853">
        <ele>1209.109375</ele>
        <time>2015-05-24T10:44:30Z</time>
      </trkpt>
      <trkpt lat="44.64046" lon="5.18814">
        <ele>1210.440796</ele>
        <time>2015-05-24T10:44:36Z</time>
      </trkpt>
      <trkpt lat="44.64024" lon="5.18759">
        <ele>1208.08252</ele>
        <time>2015-05-24T10:44:43Z</time>
      </trkpt>
      <trkpt lat="44.6402" lon="5.18753">
        <ele>1208.223511</ele>
        <time>2015-05-24T10:44:44Z</time>
      </trkpt>
      <trkpt lat="44.64017" lon="5.18746">
        <ele>1207.915405</ele>
        <time>2015-05-24T10:44:45Z</time>
      </trkpt>
      <trkpt lat="44.64015" lon="5.1874">
        <ele>1207.185059</ele>
        <time>2015-05-24T10:44:46Z</time>
      </trkpt>
      <trkpt lat="44.64013" lon="5.18735">
        <ele>1206.36438</ele>
        <time>2015-05-24T10:44:47Z</time>
      </trkpt>
      <trkpt lat="44.64006" lon="5.18715">
        <ele>1202.831299</ele>
        <time>2015-05-24T10:44:51Z</time>
      </trkpt>
      <trkpt lat="44.64004" lon="5.1871">
        <ele>1202.270874</ele>
        <time>2015-05-24T10:44:52Z</time>
      </trkpt>
      <trkpt lat="44.64" lon="5.18705">
        <ele>1202.279663</ele>
        <time>2015-05-24T10:44:53Z</time>
      </trkpt>
      <trkpt lat="44.63995" lon="5.18701">
        <ele>1202.515137</ele>
        <time>2015-05-24T10:44:54Z</time>
      </trkpt>
      <trkpt lat="44.63989" lon="5.18697">
        <ele>1202.164429</ele>
        <time>2015-05-24T10:44:55Z</time>
      </trkpt>
      <trkpt lat="44.63983" lon="5.18693">
        <ele>1202.016357</ele>
        <time>2015-05-24T10:44:56Z</time>
      </trkpt>
      <trkpt lat="44.63977" lon="5.1869">
        <ele>1202.207764</ele>
        <time>2015-05-24T10:44:57Z</time>
      </trkpt>
      <trkpt lat="44.6397" lon="5.18688">
        <ele>1202.736206</ele>
        <time>2015-05-24T10:44:58Z</time>
      </trkpt>
      <trkpt lat="44.63964" lon="5.18686">
        <ele>1203.436035</ele>
        <time>2015-05-24T10:44:59Z</time>
      </trkpt>
      <trkpt lat="44.63934" lon="5.18679">
        <ele>1205.244873</ele>
        <time>2015-05-24T10:45:04Z</time>
      </trkpt>
      <trkpt lat="44.63905" lon="5.18668">
        <ele>1202.91394</ele>
        <time>2015-05-24T10:45:09Z</time>
      </trkpt>
      <trkpt lat="44.63899" lon="5.18665">
        <ele>1202.107422</ele>
        <time>2015-05-24T10:45:10Z</time>
      </trkpt>
      <trkpt lat="44.63881" lon="5.18658">
        <ele>1200.87854</ele>
        <time>2015-05-24T10:45:13Z</time>
      </trkpt>
      <trkpt lat="44.63863" lon="5.18656">
        <ele>1201.761963</ele>
        <time>2015-05-24T10:45:16Z</time>
      </trkpt>
      <trkpt lat="44.63857" lon="5.18657">
        <ele>1201.250854</ele>
        <time>2015-05-24T10:45:17Z</time>
      </trkpt>
      <trkpt lat="44.6385" lon="5.18659">
        <ele>1200.95874</ele>
        <time>2015-05-24T10:45:18Z</time>
      </trkpt>
      <trkpt lat="44.63844" lon="5.18663">
        <ele>1201.063843</ele>
        <time>2015-05-24T10:45:19Z</time>
      </trkpt>
      <trkpt lat="44.63839" lon="5.18667">
        <ele>1201.55481</ele>
        <time>2015-05-24T10:45:20Z</time>
      </trkpt>
      <trkpt lat="44.63833" lon="5.18671">
        <ele>1202.073364</ele>
        <time>2015-05-24T10:45:21Z</time>
      </trkpt>
      <trkpt lat="44.63822" lon="5.18681">
        <ele>1203.302246</ele>
        <time>2015-05-24T10:45:23Z</time>
      </trkpt>
      <trkpt lat="44.63769" lon="5.18769">
        <ele>1205.546753</ele>
        <time>2015-05-24T10:45:36Z</time>
      </trkpt>
      <trkpt lat="44.63703" lon="5.18871">
        <ele>1200.397461</ele>
        <time>2015-05-24T10:45:51Z</time>
      </trkpt>
      <trkpt lat="44.63674" lon="5.18908">
        <ele>1198.375977</ele>
        <time>2015-05-24T10:45:57Z</time>
      </trkpt>
      <trkpt lat="44.63669" lon="5.18913">
        <ele>1199.579346</ele>
        <time>2015-05-24T10:45:58Z</time>
      </trkpt>
      <trkpt lat="44.63664" lon="5.1892">
        <ele>1200.790771</ele>
        <time>2015-05-24T10:45:59Z</time>
      </trkpt>
      <trkpt lat="44.63641" lon="5.18951">
        <ele>1203.346436</ele>
        <time>2015-05-24T10:46:04Z</time>
      </trkpt>
      <trkpt lat="44.63636" lon="5.18955">
        <ele>1203.120483</ele>
        <time>2015-05-24T10:46:05Z</time>
      </trkpt>
      <trkpt lat="44.63631" lon="5.18958">
        <ele>1202.81897</ele>
        <time>2015-05-24T10:46:06Z</time>
      </trkpt>
      <trkpt lat="44.63626" lon="5.18958">
        <ele>1205.098755</ele>
        <time>2015-05-24T10:46:07Z</time>
      </trkpt>
      <trkpt lat="44.63621" lon="5.18954">
        <ele>1207.280029</ele>
        <time>2015-05-24T10:46:08Z</time>
      </trkpt>
      <trkpt lat="44.63617" lon="5.18948">
        <ele>1208.825928</ele>
        <time>2015-05-24T10:46:09Z</time>
      </trkpt>
      <trkpt lat="44.63615" lon="5.1894">
        <ele>1209.664185</ele>
        <time>2015-05-24T10:46:10Z</time>
      </trkpt>
      <trkpt lat="44.63613" lon="5.18931">
        <ele>1210.048706</ele>
        <time>2015-05-24T10:46:11Z</time>
      </trkpt>
      <trkpt lat="44.63612" lon="5.18922">
        <ele>1210.328247</ele>
        <time>2015-05-24T10:46:12Z</time>
      </trkpt>
      <trkpt lat="44.63609" lon="5.18894">
        <ele>1210.986816</ele>
        <time>2015-05-24T10:46:15Z</time>
      </trkpt>
      <trkpt lat="44.63609" lon="5.18884">
        <ele>1210.983032</ele>
        <time>2015-05-24T10:46:16Z</time>
      </trkpt>
      <trkpt lat="44.6361" lon="5.18873">
        <ele>1210.897461</ele>
        <time>2015-05-24T10:46:17Z</time>
      </trkpt>
      <trkpt lat="44.63616" lon="5.18772">
        <ele>1208.456421</ele>
        <time>2015-05-24T10:46:27Z</time>
      </trkpt>
      <trkpt lat="44.63616" lon="5.18762">
        <ele>1208.202393</ele>
        <time>2015-05-24T10:46:28Z</time>
      </trkpt>
      <trkpt lat="44.63619" lon="5.18713">
        <ele>1206.018677</ele>
        <time>2015-05-24T10:46:33Z</time>
      </trkpt>
      <trkpt lat="44.63619" lon="5.18703">
        <ele>1206.1521</ele>
        <time>2015-05-24T10:46:34Z</time>
      </trkpt>
      <trkpt lat="44.63611" lon="5.18595">
        <ele>1215.04248</ele>
        <time>2015-05-24T10:46:45Z</time>
      </trkpt>
      <trkpt lat="44.63612" lon="5.18586">
        <ele>1215.462524</ele>
        <time>2015-05-24T10:46:46Z</time>
      </trkpt>
      <trkpt lat="44.63614" lon="5.18578">
        <ele>1214.66748</ele>
        <time>2015-05-24T10:46:47Z</time>
      </trkpt>
      <trkpt lat="44.63622" lon="5.18566">
        <ele>1211.998413</ele>
        <time>2015-05-24T10:46:49Z</time>
      </trkpt>
      <trkpt lat="44.63634" lon="5.18552">
        <ele>1207.391968</ele>
        <time>2015-05-24T10:46:51Z</time>
      </trkpt>
      <trkpt lat="44.63644" lon="5.18537">
        <ele>1205.28125</ele>
        <time>2015-05-24T10:46:53Z</time>
      </trkpt>
      <trkpt lat="44.63691" lon="5.18424">
        <ele>1203.333252</ele>
        <time>2015-05-24T10:47:05Z</time>
      </trkpt>
      <trkpt lat="44.637" lon="5.18407">
        <ele>1201.478394</ele>
        <time>2015-05-24T10:47:07Z</time>
      </trkpt>
      <trkpt lat="44.63737" lon="5.18339">
        <ele>1191.757324</ele>
        <time>2015-05-24T10:47:16Z</time>
      </trkpt>
      <trkpt lat="44.63739" lon="5.18329">
        <ele>1191.573242</ele>
        <time>2015-05-24T10:47:17Z</time>
      </trkpt>
      <trkpt lat="44.63741" lon="5.18319">
        <ele>1191.545654</ele>
        <time>2015-05-24T10:47:18Z</time>
      </trkpt>
      <trkpt lat="44.63749" lon="5.18279">
        <ele>1188.271362</ele>
        <time>2015-05-24T10:47:22Z</time>
      </trkpt>
      <trkpt lat="44.63753" lon="5.18261">
        <ele>1185.932007</ele>
        <time>2015-05-24T10:47:24Z</time>
      </trkpt>
      <trkpt lat="44.63754" lon="5.18252">
        <ele>1185.571655</ele>
        <time>2015-05-24T10:47:25Z</time>
      </trkpt>
      <trkpt lat="44.63757" lon="5.18204">
        <ele>1185.340454</ele>
        <time>2015-05-24T10:47:30Z</time>
      </trkpt>
      <trkpt lat="44.63759" lon="5.18168">
        <ele>1185.970093</ele>
        <time>2015-05-24T10:47:33Z</time>
      </trkpt>
      <trkpt lat="44.63761" lon="5.18156">
        <ele>1185.294922</ele>
        <time>2015-05-24T10:47:34Z</time>
      </trkpt>
      <trkpt lat="44.63769" lon="5.18109">
        <ele>1180.058472</ele>
        <time>2015-05-24T10:47:38Z</time>
      </trkpt>
      <trkpt lat="44.63776" lon="5.18086">
        <ele>1176.415649</ele>
        <time>2015-05-24T10:47:40Z</time>
      </trkpt>
      <trkpt lat="44.63797" lon="5.18015">
        <ele>1167.197998</ele>
        <time>2015-05-24T10:47:47Z</time>
      </trkpt>
      <trkpt lat="44.63797" lon="5.18007">
        <ele>1165.069214</ele>
        <time>2015-05-24T10:47:48Z</time>
      </trkpt>
      <trkpt lat="44.63795" lon="5.18001">
        <ele>1163.967529</ele>
        <time>2015-05-24T10:47:49Z</time>
      </trkpt>
      <trkpt lat="44.63791" lon="5.17995">
        <ele>1163.693604</ele>
        <time>2015-05-24T10:47:50Z</time>
      </trkpt>
      <trkpt lat="44.63784" lon="5.1799">
        <ele>1163.428223</ele>
        <time>2015-05-24T10:47:51Z</time>
      </trkpt>
      <trkpt lat="44.63778" lon="5.17986">
        <ele>1163.354736</ele>
        <time>2015-05-24T10:47:52Z</time>
      </trkpt>
      <trkpt lat="44.63754" lon="5.17973">
        <ele>1163.089844</ele>
        <time>2015-05-24T10:47:56Z</time>
      </trkpt>
      <trkpt lat="44.63708" lon="5.17953">
        <ele>1159.847656</ele>
        <time>2015-05-24T10:48:03Z</time>
      </trkpt>
      <trkpt lat="44.63678" lon="5.1795">
        <ele>1158.557861</ele>
        <time>2015-05-24T10:48:07Z</time>
      </trkpt>
      <trkpt lat="44.63662" lon="5.17953">
        <ele>1159.103027</ele>
        <time>2015-05-24T10:48:09Z</time>
      </trkpt>
      <trkpt lat="44.63654" lon="5.17954">
        <ele>1159.4823</ele>
        <time>2015-05-24T10:48:10Z</time>
      </trkpt>
      <trkpt lat="44.63647" lon="5.17954">
        <ele>1160.044189</ele>
        <time>2015-05-24T10:48:11Z</time>
      </trkpt>
      <trkpt lat="44.6364" lon="5.17952">
        <ele>1159.745605</ele>
        <time>2015-05-24T10:48:12Z</time>
      </trkpt>
      <trkpt lat="44.63634" lon="5.17947">
        <ele>1158.31543</ele>
        <time>2015-05-24T10:48:13Z</time>
      </trkpt>
      <trkpt lat="44.63628" lon="5.1794">
        <ele>1156.792236</ele>
        <time>2015-05-24T10:48:14Z</time>
      </trkpt>
      <trkpt lat="44.63624" lon="5.17932">
        <ele>1155.265503</ele>
        <time>2015-05-24T10:48:15Z</time>
      </trkpt>
      <trkpt lat="44.6362" lon="5.17923">
        <ele>1153.722412</ele>
        <time>2015-05-24T10:48:16Z</time>
      </trkpt>
      <trkpt lat="44.63616" lon="5.17915">
        <ele>1152.297363</ele>
        <time>2015-05-24T10:48:17Z</time>
      </trkpt>
      <trkpt lat="44.63612" lon="5.17906">
        <ele>1151.319824</ele>
        <time>2015-05-24T10:48:18Z</time>
      </trkpt>
      <trkpt lat="44.63607" lon="5.17898">
        <ele>1151.169189</ele>
        <time>2015-05-24T10:48:19Z</time>
      </trkpt>
      <trkpt lat="44.63599" lon="5.17883">
        <ele>1150.572144</ele>
        <time>2015-05-24T10:48:21Z</time>
      </trkpt>
      <trkpt lat="44.63595" lon="5.17878">
        <ele>1150.913574</ele>
        <time>2015-05-24T10:48:22Z</time>
      </trkpt>
      <trkpt lat="44.63591" lon="5.17874">
        <ele>1151.727783</ele>
        <time>2015-05-24T10:48:23Z</time>
      </trkpt>
      <trkpt lat="44.63573" lon="5.1786">
        <ele>1154.862061</ele>
        <time>2015-05-24T10:48:27Z</time>
      </trkpt>
      <trkpt lat="44.63555" lon="5.17827">
        <ele>1155.854614</ele>
        <time>2015-05-24T10:48:38Z</time>
      </trkpt>
      <trkpt lat="44.63556" lon="5.17824">
        <ele>1155.217285</ele>
        <time>2015-05-24T10:48:39Z</time>
      </trkpt>
      <trkpt lat="44.63557" lon="5.17822">
        <ele>1154.594238</ele>
        <time>2015-05-24T10:48:40Z</time>
      </trkpt>
      <trkpt lat="44.63558" lon="5.17819">
        <ele>1153.915527</ele>
        <time>2015-05-24T10:48:41Z</time>
      </trkpt>
      <trkpt lat="44.6356" lon="5.17816">
        <ele>1153.204102</ele>
        <time>2015-05-24T10:48:42Z</time>
      </trkpt>
      <trkpt lat="44.63561" lon="5.17814">
        <ele>1153.872192</ele>
        <time>2015-05-24T10:48:43Z</time>
      </trkpt>
      <trkpt lat="44.63564" lon="5.17809">
        <ele>1154.79187</ele>
        <time>2015-05-24T10:48:45Z</time>
      </trkpt>
      <trkpt lat="44.63595" lon="5.1779">
        <ele>1154.471069</ele>
        <time>2015-05-24T10:48:55Z</time>
      </trkpt>
      <trkpt lat="44.63599" lon="5.17788">
        <ele>1154.20105</ele>
        <time>2015-05-24T10:48:56Z</time>
      </trkpt>
      <trkpt lat="44.63604" lon="5.17785">
        <ele>1154.099731</ele>
        <time>2015-05-24T10:48:57Z</time>
      </trkpt>
      <trkpt lat="44.63613" lon="5.1778">
        <ele>1153.813721</ele>
        <time>2015-05-24T10:48:59Z</time>
      </trkpt>
      <trkpt lat="44.63664" lon="5.17754">
        <ele>1148.13269</ele>
        <time>2015-05-24T10:49:10Z</time>
      </trkpt>
      <trkpt lat="44.63668" lon="5.17751">
        <ele>1148.029053</ele>
        <time>2015-05-24T10:49:11Z</time>
      </trkpt>
      <trkpt lat="44.63693" lon="5.1773">
        <ele>1148.817749</ele>
        <time>2015-05-24T10:49:16Z</time>
      </trkpt>
      <trkpt lat="44.63748" lon="5.1769">
        <ele>1146.669922</ele>
        <time>2015-05-24T10:49:27Z</time>
      </trkpt>
      <trkpt lat="44.63757" lon="5.17685">
        <ele>1145.805664</ele>
        <time>2015-05-24T10:49:29Z</time>
      </trkpt>
      <trkpt lat="44.63761" lon="5.17683">
        <ele>1145.507446</ele>
        <time>2015-05-24T10:49:30Z</time>
      </trkpt>
      <trkpt lat="44.63769" lon="5.17678">
        <ele>1144.476685</ele>
        <time>2015-05-24T10:49:32Z</time>
      </trkpt>
      <trkpt lat="44.63778" lon="5.17674">
        <ele>1143.24231</ele>
        <time>2015-05-24T10:49:34Z</time>
      </trkpt>
      <trkpt lat="44.63794" lon="5.17663">
        <ele>1141.955566</ele>
        <time>2015-05-24T10:49:37Z</time>
      </trkpt>
      <trkpt lat="44.63805" lon="5.17655">
        <ele>1140.543091</ele>
        <time>2015-05-24T10:49:39Z</time>
      </trkpt>
      <trkpt lat="44.63835" lon="5.17631">
        <ele>1138.470703</ele>
        <time>2015-05-24T10:49:44Z</time>
      </trkpt>
      <trkpt lat="44.63841" lon="5.17625">
        <ele>1138.216309</ele>
        <time>2015-05-24T10:49:45Z</time>
      </trkpt>
      <trkpt lat="44.63854" lon="5.17613">
        <ele>1136.692505</ele>
        <time>2015-05-24T10:49:47Z</time>
      </trkpt>
      <trkpt lat="44.63901" lon="5.17574">
        <ele>1125.365479</ele>
        <time>2015-05-24T10:49:54Z</time>
      </trkpt>
      <trkpt lat="44.63922" lon="5.17553">
        <ele>1117.883667</ele>
        <time>2015-05-24T10:49:57Z</time>
      </trkpt>
      <trkpt lat="44.63936" lon="5.17537">
        <ele>1112.740601</ele>
        <time>2015-05-24T10:49:59Z</time>
      </trkpt>
      <trkpt lat="44.63961" lon="5.17504">
        <ele>1105.368286</ele>
        <time>2015-05-24T10:50:03Z</time>
      </trkpt>
      <trkpt lat="44.63979" lon="5.17464">
        <ele>1104.494507</ele>
        <time>2015-05-24T10:50:09Z</time>
      </trkpt>
      <trkpt lat="44.63981" lon="5.17461">
        <ele>1103.854004</ele>
        <time>2015-05-24T10:50:10Z</time>
      </trkpt>
      <trkpt lat="44.63998" lon="5.17426">
        <ele>1103.117554</ele>
        <time>2015-05-24T10:50:20Z</time>
      </trkpt>
      <trkpt lat="44.63999" lon="5.1742">
        <ele>1103.940063</ele>
        <time>2015-05-24T10:50:21Z</time>
      </trkpt>
      <trkpt lat="44.64001" lon="5.17414">
        <ele>1104.912476</ele>
        <time>2015-05-24T10:50:22Z</time>
      </trkpt>
      <trkpt lat="44.64002" lon="5.17407">
        <ele>1106.339966</ele>
        <time>2015-05-24T10:50:23Z</time>
      </trkpt>
      <trkpt lat="44.64003" lon="5.17401">
        <ele>1108.352539</ele>
        <time>2015-05-24T10:50:24Z</time>
      </trkpt>
      <trkpt lat="44.64005" lon="5.17395">
        <ele>1108.724487</ele>
        <time>2015-05-24T10:50:25Z</time>
      </trkpt>
      <trkpt lat="44.64006" lon="5.17374">
        <ele>1114.553345</ele>
        <time>2015-05-24T10:50:28Z</time>
      </trkpt>
      <trkpt lat="44.64005" lon="5.17349">
        <ele>1123.031006</ele>
        <time>2015-05-24T10:50:31Z</time>
      </trkpt>
      <trkpt lat="44.64008" lon="5.17337">
        <ele>1124.264404</ele>
        <time>2015-05-24T10:50:33Z</time>
      </trkpt>
      <trkpt lat="44.6401" lon="5.1733">
        <ele>1124.602783</ele>
        <time>2015-05-24T10:50:34Z</time>
      </trkpt>
      <trkpt lat="44.64015" lon="5.17318">
        <ele>1122.228149</ele>
        <time>2015-05-24T10:50:36Z</time>
      </trkpt>
      <trkpt lat="44.64018" lon="5.17312">
        <ele>1121.435059</ele>
        <time>2015-05-24T10:50:37Z</time>
      </trkpt>
      <trkpt lat="44.64039" lon="5.17259">
        <ele>1114.386108</ele>
        <time>2015-05-24T10:50:45Z</time>
      </trkpt>
      <trkpt lat="44.64042" lon="5.17243">
        <ele>1112.931274</ele>
        <time>2015-05-24T10:50:47Z</time>
      </trkpt>
      <trkpt lat="44.64042" lon="5.17235">
        <ele>1112.677124</ele>
        <time>2015-05-24T10:50:48Z</time>
      </trkpt>
      <trkpt lat="44.64043" lon="5.17228">
        <ele>1112.227417</ele>
        <time>2015-05-24T10:50:49Z</time>
      </trkpt>
      <trkpt lat="44.64044" lon="5.17222">
        <ele>1111.973633</ele>
        <time>2015-05-24T10:50:50Z</time>
      </trkpt>
      <trkpt lat="44.64044" lon="5.17216">
        <ele>1111.864136</ele>
        <time>2015-05-24T10:50:51Z</time>
      </trkpt>
      <trkpt lat="44.64043" lon="5.1721">
        <ele>1111.922607</ele>
        <time>2015-05-24T10:50:52Z</time>
      </trkpt>
      <trkpt lat="44.64042" lon="5.17205">
        <ele>1111.197021</ele>
        <time>2015-05-24T10:50:53Z</time>
      </trkpt>
      <trkpt lat="44.6404" lon="5.17198">
        <ele>1110.963867</ele>
        <time>2015-05-24T10:50:54Z</time>
      </trkpt>
      <trkpt lat="44.64038" lon="5.17192">
        <ele>1110.672363</ele>
        <time>2015-05-24T10:50:55Z</time>
      </trkpt>
      <trkpt lat="44.64029" lon="5.17171">
        <ele>1111.334106</ele>
        <time>2015-05-24T10:50:58Z</time>
      </trkpt>
      <trkpt lat="44.6402" lon="5.17146">
        <ele>1112.071045</ele>
        <time>2015-05-24T10:51:01Z</time>
      </trkpt>
      <trkpt lat="44.64015" lon="5.17138">
        <ele>1111.979614</ele>
        <time>2015-05-24T10:51:02Z</time>
      </trkpt>
      <trkpt lat="44.64009" lon="5.17131">
        <ele>1112.62561</ele>
        <time>2015-05-24T10:51:03Z</time>
      </trkpt>
      <trkpt lat="44.64004" lon="5.17124">
        <ele>1113.499756</ele>
        <time>2015-05-24T10:51:04Z</time>
      </trkpt>
      <trkpt lat="44.63999" lon="5.17118">
        <ele>1114.890747</ele>
        <time>2015-05-24T10:51:05Z</time>
      </trkpt>
      <trkpt lat="44.63993" lon="5.17112">
        <ele>1116.685059</ele>
        <time>2015-05-24T10:51:06Z</time>
      </trkpt>
      <trkpt lat="44.63982" lon="5.171">
        <ele>1119.627319</ele>
        <time>2015-05-24T10:51:08Z</time>
      </trkpt>
      <trkpt lat="44.63971" lon="5.17084">
        <ele>1121.821533</ele>
        <time>2015-05-24T10:51:10Z</time>
      </trkpt>
      <trkpt lat="44.63966" lon="5.17075">
        <ele>1121.937866</ele>
        <time>2015-05-24T10:51:11Z</time>
      </trkpt>
      <trkpt lat="44.63963" lon="5.17065">
        <ele>1120.601929</ele>
        <time>2015-05-24T10:51:12Z</time>
      </trkpt>
      <trkpt lat="44.63963" lon="5.17055">
        <ele>1118.043335</ele>
        <time>2015-05-24T10:51:13Z</time>
      </trkpt>
      <trkpt lat="44.63963" lon="5.17045">
        <ele>1115.357056</ele>
        <time>2015-05-24T10:51:14Z</time>
      </trkpt>
      <trkpt lat="44.6396" lon="5.17004">
        <ele>1108.719238</ele>
        <time>2015-05-24T10:51:18Z</time>
      </trkpt>
      <trkpt lat="44.63957" lon="5.16938">
        <ele>1106.286011</ele>
        <time>2015-05-24T10:51:24Z</time>
      </trkpt>
      <trkpt lat="44.63954" lon="5.16904">
        <ele>1107.578369</ele>
        <time>2015-05-24T10:51:27Z</time>
      </trkpt>
      <trkpt lat="44.63954" lon="5.16846">
        <ele>1102.294556</ele>
        <time>2015-05-24T10:51:32Z</time>
      </trkpt>
      <trkpt lat="44.63955" lon="5.16829">
        <ele>1100.500244</ele>
        <time>2015-05-24T10:51:33Z</time>
      </trkpt>
      <trkpt lat="44.63954" lon="5.16792">
        <ele>1099.08374</ele>
        <time>2015-05-24T10:51:36Z</time>
      </trkpt>
      <trkpt lat="44.63951" lon="5.16749">
        <ele>1097.931641</ele>
        <time>2015-05-24T10:51:40Z</time>
      </trkpt>
      <trkpt lat="44.63948" lon="5.16739">
        <ele>1097.973022</ele>
        <time>2015-05-24T10:51:41Z</time>
      </trkpt>
      <trkpt lat="44.63945" lon="5.16731">
        <ele>1098.140869</ele>
        <time>2015-05-24T10:51:42Z</time>
      </trkpt>
      <trkpt lat="44.63942" lon="5.16724">
        <ele>1098.354736</ele>
        <time>2015-05-24T10:51:43Z</time>
      </trkpt>
      <trkpt lat="44.63939" lon="5.16718">
        <ele>1098.588257</ele>
        <time>2015-05-24T10:51:44Z</time>
      </trkpt>
      <trkpt lat="44.63924" lon="5.16699">
        <ele>1099.00708</ele>
        <time>2015-05-24T10:51:47Z</time>
      </trkpt>
      <trkpt lat="44.63912" lon="5.16686">
        <ele>1097.616821</ele>
        <time>2015-05-24T10:51:49Z</time>
      </trkpt>
      <trkpt lat="44.63897" lon="5.16671">
        <ele>1096.733765</ele>
        <time>2015-05-24T10:51:51Z</time>
      </trkpt>
      <trkpt lat="44.63891" lon="5.16663">
        <ele>1095.455566</ele>
        <time>2015-05-24T10:51:52Z</time>
      </trkpt>
      <trkpt lat="44.63885" lon="5.16653">
        <ele>1093.482056</ele>
        <time>2015-05-24T10:51:53Z</time>
      </trkpt>
      <trkpt lat="44.63881" lon="5.16642">
        <ele>1090.803223</ele>
        <time>2015-05-24T10:51:54Z</time>
      </trkpt>
      <trkpt lat="44.63877" lon="5.1663">
        <ele>1087.331543</ele>
        <time>2015-05-24T10:51:55Z</time>
      </trkpt>
      <trkpt lat="44.6387" lon="5.16605">
        <ele>1079.313965</ele>
        <time>2015-05-24T10:51:57Z</time>
      </trkpt>
      <trkpt lat="44.63862" lon="5.16576">
        <ele>1072.343994</ele>
        <time>2015-05-24T10:51:59Z</time>
      </trkpt>
      <trkpt lat="44.63853" lon="5.16527">
        <ele>1068.242676</ele>
        <time>2015-05-24T10:52:02Z</time>
      </trkpt>
      <trkpt lat="44.6385" lon="5.16503">
        <ele>1066.106689</ele>
        <time>2015-05-24T10:52:04Z</time>
      </trkpt>
      <trkpt lat="44.63844" lon="5.16443">
        <ele>1061.764038</ele>
        <time>2015-05-24T10:52:08Z</time>
      </trkpt>
      <trkpt lat="44.63839" lon="5.16421">
        <ele>1059.578979</ele>
        <time>2015-05-24T10:52:10Z</time>
      </trkpt>
      <trkpt lat="44.63835" lon="5.16411">
        <ele>1059.254517</ele>
        <time>2015-05-24T10:52:11Z</time>
      </trkpt>
      <trkpt lat="44.63831" lon="5.16404">
        <ele>1059.068726</ele>
        <time>2015-05-24T10:52:12Z</time>
      </trkpt>
      <trkpt lat="44.63824" lon="5.16396">
        <ele>1059.499878</ele>
        <time>2015-05-24T10:52:13Z</time>
      </trkpt>
      <trkpt lat="44.63817" lon="5.1639">
        <ele>1060.53833</ele>
        <time>2015-05-24T10:52:14Z</time>
      </trkpt>
      <trkpt lat="44.63809" lon="5.16385">
        <ele>1061.523193</ele>
        <time>2015-05-24T10:52:15Z</time>
      </trkpt>
      <trkpt lat="44.6379" lon="5.16371">
        <ele>1063.383911</ele>
        <time>2015-05-24T10:52:18Z</time>
      </trkpt>
      <trkpt lat="44.63779" lon="5.16364">
        <ele>1063.873779</ele>
        <time>2015-05-24T10:52:19Z</time>
      </trkpt>
      <trkpt lat="44.63773" lon="5.16357">
        <ele>1063.10376</ele>
        <time>2015-05-24T10:52:20Z</time>
      </trkpt>
      <trkpt lat="44.63767" lon="5.16347">
        <ele>1061.328735</ele>
        <time>2015-05-24T10:52:21Z</time>
      </trkpt>
      <trkpt lat="44.63748" lon="5.16305">
        <ele>1050.944702</ele>
        <time>2015-05-24T10:52:25Z</time>
      </trkpt>
      <trkpt lat="44.63729" lon="5.16241">
        <ele>1038.869873</ele>
        <time>2015-05-24T10:52:30Z</time>
      </trkpt>
      <trkpt lat="44.63712" lon="5.16176">
        <ele>1035.01001</ele>
        <time>2015-05-24T10:52:35Z</time>
      </trkpt>
      <trkpt lat="44.63708" lon="5.16166">
        <ele>1036.119995</ele>
        <time>2015-05-24T10:52:36Z</time>
      </trkpt>
      <trkpt lat="44.63704" lon="5.16155">
        <ele>1037.559937</ele>
        <time>2015-05-24T10:52:37Z</time>
      </trkpt>
      <trkpt lat="44.63695" lon="5.16136">
        <ele>1038.77002</ele>
        <time>2015-05-24T10:52:39Z</time>
      </trkpt>
      <trkpt lat="44.6369" lon="5.1613">
        <ele>1039.484985</ele>
        <time>2015-05-24T10:52:40Z</time>
      </trkpt>
      <trkpt lat="44.63653" lon="5.16114">
        <ele>1042.600464</ele>
        <time>2015-05-24T10:52:49Z</time>
      </trkpt>
      <trkpt lat="44.63653" lon="5.16114">
        <ele>1042.664917</ele>
        <time>2015-05-24T10:53:05Z</time>
      </trkpt>
      <trkpt lat="44.63655" lon="5.16112">
        <ele>1043.652954</ele>
        <time>2015-05-24T10:53:46Z</time>
      </trkpt>
      <trkpt lat="44.63655" lon="5.16112">
        <ele>1043.651611</ele>
        <time>2015-05-24T10:54:25Z</time>
      </trkpt>
      <trkpt lat="44.63655" lon="5.16113">
        <ele>1043.721436</ele>
        <time>2015-05-24T10:54:57Z</time>
      </trkpt>
      <trkpt lat="44.63655" lon="5.16113">
        <ele>1043.784424</ele>
        <time>2015-05-24T10:55:00Z</time>
      </trkpt>
      <trkpt lat="44.63655" lon="5.16113">
        <ele>1043.725586</ele>
        <time>2015-05-24T10:55:01Z</time>
      </trkpt>
      <trkpt lat="44.63655" lon="5.16113">
        <ele>1043.611816</ele>
        <time>2015-05-24T10:55:07Z</time>
      </trkpt>
      <trkpt lat="44.63655" lon="5.16113">
        <ele>1043.613281</ele>
        <time>2015-05-24T10:55:08Z</time>
      </trkpt>
      <trkpt lat="44.63654" lon="5.16114">
        <ele>1043.558472</ele>
        <time>2015-05-24T10:55:11Z</time>
      </trkpt>
      <trkpt lat="44.63654" lon="5.16114">
        <ele>1043.561279</ele>
        <time>2015-05-24T10:55:12Z</time>
      </trkpt>
      <trkpt lat="44.63654" lon="5.16114">
        <ele>1043.505127</ele>
        <time>2015-05-24T10:55:14Z</time>
      </trkpt>
      <trkpt lat="44.63654" lon="5.16114">
        <ele>1043.51062</ele>
        <time>2015-05-24T10:55:15Z</time>
      </trkpt>
      <trkpt lat="44.63654" lon="5.16114">
        <ele>1043.513428</ele>
        <time>2015-05-24T10:55:16Z</time>
      </trkpt>
      <trkpt lat="44.63654" lon="5.16115">
        <ele>1043.576294</ele>
        <time>2015-05-24T10:55:17Z</time>
      </trkpt>
      <trkpt lat="44.63654" lon="5.16115">
        <ele>1043.579102</ele>
        <time>2015-05-24T10:55:18Z</time>
      </trkpt>
      <trkpt lat="44.63655" lon="5.16116">
        <ele>1043.897583</ele>
        <time>2015-05-24T10:55:50Z</time>
      </trkpt>
      <trkpt lat="44.63655" lon="5.16116">
        <ele>1043.66394</ele>
        <time>2015-05-24T10:56:25Z</time>
      </trkpt>
      <trkpt lat="44.63654" lon="5.16116">
        <ele>1043.600952</ele>
        <time>2015-05-24T10:56:33Z</time>
      </trkpt>
      <trkpt lat="44.63653" lon="5.16114">
        <ele>1042.656372</ele>
        <time>2015-05-24T10:57:15Z</time>
      </trkpt>
      <trkpt lat="44.63653" lon="5.16115">
        <ele>1043.034546</ele>
        <time>2015-05-24T10:57:56Z</time>
      </trkpt>
      <trkpt lat="44.63654" lon="5.16114">
        <ele>1043.384644</ele>
        <time>2015-05-24T10:58:33Z</time>
      </trkpt>
      <trkpt lat="44.63655" lon="5.16114">
        <ele>1043.618652</ele>
        <time>2015-05-24T10:58:52Z</time>
      </trkpt>
      <trkpt lat="44.63656" lon="5.16115">
        <ele>1044.489746</ele>
        <time>2015-05-24T10:58:54Z</time>
      </trkpt>
      <trkpt lat="44.63657" lon="5.16117">
        <ele>1045.172241</ele>
        <time>2015-05-24T10:58:55Z</time>
      </trkpt>
      <trkpt lat="44.63658" lon="5.16118">
        <ele>1045.793579</ele>
        <time>2015-05-24T10:58:56Z</time>
      </trkpt>
      <trkpt lat="44.63659" lon="5.1612">
        <ele>1045.873779</ele>
        <time>2015-05-24T10:58:57Z</time>
      </trkpt>
      <trkpt lat="44.6366" lon="5.16121">
        <ele>1045.780029</ele>
        <time>2015-05-24T10:58:58Z</time>
      </trkpt>
      <trkpt lat="44.63661" lon="5.16122">
        <ele>1045.545044</ele>
        <time>2015-05-24T10:58:59Z</time>
      </trkpt>
      <trkpt lat="44.63663" lon="5.16122">
        <ele>1045.255005</ele>
        <time>2015-05-24T10:59:00Z</time>
      </trkpt>
      <trkpt lat="44.63663" lon="5.16124">
        <ele>1045.165039</ele>
        <time>2015-05-24T10:59:01Z</time>
      </trkpt>
      <trkpt lat="44.63663" lon="5.16125">
        <ele>1045.339966</ele>
        <time>2015-05-24T10:59:02Z</time>
      </trkpt>
      <trkpt lat="44.63662" lon="5.16126">
        <ele>1045.625</ele>
        <time>2015-05-24T10:59:03Z</time>
      </trkpt>
      <trkpt lat="44.63661" lon="5.16125">
        <ele>1045.824951</ele>
        <time>2015-05-24T10:59:04Z</time>
      </trkpt>
      <trkpt lat="44.6366" lon="5.16123">
        <ele>1045.844971</ele>
        <time>2015-05-24T10:59:05Z</time>
      </trkpt>
      <trkpt lat="44.6366" lon="5.1612">
        <ele>1045.765015</ele>
        <time>2015-05-24T10:59:06Z</time>
      </trkpt>
      <trkpt lat="44.63659" lon="5.16117">
        <ele>1045.879395</ele>
        <time>2015-05-24T10:59:07Z</time>
      </trkpt>
      <trkpt lat="44.63658" lon="5.16114">
        <ele>1045.605103</ele>
        <time>2015-05-24T10:59:08Z</time>
      </trkpt>
      <trkpt lat="44.63657" lon="5.16105">
        <ele>1044.794312</ele>
        <time>2015-05-24T10:59:11Z</time>
      </trkpt>
      <trkpt lat="44.63658" lon="5.16103">
        <ele>1045.312866</ele>
        <time>2015-05-24T10:59:12Z</time>
      </trkpt>
      <trkpt lat="44.6366" lon="5.16103">
        <ele>1045.595459</ele>
        <time>2015-05-24T10:59:13Z</time>
      </trkpt>
      <trkpt lat="44.63661" lon="5.16105">
        <ele>1045.38147</ele>
        <time>2015-05-24T10:59:14Z</time>
      </trkpt>
      <trkpt lat="44.63661" lon="5.16107">
        <ele>1045.390869</ele>
        <time>2015-05-24T10:59:15Z</time>
      </trkpt>
      <trkpt lat="44.6366" lon="5.16109">
        <ele>1045.589722</ele>
        <time>2015-05-24T10:59:16Z</time>
      </trkpt>
      <trkpt lat="44.63659" lon="5.1611">
        <ele>1045.825684</ele>
        <time>2015-05-24T10:59:17Z</time>
      </trkpt>
      <trkpt lat="44.63658" lon="5.16111">
        <ele>1045.327026</ele>
        <time>2015-05-24T10:59:18Z</time>
      </trkpt>
      <trkpt lat="44.63655" lon="5.16115">
        <ele>1043.890869</ele>
        <time>2015-05-24T10:59:21Z</time>
      </trkpt>
      <trkpt lat="44.63655" lon="5.16117">
        <ele>1043.74585</ele>
        <time>2015-05-24T10:59:22Z</time>
      </trkpt>
      <trkpt lat="44.63654" lon="5.1612">
        <ele>1043.744263</ele>
        <time>2015-05-24T10:59:23Z</time>
      </trkpt>
      <trkpt lat="44.63654" lon="5.16122">
        <ele>1043.861206</ele>
        <time>2015-05-24T10:59:24Z</time>
      </trkpt>
      <trkpt lat="44.63654" lon="5.16124">
        <ele>1044.019775</ele>
        <time>2015-05-24T10:59:25Z</time>
      </trkpt>
      <trkpt lat="44.63655" lon="5.16138">
        <ele>1045.59082</ele>
        <time>2015-05-24T10:59:34Z</time>
      </trkpt>
      <trkpt lat="44.63655" lon="5.1614">
        <ele>1045.748779</ele>
        <time>2015-05-24T10:59:35Z</time>
      </trkpt>
      <trkpt lat="44.63655" lon="5.16147">
        <ele>1046.596436</ele>
        <time>2015-05-24T10:59:40Z</time>
      </trkpt>
      <trkpt lat="44.63656" lon="5.16149">
        <ele>1047.039795</ele>
        <time>2015-05-24T10:59:41Z</time>
      </trkpt>
      <trkpt lat="44.63657" lon="5.16151">
        <ele>1047.512451</ele>
        <time>2015-05-24T10:59:42Z</time>
      </trkpt>
      <trkpt lat="44.63658" lon="5.16153">
        <ele>1048.11499</ele>
        <time>2015-05-24T10:59:43Z</time>
      </trkpt>
      <trkpt lat="44.63659" lon="5.16156">
        <ele>1048.055054</ele>
        <time>2015-05-24T10:59:44Z</time>
      </trkpt>
      <trkpt lat="44.6366" lon="5.16173">
        <ele>1048.829956</ele>
        <time>2015-05-24T10:59:54Z</time>
      </trkpt>
      <trkpt lat="44.63658" lon="5.1618">
        <ele>1049.699951</ele>
        <time>2015-05-24T11:00:01Z</time>
      </trkpt>
      <trkpt lat="44.63654" lon="5.16188">
        <ele>1050.017944</ele>
        <time>2015-05-24T11:00:14Z</time>
      </trkpt>
      <trkpt lat="44.63653" lon="5.16198">
        <ele>1052.006226</ele>
        <time>2015-05-24T11:00:27Z</time>
      </trkpt>
      <trkpt lat="44.63654" lon="5.16201">
        <ele>1052.829956</ele>
        <time>2015-05-24T11:00:42Z</time>
      </trkpt>
      <trkpt lat="44.63656" lon="5.16206">
        <ele>1054.39209</ele>
        <time>2015-05-24T11:00:54Z</time>
      </trkpt>
      <trkpt lat="44.63662" lon="5.16226">
        <ele>1056.844971</ele>
        <time>2015-05-24T11:01:05Z</time>
      </trkpt>
      <trkpt lat="44.63663" lon="5.16235">
        <ele>1058.265015</ele>
        <time>2015-05-24T11:01:10Z</time>
      </trkpt>
      <trkpt lat="44.63663" lon="5.16237">
        <ele>1058.515015</ele>
        <time>2015-05-24T11:01:11Z</time>
      </trkpt>
      <trkpt lat="44.63664" lon="5.16238">
        <ele>1058.785034</ele>
        <time>2015-05-24T11:01:12Z</time>
      </trkpt>
      <trkpt lat="44.63666" lon="5.16245">
        <ele>1059.469971</ele>
        <time>2015-05-24T11:01:15Z</time>
      </trkpt>
      <trkpt lat="44.63667" lon="5.16254">
        <ele>1062.095947</ele>
        <time>2015-05-24T11:01:20Z</time>
      </trkpt>
      <trkpt lat="44.6367" lon="5.16263">
        <ele>1064.549438</ele>
        <time>2015-05-24T11:01:27Z</time>
      </trkpt>
      <trkpt lat="44.63672" lon="5.16273">
        <ele>1067.575806</ele>
        <time>2015-05-24T11:01:34Z</time>
      </trkpt>
      <trkpt lat="44.63674" lon="5.16294">
        <ele>1073.743164</ele>
        <time>2015-05-24T11:01:47Z</time>
      </trkpt>
      <trkpt lat="44.63675" lon="5.16298">
        <ele>1074.982178</ele>
        <time>2015-05-24T11:01:59Z</time>
      </trkpt>
      <trkpt lat="44.63676" lon="5.16297">
        <ele>1074.469971</ele>
        <time>2015-05-24T11:02:17Z</time>
      </trkpt>
      <trkpt lat="44.63676" lon="5.16279">
        <ele>1068.495605</ele>
        <time>2015-05-24T11:02:23Z</time>
      </trkpt>
      <trkpt lat="44.63674" lon="5.16268">
        <ele>1065.220337</ele>
        <time>2015-05-24T11:02:26Z</time>
      </trkpt>
      <trkpt lat="44.63671" lon="5.16241">
        <ele>1057.530029</ele>
        <time>2015-05-24T11:02:32Z</time>
      </trkpt>
      <trkpt lat="44.63667" lon="5.16225">
        <ele>1055.505005</ele>
        <time>2015-05-24T11:02:35Z</time>
      </trkpt>
      <trkpt lat="44.63661" lon="5.16197">
        <ele>1051.810059</ele>
        <time>2015-05-24T11:02:42Z</time>
      </trkpt>
      <trkpt lat="44.63661" lon="5.16174">
        <ele>1048.699951</ele>
        <time>2015-05-24T11:02:46Z</time>
      </trkpt>
      <trkpt lat="44.63658" lon="5.16149">
        <ele>1047.840576</ele>
        <time>2015-05-24T11:02:50Z</time>
      </trkpt>
      <trkpt lat="44.63656" lon="5.16133">
        <ele>1045.718384</ele>
        <time>2015-05-24T11:02:53Z</time>
      </trkpt>
      <trkpt lat="44.63656" lon="5.16114">
        <ele>1044.5354</ele>
        <time>2015-05-24T11:02:57Z</time>
      </trkpt>
      <trkpt lat="44.63657" lon="5.16111">
        <ele>1044.715942</ele>
        <time>2015-05-24T11:03:07Z</time>
      </trkpt>
      <trkpt lat="44.63657" lon="5.16112">
        <ele>1044.849731</ele>
        <time>2015-05-24T11:03:50Z</time>
      </trkpt>
      <trkpt lat="44.63658" lon="5.16112">
        <ele>1045.220581</ele>
        <time>2015-05-24T11:04:36Z</time>
      </trkpt>
      <trkpt lat="44.63658" lon="5.16113">
        <ele>1045.409058</ele>
        <time>2015-05-24T11:05:14Z</time>
      </trkpt>
      <trkpt lat="44.63658" lon="5.16112">
        <ele>1045.339844</ele>
        <time>2015-05-24T11:05:58Z</time>
      </trkpt>
      <trkpt lat="44.63659" lon="5.16115">
        <ele>1045.799561</ele>
        <time>2015-05-24T11:06:42Z</time>
      </trkpt>
      <trkpt lat="44.63658" lon="5.16113">
        <ele>1045.479492</ele>
        <time>2015-05-24T11:07:20Z</time>
      </trkpt>
      <trkpt lat="44.63658" lon="5.16113">
        <ele>1045.653931</ele>
        <time>2015-05-24T11:08:01Z</time>
      </trkpt>
      <trkpt lat="44.63659" lon="5.16114">
        <ele>1045.790771</ele>
        <time>2015-05-24T11:08:45Z</time>
      </trkpt>
      <trkpt lat="44.63658" lon="5.16114">
        <ele>1045.72937</ele>
        <time>2015-05-24T11:09:29Z</time>
      </trkpt>
      <trkpt lat="44.6366" lon="5.16114">
        <ele>1045.718384</ele>
        <time>2015-05-24T11:10:07Z</time>
      </trkpt>
      <trkpt lat="44.6366" lon="5.16113">
        <ele>1045.602417</ele>
        <time>2015-05-24T11:10:44Z</time>
      </trkpt>
      <trkpt lat="44.63659" lon="5.16114">
        <ele>1045.84729</ele>
        <time>2015-05-24T11:11:21Z</time>
      </trkpt>
      <trkpt lat="44.63659" lon="5.16115">
        <ele>1045.848633</ele>
        <time>2015-05-24T11:12:00Z</time>
      </trkpt>
      <trkpt lat="44.63659" lon="5.16114">
        <ele>1045.915039</ele>
        <time>2015-05-24T11:12:38Z</time>
      </trkpt>
      <trkpt lat="44.63658" lon="5.16114">
        <ele>1045.556274</ele>
        <time>2015-05-24T11:12:56Z</time>
      </trkpt>
      <trkpt lat="44.63658" lon="5.16114">
        <ele>1045.549927</ele>
        <time>2015-05-24T11:12:59Z</time>
      </trkpt>
      <trkpt lat="44.63658" lon="5.16111">
        <ele>1045.319458</ele>
        <time>2015-05-24T11:13:35Z</time>
      </trkpt>
      <trkpt lat="44.6366" lon="5.1611">
        <ele>1045.718994</ele>
        <time>2015-05-24T11:13:45Z</time>
      </trkpt>
      <trkpt lat="44.63659" lon="5.16108">
        <ele>1045.762085</ele>
        <time>2015-05-24T11:14:13Z</time>
      </trkpt>
      <trkpt lat="44.63659" lon="5.16109">
        <ele>1045.704102</ele>
        <time>2015-05-24T11:14:16Z</time>
      </trkpt>
      <trkpt lat="44.63659" lon="5.16109">
        <ele>1045.704102</ele>
        <time>2015-05-24T11:14:17Z</time>
      </trkpt>
      <trkpt lat="44.63659" lon="5.16109">
        <ele>1045.704102</ele>
        <time>2015-05-24T11:14:18Z</time>
      </trkpt>
      <trkpt lat="44.63658" lon="5.16109">
        <ele>1045.287476</ele>
        <time>2015-05-24T11:14:38Z</time>
      </trkpt>
      <trkpt lat="44.63661" lon="5.16109">
        <ele>1045.343628</ele>
        <time>2015-05-24T11:14:40Z</time>
      </trkpt>
      <trkpt lat="44.63678" lon="5.16136">
        <ele>1042.625</ele>
        <time>2015-05-24T11:14:50Z</time>
      </trkpt>
      <trkpt lat="44.63682" lon="5.16145">
        <ele>1042.204956</ele>
        <time>2015-05-24T11:14:52Z</time>
      </trkpt>
      <trkpt lat="44.63705" lon="5.16193">
        <ele>1040.265625</ele>
        <time>2015-05-24T11:15:03Z</time>
      </trkpt>
      <trkpt lat="44.6373" lon="5.1625">
        <ele>1040.326294</ele>
        <time>2015-05-24T11:15:13Z</time>
      </trkpt>
      <trkpt lat="44.63747" lon="5.1628">
        <ele>1042.878662</ele>
        <time>2015-05-24T11:15:18Z</time>
      </trkpt>
      <trkpt lat="44.63752" lon="5.16284">
        <ele>1042.904907</ele>
        <time>2015-05-24T11:15:19Z</time>
      </trkpt>
      <trkpt lat="44.63756" lon="5.16287">
        <ele>1042.499634</ele>
        <time>2015-05-24T11:15:20Z</time>
      </trkpt>
      <trkpt lat="44.63771" lon="5.16293">
        <ele>1039.660522</ele>
        <time>2015-05-24T11:15:23Z</time>
      </trkpt>
      <trkpt lat="44.63782" lon="5.16293">
        <ele>1035.812866</ele>
        <time>2015-05-24T11:15:25Z</time>
      </trkpt>
      <trkpt lat="44.63794" lon="5.16292">
        <ele>1032.039917</ele>
        <time>2015-05-24T11:15:27Z</time>
      </trkpt>
      <trkpt lat="44.63799" lon="5.16292">
        <ele>1030.952515</ele>
        <time>2015-05-24T11:15:28Z</time>
      </trkpt>
      <trkpt lat="44.63816" lon="5.16294">
        <ele>1028.22998</ele>
        <time>2015-05-24T11:15:31Z</time>
      </trkpt>
      <trkpt lat="44.63821" lon="5.16297">
        <ele>1027.997437</ele>
        <time>2015-05-24T11:15:32Z</time>
      </trkpt>
      <trkpt lat="44.63836" lon="5.16306">
        <ele>1028.15625</ele>
        <time>2015-05-24T11:15:35Z</time>
      </trkpt>
      <trkpt lat="44.63854" lon="5.16322">
        <ele>1028.526489</ele>
        <time>2015-05-24T11:15:38Z</time>
      </trkpt>
      <trkpt lat="44.63858" lon="5.16327">
        <ele>1028.514648</ele>
        <time>2015-05-24T11:15:39Z</time>
      </trkpt>
      <trkpt lat="44.63863" lon="5.16333">
        <ele>1028.614136</ele>
        <time>2015-05-24T11:15:40Z</time>
      </trkpt>
      <trkpt lat="44.63868" lon="5.1634">
        <ele>1028.858521</ele>
        <time>2015-05-24T11:15:41Z</time>
      </trkpt>
      <trkpt lat="44.63873" lon="5.16347">
        <ele>1029.174561</ele>
        <time>2015-05-24T11:15:42Z</time>
      </trkpt>
      <trkpt lat="44.63877" lon="5.16355">
        <ele>1029.752686</ele>
        <time>2015-05-24T11:15:43Z</time>
      </trkpt>
      <trkpt lat="44.6388" lon="5.16364">
        <ele>1030.559448</ele>
        <time>2015-05-24T11:15:44Z</time>
      </trkpt>
      <trkpt lat="44.63882" lon="5.16373">
        <ele>1031.509277</ele>
        <time>2015-05-24T11:15:45Z</time>
      </trkpt>
      <trkpt lat="44.63885" lon="5.16383">
        <ele>1032.304688</ele>
        <time>2015-05-24T11:15:46Z</time>
      </trkpt>
      <trkpt lat="44.63888" lon="5.16392">
        <ele>1032.358521</ele>
        <time>2015-05-24T11:15:47Z</time>
      </trkpt>
      <trkpt lat="44.63904" lon="5.16487">
        <ele>1035.414185</ele>
        <time>2015-05-24T11:15:57Z</time>
      </trkpt>
      <trkpt lat="44.63907" lon="5.16501">
        <ele>1034.944824</ele>
        <time>2015-05-24T11:15:59Z</time>
      </trkpt>
      <trkpt lat="44.63911" lon="5.16506">
        <ele>1033.703247</ele>
        <time>2015-05-24T11:16:00Z</time>
      </trkpt>
      <trkpt lat="44.63915" lon="5.16509">
        <ele>1031.715942</ele>
        <time>2015-05-24T11:16:01Z</time>
      </trkpt>
      <trkpt lat="44.6392" lon="5.16511">
        <ele>1030.050415</ele>
        <time>2015-05-24T11:16:02Z</time>
      </trkpt>
      <trkpt lat="44.63925" lon="5.16512">
        <ele>1029.939087</ele>
        <time>2015-05-24T11:16:03Z</time>
      </trkpt>
      <trkpt lat="44.63931" lon="5.16513">
        <ele>1029.666626</ele>
        <time>2015-05-24T11:16:04Z</time>
      </trkpt>
      <trkpt lat="44.63937" lon="5.16513">
        <ele>1029.185669</ele>
        <time>2015-05-24T11:16:05Z</time>
      </trkpt>
      <trkpt lat="44.63943" lon="5.16512">
        <ele>1028.232178</ele>
        <time>2015-05-24T11:16:06Z</time>
      </trkpt>
      <trkpt lat="44.6395" lon="5.16509">
        <ele>1027.118286</ele>
        <time>2015-05-24T11:16:07Z</time>
      </trkpt>
      <trkpt lat="44.63963" lon="5.16504">
        <ele>1023.873413</ele>
        <time>2015-05-24T11:16:09Z</time>
      </trkpt>
      <trkpt lat="44.63969" lon="5.165">
        <ele>1022.544373</ele>
        <time>2015-05-24T11:16:10Z</time>
      </trkpt>
      <trkpt lat="44.63988" lon="5.16495">
        <ele>1020.921265</ele>
        <time>2015-05-24T11:16:12Z</time>
      </trkpt>
      <trkpt lat="44.64021" lon="5.16486">
        <ele>1016.940735</ele>
        <time>2015-05-24T11:16:16Z</time>
      </trkpt>
      <trkpt lat="44.64051" lon="5.16485">
        <ele>1015.811951</ele>
        <time>2015-05-24T11:16:19Z</time>
      </trkpt>
      <trkpt lat="44.64055" lon="5.16483">
        <ele>1014.57251</ele>
        <time>2015-05-24T11:16:20Z</time>
      </trkpt>
      <trkpt lat="44.64059" lon="5.16482">
        <ele>1013.327515</ele>
        <time>2015-05-24T11:16:21Z</time>
      </trkpt>
      <trkpt lat="44.64062" lon="5.16482">
        <ele>1012.929993</ele>
        <time>2015-05-24T11:16:26Z</time>
      </trkpt>
      <trkpt lat="44.64062" lon="5.16483">
        <ele>1012.974976</ele>
        <time>2015-05-24T11:16:27Z</time>
      </trkpt>
      <trkpt lat="44.64062" lon="5.16483">
        <ele>1013.05249</ele>
        <time>2015-05-24T11:16:28Z</time>
      </trkpt>
      <trkpt lat="44.64062" lon="5.16483">
        <ele>1013.117493</ele>
        <time>2015-05-24T11:16:29Z</time>
      </trkpt>
      <trkpt lat="44.64062" lon="5.16484">
        <ele>1013.29248</ele>
        <time>2015-05-24T11:16:35Z</time>
      </trkpt>
      <trkpt lat="44.64062" lon="5.16483">
        <ele>1013.162476</ele>
        <time>2015-05-24T11:16:36Z</time>
      </trkpt>
      <trkpt lat="44.64062" lon="5.16483">
        <ele>1013.02002</ele>
        <time>2015-05-24T11:16:37Z</time>
      </trkpt>
      <trkpt lat="44.64062" lon="5.16483">
        <ele>1012.902527</ele>
        <time>2015-05-24T11:16:38Z</time>
      </trkpt>
      <trkpt lat="44.64063" lon="5.16482">
        <ele>1012.672485</ele>
        <time>2015-05-24T11:16:41Z</time>
      </trkpt>
      <trkpt lat="44.64063" lon="5.16482">
        <ele>1012.632507</ele>
        <time>2015-05-24T11:16:42Z</time>
      </trkpt>
      <trkpt lat="44.64063" lon="5.16482">
        <ele>1012.559998</ele>
        <time>2015-05-24T11:16:43Z</time>
      </trkpt>
      <trkpt lat="44.64064" lon="5.16482">
        <ele>1012.507507</ele>
        <time>2015-05-24T11:16:44Z</time>
      </trkpt>
      <trkpt lat="44.64064" lon="5.16482">
        <ele>1012.434998</ele>
        <time>2015-05-24T11:16:45Z</time>
      </trkpt>
      <trkpt lat="44.64064" lon="5.16484">
        <ele>1012.965027</ele>
        <time>2015-05-24T11:17:03Z</time>
      </trkpt>
      <trkpt lat="44.64065" lon="5.16484">
        <ele>1013.17749</ele>
        <time>2015-05-24T11:17:06Z</time>
      </trkpt>
      <trkpt lat="44.64065" lon="5.16485">
        <ele>1013.255005</ele>
        <time>2015-05-24T11:17:07Z</time>
      </trkpt>
      <trkpt lat="44.64066" lon="5.16485">
        <ele>1013.382507</ele>
        <time>2015-05-24T11:17:11Z</time>
      </trkpt>
      <trkpt lat="44.64066" lon="5.16485">
        <ele>1013.414978</ele>
        <time>2015-05-24T11:17:12Z</time>
      </trkpt>
      <trkpt lat="44.64066" lon="5.16485">
        <ele>1013.47998</ele>
        <time>2015-05-24T11:17:13Z</time>
      </trkpt>
      <trkpt lat="44.64066" lon="5.16486">
        <ele>1013.492493</ele>
        <time>2015-05-24T11:17:14Z</time>
      </trkpt>
      <trkpt lat="44.64066" lon="5.16486">
        <ele>1013.492493</ele>
        <time>2015-05-24T11:17:15Z</time>
      </trkpt>
      <trkpt lat="44.64066" lon="5.16486">
        <ele>1013.524963</ele>
        <time>2015-05-24T11:17:16Z</time>
      </trkpt>
      <trkpt lat="44.64066" lon="5.16486">
        <ele>1013.557495</ele>
        <time>2015-05-24T11:17:17Z</time>
      </trkpt>
      <trkpt lat="44.64066" lon="5.16486">
        <ele>1013.570007</ele>
        <time>2015-05-24T11:17:18Z</time>
      </trkpt>
      <trkpt lat="44.64066" lon="5.16486">
        <ele>1013.570007</ele>
        <time>2015-05-24T11:17:19Z</time>
      </trkpt>
      <trkpt lat="44.64066" lon="5.16486">
        <ele>1013.517517</ele>
        <time>2015-05-24T11:17:21Z</time>
      </trkpt>
      <trkpt lat="44.64066" lon="5.16486">
        <ele>1013.484985</ele>
        <time>2015-05-24T11:17:22Z</time>
      </trkpt>
      <trkpt lat="44.64066" lon="5.16486">
        <ele>1013.464966</ele>
        <time>2015-05-24T11:17:23Z</time>
      </trkpt>
      <trkpt lat="44.64066" lon="5.16486">
        <ele>1013.412476</ele>
        <time>2015-05-24T11:17:24Z</time>
      </trkpt>
      <trkpt lat="44.64066" lon="5.16486">
        <ele>1013.647522</ele>
        <time>2015-05-24T11:17:33Z</time>
      </trkpt>
      <trkpt lat="44.64065" lon="5.16486">
        <ele>1013.965027</ele>
        <time>2015-05-24T11:17:34Z</time>
      </trkpt>
      <trkpt lat="44.64063" lon="5.16486">
        <ele>1014.375</ele>
        <time>2015-05-24T11:17:35Z</time>
      </trkpt>
      <trkpt lat="44.64061" lon="5.16487">
        <ele>1015.015015</ele>
        <time>2015-05-24T11:17:36Z</time>
      </trkpt>
      <trkpt lat="44.64058" lon="5.16487">
        <ele>1015.539978</ele>
        <time>2015-05-24T11:17:37Z</time>
      </trkpt>
      <trkpt lat="44.64055" lon="5.16486">
        <ele>1015.897461</ele>
        <time>2015-05-24T11:17:38Z</time>
      </trkpt>
      <trkpt lat="44.64052" lon="5.16487">
        <ele>1016.285706</ele>
        <time>2015-05-24T11:17:39Z</time>
      </trkpt>
      <trkpt lat="44.64048" lon="5.16487">
        <ele>1016.521362</ele>
        <time>2015-05-24T11:17:40Z</time>
      </trkpt>
      <trkpt lat="44.64044" lon="5.16487">
        <ele>1016.823669</ele>
        <time>2015-05-24T11:17:41Z</time>
      </trkpt>
      <trkpt lat="44.64039" lon="5.16488">
        <ele>1017.289185</ele>
        <time>2015-05-24T11:17:42Z</time>
      </trkpt>
      <trkpt lat="44.64034" lon="5.16489">
        <ele>1017.594971</ele>
        <time>2015-05-24T11:17:43Z</time>
      </trkpt>
      <trkpt lat="44.63993" lon="5.16501">
        <ele>1023.014221</ele>
        <time>2015-05-24T11:17:53Z</time>
      </trkpt>
      <trkpt lat="44.6399" lon="5.165">
        <ele>1022.762451</ele>
        <time>2015-05-24T11:17:54Z</time>
      </trkpt>
      <trkpt lat="44.63989" lon="5.16499">
        <ele>1022.1875</ele>
        <time>2015-05-24T11:17:55Z</time>
      </trkpt>
      <trkpt lat="44.63991" lon="5.16482">
        <ele>1016.026428</ele>
        <time>2015-05-24T11:17:59Z</time>
      </trkpt>
      <trkpt lat="44.63991" lon="5.16476">
        <ele>1013.739258</ele>
        <time>2015-05-24T11:18:00Z</time>
      </trkpt>
      <trkpt lat="44.63992" lon="5.16455">
        <ele>1005.687622</ele>
        <time>2015-05-24T11:18:03Z</time>
      </trkpt>
      <trkpt lat="44.63987" lon="5.16442">
        <ele>1002.244263</ele>
        <time>2015-05-24T11:18:04Z</time>
      </trkpt>
      <trkpt lat="44.63986" lon="5.16433">
        <ele>1000.074402</ele>
        <time>2015-05-24T11:18:05Z</time>
      </trkpt>
      <trkpt lat="44.63947" lon="5.16376">
        <ele>1001.882385</ele>
        <time>2015-05-24T11:18:06Z</time>
      </trkpt>
      <trkpt lat="44.63932" lon="5.16312">
        <ele>998.107971</ele>
        <time>2015-05-24T11:18:14Z</time>
      </trkpt>
      <trkpt lat="44.63913" lon="5.16284">
        <ele>997.739685</ele>
        <time>2015-05-24T11:18:18Z</time>
      </trkpt>
      <trkpt lat="44.63866" lon="5.16232">
        <ele>994.75</ele>
        <time>2015-05-24T11:18:28Z</time>
      </trkpt>
      <trkpt lat="44.63856" lon="5.16227">
        <ele>995.5</ele>
        <time>2015-05-24T11:18:30Z</time>
      </trkpt>
      <trkpt lat="44.63845" lon="5.16225">
        <ele>997.200012</ele>
        <time>2015-05-24T11:18:32Z</time>
      </trkpt>
      <trkpt lat="44.6384" lon="5.16225">
        <ele>998.5</ele>
        <time>2015-05-24T11:18:33Z</time>
      </trkpt>
      <trkpt lat="44.63835" lon="5.16225">
        <ele>999.848328</ele>
        <time>2015-05-24T11:18:34Z</time>
      </trkpt>
      <trkpt lat="44.63821" lon="5.16224">
        <ele>1002.809082</ele>
        <time>2015-05-24T11:18:37Z</time>
      </trkpt>
      <trkpt lat="44.63818" lon="5.16221">
        <ele>1002.594238</ele>
        <time>2015-05-24T11:18:38Z</time>
      </trkpt>
      <trkpt lat="44.63816" lon="5.16217">
        <ele>1002.002075</ele>
        <time>2015-05-24T11:18:39Z</time>
      </trkpt>
      <trkpt lat="44.63814" lon="5.16212">
        <ele>1000.908386</ele>
        <time>2015-05-24T11:18:40Z</time>
      </trkpt>
      <trkpt lat="44.63813" lon="5.16206">
        <ele>999.517639</ele>
        <time>2015-05-24T11:18:41Z</time>
      </trkpt>
      <trkpt lat="44.63804" lon="5.16157">
        <ele>993.45282</ele>
        <time>2015-05-24T11:18:48Z</time>
      </trkpt>
      <trkpt lat="44.63803" lon="5.1615">
        <ele>993.175964</ele>
        <time>2015-05-24T11:18:49Z</time>
      </trkpt>
      <trkpt lat="44.63802" lon="5.1613">
        <ele>991.634521</ele>
        <time>2015-05-24T11:18:52Z</time>
      </trkpt>
      <trkpt lat="44.638" lon="5.16119">
        <ele>992.246643</ele>
        <time>2015-05-24T11:18:53Z</time>
      </trkpt>
      <trkpt lat="44.638" lon="5.16109">
        <ele>992.758545</ele>
        <time>2015-05-24T11:18:54Z</time>
      </trkpt>
      <trkpt lat="44.638" lon="5.16099">
        <ele>993.2724</ele>
        <time>2015-05-24T11:18:55Z</time>
      </trkpt>
      <trkpt lat="44.638" lon="5.16089">
        <ele>993.58606</ele>
        <time>2015-05-24T11:18:56Z</time>
      </trkpt>
      <trkpt lat="44.63801" lon="5.16079">
        <ele>993.555908</ele>
        <time>2015-05-24T11:18:57Z</time>
      </trkpt>
      <trkpt lat="44.63801" lon="5.16071">
        <ele>993.887573</ele>
        <time>2015-05-24T11:18:58Z</time>
      </trkpt>
      <trkpt lat="44.638" lon="5.16062">
        <ele>994.879272</ele>
        <time>2015-05-24T11:18:59Z</time>
      </trkpt>
      <trkpt lat="44.63801" lon="5.16054">
        <ele>995.995728</ele>
        <time>2015-05-24T11:19:00Z</time>
      </trkpt>
      <trkpt lat="44.63802" lon="5.16044">
        <ele>997.318665</ele>
        <time>2015-05-24T11:19:01Z</time>
      </trkpt>
      <trkpt lat="44.63805" lon="5.1603">
        <ele>998.420166</ele>
        <time>2015-05-24T11:19:03Z</time>
      </trkpt>
      <trkpt lat="44.63811" lon="5.16017">
        <ele>998.477478</ele>
        <time>2015-05-24T11:19:05Z</time>
      </trkpt>
      <trkpt lat="44.6383" lon="5.15983">
        <ele>996.58783</ele>
        <time>2015-05-24T11:19:11Z</time>
      </trkpt>
      <trkpt lat="44.63847" lon="5.15948">
        <ele>996.637512</ele>
        <time>2015-05-24T11:19:16Z</time>
      </trkpt>
      <trkpt lat="44.63878" lon="5.1591">
        <ele>989.251587</ele>
        <time>2015-05-24T11:19:22Z</time>
      </trkpt>
      <trkpt lat="44.63896" lon="5.15884">
        <ele>984.453918</ele>
        <time>2015-05-24T11:19:25Z</time>
      </trkpt>
      <trkpt lat="44.63902" lon="5.15872">
        <ele>983.183716</ele>
        <time>2015-05-24T11:19:26Z</time>
      </trkpt>
      <trkpt lat="44.63925" lon="5.15827">
        <ele>976.693481</ele>
        <time>2015-05-24T11:19:30Z</time>
      </trkpt>
      <trkpt lat="44.63932" lon="5.15817">
        <ele>973.986084</ele>
        <time>2015-05-24T11:19:31Z</time>
      </trkpt>
      <trkpt lat="44.6394" lon="5.15808">
        <ele>971.765137</ele>
        <time>2015-05-24T11:19:32Z</time>
      </trkpt>
      <trkpt lat="44.63957" lon="5.15792">
        <ele>967.738159</ele>
        <time>2015-05-24T11:19:34Z</time>
      </trkpt>
      <trkpt lat="44.63997" lon="5.15762">
        <ele>959.919983</ele>
        <time>2015-05-24T11:19:38Z</time>
      </trkpt>
      <trkpt lat="44.64016" lon="5.15748">
        <ele>956.927673</ele>
        <time>2015-05-24T11:19:40Z</time>
      </trkpt>
      <trkpt lat="44.64042" lon="5.15726">
        <ele>951.926758</ele>
        <time>2015-05-24T11:19:43Z</time>
      </trkpt>
      <trkpt lat="44.64067" lon="5.15697">
        <ele>947.999695</ele>
        <time>2015-05-24T11:19:46Z</time>
      </trkpt>
      <trkpt lat="44.6409" lon="5.15668">
        <ele>943.942017</ele>
        <time>2015-05-24T11:19:49Z</time>
      </trkpt>
      <trkpt lat="44.64096" lon="5.15659">
        <ele>942.776917</ele>
        <time>2015-05-24T11:19:50Z</time>
      </trkpt>
      <trkpt lat="44.64124" lon="5.15618">
        <ele>937.665344</ele>
        <time>2015-05-24T11:19:54Z</time>
      </trkpt>
      <trkpt lat="44.64144" lon="5.15591">
        <ele>933.292664</ele>
        <time>2015-05-24T11:19:57Z</time>
      </trkpt>
      <trkpt lat="44.64162" lon="5.15567">
        <ele>928.120789</ele>
        <time>2015-05-24T11:20:00Z</time>
      </trkpt>
      <trkpt lat="44.64168" lon="5.15558">
        <ele>926.843994</ele>
        <time>2015-05-24T11:20:01Z</time>
      </trkpt>
      <trkpt lat="44.64176" lon="5.15537">
        <ele>926.113403</ele>
        <time>2015-05-24T11:20:03Z</time>
      </trkpt>
      <trkpt lat="44.64176" lon="5.15525">
        <ele>927.802185</ele>
        <time>2015-05-24T11:20:04Z</time>
      </trkpt>
      <trkpt lat="44.64177" lon="5.15505">
        <ele>927.869934</ele>
        <time>2015-05-24T11:20:06Z</time>
      </trkpt>
      <trkpt lat="44.64173" lon="5.15481">
        <ele>926.861511</ele>
        <time>2015-05-24T11:20:08Z</time>
      </trkpt>
      <trkpt lat="44.64168" lon="5.15447">
        <ele>925.28479</ele>
        <time>2015-05-24T11:20:11Z</time>
      </trkpt>
      <trkpt lat="44.64164" lon="5.15412">
        <ele>917.963684</ele>
        <time>2015-05-24T11:20:14Z</time>
      </trkpt>
      <trkpt lat="44.64164" lon="5.15371">
        <ele>908.47998</ele>
        <time>2015-05-24T11:20:17Z</time>
      </trkpt>
      <trkpt lat="44.64163" lon="5.1534">
        <ele>902.119995</ele>
        <time>2015-05-24T11:20:19Z</time>
      </trkpt>
      <trkpt lat="44.64159" lon="5.15306">
        <ele>898.424988</ele>
        <time>2015-05-24T11:20:21Z</time>
      </trkpt>
      <trkpt lat="44.64152" lon="5.15249">
        <ele>895.569519</ele>
        <time>2015-05-24T11:20:26Z</time>
      </trkpt>
      <trkpt lat="44.64149" lon="5.15228">
        <ele>897.459656</ele>
        <time>2015-05-24T11:20:28Z</time>
      </trkpt>
      <trkpt lat="44.64151" lon="5.1522">
        <ele>896.961548</ele>
        <time>2015-05-24T11:20:29Z</time>
      </trkpt>
      <trkpt lat="44.64154" lon="5.152">
        <ele>896.055298</ele>
        <time>2015-05-24T11:20:31Z</time>
      </trkpt>
      <trkpt lat="44.64157" lon="5.15191">
        <ele>896.065002</ele>
        <time>2015-05-24T11:20:32Z</time>
      </trkpt>
      <trkpt lat="44.64161" lon="5.15184">
        <ele>895.117493</ele>
        <time>2015-05-24T11:20:33Z</time>
      </trkpt>
      <trkpt lat="44.64166" lon="5.15177">
        <ele>894.45752</ele>
        <time>2015-05-24T11:20:34Z</time>
      </trkpt>
      <trkpt lat="44.64171" lon="5.1517">
        <ele>893.0625</ele>
        <time>2015-05-24T11:20:35Z</time>
      </trkpt>
      <trkpt lat="44.64177" lon="5.15163">
        <ele>891.482483</ele>
        <time>2015-05-24T11:20:36Z</time>
      </trkpt>
      <trkpt lat="44.64202" lon="5.15134">
        <ele>885.797485</ele>
        <time>2015-05-24T11:20:40Z</time>
      </trkpt>
      <trkpt lat="44.64224" lon="5.15101">
        <ele>881.98877</ele>
        <time>2015-05-24T11:20:44Z</time>
      </trkpt>
      <trkpt lat="44.64241" lon="5.15051">
        <ele>878.550232</ele>
        <time>2015-05-24T11:20:49Z</time>
      </trkpt>
      <trkpt lat="44.64248" lon="5.15018">
        <ele>875.4729</ele>
        <time>2015-05-24T11:20:52Z</time>
      </trkpt>
      <trkpt lat="44.64253" lon="5.14982">
        <ele>870.676147</ele>
        <time>2015-05-24T11:20:55Z</time>
      </trkpt>
      <trkpt lat="44.64253" lon="5.1497">
        <ele>869.770325</ele>
        <time>2015-05-24T11:20:56Z</time>
      </trkpt>
      <trkpt lat="44.64252" lon="5.14958">
        <ele>869.437195</ele>
        <time>2015-05-24T11:20:57Z</time>
      </trkpt>
      <trkpt lat="44.6425" lon="5.14945">
        <ele>868.615845</ele>
        <time>2015-05-24T11:20:58Z</time>
      </trkpt>
      <trkpt lat="44.64247" lon="5.14933">
        <ele>867.591614</ele>
        <time>2015-05-24T11:20:59Z</time>
      </trkpt>
      <trkpt lat="44.64242" lon="5.14921">
        <ele>866.881409</ele>
        <time>2015-05-24T11:21:00Z</time>
      </trkpt>
      <trkpt lat="44.64238" lon="5.1491">
        <ele>866.03772</ele>
        <time>2015-05-24T11:21:01Z</time>
      </trkpt>
      <trkpt lat="44.64225" lon="5.14877">
        <ele>863.922546</ele>
        <time>2015-05-24T11:21:04Z</time>
      </trkpt>
      <trkpt lat="44.64213" lon="5.14843">
        <ele>861.2052</ele>
        <time>2015-05-24T11:21:07Z</time>
      </trkpt>
      <trkpt lat="44.6421" lon="5.14832">
        <ele>860.071167</ele>
        <time>2015-05-24T11:21:08Z</time>
      </trkpt>
      <trkpt lat="44.64206" lon="5.14813">
        <ele>859.121277</ele>
        <time>2015-05-24T11:21:10Z</time>
      </trkpt>
      <trkpt lat="44.64195" lon="5.14788">
        <ele>863.043762</ele>
        <time>2015-05-24T11:21:16Z</time>
      </trkpt>
      <trkpt lat="44.64191" lon="5.14785">
        <ele>865.058777</ele>
        <time>2015-05-24T11:21:31Z</time>
      </trkpt>
      <trkpt lat="44.64183" lon="5.14786">
        <ele>870.202454</ele>
        <time>2015-05-24T11:22:05Z</time>
      </trkpt>
      <trkpt lat="44.64177" lon="5.14788">
        <ele>875.256226</ele>
        <time>2015-05-24T11:22:39Z</time>
      </trkpt>
      <trkpt lat="44.6417" lon="5.1479">
        <ele>879.70105</ele>
        <time>2015-05-24T11:23:13Z</time>
      </trkpt>
      <trkpt lat="44.64171" lon="5.1479">
        <ele>879.11731</ele>
        <time>2015-05-24T11:23:42Z</time>
      </trkpt>
      <trkpt lat="44.6417" lon="5.14787">
        <ele>879.86322</ele>
        <time>2015-05-24T11:24:12Z</time>
      </trkpt>
      <trkpt lat="44.6417" lon="5.14786">
        <ele>879.832214</ele>
        <time>2015-05-24T11:24:14Z</time>
      </trkpt>
      <trkpt lat="44.6417" lon="5.14786">
        <ele>879.824463</ele>
        <time>2015-05-24T11:24:15Z</time>
      </trkpt>
      <trkpt lat="44.6417" lon="5.14785">
        <ele>879.819519</ele>
        <time>2015-05-24T11:24:23Z</time>
      </trkpt>
      <trkpt lat="44.6417" lon="5.14785">
        <ele>879.811768</ele>
        <time>2015-05-24T11:24:24Z</time>
      </trkpt>
      <trkpt lat="44.6417" lon="5.14785">
        <ele>879.788513</ele>
        <time>2015-05-24T11:24:27Z</time>
      </trkpt>
      <trkpt lat="44.6417" lon="5.14785">
        <ele>879.780762</ele>
        <time>2015-05-24T11:24:28Z</time>
      </trkpt>
      <trkpt lat="44.6417" lon="5.14785">
        <ele>879.77301</ele>
        <time>2015-05-24T11:24:29Z</time>
      </trkpt>
      <trkpt lat="44.6417" lon="5.14785">
        <ele>879.765259</ele>
        <time>2015-05-24T11:24:30Z</time>
      </trkpt>
      <trkpt lat="44.6417" lon="5.14785">
        <ele>879.677063</ele>
        <time>2015-05-24T11:24:31Z</time>
      </trkpt>
      <trkpt lat="44.6417" lon="5.14785">
        <ele>879.653809</ele>
        <time>2015-05-24T11:24:34Z</time>
      </trkpt>
      <trkpt lat="44.6417" lon="5.14784">
        <ele>879.646057</ele>
        <time>2015-05-24T11:24:35Z</time>
      </trkpt>
      <trkpt lat="44.6417" lon="5.14784">
        <ele>879.5578</ele>
        <time>2015-05-24T11:24:36Z</time>
      </trkpt>
      <trkpt lat="44.6417" lon="5.14784">
        <ele>879.550049</ele>
        <time>2015-05-24T11:24:37Z</time>
      </trkpt>
      <trkpt lat="44.6417" lon="5.14784">
        <ele>879.542297</ele>
        <time>2015-05-24T11:24:38Z</time>
      </trkpt>
      <trkpt lat="44.6417" lon="5.14784">
        <ele>879.534546</ele>
        <time>2015-05-24T11:24:39Z</time>
      </trkpt>
      <trkpt lat="44.6417" lon="5.14784">
        <ele>879.446289</ele>
        <time>2015-05-24T11:24:40Z</time>
      </trkpt>
      <trkpt lat="44.6417" lon="5.14784">
        <ele>879.438477</ele>
        <time>2015-05-24T11:24:41Z</time>
      </trkpt>
      <trkpt lat="44.64173" lon="5.14781">
        <ele>877.398682</ele>
        <time>2015-05-24T11:24:59Z</time>
      </trkpt>
      <trkpt lat="44.64173" lon="5.14779">
        <ele>876.699951</ele>
        <time>2015-05-24T11:25:00Z</time>
      </trkpt>
      <trkpt lat="44.64174" lon="5.14776">
        <ele>876.162659</ele>
        <time>2015-05-24T11:25:01Z</time>
      </trkpt>
      <trkpt lat="44.64175" lon="5.14773">
        <ele>875.364014</ele>
        <time>2015-05-24T11:25:02Z</time>
      </trkpt>
      <trkpt lat="44.64176" lon="5.1477">
        <ele>874.072815</ele>
        <time>2015-05-24T11:25:03Z</time>
      </trkpt>
      <trkpt lat="44.64178" lon="5.14767">
        <ele>872.448364</ele>
        <time>2015-05-24T11:25:04Z</time>
      </trkpt>
      <trkpt lat="44.6418" lon="5.14764">
        <ele>870.709229</ele>
        <time>2015-05-24T11:25:05Z</time>
      </trkpt>
      <trkpt lat="44.64182" lon="5.1476">
        <ele>868.67041</ele>
        <time>2015-05-24T11:25:06Z</time>
      </trkpt>
      <trkpt lat="44.64185" lon="5.14755">
        <ele>867.53186</ele>
        <time>2015-05-24T11:25:07Z</time>
      </trkpt>
      <trkpt lat="44.64187" lon="5.1475">
        <ele>866.766663</ele>
        <time>2015-05-24T11:25:08Z</time>
      </trkpt>
      <trkpt lat="44.64189" lon="5.14745">
        <ele>866.10376</ele>
        <time>2015-05-24T11:25:09Z</time>
      </trkpt>
      <trkpt lat="44.64191" lon="5.14739">
        <ele>865.82373</ele>
        <time>2015-05-24T11:25:10Z</time>
      </trkpt>
      <trkpt lat="44.64193" lon="5.14734">
        <ele>865.561523</ele>
        <time>2015-05-24T11:25:11Z</time>
      </trkpt>
      <trkpt lat="44.64195" lon="5.14727">
        <ele>865.207825</ele>
        <time>2015-05-24T11:25:12Z</time>
      </trkpt>
      <trkpt lat="44.64197" lon="5.14721">
        <ele>865.042786</ele>
        <time>2015-05-24T11:25:13Z</time>
      </trkpt>
      <trkpt lat="44.64199" lon="5.14714">
        <ele>865.113464</ele>
        <time>2015-05-24T11:25:14Z</time>
      </trkpt>
      <trkpt lat="44.64202" lon="5.147">
        <ele>865.222473</ele>
        <time>2015-05-24T11:25:16Z</time>
      </trkpt>
      <trkpt lat="44.64204" lon="5.14693">
        <ele>864.786743</ele>
        <time>2015-05-24T11:25:17Z</time>
      </trkpt>
      <trkpt lat="44.64206" lon="5.14688">
        <ele>864.633667</ele>
        <time>2015-05-24T11:25:18Z</time>
      </trkpt>
      <trkpt lat="44.64207" lon="5.14683">
        <ele>864.271057</ele>
        <time>2015-05-24T11:25:19Z</time>
      </trkpt>
      <trkpt lat="44.64209" lon="5.14679">
        <ele>863.80072</ele>
        <time>2015-05-24T11:25:20Z</time>
      </trkpt>
      <trkpt lat="44.64214" lon="5.14664">
        <ele>862.244263</ele>
        <time>2015-05-24T11:25:22Z</time>
      </trkpt>
      <trkpt lat="44.64225" lon="5.14636">
        <ele>859.241882</ele>
        <time>2015-05-24T11:25:26Z</time>
      </trkpt>
      <trkpt lat="44.64236" lon="5.14609">
        <ele>852.268738</ele>
        <time>2015-05-24T11:25:30Z</time>
      </trkpt>
      <trkpt lat="44.64239" lon="5.14585">
        <ele>849.989868</ele>
        <time>2015-05-24T11:25:33Z</time>
      </trkpt>
      <trkpt lat="44.64241" lon="5.1456">
        <ele>847.99054</ele>
        <time>2015-05-24T11:25:36Z</time>
      </trkpt>
      <trkpt lat="44.6424" lon="5.14519">
        <ele>846.138245</ele>
        <time>2015-05-24T11:25:40Z</time>
      </trkpt>
      <trkpt lat="44.64241" lon="5.14507">
        <ele>845.297546</ele>
        <time>2015-05-24T11:25:41Z</time>
      </trkpt>
      <trkpt lat="44.64243" lon="5.14495">
        <ele>844.077942</ele>
        <time>2015-05-24T11:25:42Z</time>
      </trkpt>
      <trkpt lat="44.64246" lon="5.14483">
        <ele>842.176392</ele>
        <time>2015-05-24T11:25:43Z</time>
      </trkpt>
      <trkpt lat="44.64251" lon="5.14471">
        <ele>839.565002</ele>
        <time>2015-05-24T11:25:44Z</time>
      </trkpt>
      <trkpt lat="44.64256" lon="5.14459">
        <ele>836.211365</ele>
        <time>2015-05-24T11:25:45Z</time>
      </trkpt>
      <trkpt lat="44.64262" lon="5.14446">
        <ele>832.730225</ele>
        <time>2015-05-24T11:25:46Z</time>
      </trkpt>
      <trkpt lat="44.64284" lon="5.14398">
        <ele>824.606079</ele>
        <time>2015-05-24T11:25:50Z</time>
      </trkpt>
      <trkpt lat="44.64298" lon="5.14363">
        <ele>819.434998</ele>
        <time>2015-05-24T11:25:53Z</time>
      </trkpt>
      <trkpt lat="44.64299" lon="5.14352">
        <ele>818.755005</ele>
        <time>2015-05-24T11:25:54Z</time>
      </trkpt>
      <trkpt lat="44.643" lon="5.14342">
        <ele>818.612488</ele>
        <time>2015-05-24T11:25:55Z</time>
      </trkpt>
      <trkpt lat="44.64301" lon="5.14332">
        <ele>818.919983</ele>
        <time>2015-05-24T11:25:56Z</time>
      </trkpt>
      <trkpt lat="44.643" lon="5.14324">
        <ele>819.922729</ele>
        <time>2015-05-24T11:25:57Z</time>
      </trkpt>
      <trkpt lat="44.64298" lon="5.14315">
        <ele>821.854858</ele>
        <time>2015-05-24T11:25:58Z</time>
      </trkpt>
      <trkpt lat="44.64297" lon="5.14306">
        <ele>823.75708</ele>
        <time>2015-05-24T11:25:59Z</time>
      </trkpt>
      <trkpt lat="44.64297" lon="5.14297">
        <ele>825.181702</ele>
        <time>2015-05-24T11:26:00Z</time>
      </trkpt>
      <trkpt lat="44.64298" lon="5.14288">
        <ele>825.834106</ele>
        <time>2015-05-24T11:26:01Z</time>
      </trkpt>
      <trkpt lat="44.64299" lon="5.14281">
        <ele>826.145142</ele>
        <time>2015-05-24T11:26:02Z</time>
      </trkpt>
      <trkpt lat="44.64305" lon="5.14256">
        <ele>826.783508</ele>
        <time>2015-05-24T11:26:05Z</time>
      </trkpt>
      <trkpt lat="44.64308" lon="5.1425">
        <ele>826.228027</ele>
        <time>2015-05-24T11:26:06Z</time>
      </trkpt>
      <trkpt lat="44.64312" lon="5.14245">
        <ele>825.107544</ele>
        <time>2015-05-24T11:26:07Z</time>
      </trkpt>
      <trkpt lat="44.64316" lon="5.1424">
        <ele>824.005371</ele>
        <time>2015-05-24T11:26:08Z</time>
      </trkpt>
      <trkpt lat="44.64332" lon="5.14214">
        <ele>819.949768</ele>
        <time>2015-05-24T11:26:12Z</time>
      </trkpt>
      <trkpt lat="44.64345" lon="5.14194">
        <ele>816.886108</ele>
        <time>2015-05-24T11:26:15Z</time>
      </trkpt>
      <trkpt lat="44.64366" lon="5.14158">
        <ele>811.111694</ele>
        <time>2015-05-24T11:26:20Z</time>
      </trkpt>
      <trkpt lat="44.64372" lon="5.14145">
        <ele>809.336121</ele>
        <time>2015-05-24T11:26:22Z</time>
      </trkpt>
      <trkpt lat="44.64377" lon="5.14134">
        <ele>807.687988</ele>
        <time>2015-05-24T11:26:24Z</time>
      </trkpt>
      <trkpt lat="44.64389" lon="5.14103">
        <ele>803.109253</ele>
        <time>2015-05-24T11:26:29Z</time>
      </trkpt>
      <trkpt lat="44.64405" lon="5.1408">
        <ele>794.917908</ele>
        <time>2015-05-24T11:26:33Z</time>
      </trkpt>
      <trkpt lat="44.64409" lon="5.14075">
        <ele>792.612732</ele>
        <time>2015-05-24T11:26:34Z</time>
      </trkpt>
      <trkpt lat="44.64412" lon="5.14071">
        <ele>791.057617</ele>
        <time>2015-05-24T11:26:35Z</time>
      </trkpt>
      <trkpt lat="44.64414" lon="5.14068">
        <ele>789.688904</ele>
        <time>2015-05-24T11:26:36Z</time>
      </trkpt>
      <trkpt lat="44.64417" lon="5.14065">
        <ele>788.091187</ele>
        <time>2015-05-24T11:26:37Z</time>
      </trkpt>
      <trkpt lat="44.6442" lon="5.14062">
        <ele>785.983704</ele>
        <time>2015-05-24T11:26:38Z</time>
      </trkpt>
      <trkpt lat="44.64423" lon="5.14058">
        <ele>784.157898</ele>
        <time>2015-05-24T11:26:39Z</time>
      </trkpt>
      <trkpt lat="44.64427" lon="5.14052">
        <ele>782.026367</ele>
        <time>2015-05-24T11:26:40Z</time>
      </trkpt>
      <trkpt lat="44.6443" lon="5.14046">
        <ele>780.088928</ele>
        <time>2015-05-24T11:26:41Z</time>
      </trkpt>
      <trkpt lat="44.64433" lon="5.14038">
        <ele>778.1875</ele>
        <time>2015-05-24T11:26:42Z</time>
      </trkpt>
      <trkpt lat="44.64444" lon="5.14015">
        <ele>772.513733</ele>
        <time>2015-05-24T11:26:45Z</time>
      </trkpt>
      <trkpt lat="44.64451" lon="5.14">
        <ele>769.140564</ele>
        <time>2015-05-24T11:26:47Z</time>
      </trkpt>
      <trkpt lat="44.64463" lon="5.13977">
        <ele>762.512817</ele>
        <time>2015-05-24T11:26:50Z</time>
      </trkpt>
      <trkpt lat="44.64472" lon="5.13959">
        <ele>757.444275</ele>
        <time>2015-05-24T11:26:52Z</time>
      </trkpt>
      <trkpt lat="44.64484" lon="5.13925">
        <ele>747.781372</ele>
        <time>2015-05-24T11:26:56Z</time>
      </trkpt>
      <trkpt lat="44.64488" lon="5.13909">
        <ele>742.947144</ele>
        <time>2015-05-24T11:26:58Z</time>
      </trkpt>
      <trkpt lat="44.64498" lon="5.13876">
        <ele>733.935181</ele>
        <time>2015-05-24T11:27:02Z</time>
      </trkpt>
      <trkpt lat="44.64504" lon="5.1385">
        <ele>729.142578</ele>
        <time>2015-05-24T11:27:05Z</time>
      </trkpt>
      <trkpt lat="44.64506" lon="5.13841">
        <ele>727.619751</ele>
        <time>2015-05-24T11:27:06Z</time>
      </trkpt>
      <trkpt lat="44.64511" lon="5.13819">
        <ele>724.853516</ele>
        <time>2015-05-24T11:27:09Z</time>
      </trkpt>
      <trkpt lat="44.64512" lon="5.13812">
        <ele>724.44104</ele>
        <time>2015-05-24T11:27:10Z</time>
      </trkpt>
      <trkpt lat="44.64517" lon="5.1379">
        <ele>722.548462</ele>
        <time>2015-05-24T11:27:13Z</time>
      </trkpt>
      <trkpt lat="44.6452" lon="5.1378">
        <ele>721.471558</ele>
        <time>2015-05-24T11:27:14Z</time>
      </trkpt>
      <trkpt lat="44.64523" lon="5.13769">
        <ele>719.993225</ele>
        <time>2015-05-24T11:27:15Z</time>
      </trkpt>
      <trkpt lat="44.64532" lon="5.13743">
        <ele>713.755981</ele>
        <time>2015-05-24T11:27:18Z</time>
      </trkpt>
      <trkpt lat="44.64541" lon="5.13716">
        <ele>707.509216</ele>
        <time>2015-05-24T11:27:21Z</time>
      </trkpt>
      <trkpt lat="44.64544" lon="5.13695">
        <ele>704.598999</ele>
        <time>2015-05-24T11:27:23Z</time>
      </trkpt>
      <trkpt lat="44.64552" lon="5.13662">
        <ele>697.498901</ele>
        <time>2015-05-24T11:27:26Z</time>
      </trkpt>
      <trkpt lat="44.64558" lon="5.1363">
        <ele>692.065125</ele>
        <time>2015-05-24T11:27:29Z</time>
      </trkpt>
      <trkpt lat="44.64554" lon="5.13612">
        <ele>693.424805</ele>
        <time>2015-05-24T11:27:30Z</time>
      </trkpt>
      <trkpt lat="44.64554" lon="5.13602">
        <ele>692.323303</ele>
        <time>2015-05-24T11:27:31Z</time>
      </trkpt>
      <trkpt lat="44.64555" lon="5.13592">
        <ele>691.338867</ele>
        <time>2015-05-24T11:27:32Z</time>
      </trkpt>
      <trkpt lat="44.64555" lon="5.13584">
        <ele>690.516113</ele>
        <time>2015-05-24T11:27:33Z</time>
      </trkpt>
      <trkpt lat="44.6455" lon="5.13565">
        <ele>692.422424</ele>
        <time>2015-05-24T11:27:34Z</time>
      </trkpt>
      <trkpt lat="44.6455" lon="5.13541">
        <ele>691.696899</ele>
        <time>2015-05-24T11:27:36Z</time>
      </trkpt>
      <trkpt lat="44.64553" lon="5.13494">
        <ele>688.042847</ele>
        <time>2015-05-24T11:27:40Z</time>
      </trkpt>
      <trkpt lat="44.64553" lon="5.13472">
        <ele>686.751404</ele>
        <time>2015-05-24T11:27:42Z</time>
      </trkpt>
      <trkpt lat="44.64556" lon="5.13443">
        <ele>683.841431</ele>
        <time>2015-05-24T11:27:45Z</time>
      </trkpt>
      <trkpt lat="44.64558" lon="5.13434">
        <ele>682.592407</ele>
        <time>2015-05-24T11:27:46Z</time>
      </trkpt>
      <trkpt lat="44.6456" lon="5.13426">
        <ele>681.126831</ele>
        <time>2015-05-24T11:27:47Z</time>
      </trkpt>
      <trkpt lat="44.64562" lon="5.13416">
        <ele>679.795471</ele>
        <time>2015-05-24T11:27:48Z</time>
      </trkpt>
      <trkpt lat="44.64565" lon="5.13406">
        <ele>678.089417</ele>
        <time>2015-05-24T11:27:49Z</time>
      </trkpt>
      <trkpt lat="44.64566" lon="5.13394">
        <ele>676.835022</ele>
        <time>2015-05-24T11:27:50Z</time>
      </trkpt>
      <trkpt lat="44.64568" lon="5.13381">
        <ele>675.597473</ele>
        <time>2015-05-24T11:27:51Z</time>
      </trkpt>
      <trkpt lat="44.64569" lon="5.1337">
        <ele>674.643738</ele>
        <time>2015-05-24T11:27:52Z</time>
      </trkpt>
      <trkpt lat="44.64569" lon="5.13359">
        <ele>674.141235</ele>
        <time>2015-05-24T11:27:53Z</time>
      </trkpt>
      <trkpt lat="44.64569" lon="5.1335">
        <ele>673.806274</ele>
        <time>2015-05-24T11:27:54Z</time>
      </trkpt>
      <trkpt lat="44.64568" lon="5.1334">
        <ele>673.951233</ele>
        <time>2015-05-24T11:27:55Z</time>
      </trkpt>
      <trkpt lat="44.64566" lon="5.13327">
        <ele>674.537476</ele>
        <time>2015-05-24T11:27:56Z</time>
      </trkpt>
      <trkpt lat="44.64565" lon="5.13316">
        <ele>674.782471</ele>
        <time>2015-05-24T11:27:57Z</time>
      </trkpt>
      <trkpt lat="44.64564" lon="5.13307">
        <ele>675.284973</ele>
        <time>2015-05-24T11:27:58Z</time>
      </trkpt>
      <trkpt lat="44.64564" lon="5.13302">
        <ele>675.029968</ele>
        <time>2015-05-24T11:27:59Z</time>
      </trkpt>
      <trkpt lat="44.64563" lon="5.13299">
        <ele>675.570007</ele>
        <time>2015-05-24T11:28:00Z</time>
      </trkpt>
      <trkpt lat="44.64555" lon="5.13306">
        <ele>680.032532</ele>
        <time>2015-05-24T11:28:10Z</time>
      </trkpt>
      <trkpt lat="44.64551" lon="5.13305">
        <ele>681.684998</ele>
        <time>2015-05-24T11:28:16Z</time>
      </trkpt>
      <trkpt lat="44.64544" lon="5.13303">
        <ele>685.472534</ele>
        <time>2015-05-24T11:28:40Z</time>
      </trkpt>
      <trkpt lat="44.64542" lon="5.13303">
        <ele>686.534973</ele>
        <time>2015-05-24T11:28:42Z</time>
      </trkpt>
      <trkpt lat="44.64535" lon="5.13304">
        <ele>690.466187</ele>
        <time>2015-05-24T11:28:59Z</time>
      </trkpt>
      <trkpt lat="44.64535" lon="5.13305">
        <ele>690.812439</ele>
        <time>2015-05-24T11:29:02Z</time>
      </trkpt>
      <trkpt lat="44.64539" lon="5.1331">
        <ele>688.393005</ele>
        <time>2015-05-24T11:29:07Z</time>
      </trkpt>
      <trkpt lat="44.64543" lon="5.13323">
        <ele>686.405029</ele>
        <time>2015-05-24T11:29:10Z</time>
      </trkpt>
      <trkpt lat="44.64549" lon="5.13337">
        <ele>683.773743</ele>
        <time>2015-05-24T11:29:12Z</time>
      </trkpt>
      <trkpt lat="44.64552" lon="5.13346">
        <ele>682.561218</ele>
        <time>2015-05-24T11:29:13Z</time>
      </trkpt>
      <trkpt lat="44.64556" lon="5.13365">
        <ele>680.888733</ele>
        <time>2015-05-24T11:29:15Z</time>
      </trkpt>
      <trkpt lat="44.64562" lon="5.1339">
        <ele>678.684998</ele>
        <time>2015-05-24T11:29:17Z</time>
      </trkpt>
      <trkpt lat="44.64569" lon="5.13419">
        <ele>676.420715</ele>
        <time>2015-05-24T11:29:19Z</time>
      </trkpt>
      <trkpt lat="44.64573" lon="5.13433">
        <ele>674.920227</ele>
        <time>2015-05-24T11:29:20Z</time>
      </trkpt>
      <trkpt lat="44.64583" lon="5.13456">
        <ele>671.50177</ele>
        <time>2015-05-24T11:29:22Z</time>
      </trkpt>
      <trkpt lat="44.64595" lon="5.13491">
        <ele>668.274597</ele>
        <time>2015-05-24T11:29:25Z</time>
      </trkpt>
      <trkpt lat="44.64605" lon="5.13524">
        <ele>664.5802</ele>
        <time>2015-05-24T11:29:28Z</time>
      </trkpt>
      <trkpt lat="44.64607" lon="5.13552">
        <ele>664.004395</ele>
        <time>2015-05-24T11:29:31Z</time>
      </trkpt>
      <trkpt lat="44.6462" lon="5.13587">
        <ele>658.953796</ele>
        <time>2015-05-24T11:29:36Z</time>
      </trkpt>
      <trkpt lat="44.64627" lon="5.13599">
        <ele>656.696777</ele>
        <time>2015-05-24T11:29:38Z</time>
      </trkpt>
      <trkpt lat="44.64637" lon="5.13614">
        <ele>653.979431</ele>
        <time>2015-05-24T11:29:40Z</time>
      </trkpt>
      <trkpt lat="44.64652" lon="5.13651">
        <ele>650.641357</ele>
        <time>2015-05-24T11:29:45Z</time>
      </trkpt>
      <trkpt lat="44.64658" lon="5.13661">
        <ele>649.000977</ele>
        <time>2015-05-24T11:29:47Z</time>
      </trkpt>
      <trkpt lat="44.64661" lon="5.13668">
        <ele>647.968201</ele>
        <time>2015-05-24T11:29:48Z</time>
      </trkpt>
      <trkpt lat="44.64664" lon="5.13675">
        <ele>647.257813</ele>
        <time>2015-05-24T11:29:49Z</time>
      </trkpt>
      <trkpt lat="44.64666" lon="5.13684">
        <ele>646.628601</ele>
        <time>2015-05-24T11:29:50Z</time>
      </trkpt>
      <trkpt lat="44.64671" lon="5.13703">
        <ele>645.808716</ele>
        <time>2015-05-24T11:29:52Z</time>
      </trkpt>
      <trkpt lat="44.64678" lon="5.13732">
        <ele>641.938354</ele>
        <time>2015-05-24T11:29:55Z</time>
      </trkpt>
      <trkpt lat="44.64681" lon="5.13751">
        <ele>638.989136</ele>
        <time>2015-05-24T11:29:57Z</time>
      </trkpt>
      <trkpt lat="44.64682" lon="5.13759">
        <ele>637.770935</ele>
        <time>2015-05-24T11:29:58Z</time>
      </trkpt>
      <trkpt lat="44.64683" lon="5.13773">
        <ele>635.995972</ele>
        <time>2015-05-24T11:30:00Z</time>
      </trkpt>
      <trkpt lat="44.64685" lon="5.13787">
        <ele>632.398743</ele>
        <time>2015-05-24T11:30:09Z</time>
      </trkpt>
      <trkpt lat="44.64684" lon="5.13787">
        <ele>632.248779</ele>
        <time>2015-05-24T11:30:10Z</time>
      </trkpt>
      <trkpt lat="44.6469" lon="5.13792">
        <ele>629.205017</ele>
        <time>2015-05-24T11:30:13Z</time>
      </trkpt>
      <trkpt lat="44.64697" lon="5.13787">
        <ele>627.700012</ele>
        <time>2015-05-24T11:30:15Z</time>
      </trkpt>
      <trkpt lat="44.64701" lon="5.13784">
        <ele>626.877502</ele>
        <time>2015-05-24T11:30:16Z</time>
      </trkpt>
      <trkpt lat="44.64706" lon="5.13781">
        <ele>626.138733</ele>
        <time>2015-05-24T11:30:17Z</time>
      </trkpt>
      <trkpt lat="44.64721" lon="5.13765">
        <ele>624.412476</ele>
        <time>2015-05-24T11:30:20Z</time>
      </trkpt>
      <trkpt lat="44.64735" lon="5.13749">
        <ele>622.92627</ele>
        <time>2015-05-24T11:30:26Z</time>
      </trkpt>
      <trkpt lat="44.64739" lon="5.13743">
        <ele>622.783752</ele>
        <time>2015-05-24T11:30:29Z</time>
      </trkpt>
      <trkpt lat="44.6474" lon="5.1374">
        <ele>622.888733</ele>
        <time>2015-05-24T11:30:30Z</time>
      </trkpt>
      <trkpt lat="44.6474" lon="5.13737">
        <ele>623.164978</ele>
        <time>2015-05-24T11:30:31Z</time>
      </trkpt>
      <trkpt lat="44.64742" lon="5.1373">
        <ele>623.40625</ele>
        <time>2015-05-24T11:30:33Z</time>
      </trkpt>
      <trkpt lat="44.64746" lon="5.13725">
        <ele>623.237488</ele>
        <time>2015-05-24T11:30:35Z</time>
      </trkpt>
      <trkpt lat="44.64751" lon="5.1372">
        <ele>622.686279</ele>
        <time>2015-05-24T11:30:38Z</time>
      </trkpt>
      <trkpt lat="44.64763" lon="5.13704">
        <ele>619.191895</ele>
        <time>2015-05-24T11:30:47Z</time>
      </trkpt>
      <trkpt lat="44.64783" lon="5.13688">
        <ele>613.289185</ele>
        <time>2015-05-24T11:30:52Z</time>
      </trkpt>
      <trkpt lat="44.6479" lon="5.13676">
        <ele>611.528259</ele>
        <time>2015-05-24T11:30:55Z</time>
      </trkpt>
      <trkpt lat="44.64792" lon="5.13671">
        <ele>611.088623</ele>
        <time>2015-05-24T11:30:56Z</time>
      </trkpt>
      <trkpt lat="44.64797" lon="5.13654">
        <ele>609.738525</ele>
        <time>2015-05-24T11:31:00Z</time>
      </trkpt>
      <trkpt lat="44.64799" lon="5.13645">
        <ele>608.274292</ele>
        <time>2015-05-24T11:31:02Z</time>
      </trkpt>
      <trkpt lat="44.64803" lon="5.13623">
        <ele>604.115906</ele>
        <time>2015-05-24T11:31:07Z</time>
      </trkpt>
      <trkpt lat="44.64809" lon="5.13605">
        <ele>600.072815</ele>
        <time>2015-05-24T11:31:12Z</time>
      </trkpt>
      <trkpt lat="44.64809" lon="5.13597">
        <ele>599.131714</ele>
        <time>2015-05-24T11:31:15Z</time>
      </trkpt>
      <trkpt lat="44.64808" lon="5.13586">
        <ele>597.551575</ele>
        <time>2015-05-24T11:31:19Z</time>
      </trkpt>
      <trkpt lat="44.6481" lon="5.13576">
        <ele>594.90564</ele>
        <time>2015-05-24T11:31:22Z</time>
      </trkpt>
      <trkpt lat="44.64811" lon="5.13567">
        <ele>592.91272</ele>
        <time>2015-05-24T11:31:24Z</time>
      </trkpt>
      <trkpt lat="44.64819" lon="5.13552">
        <ele>587.417175</ele>
        <time>2015-05-24T11:31:30Z</time>
      </trkpt>
      <trkpt lat="44.64831" lon="5.13552">
        <ele>583.421753</ele>
        <time>2015-05-24T11:31:34Z</time>
      </trkpt>
      <trkpt lat="44.64852" lon="5.13551">
        <ele>576.143738</ele>
        <time>2015-05-24T11:31:38Z</time>
      </trkpt>
      <trkpt lat="44.64863" lon="5.13551">
        <ele>573.207947</ele>
        <time>2015-05-24T11:31:40Z</time>
      </trkpt>
      <trkpt lat="44.64883" lon="5.13548">
        <ele>566.658447</ele>
        <time>2015-05-24T11:31:44Z</time>
      </trkpt>
      <trkpt lat="44.64892" lon="5.13543">
        <ele>562.695129</ele>
        <time>2015-05-24T11:31:46Z</time>
      </trkpt>
      <trkpt lat="44.64913" lon="5.1354">
        <ele>556.821167</ele>
        <time>2015-05-24T11:31:51Z</time>
      </trkpt>
      <trkpt lat="44.64931" lon="5.13556">
        <ele>555.730408</ele>
        <time>2015-05-24T11:31:55Z</time>
      </trkpt>
      <trkpt lat="44.64939" lon="5.13568">
        <ele>555.938721</ele>
        <time>2015-05-24T11:31:57Z</time>
      </trkpt>
      <trkpt lat="44.64951" lon="5.13597">
        <ele>555.639648</ele>
        <time>2015-05-24T11:32:01Z</time>
      </trkpt>
      <trkpt lat="44.64953" lon="5.13606">
        <ele>554.525024</ele>
        <time>2015-05-24T11:32:02Z</time>
      </trkpt>
      <trkpt lat="44.64955" lon="5.13624">
        <ele>550.325012</ele>
        <time>2015-05-24T11:32:04Z</time>
      </trkpt>
      <trkpt lat="44.64956" lon="5.13647">
        <ele>546.112488</ele>
        <time>2015-05-24T11:32:07Z</time>
      </trkpt>
      <trkpt lat="44.64951" lon="5.1366">
        <ele>545.849976</ele>
        <time>2015-05-24T11:32:09Z</time>
      </trkpt>
      <trkpt lat="44.64942" lon="5.13677">
        <ele>547.176819</ele>
        <time>2015-05-24T11:32:12Z</time>
      </trkpt>
      <trkpt lat="44.64931" lon="5.13696">
        <ele>549.066589</ele>
        <time>2015-05-24T11:32:15Z</time>
      </trkpt>
      <trkpt lat="44.64922" lon="5.13724">
        <ele>549.31665</ele>
        <time>2015-05-24T11:32:20Z</time>
      </trkpt>
      <trkpt lat="44.64924" lon="5.13742">
        <ele>549.606079</ele>
        <time>2015-05-24T11:32:24Z</time>
      </trkpt>
      <trkpt lat="44.64943" lon="5.13766">
        <ele>543.13446</ele>
        <time>2015-05-24T11:32:28Z</time>
      </trkpt>
      <trkpt lat="44.64955" lon="5.13776">
        <ele>538.494019</ele>
        <time>2015-05-24T11:32:30Z</time>
      </trkpt>
      <trkpt lat="44.64977" lon="5.13796">
        <ele>530.954834</ele>
        <time>2015-05-24T11:32:34Z</time>
      </trkpt>
      <trkpt lat="44.64982" lon="5.138">
        <ele>528.81012</ele>
        <time>2015-05-24T11:32:35Z</time>
      </trkpt>
      <trkpt lat="44.64992" lon="5.13824">
        <ele>526.18396</ele>
        <time>2015-05-24T11:32:39Z</time>
      </trkpt>
      <trkpt lat="44.64996" lon="5.13849">
        <ele>526.696655</ele>
        <time>2015-05-24T11:32:42Z</time>
      </trkpt>
      <trkpt lat="44.65002" lon="5.13875">
        <ele>521.121399</ele>
        <time>2015-05-24T11:32:45Z</time>
      </trkpt>
      <trkpt lat="44.65006" lon="5.13893">
        <ele>516.664063</ele>
        <time>2015-05-24T11:32:47Z</time>
      </trkpt>
      <trkpt lat="44.65019" lon="5.13917">
        <ele>507.862793</ele>
        <time>2015-05-24T11:32:50Z</time>
      </trkpt>
      <trkpt lat="44.65022" lon="5.13923">
        <ele>504.873627</ele>
        <time>2015-05-24T11:32:51Z</time>
      </trkpt>
      <trkpt lat="44.65025" lon="5.13932">
        <ele>502.292755</ele>
        <time>2015-05-24T11:32:52Z</time>
      </trkpt>
      <trkpt lat="44.65026" lon="5.13941">
        <ele>500.526642</ele>
        <time>2015-05-24T11:32:53Z</time>
      </trkpt>
      <trkpt lat="44.65025" lon="5.1395">
        <ele>499.920319</ele>
        <time>2015-05-24T11:32:54Z</time>
      </trkpt>
      <trkpt lat="44.65024" lon="5.13955">
        <ele>499.7612</ele>
        <time>2015-05-24T11:32:55Z</time>
      </trkpt>
      <trkpt lat="44.65026" lon="5.1399">
        <ele>496.301697</ele>
        <time>2015-05-24T11:32:59Z</time>
      </trkpt>
      <trkpt lat="44.65029" lon="5.13995">
        <ele>495.731506</ele>
        <time>2015-05-24T11:33:00Z</time>
      </trkpt>
      <trkpt lat="44.65032" lon="5.13998">
        <ele>495.125885</ele>
        <time>2015-05-24T11:33:01Z</time>
      </trkpt>
      <trkpt lat="44.65039" lon="5.14003">
        <ele>493.397064</ele>
        <time>2015-05-24T11:33:03Z</time>
      </trkpt>
      <trkpt lat="44.65042" lon="5.14005">
        <ele>492.504608</ele>
        <time>2015-05-24T11:33:04Z</time>
      </trkpt>
      <trkpt lat="44.65049" lon="5.14009">
        <ele>490.526031</ele>
        <time>2015-05-24T11:33:06Z</time>
      </trkpt>
      <trkpt lat="44.65062" lon="5.14006">
        <ele>486.031403</ele>
        <time>2015-05-24T11:33:11Z</time>
      </trkpt>
      <trkpt lat="44.65066" lon="5.14004">
        <ele>485.141235</ele>
        <time>2015-05-24T11:33:13Z</time>
      </trkpt>
      <trkpt lat="44.65072" lon="5.13991">
        <ele>483.337494</ele>
        <time>2015-05-24T11:33:17Z</time>
      </trkpt>
      <trkpt lat="44.65077" lon="5.13978">
        <ele>481.742157</ele>
        <time>2015-05-24T11:33:20Z</time>
      </trkpt>
      <trkpt lat="44.65083" lon="5.1396">
        <ele>479.91745</ele>
        <time>2015-05-24T11:33:25Z</time>
      </trkpt>
      <trkpt lat="44.65086" lon="5.13927">
        <ele>477.82782</ele>
        <time>2015-05-24T11:33:30Z</time>
      </trkpt>
      <trkpt lat="44.65087" lon="5.13896">
        <ele>476.288757</ele>
        <time>2015-05-24T11:33:34Z</time>
      </trkpt>
      <trkpt lat="44.65087" lon="5.13886">
        <ele>475.842499</ele>
        <time>2015-05-24T11:33:35Z</time>
      </trkpt>
      <trkpt lat="44.65088" lon="5.13876">
        <ele>475.355011</ele>
        <time>2015-05-24T11:33:36Z</time>
      </trkpt>
      <trkpt lat="44.65089" lon="5.13867">
        <ele>474.867493</ele>
        <time>2015-05-24T11:33:37Z</time>
      </trkpt>
      <trkpt lat="44.65088" lon="5.13856">
        <ele>474.530182</ele>
        <time>2015-05-24T11:33:38Z</time>
      </trkpt>
      <trkpt lat="44.65088" lon="5.13845">
        <ele>474.501526</ele>
        <time>2015-05-24T11:33:39Z</time>
      </trkpt>
      <trkpt lat="44.65087" lon="5.13834">
        <ele>474.501801</ele>
        <time>2015-05-24T11:33:40Z</time>
      </trkpt>
      <trkpt lat="44.6508" lon="5.13732">
        <ele>474.558746</ele>
        <time>2015-05-24T11:33:49Z</time>
      </trkpt>
      <trkpt lat="44.65079" lon="5.13701">
        <ele>474.368744</ele>
        <time>2015-05-24T11:33:52Z</time>
      </trkpt>
      <trkpt lat="44.65076" lon="5.13672">
        <ele>474.327515</ele>
        <time>2015-05-24T11:33:55Z</time>
      </trkpt>
      <trkpt lat="44.65077" lon="5.13643">
        <ele>475.425629</ele>
        <time>2015-05-24T11:33:58Z</time>
      </trkpt>
      <trkpt lat="44.65079" lon="5.13633">
        <ele>475.612305</ele>
        <time>2015-05-24T11:33:59Z</time>
      </trkpt>
      <trkpt lat="44.65091" lon="5.1357">
        <ele>475.341156</ele>
        <time>2015-05-24T11:34:09Z</time>
      </trkpt>
      <trkpt lat="44.65088" lon="5.13569">
        <ele>476.098969</ele>
        <time>2015-05-24T11:34:12Z</time>
      </trkpt>
      <trkpt lat="44.65087" lon="5.13565">
        <ele>476.412079</ele>
        <time>2015-05-24T11:34:14Z</time>
      </trkpt>
      <trkpt lat="44.65086" lon="5.13563">
        <ele>476.777039</ele>
        <time>2015-05-24T11:34:15Z</time>
      </trkpt>
      <trkpt lat="44.65086" lon="5.1356">
        <ele>476.750641</ele>
        <time>2015-05-24T11:34:30Z</time>
      </trkpt>
      <trkpt lat="44.65087" lon="5.1356">
        <ele>476.447845</ele>
        <time>2015-05-24T11:34:40Z</time>
      </trkpt>
      <trkpt lat="44.65087" lon="5.1356">
        <ele>476.575897</ele>
        <time>2015-05-24T11:34:46Z</time>
      </trkpt>
      <trkpt lat="44.65088" lon="5.13561">
        <ele>476.327911</ele>
        <time>2015-05-24T11:34:47Z</time>
      </trkpt>
      <trkpt lat="44.65089" lon="5.13562">
        <ele>476.008545</ele>
        <time>2015-05-24T11:34:48Z</time>
      </trkpt>
      <trkpt lat="44.65093" lon="5.13564">
        <ele>475.149689</ele>
        <time>2015-05-24T11:34:53Z</time>
      </trkpt>
      <trkpt lat="44.65094" lon="5.13565">
        <ele>474.76355</ele>
        <time>2015-05-24T11:34:54Z</time>
      </trkpt>
      <trkpt lat="44.65101" lon="5.13572">
        <ele>473.216278</ele>
        <time>2015-05-24T11:34:58Z</time>
      </trkpt>
      <trkpt lat="44.65104" lon="5.13574">
        <ele>472.682709</ele>
        <time>2015-05-24T11:34:59Z</time>
      </trkpt>
      <trkpt lat="44.65106" lon="5.13575">
        <ele>472.181091</ele>
        <time>2015-05-24T11:35:00Z</time>
      </trkpt>
      <trkpt lat="44.65108" lon="5.13577">
        <ele>471.710632</ele>
        <time>2015-05-24T11:35:01Z</time>
      </trkpt>
      <trkpt lat="44.6511" lon="5.13578">
        <ele>471.246185</ele>
        <time>2015-05-24T11:35:02Z</time>
      </trkpt>
      <trkpt lat="44.65127" lon="5.13589">
        <ele>469.940155</ele>
        <time>2015-05-24T11:35:10Z</time>
      </trkpt>
      <trkpt lat="44.65129" lon="5.13589">
        <ele>470.017212</ele>
        <time>2015-05-24T11:35:11Z</time>
      </trkpt>
      <trkpt lat="44.65132" lon="5.13589">
        <ele>470.098907</ele>
        <time>2015-05-24T11:35:12Z</time>
      </trkpt>
      <trkpt lat="44.65135" lon="5.13588">
        <ele>470.173737</ele>
        <time>2015-05-24T11:35:13Z</time>
      </trkpt>
      <trkpt lat="44.65139" lon="5.13588">
        <ele>470.251038</ele>
        <time>2015-05-24T11:35:14Z</time>
      </trkpt>
      <trkpt lat="44.65142" lon="5.13588">
        <ele>470.317657</ele>
        <time>2015-05-24T11:35:15Z</time>
      </trkpt>
      <trkpt lat="44.65148" lon="5.13586">
        <ele>470.438385</ele>
        <time>2015-05-24T11:35:28Z</time>
      </trkpt>
      <trkpt lat="44.65148" lon="5.13588">
        <ele>470.500519</ele>
        <time>2015-05-24T11:35:55Z</time>
      </trkpt>
      <trkpt lat="44.65149" lon="5.13586">
        <ele>470.463806</ele>
        <time>2015-05-24T11:35:59Z</time>
      </trkpt>
      <trkpt lat="44.65151" lon="5.13584">
        <ele>470.427399</ele>
        <time>2015-05-24T11:36:00Z</time>
      </trkpt>
      <trkpt lat="44.65152" lon="5.13583">
        <ele>470.415924</ele>
        <time>2015-05-24T11:36:01Z</time>
      </trkpt>
      <trkpt lat="44.65154" lon="5.13582">
        <ele>470.440674</ele>
        <time>2015-05-24T11:36:03Z</time>
      </trkpt>
      <trkpt lat="44.65157" lon="5.13583">
        <ele>470.54361</ele>
        <time>2015-05-24T11:36:06Z</time>
      </trkpt>
      <trkpt lat="44.65157" lon="5.13585">
        <ele>470.606812</ele>
        <time>2015-05-24T11:36:07Z</time>
      </trkpt>
      <trkpt lat="44.65156" lon="5.13584">
        <ele>470.55011</ele>
        <time>2015-05-24T11:36:18Z</time>
      </trkpt>
      <trkpt lat="44.65157" lon="5.13584">
        <ele>470.567413</ele>
        <time>2015-05-24T11:36:40Z</time>
      </trkpt>
      <trkpt lat="44.65152" lon="5.13577">
        <ele>470.164001</ele>
        <time>2015-05-24T11:37:07Z</time>
      </trkpt>
      <trkpt lat="44.65158" lon="5.13574">
        <ele>470.178589</ele>
        <time>2015-05-24T11:37:14Z</time>
      </trkpt>
      <trkpt lat="44.6516" lon="5.13573">
        <ele>470.120941</ele>
        <time>2015-05-24T11:37:15Z</time>
      </trkpt>
      <trkpt lat="44.65161" lon="5.13571">
        <ele>470.054871</ele>
        <time>2015-05-24T11:37:16Z</time>
      </trkpt>
      <trkpt lat="44.65169" lon="5.13534">
        <ele>469.824432</ele>
        <time>2015-05-24T11:37:27Z</time>
      </trkpt>
      <trkpt lat="44.65183" lon="5.1349">
        <ele>470.970947</ele>
        <time>2015-05-24T11:37:39Z</time>
      </trkpt>
      <trkpt lat="44.65193" lon="5.1345">
        <ele>471.30249</ele>
        <time>2015-05-24T11:37:49Z</time>
      </trkpt>
      <trkpt lat="44.65194" lon="5.13437">
        <ele>470.845001</ele>
        <time>2015-05-24T11:37:55Z</time>
      </trkpt>
      <trkpt lat="44.65195" lon="5.13435">
        <ele>470.976257</ele>
        <time>2015-05-24T11:37:56Z</time>
      </trkpt>
      <trkpt lat="44.65196" lon="5.13432">
        <ele>471.0625</ele>
        <time>2015-05-24T11:37:57Z</time>
      </trkpt>
      <trkpt lat="44.65196" lon="5.13429">
        <ele>471.01001</ele>
        <time>2015-05-24T11:37:58Z</time>
      </trkpt>
      <trkpt lat="44.65197" lon="5.13426">
        <ele>470.938751</ele>
        <time>2015-05-24T11:37:59Z</time>
      </trkpt>
      <trkpt lat="44.65197" lon="5.13422">
        <ele>470.872437</ele>
        <time>2015-05-24T11:38:00Z</time>
      </trkpt>
      <trkpt lat="44.65201" lon="5.13374">
        <ele>468.665527</ele>
        <time>2015-05-24T11:38:13Z</time>
      </trkpt>
      <trkpt lat="44.65196" lon="5.13368">
        <ele>467.29245</ele>
        <time>2015-05-24T11:38:18Z</time>
      </trkpt>
      <trkpt lat="44.65189" lon="5.13369">
        <ele>465.988495</ele>
        <time>2015-05-24T11:38:23Z</time>
      </trkpt>
      <trkpt lat="44.65167" lon="5.13362">
        <ele>462.325073</ele>
        <time>2015-05-24T11:38:36Z</time>
      </trkpt>
      <trkpt lat="44.65161" lon="5.13359">
        <ele>462.914093</ele>
        <time>2015-05-24T11:38:40Z</time>
      </trkpt>
      <trkpt lat="44.65154" lon="5.13358">
        <ele>463.685913</ele>
        <time>2015-05-24T11:38:46Z</time>
      </trkpt>
      <trkpt lat="44.65138" lon="5.13342">
        <ele>464.924683</ele>
        <time>2015-05-24T11:39:04Z</time>
      </trkpt>
      <trkpt lat="44.65138" lon="5.1334">
        <ele>464.909943</ele>
        <time>2015-05-24T11:39:06Z</time>
      </trkpt>
      <trkpt lat="44.65132" lon="5.13334">
        <ele>465.355103</ele>
        <time>2015-05-24T11:39:19Z</time>
      </trkpt>
      <trkpt lat="44.65131" lon="5.13332">
        <ele>465.414246</ele>
        <time>2015-05-24T11:39:43Z</time>
      </trkpt>
      <trkpt lat="44.65129" lon="5.13333">
        <ele>465.688538</ele>
        <time>2015-05-24T11:40:16Z</time>
      </trkpt>
      <trkpt lat="44.65128" lon="5.13333">
        <ele>465.849945</ele>
        <time>2015-05-24T11:40:43Z</time>
      </trkpt>
      <trkpt lat="44.65127" lon="5.13333">
        <ele>466.010681</ele>
        <time>2015-05-24T11:41:10Z</time>
      </trkpt>
      <trkpt lat="44.65127" lon="5.13333">
        <ele>465.965881</ele>
        <time>2015-05-24T11:41:41Z</time>
      </trkpt>
      <trkpt lat="44.65127" lon="5.13333">
        <ele>465.949249</ele>
        <time>2015-05-24T11:42:11Z</time>
      </trkpt>
      <trkpt lat="44.6513" lon="5.13332">
        <ele>465.637939</ele>
        <time>2015-05-24T11:42:43Z</time>
      </trkpt>
      <trkpt lat="44.65132" lon="5.13331">
        <ele>465.303589</ele>
        <time>2015-05-24T11:43:14Z</time>
      </trkpt>
      <trkpt lat="44.65134" lon="5.13333">
        <ele>465.168945</ele>
        <time>2015-05-24T11:43:43Z</time>
      </trkpt>
      <trkpt lat="44.65134" lon="5.13333">
        <ele>465.147797</ele>
        <time>2015-05-24T11:44:13Z</time>
      </trkpt>
      <trkpt lat="44.65134" lon="5.13333">
        <ele>465.099152</ele>
        <time>2015-05-24T11:44:44Z</time>
      </trkpt>
      <trkpt lat="44.65133" lon="5.13334">
        <ele>465.244934</ele>
        <time>2015-05-24T11:45:10Z</time>
      </trkpt>
      <trkpt lat="44.65133" lon="5.13333">
        <ele>465.209381</ele>
        <time>2015-05-24T11:45:42Z</time>
      </trkpt>
      <trkpt lat="44.65132" lon="5.13333">
        <ele>465.35495</ele>
        <time>2015-05-24T11:45:57Z</time>
      </trkpt>
      <trkpt lat="44.65134" lon="5.1333">
        <ele>465.089233</ele>
        <time>2015-05-24T11:46:05Z</time>
      </trkpt>
      <trkpt lat="44.65135" lon="5.13327">
        <ele>464.853485</ele>
        <time>2015-05-24T11:46:07Z</time>
      </trkpt>
      <trkpt lat="44.65139" lon="5.13301">
        <ele>463.394409</ele>
        <time>2015-05-24T11:46:19Z</time>
      </trkpt>
      <trkpt lat="44.65139" lon="5.13274">
        <ele>462.701324</ele>
        <time>2015-05-24T11:46:24Z</time>
      </trkpt>
      <trkpt lat="44.65135" lon="5.13233">
        <ele>462.726563</ele>
        <time>2015-05-24T11:46:35Z</time>
      </trkpt>
      <trkpt lat="44.65128" lon="5.13226">
        <ele>463.839996</ele>
        <time>2015-05-24T11:46:45Z</time>
      </trkpt>
      <trkpt lat="44.65127" lon="5.1322">
        <ele>464.132294</ele>
        <time>2015-05-24T11:47:02Z</time>
      </trkpt>
      <trkpt lat="44.65128" lon="5.13219">
        <ele>463.959991</ele>
        <time>2015-05-24T11:47:03Z</time>
      </trkpt>
      <trkpt lat="44.65138" lon="5.13198">
        <ele>462.26001</ele>
        <time>2015-05-24T11:47:13Z</time>
      </trkpt>
      <trkpt lat="44.65145" lon="5.13182">
        <ele>461</ele>
        <time>2015-05-24T11:47:22Z</time>
      </trkpt>
      <trkpt lat="44.65153" lon="5.13163">
        <ele>459.838257</ele>
        <time>2015-05-24T11:47:26Z</time>
      </trkpt>
      <trkpt lat="44.65167" lon="5.13129">
        <ele>457.01413</ele>
        <time>2015-05-24T11:47:33Z</time>
      </trkpt>
      <trkpt lat="44.65193" lon="5.13104">
        <ele>456.425598</ele>
        <time>2015-05-24T11:47:44Z</time>
      </trkpt>
      <trkpt lat="44.65205" lon="5.13106">
        <ele>457.422485</ele>
        <time>2015-05-24T11:47:51Z</time>
      </trkpt>
      <trkpt lat="44.65209" lon="5.13098">
        <ele>457.221558</ele>
        <time>2015-05-24T11:48:03Z</time>
      </trkpt>
      <trkpt lat="44.65208" lon="5.13095">
        <ele>457.018768</ele>
        <time>2015-05-24T11:48:21Z</time>
      </trkpt>
      <trkpt lat="44.65209" lon="5.13095">
        <ele>457.03241</ele>
        <time>2015-05-24T11:48:22Z</time>
      </trkpt>
      <trkpt lat="44.65214" lon="5.13096">
        <ele>457.341522</ele>
        <time>2015-05-24T11:48:26Z</time>
      </trkpt>
      <trkpt lat="44.65215" lon="5.13104">
        <ele>458.11145</ele>
        <time>2015-05-24T11:48:30Z</time>
      </trkpt>
      <trkpt lat="44.65216" lon="5.13107">
        <ele>458.426605</ele>
        <time>2015-05-24T11:48:32Z</time>
      </trkpt>
      <trkpt lat="44.65226" lon="5.13099">
        <ele>460.41748</ele>
        <time>2015-05-24T11:48:41Z</time>
      </trkpt>
      <trkpt lat="44.65223" lon="5.13074">
        <ele>456.355011</ele>
        <time>2015-05-24T11:48:50Z</time>
      </trkpt>
      <trkpt lat="44.65217" lon="5.13042">
        <ele>453.204987</ele>
        <time>2015-05-24T11:49:00Z</time>
      </trkpt>
      <trkpt lat="44.65214" lon="5.13026">
        <ele>452.952484</ele>
        <time>2015-05-24T11:49:06Z</time>
      </trkpt>
      <trkpt lat="44.65212" lon="5.13022">
        <ele>452.920013</ele>
        <time>2015-05-24T11:49:08Z</time>
      </trkpt>
      <trkpt lat="44.65212" lon="5.1302">
        <ele>452.917511</ele>
        <time>2015-05-24T11:49:09Z</time>
      </trkpt>
      <trkpt lat="44.65206" lon="5.13">
        <ele>452.720001</ele>
        <time>2015-05-24T11:49:20Z</time>
      </trkpt>
      <trkpt lat="44.65205" lon="5.12999">
        <ele>452.73999</ele>
        <time>2015-05-24T11:49:50Z</time>
      </trkpt>
      <trkpt lat="44.65206" lon="5.13">
        <ele>452.657501</ele>
        <time>2015-05-24T11:50:25Z</time>
      </trkpt>
      <trkpt lat="44.65206" lon="5.12999">
        <ele>452.640015</ele>
        <time>2015-05-24T11:50:58Z</time>
      </trkpt>
      <trkpt lat="44.65205" lon="5.12996">
        <ele>452.647491</ele>
        <time>2015-05-24T11:51:27Z</time>
      </trkpt>
      <trkpt lat="44.65199" lon="5.12974">
        <ele>452.241241</ele>
        <time>2015-05-24T11:51:35Z</time>
      </trkpt>
      <trkpt lat="44.652" lon="5.12961">
        <ele>451.611237</ele>
        <time>2015-05-24T11:51:38Z</time>
      </trkpt>
      <trkpt lat="44.65205" lon="5.12929">
        <ele>449.78125</ele>
        <time>2015-05-24T11:51:43Z</time>
      </trkpt>
      <trkpt lat="44.65207" lon="5.12923">
        <ele>449.376251</ele>
        <time>2015-05-24T11:51:44Z</time>
      </trkpt>
      <trkpt lat="44.65209" lon="5.12917">
        <ele>449.004852</ele>
        <time>2015-05-24T11:51:45Z</time>
      </trkpt>
      <trkpt lat="44.65238" lon="5.12865">
        <ele>448.689453</ele>
        <time>2015-05-24T11:51:58Z</time>
      </trkpt>
      <trkpt lat="44.6527" lon="5.1281">
        <ele>454.60376</ele>
        <time>2015-05-24T11:52:11Z</time>
      </trkpt>
      <trkpt lat="44.65276" lon="5.12799">
        <ele>456.219147</ele>
        <time>2015-05-24T11:52:13Z</time>
      </trkpt>
      <trkpt lat="44.65282" lon="5.12788">
        <ele>456.450104</ele>
        <time>2015-05-24T11:52:15Z</time>
      </trkpt>
      <trkpt lat="44.65313" lon="5.12734">
        <ele>455.365326</ele>
        <time>2015-05-24T11:52:25Z</time>
      </trkpt>
      <trkpt lat="44.65316" lon="5.12728">
        <ele>455.273621</ele>
        <time>2015-05-24T11:52:26Z</time>
      </trkpt>
      <trkpt lat="44.65321" lon="5.12716">
        <ele>454.771881</ele>
        <time>2015-05-24T11:52:28Z</time>
      </trkpt>
      <trkpt lat="44.65329" lon="5.127">
        <ele>455.134949</ele>
        <time>2015-05-24T11:52:31Z</time>
      </trkpt>
      <trkpt lat="44.65337" lon="5.12685">
        <ele>455.437714</ele>
        <time>2015-05-24T11:52:34Z</time>
      </trkpt>
      <trkpt lat="44.65339" lon="5.1268">
        <ele>455.267487</ele>
        <time>2015-05-24T11:52:35Z</time>
      </trkpt>
      <trkpt lat="44.65344" lon="5.12666">
        <ele>454.748383</ele>
        <time>2015-05-24T11:52:37Z</time>
      </trkpt>
      <trkpt lat="44.65348" lon="5.12651">
        <ele>454.420319</ele>
        <time>2015-05-24T11:52:39Z</time>
      </trkpt>
      <trkpt lat="44.65359" lon="5.12622">
        <ele>454.4505</ele>
        <time>2015-05-24T11:52:43Z</time>
      </trkpt>
      <trkpt lat="44.6536" lon="5.12613">
        <ele>453.685913</ele>
        <time>2015-05-24T11:52:44Z</time>
      </trkpt>
      <trkpt lat="44.6536" lon="5.12604">
        <ele>452.686646</ele>
        <time>2015-05-24T11:52:45Z</time>
      </trkpt>
      <trkpt lat="44.65359" lon="5.12595">
        <ele>451.362946</ele>
        <time>2015-05-24T11:52:46Z</time>
      </trkpt>
      <trkpt lat="44.65358" lon="5.12586">
        <ele>449.749969</ele>
        <time>2015-05-24T11:52:47Z</time>
      </trkpt>
      <trkpt lat="44.65355" lon="5.12577">
        <ele>447.881683</ele>
        <time>2015-05-24T11:52:48Z</time>
      </trkpt>
      <trkpt lat="44.65353" lon="5.12568">
        <ele>446.190033</ele>
        <time>2015-05-24T11:52:49Z</time>
      </trkpt>
      <trkpt lat="44.65351" lon="5.12559">
        <ele>444.556396</ele>
        <time>2015-05-24T11:52:50Z</time>
      </trkpt>
      <trkpt lat="44.65348" lon="5.1255">
        <ele>442.980652</ele>
        <time>2015-05-24T11:52:51Z</time>
      </trkpt>
      <trkpt lat="44.65344" lon="5.12531">
        <ele>440.361572</ele>
        <time>2015-05-24T11:52:53Z</time>
      </trkpt>
      <trkpt lat="44.65343" lon="5.12521">
        <ele>439.327057</ele>
        <time>2015-05-24T11:52:54Z</time>
      </trkpt>
      <trkpt lat="44.65342" lon="5.12511">
        <ele>438.471252</ele>
        <time>2015-05-24T11:52:55Z</time>
      </trkpt>
      <trkpt lat="44.65343" lon="5.12443">
        <ele>435.823822</ele>
        <time>2015-05-24T11:53:02Z</time>
      </trkpt>
      <trkpt lat="44.65345" lon="5.12434">
        <ele>435.809235</ele>
        <time>2015-05-24T11:53:03Z</time>
      </trkpt>
      <trkpt lat="44.6535" lon="5.12417">
        <ele>435.806396</ele>
        <time>2015-05-24T11:53:05Z</time>
      </trkpt>
      <trkpt lat="44.65355" lon="5.12409">
        <ele>435.794495</ele>
        <time>2015-05-24T11:53:06Z</time>
      </trkpt>
      <trkpt lat="44.65382" lon="5.12353">
        <ele>435.258423</ele>
        <time>2015-05-24T11:53:13Z</time>
      </trkpt>
      <trkpt lat="44.65385" lon="5.12344">
        <ele>435.485474</ele>
        <time>2015-05-24T11:53:14Z</time>
      </trkpt>
      <trkpt lat="44.65386" lon="5.12334">
        <ele>435.34845</ele>
        <time>2015-05-24T11:53:15Z</time>
      </trkpt>
      <trkpt lat="44.65387" lon="5.12324">
        <ele>434.987274</ele>
        <time>2015-05-24T11:53:16Z</time>
      </trkpt>
      <trkpt lat="44.65387" lon="5.12314">
        <ele>434.502045</ele>
        <time>2015-05-24T11:53:17Z</time>
      </trkpt>
      <trkpt lat="44.65389" lon="5.1223">
        <ele>431.883331</ele>
        <time>2015-05-24T11:53:26Z</time>
      </trkpt>
      <trkpt lat="44.65394" lon="5.12201">
        <ele>432.048645</ele>
        <time>2015-05-24T11:53:29Z</time>
      </trkpt>
      <trkpt lat="44.65397" lon="5.12192">
        <ele>431.988708</ele>
        <time>2015-05-24T11:53:30Z</time>
      </trkpt>
      <trkpt lat="44.65408" lon="5.12148">
        <ele>431.267944</ele>
        <time>2015-05-24T11:53:35Z</time>
      </trkpt>
      <trkpt lat="44.65449" lon="5.12055">
        <ele>433.237579</ele>
        <time>2015-05-24T11:53:46Z</time>
      </trkpt>
      <trkpt lat="44.65479" lon="5.11962">
        <ele>431.964478</ele>
        <time>2015-05-24T11:53:56Z</time>
      </trkpt>
      <trkpt lat="44.65486" lon="5.11945">
        <ele>432.203369</ele>
        <time>2015-05-24T11:53:58Z</time>
      </trkpt>
      <trkpt lat="44.6549" lon="5.11937">
        <ele>432.605682</ele>
        <time>2015-05-24T11:53:59Z</time>
      </trkpt>
      <trkpt lat="44.65504" lon="5.11915">
        <ele>433.846588</ele>
        <time>2015-05-24T11:54:02Z</time>
      </trkpt>
      <trkpt lat="44.65508" lon="5.11906">
        <ele>433.453918</ele>
        <time>2015-05-24T11:54:03Z</time>
      </trkpt>
      <trkpt lat="44.6551" lon="5.11897">
        <ele>432.474274</ele>
        <time>2015-05-24T11:54:04Z</time>
      </trkpt>
      <trkpt lat="44.65511" lon="5.11886">
        <ele>431.014252</ele>
        <time>2015-05-24T11:54:05Z</time>
      </trkpt>
      <trkpt lat="44.65511" lon="5.11876">
        <ele>429.479492</ele>
        <time>2015-05-24T11:54:06Z</time>
      </trkpt>
      <trkpt lat="44.6551" lon="5.11866">
        <ele>427.80719</ele>
        <time>2015-05-24T11:54:07Z</time>
      </trkpt>
      <trkpt lat="44.65509" lon="5.11855">
        <ele>426.677032</ele>
        <time>2015-05-24T11:54:08Z</time>
      </trkpt>
      <trkpt lat="44.65507" lon="5.11845">
        <ele>425.827637</ele>
        <time>2015-05-24T11:54:09Z</time>
      </trkpt>
      <trkpt lat="44.65505" lon="5.11835">
        <ele>425.100555</ele>
        <time>2015-05-24T11:54:10Z</time>
      </trkpt>
      <trkpt lat="44.65504" lon="5.11824">
        <ele>424.497375</ele>
        <time>2015-05-24T11:54:11Z</time>
      </trkpt>
      <trkpt lat="44.65504" lon="5.11813">
        <ele>423.94339</ele>
        <time>2015-05-24T11:54:12Z</time>
      </trkpt>
      <trkpt lat="44.65505" lon="5.11801">
        <ele>423.327911</ele>
        <time>2015-05-24T11:54:13Z</time>
      </trkpt>
      <trkpt lat="44.65507" lon="5.11791">
        <ele>423.304504</ele>
        <time>2015-05-24T11:54:14Z</time>
      </trkpt>
      <trkpt lat="44.6551" lon="5.11781">
        <ele>423.172913</ele>
        <time>2015-05-24T11:54:15Z</time>
      </trkpt>
      <trkpt lat="44.65513" lon="5.11771">
        <ele>422.847717</ele>
        <time>2015-05-24T11:54:16Z</time>
      </trkpt>
      <trkpt lat="44.65516" lon="5.11762">
        <ele>422.310089</ele>
        <time>2015-05-24T11:54:17Z</time>
      </trkpt>
      <trkpt lat="44.6555" lon="5.11643">
        <ele>420.738556</ele>
        <time>2015-05-24T11:54:31Z</time>
      </trkpt>
      <trkpt lat="44.65576" lon="5.11524">
        <ele>418.413483</ele>
        <time>2015-05-24T11:54:45Z</time>
      </trkpt>
      <trkpt lat="44.65598" lon="5.11404">
        <ele>421.347382</ele>
        <time>2015-05-24T11:54:59Z</time>
      </trkpt>
      <trkpt lat="44.65622" lon="5.11298">
        <ele>419.464447</ele>
        <time>2015-05-24T11:55:11Z</time>
      </trkpt>
      <trkpt lat="44.65656" lon="5.11191">
        <ele>415.977509</ele>
        <time>2015-05-24T11:55:23Z</time>
      </trkpt>
      <trkpt lat="44.65686" lon="5.11094">
        <ele>409.462952</ele>
        <time>2015-05-24T11:55:34Z</time>
      </trkpt>
      <trkpt lat="44.65694" lon="5.11056">
        <ele>408.130066</ele>
        <time>2015-05-24T11:55:38Z</time>
      </trkpt>
      <trkpt lat="44.65694" lon="5.11025">
        <ele>407.570007</ele>
        <time>2015-05-24T11:55:41Z</time>
      </trkpt>
      <trkpt lat="44.65686" lon="5.10912">
        <ele>405.142395</ele>
        <time>2015-05-24T11:55:53Z</time>
      </trkpt>
      <trkpt lat="44.65683" lon="5.10871">
        <ele>405.827881</ele>
        <time>2015-05-24T11:55:58Z</time>
      </trkpt>
      <trkpt lat="44.65683" lon="5.10863">
        <ele>405.962708</ele>
        <time>2015-05-24T11:55:59Z</time>
      </trkpt>
      <trkpt lat="44.65676" lon="5.10809">
        <ele>407.705475</ele>
        <time>2015-05-24T11:56:06Z</time>
      </trkpt>
      <trkpt lat="44.6567" lon="5.10785">
        <ele>409.80658</ele>
        <time>2015-05-24T11:56:09Z</time>
      </trkpt>
      <trkpt lat="44.65662" lon="5.1074">
        <ele>413.006348</ele>
        <time>2015-05-24T11:56:14Z</time>
      </trkpt>
      <trkpt lat="44.65662" lon="5.10731">
        <ele>413.127747</ele>
        <time>2015-05-24T11:56:15Z</time>
      </trkpt>
      <trkpt lat="44.65663" lon="5.10713">
        <ele>412.734283</ele>
        <time>2015-05-24T11:56:17Z</time>
      </trkpt>
      <trkpt lat="44.65676" lon="5.10629">
        <ele>405.92749</ele>
        <time>2015-05-24T11:56:27Z</time>
      </trkpt>
      <trkpt lat="44.65677" lon="5.10613">
        <ele>405.10376</ele>
        <time>2015-05-24T11:56:29Z</time>
      </trkpt>
      <trkpt lat="44.65685" lon="5.10541">
        <ele>401.067749</ele>
        <time>2015-05-24T11:56:38Z</time>
      </trkpt>
      <trkpt lat="44.65685" lon="5.10533">
        <ele>401.262238</ele>
        <time>2015-05-24T11:56:39Z</time>
      </trkpt>
      <trkpt lat="44.65679" lon="5.10451">
        <ele>404.768738</ele>
        <time>2015-05-24T11:56:48Z</time>
      </trkpt>
      <trkpt lat="44.65679" lon="5.10441">
        <ele>404.446442</ele>
        <time>2015-05-24T11:56:49Z</time>
      </trkpt>
      <trkpt lat="44.65682" lon="5.10358">
        <ele>400.233185</ele>
        <time>2015-05-24T11:56:58Z</time>
      </trkpt>
      <trkpt lat="44.6568" lon="5.10341">
        <ele>399.698456</ele>
        <time>2015-05-24T11:57:00Z</time>
      </trkpt>
      <trkpt lat="44.65674" lon="5.10316">
        <ele>399.656464</ele>
        <time>2015-05-24T11:57:03Z</time>
      </trkpt>
      <trkpt lat="44.65671" lon="5.10308">
        <ele>400.022247</ele>
        <time>2015-05-24T11:57:04Z</time>
      </trkpt>
      <trkpt lat="44.65657" lon="5.10275">
        <ele>400.536133</ele>
        <time>2015-05-24T11:57:08Z</time>
      </trkpt>
      <trkpt lat="44.65654" lon="5.10265">
        <ele>399.87735</ele>
        <time>2015-05-24T11:57:09Z</time>
      </trkpt>
      <trkpt lat="44.65652" lon="5.10255">
        <ele>399.053406</ele>
        <time>2015-05-24T11:57:10Z</time>
      </trkpt>
      <trkpt lat="44.6565" lon="5.10244">
        <ele>398.985748</ele>
        <time>2015-05-24T11:57:11Z</time>
      </trkpt>
      <trkpt lat="44.65649" lon="5.10233">
        <ele>398.671661</ele>
        <time>2015-05-24T11:57:12Z</time>
      </trkpt>
      <trkpt lat="44.65644" lon="5.10131">
        <ele>396.766998</ele>
        <time>2015-05-24T11:57:22Z</time>
      </trkpt>
      <trkpt lat="44.65643" lon="5.1011">
        <ele>396.11734</ele>
        <time>2015-05-24T11:57:24Z</time>
      </trkpt>
      <trkpt lat="44.6564" lon="5.10054">
        <ele>394.934998</ele>
        <time>2015-05-24T11:57:30Z</time>
      </trkpt>
      <trkpt lat="44.6564" lon="5.10045">
        <ele>394.41861</ele>
        <time>2015-05-24T11:57:31Z</time>
      </trkpt>
      <trkpt lat="44.65657" lon="5.09956">
        <ele>390.457794</ele>
        <time>2015-05-24T11:57:41Z</time>
      </trkpt>
      <trkpt lat="44.65659" lon="5.09928">
        <ele>390.251526</ele>
        <time>2015-05-24T11:57:44Z</time>
      </trkpt>
      <trkpt lat="44.65658" lon="5.09919">
        <ele>390.387421</ele>
        <time>2015-05-24T11:57:45Z</time>
      </trkpt>
      <trkpt lat="44.65657" lon="5.0991">
        <ele>390.561249</ele>
        <time>2015-05-24T11:57:46Z</time>
      </trkpt>
      <trkpt lat="44.65644" lon="5.09861">
        <ele>391.955017</ele>
        <time>2015-05-24T11:57:51Z</time>
      </trkpt>
      <trkpt lat="44.65641" lon="5.09852">
        <ele>392.38205</ele>
        <time>2015-05-24T11:57:52Z</time>
      </trkpt>
      <trkpt lat="44.65617" lon="5.09789">
        <ele>391.936859</ele>
        <time>2015-05-24T11:57:59Z</time>
      </trkpt>
      <trkpt lat="44.65574" lon="5.09697">
        <ele>387.578949</ele>
        <time>2015-05-24T11:58:11Z</time>
      </trkpt>
      <trkpt lat="44.65569" lon="5.0969">
        <ele>387.579987</ele>
        <time>2015-05-24T11:58:12Z</time>
      </trkpt>
      <trkpt lat="44.6551" lon="5.09604">
        <ele>384.960083</ele>
        <time>2015-05-24T11:58:25Z</time>
      </trkpt>
      <trkpt lat="44.65506" lon="5.09596">
        <ele>384.069458</ele>
        <time>2015-05-24T11:58:26Z</time>
      </trkpt>
      <trkpt lat="44.65498" lon="5.09573">
        <ele>384.946503</ele>
        <time>2015-05-24T11:58:29Z</time>
      </trkpt>
      <trkpt lat="44.65477" lon="5.09514">
        <ele>390.305756</ele>
        <time>2015-05-24T11:58:37Z</time>
      </trkpt>
      <trkpt lat="44.65477" lon="5.0951">
        <ele>390.47757</ele>
        <time>2015-05-24T11:58:38Z</time>
      </trkpt>
      <trkpt lat="44.65475" lon="5.09503">
        <ele>390.720154</ele>
        <time>2015-05-24T11:58:40Z</time>
      </trkpt>
      <trkpt lat="44.65474" lon="5.09499">
        <ele>390.902039</ele>
        <time>2015-05-24T11:58:41Z</time>
      </trkpt>
      <trkpt lat="44.65472" lon="5.09496">
        <ele>391.054413</ele>
        <time>2015-05-24T11:58:42Z</time>
      </trkpt>
      <trkpt lat="44.65467" lon="5.09488">
        <ele>390.596558</ele>
        <time>2015-05-24T11:58:44Z</time>
      </trkpt>
      <trkpt lat="44.65464" lon="5.09483">
        <ele>389.591492</ele>
        <time>2015-05-24T11:58:45Z</time>
      </trkpt>
      <trkpt lat="44.6546" lon="5.09478">
        <ele>388.234253</ele>
        <time>2015-05-24T11:58:46Z</time>
      </trkpt>
      <trkpt lat="44.65456" lon="5.09473">
        <ele>386.415283</ele>
        <time>2015-05-24T11:58:47Z</time>
      </trkpt>
      <trkpt lat="44.65453" lon="5.09469">
        <ele>384.151886</ele>
        <time>2015-05-24T11:58:48Z</time>
      </trkpt>
      <trkpt lat="44.65449" lon="5.09464">
        <ele>381.420013</ele>
        <time>2015-05-24T11:58:49Z</time>
      </trkpt>
      <trkpt lat="44.65442" lon="5.09457">
        <ele>383.185425</ele>
        <time>2015-05-24T11:58:51Z</time>
      </trkpt>
      <trkpt lat="44.65439" lon="5.09452">
        <ele>384.102753</ele>
        <time>2015-05-24T11:58:52Z</time>
      </trkpt>
      <trkpt lat="44.65437" lon="5.09446">
        <ele>384.416473</ele>
        <time>2015-05-24T11:58:53Z</time>
      </trkpt>
      <trkpt lat="44.65434" lon="5.09442">
        <ele>384.728485</ele>
        <time>2015-05-24T11:58:54Z</time>
      </trkpt>
      <trkpt lat="44.65431" lon="5.09438">
        <ele>385.050323</ele>
        <time>2015-05-24T11:58:55Z</time>
      </trkpt>
      <trkpt lat="44.65428" lon="5.09436">
        <ele>385.375214</ele>
        <time>2015-05-24T11:58:56Z</time>
      </trkpt>
      <trkpt lat="44.65425" lon="5.09433">
        <ele>385.616547</ele>
        <time>2015-05-24T11:58:57Z</time>
      </trkpt>
      <trkpt lat="44.654" lon="5.09406">
        <ele>381.808289</ele>
        <time>2015-05-24T11:59:07Z</time>
      </trkpt>
      <trkpt lat="44.65391" lon="5.09392">
        <ele>382.088745</ele>
        <time>2015-05-24T11:59:10Z</time>
      </trkpt>
      <trkpt lat="44.65387" lon="5.09387">
        <ele>382.922333</ele>
        <time>2015-05-24T11:59:11Z</time>
      </trkpt>
      <trkpt lat="44.65384" lon="5.09382">
        <ele>383.635162</ele>
        <time>2015-05-24T11:59:12Z</time>
      </trkpt>
      <trkpt lat="44.65371" lon="5.09355">
        <ele>383.576233</ele>
        <time>2015-05-24T11:59:17Z</time>
      </trkpt>
      <trkpt lat="44.6537" lon="5.09349">
        <ele>382.971558</ele>
        <time>2015-05-24T11:59:18Z</time>
      </trkpt>
      <trkpt lat="44.65364" lon="5.09329">
        <ele>380.874207</ele>
        <time>2015-05-24T11:59:21Z</time>
      </trkpt>
      <trkpt lat="44.65335" lon="5.09278">
        <ele>380.732391</ele>
        <time>2015-05-24T11:59:30Z</time>
      </trkpt>
      <trkpt lat="44.65332" lon="5.09271">
        <ele>380.392822</ele>
        <time>2015-05-24T11:59:31Z</time>
      </trkpt>
      <trkpt lat="44.6533" lon="5.09263">
        <ele>379.984009</ele>
        <time>2015-05-24T11:59:32Z</time>
      </trkpt>
      <trkpt lat="44.65321" lon="5.09243">
        <ele>378.83255</ele>
        <time>2015-05-24T11:59:35Z</time>
      </trkpt>
      <trkpt lat="44.65318" lon="5.09236">
        <ele>378.431244</ele>
        <time>2015-05-24T11:59:36Z</time>
      </trkpt>
      <trkpt lat="44.65307" lon="5.09215">
        <ele>377.441254</ele>
        <time>2015-05-24T11:59:39Z</time>
      </trkpt>
      <trkpt lat="44.65299" lon="5.092">
        <ele>377.263763</ele>
        <time>2015-05-24T11:59:41Z</time>
      </trkpt>
      <trkpt lat="44.65295" lon="5.09193">
        <ele>377.28064</ele>
        <time>2015-05-24T11:59:42Z</time>
      </trkpt>
      <trkpt lat="44.6529" lon="5.09185">
        <ele>377.470673</ele>
        <time>2015-05-24T11:59:43Z</time>
      </trkpt>
      <trkpt lat="44.65269" lon="5.09157">
        <ele>378.719177</ele>
        <time>2015-05-24T11:59:47Z</time>
      </trkpt>
      <trkpt lat="44.65264" lon="5.09151">
        <ele>379.187866</ele>
        <time>2015-05-24T11:59:48Z</time>
      </trkpt>
      <trkpt lat="44.65251" lon="5.09134">
        <ele>380.731049</ele>
        <time>2015-05-24T11:59:51Z</time>
      </trkpt>
      <trkpt lat="44.65248" lon="5.09128">
        <ele>380.924988</ele>
        <time>2015-05-24T11:59:52Z</time>
      </trkpt>
      <trkpt lat="44.65232" lon="5.09099">
        <ele>379.711029</ele>
        <time>2015-05-24T11:59:57Z</time>
      </trkpt>
      <trkpt lat="44.6521" lon="5.09057">
        <ele>379.547485</ele>
        <time>2015-05-24T12:00:05Z</time>
      </trkpt>
      <trkpt lat="44.6518" lon="5.09004">
        <ele>378.725006</ele>
        <time>2015-05-24T12:00:14Z</time>
      </trkpt>
      <trkpt lat="44.65177" lon="5.08996">
        <ele>378.819763</ele>
        <time>2015-05-24T12:00:15Z</time>
      </trkpt>
      <trkpt lat="44.65174" lon="5.08989">
        <ele>378.87326</ele>
        <time>2015-05-24T12:00:16Z</time>
      </trkpt>
      <trkpt lat="44.65172" lon="5.08982">
        <ele>378.708527</ele>
        <time>2015-05-24T12:00:17Z</time>
      </trkpt>
      <trkpt lat="44.6517" lon="5.08974">
        <ele>378.308838</ele>
        <time>2015-05-24T12:00:18Z</time>
      </trkpt>
      <trkpt lat="44.65169" lon="5.08965">
        <ele>377.762512</ele>
        <time>2015-05-24T12:00:19Z</time>
      </trkpt>
      <trkpt lat="44.65166" lon="5.08949">
        <ele>376.60376</ele>
        <time>2015-05-24T12:00:21Z</time>
      </trkpt>
      <trkpt lat="44.65159" lon="5.0893">
        <ele>376.387177</ele>
        <time>2015-05-24T12:00:23Z</time>
      </trkpt>
      <trkpt lat="44.65151" lon="5.08912">
        <ele>376.416962</ele>
        <time>2015-05-24T12:00:25Z</time>
      </trkpt>
      <trkpt lat="44.65132" lon="5.0888">
        <ele>376.185577</ele>
        <time>2015-05-24T12:00:29Z</time>
      </trkpt>
      <trkpt lat="44.65112" lon="5.0885">
        <ele>375.863617</ele>
        <time>2015-05-24T12:00:33Z</time>
      </trkpt>
      <trkpt lat="44.65099" lon="5.08837">
        <ele>376.421387</ele>
        <time>2015-05-24T12:00:35Z</time>
      </trkpt>
      <trkpt lat="44.65093" lon="5.08829">
        <ele>376.674225</ele>
        <time>2015-05-24T12:00:36Z</time>
      </trkpt>
      <trkpt lat="44.65076" lon="5.08791">
        <ele>374.804291</ele>
        <time>2015-05-24T12:00:40Z</time>
      </trkpt>
      <trkpt lat="44.65072" lon="5.08782">
        <ele>374.273438</ele>
        <time>2015-05-24T12:00:41Z</time>
      </trkpt>
      <trkpt lat="44.65067" lon="5.08773">
        <ele>373.737427</ele>
        <time>2015-05-24T12:00:42Z</time>
      </trkpt>
      <trkpt lat="44.6506" lon="5.08754">
        <ele>372.414337</ele>
        <time>2015-05-24T12:00:44Z</time>
      </trkpt>
      <trkpt lat="44.65057" lon="5.08744">
        <ele>371.909851</ele>
        <time>2015-05-24T12:00:45Z</time>
      </trkpt>
      <trkpt lat="44.65051" lon="5.08724">
        <ele>369.745636</ele>
        <time>2015-05-24T12:00:47Z</time>
      </trkpt>
      <trkpt lat="44.65047" lon="5.08714">
        <ele>368.702942</ele>
        <time>2015-05-24T12:00:48Z</time>
      </trkpt>
      <trkpt lat="44.65042" lon="5.08706">
        <ele>367.633728</ele>
        <time>2015-05-24T12:00:49Z</time>
      </trkpt>
      <trkpt lat="44.65037" lon="5.08698">
        <ele>366.517181</ele>
        <time>2015-05-24T12:00:50Z</time>
      </trkpt>
      <trkpt lat="44.65031" lon="5.08691">
        <ele>365.389893</ele>
        <time>2015-05-24T12:00:51Z</time>
      </trkpt>
      <trkpt lat="44.64998" lon="5.08653">
        <ele>362.419403</ele>
        <time>2015-05-24T12:00:57Z</time>
      </trkpt>
      <trkpt lat="44.64992" lon="5.0865">
        <ele>362.240387</ele>
        <time>2015-05-24T12:00:58Z</time>
      </trkpt>
      <trkpt lat="44.64967" lon="5.08643">
        <ele>362.538696</ele>
        <time>2015-05-24T12:01:02Z</time>
      </trkpt>
      <trkpt lat="44.6496" lon="5.08644">
        <ele>363.2229</ele>
        <time>2015-05-24T12:01:03Z</time>
      </trkpt>
      <trkpt lat="44.64954" lon="5.08647">
        <ele>364.13324</ele>
        <time>2015-05-24T12:01:04Z</time>
      </trkpt>
      <trkpt lat="44.64949" lon="5.08651">
        <ele>365.319885</ele>
        <time>2015-05-24T12:01:05Z</time>
      </trkpt>
      <trkpt lat="44.64944" lon="5.08655">
        <ele>366.607239</ele>
        <time>2015-05-24T12:01:06Z</time>
      </trkpt>
      <trkpt lat="44.64939" lon="5.08659">
        <ele>367.862549</ele>
        <time>2015-05-24T12:01:07Z</time>
      </trkpt>
      <trkpt lat="44.64936" lon="5.08663">
        <ele>368.898163</ele>
        <time>2015-05-24T12:01:08Z</time>
      </trkpt>
      <trkpt lat="44.64932" lon="5.08664">
        <ele>369.512115</ele>
        <time>2015-05-24T12:01:09Z</time>
      </trkpt>
      <trkpt lat="44.64929" lon="5.08664">
        <ele>369.672485</ele>
        <time>2015-05-24T12:01:10Z</time>
      </trkpt>
      <trkpt lat="44.64926" lon="5.08663">
        <ele>369.844818</ele>
        <time>2015-05-24T12:01:11Z</time>
      </trkpt>
      <trkpt lat="44.64923" lon="5.08662">
        <ele>370.098816</ele>
        <time>2015-05-24T12:01:12Z</time>
      </trkpt>
      <trkpt lat="44.64919" lon="5.0866">
        <ele>370.442749</ele>
        <time>2015-05-24T12:01:23Z</time>
      </trkpt>
      <trkpt lat="44.64916" lon="5.08658">
        <ele>370.583618</ele>
        <time>2015-05-24T12:01:37Z</time>
      </trkpt>
      <trkpt lat="44.64912" lon="5.08656">
        <ele>371.09787</ele>
        <time>2015-05-24T12:01:52Z</time>
      </trkpt>
      <trkpt lat="44.6491" lon="5.08655">
        <ele>371.351563</ele>
        <time>2015-05-24T12:01:53Z</time>
      </trkpt>
      <trkpt lat="44.64908" lon="5.08654">
        <ele>371.746887</ele>
        <time>2015-05-24T12:01:54Z</time>
      </trkpt>
      <trkpt lat="44.64904" lon="5.08653">
        <ele>372.425018</ele>
        <time>2015-05-24T12:01:55Z</time>
      </trkpt>
      <trkpt lat="44.649" lon="5.08652">
        <ele>373.298737</ele>
        <time>2015-05-24T12:01:56Z</time>
      </trkpt>
      <trkpt lat="44.64895" lon="5.08649">
        <ele>374.324188</ele>
        <time>2015-05-24T12:01:57Z</time>
      </trkpt>
      <trkpt lat="44.6489" lon="5.08647">
        <ele>375.45462</ele>
        <time>2015-05-24T12:01:58Z</time>
      </trkpt>
      <trkpt lat="44.64882" lon="5.08636">
        <ele>378.293182</ele>
        <time>2015-05-24T12:02:02Z</time>
      </trkpt>
      <trkpt lat="44.64884" lon="5.08632">
        <ele>378.336395</ele>
        <time>2015-05-24T12:02:03Z</time>
      </trkpt>
      <trkpt lat="44.649" lon="5.08603">
        <ele>375.44339</ele>
        <time>2015-05-24T12:02:12Z</time>
      </trkpt>
      <trkpt lat="44.64902" lon="5.086">
        <ele>374.886841</ele>
        <time>2015-05-24T12:02:13Z</time>
      </trkpt>
      <trkpt lat="44.64905" lon="5.08597">
        <ele>374.267853</ele>
        <time>2015-05-24T12:02:14Z</time>
      </trkpt>
      <trkpt lat="44.64907" lon="5.08594">
        <ele>373.317322</ele>
        <time>2015-05-24T12:02:15Z</time>
      </trkpt>
      <trkpt lat="44.6491" lon="5.0859">
        <ele>372.584015</ele>
        <time>2015-05-24T12:02:16Z</time>
      </trkpt>
      <trkpt lat="44.64925" lon="5.08552">
        <ele>367.218445</ele>
        <time>2015-05-24T12:02:23Z</time>
      </trkpt>
      <trkpt lat="44.64926" lon="5.08545">
        <ele>366.779968</ele>
        <time>2015-05-24T12:02:24Z</time>
      </trkpt>
      <trkpt lat="44.64927" lon="5.08538">
        <ele>366.67334</ele>
        <time>2015-05-24T12:02:25Z</time>
      </trkpt>
      <trkpt lat="44.64928" lon="5.08531">
        <ele>366.218201</ele>
        <time>2015-05-24T12:02:26Z</time>
      </trkpt>
      <trkpt lat="44.64929" lon="5.08526">
        <ele>365.643707</ele>
        <time>2015-05-24T12:02:27Z</time>
      </trkpt>
      <trkpt lat="44.64939" lon="5.08438">
        <ele>362.56543</ele>
        <time>2015-05-24T12:02:39Z</time>
      </trkpt>
      <trkpt lat="44.64939" lon="5.08405">
        <ele>362.074646</ele>
        <time>2015-05-24T12:02:43Z</time>
      </trkpt>
      <trkpt lat="44.64938" lon="5.08395">
        <ele>361.949951</ele>
        <time>2015-05-24T12:02:44Z</time>
      </trkpt>
      <trkpt lat="44.64939" lon="5.08386">
        <ele>361.587585</ele>
        <time>2015-05-24T12:02:45Z</time>
      </trkpt>
      <trkpt lat="44.64941" lon="5.08378">
        <ele>361.152008</ele>
        <time>2015-05-24T12:02:46Z</time>
      </trkpt>
      <trkpt lat="44.64943" lon="5.08371">
        <ele>360.657043</ele>
        <time>2015-05-24T12:02:47Z</time>
      </trkpt>
      <trkpt lat="44.64945" lon="5.08366">
        <ele>360.158325</ele>
        <time>2015-05-24T12:02:48Z</time>
      </trkpt>
      <trkpt lat="44.64947" lon="5.08334">
        <ele>358.33551</ele>
        <time>2015-05-24T12:02:53Z</time>
      </trkpt>
      <trkpt lat="44.64947" lon="5.08325">
        <ele>357.986389</ele>
        <time>2015-05-24T12:02:54Z</time>
      </trkpt>
      <trkpt lat="44.64947" lon="5.08316">
        <ele>357.576111</ele>
        <time>2015-05-24T12:02:55Z</time>
      </trkpt>
      <trkpt lat="44.64946" lon="5.08308">
        <ele>357.265594</ele>
        <time>2015-05-24T12:02:56Z</time>
      </trkpt>
      <trkpt lat="44.64943" lon="5.0828">
        <ele>356.73233</ele>
        <time>2015-05-24T12:02:59Z</time>
      </trkpt>
      <trkpt lat="44.64935" lon="5.08236">
        <ele>356.980316</ele>
        <time>2015-05-24T12:03:08Z</time>
      </trkpt>
      <trkpt lat="44.64934" lon="5.08225">
        <ele>357.105896</ele>
        <time>2015-05-24T12:03:13Z</time>
      </trkpt>
      <trkpt lat="44.64932" lon="5.08221">
        <ele>357.607056</ele>
        <time>2015-05-24T12:03:14Z</time>
      </trkpt>
      <trkpt lat="44.6493" lon="5.08216">
        <ele>357.859406</ele>
        <time>2015-05-24T12:03:15Z</time>
      </trkpt>
      <trkpt lat="44.64929" lon="5.08211">
        <ele>358.010437</ele>
        <time>2015-05-24T12:03:16Z</time>
      </trkpt>
      <trkpt lat="44.64927" lon="5.08207">
        <ele>358.429047</ele>
        <time>2015-05-24T12:03:17Z</time>
      </trkpt>
      <trkpt lat="44.64924" lon="5.08203">
        <ele>358.964539</ele>
        <time>2015-05-24T12:03:18Z</time>
      </trkpt>
      <trkpt lat="44.64911" lon="5.08182">
        <ele>360.196869</ele>
        <time>2015-05-24T12:03:26Z</time>
      </trkpt>
      <trkpt lat="44.64907" lon="5.08159">
        <ele>358.544495</ele>
        <time>2015-05-24T12:03:37Z</time>
      </trkpt>
      <trkpt lat="44.64897" lon="5.0813">
        <ele>356.252869</ele>
        <time>2015-05-24T12:03:45Z</time>
      </trkpt>
      <trkpt lat="44.64895" lon="5.0813">
        <ele>356.558258</ele>
        <time>2015-05-24T12:03:46Z</time>
      </trkpt>
      <trkpt lat="44.64893" lon="5.08131">
        <ele>357.191254</ele>
        <time>2015-05-24T12:03:47Z</time>
      </trkpt>
      <trkpt lat="44.64891" lon="5.08132">
        <ele>357.897003</ele>
        <time>2015-05-24T12:03:48Z</time>
      </trkpt>
      <trkpt lat="44.64889" lon="5.08132">
        <ele>358.544037</ele>
        <time>2015-05-24T12:03:49Z</time>
      </trkpt>
      <trkpt lat="44.64882" lon="5.08127">
        <ele>359.063812</ele>
        <time>2015-05-24T12:03:53Z</time>
      </trkpt>
      <trkpt lat="44.6488" lon="5.08124">
        <ele>358.570404</ele>
        <time>2015-05-24T12:03:54Z</time>
      </trkpt>
      <trkpt lat="44.64878" lon="5.0812">
        <ele>357.85321</ele>
        <time>2015-05-24T12:03:55Z</time>
      </trkpt>
      <trkpt lat="44.64865" lon="5.08108">
        <ele>355.60257</ele>
        <time>2015-05-24T12:03:59Z</time>
      </trkpt>
      <trkpt lat="44.64863" lon="5.08105">
        <ele>355.31131</ele>
        <time>2015-05-24T12:04:00Z</time>
      </trkpt>
      <trkpt lat="44.6486" lon="5.08101">
        <ele>355.001038</ele>
        <time>2015-05-24T12:04:01Z</time>
      </trkpt>
      <trkpt lat="44.64825" lon="5.08079">
        <ele>360.068634</ele>
        <time>2015-05-24T12:04:12Z</time>
      </trkpt>
      <trkpt lat="44.64797" lon="5.08048">
        <ele>360.170532</ele>
        <time>2015-05-24T12:04:24Z</time>
      </trkpt>
      <trkpt lat="44.64795" lon="5.08046">
        <ele>360.164246</ele>
        <time>2015-05-24T12:04:25Z</time>
      </trkpt>
      <trkpt lat="44.64791" lon="5.08042">
        <ele>361.382507</ele>
        <time>2015-05-24T12:04:27Z</time>
      </trkpt>
      <trkpt lat="44.64772" lon="5.08012">
        <ele>364.132538</ele>
        <time>2015-05-24T12:04:37Z</time>
      </trkpt>
      <trkpt lat="44.6477" lon="5.08006">
        <ele>363.502655</ele>
        <time>2015-05-24T12:04:38Z</time>
      </trkpt>
      <trkpt lat="44.64769" lon="5.08">
        <ele>362.807526</ele>
        <time>2015-05-24T12:04:39Z</time>
      </trkpt>
      <trkpt lat="44.64758" lon="5.07972">
        <ele>362.440002</ele>
        <time>2015-05-24T12:04:43Z</time>
      </trkpt>
      <trkpt lat="44.64756" lon="5.07954">
        <ele>361.839264</ele>
        <time>2015-05-24T12:04:45Z</time>
      </trkpt>
      <trkpt lat="44.64754" lon="5.07938">
        <ele>361.00885</ele>
        <time>2015-05-24T12:04:47Z</time>
      </trkpt>
      <trkpt lat="44.64753" lon="5.0793">
        <ele>360.440002</ele>
        <time>2015-05-24T12:04:48Z</time>
      </trkpt>
      <trkpt lat="44.64751" lon="5.07915">
        <ele>359.59259</ele>
        <time>2015-05-24T12:04:50Z</time>
      </trkpt>
      <trkpt lat="44.64751" lon="5.07904">
        <ele>359.50293</ele>
        <time>2015-05-24T12:04:53Z</time>
      </trkpt>
      <trkpt lat="44.64751" lon="5.07902">
        <ele>359.382385</ele>
        <time>2015-05-24T12:04:54Z</time>
      </trkpt>
      <trkpt lat="44.64751" lon="5.07898">
        <ele>359.315186</ele>
        <time>2015-05-24T12:04:55Z</time>
      </trkpt>
      <trkpt lat="44.64751" lon="5.07895">
        <ele>359.247253</ele>
        <time>2015-05-24T12:04:56Z</time>
      </trkpt>
      <trkpt lat="44.64751" lon="5.07892">
        <ele>359.163055</ele>
        <time>2015-05-24T12:04:57Z</time>
      </trkpt>
      <trkpt lat="44.64757" lon="5.07843">
        <ele>357.113617</ele>
        <time>2015-05-24T12:05:06Z</time>
      </trkpt>
      <trkpt lat="44.64768" lon="5.07801">
        <ele>354.989349</ele>
        <time>2015-05-24T12:05:14Z</time>
      </trkpt>
      <trkpt lat="44.64771" lon="5.07795">
        <ele>354.751892</ele>
        <time>2015-05-24T12:05:15Z</time>
      </trkpt>
      <trkpt lat="44.64773" lon="5.07789">
        <ele>354.43689</ele>
        <time>2015-05-24T12:05:16Z</time>
      </trkpt>
      <trkpt lat="44.64775" lon="5.07782">
        <ele>354.038605</ele>
        <time>2015-05-24T12:05:17Z</time>
      </trkpt>
      <trkpt lat="44.64777" lon="5.07767">
        <ele>353.304138</ele>
        <time>2015-05-24T12:05:19Z</time>
      </trkpt>
      <trkpt lat="44.64777" lon="5.07759">
        <ele>353.026001</ele>
        <time>2015-05-24T12:05:20Z</time>
      </trkpt>
      <trkpt lat="44.64769" lon="5.07698">
        <ele>354.65686</ele>
        <time>2015-05-24T12:05:30Z</time>
      </trkpt>
      <trkpt lat="44.64768" lon="5.0769">
        <ele>355.980621</ele>
        <time>2015-05-24T12:05:31Z</time>
      </trkpt>
      <trkpt lat="44.64767" lon="5.07683">
        <ele>357.1586</ele>
        <time>2015-05-24T12:05:32Z</time>
      </trkpt>
      <trkpt lat="44.64766" lon="5.07676">
        <ele>358.240631</ele>
        <time>2015-05-24T12:05:33Z</time>
      </trkpt>
      <trkpt lat="44.64765" lon="5.07611">
        <ele>363.347504</ele>
        <time>2015-05-24T12:05:44Z</time>
      </trkpt>
      <trkpt lat="44.64776" lon="5.07587">
        <ele>349.662781</ele>
        <time>2015-05-24T12:05:47Z</time>
      </trkpt>
      <trkpt lat="44.64778" lon="5.07574">
        <ele>348.978882</ele>
        <time>2015-05-24T12:05:48Z</time>
      </trkpt>
      <trkpt lat="44.64781" lon="5.07555">
        <ele>348.482147</ele>
        <time>2015-05-24T12:05:50Z</time>
      </trkpt>
      <trkpt lat="44.64782" lon="5.07546">
        <ele>348.724854</ele>
        <time>2015-05-24T12:05:51Z</time>
      </trkpt>
      <trkpt lat="44.64783" lon="5.07529">
        <ele>348.602325</ele>
        <time>2015-05-24T12:05:53Z</time>
      </trkpt>
      <trkpt lat="44.64782" lon="5.07521">
        <ele>348.898804</ele>
        <time>2015-05-24T12:05:54Z</time>
      </trkpt>
      <trkpt lat="44.64777" lon="5.07475">
        <ele>350.044006</ele>
        <time>2015-05-24T12:06:00Z</time>
      </trkpt>
      <trkpt lat="44.64775" lon="5.07468">
        <ele>350.608429</ele>
        <time>2015-05-24T12:06:01Z</time>
      </trkpt>
      <trkpt lat="44.64774" lon="5.07461">
        <ele>350.93634</ele>
        <time>2015-05-24T12:06:02Z</time>
      </trkpt>
      <trkpt lat="44.64772" lon="5.07455">
        <ele>351.593048</ele>
        <time>2015-05-24T12:06:03Z</time>
      </trkpt>
      <trkpt lat="44.6477" lon="5.07449">
        <ele>352.072601</ele>
        <time>2015-05-24T12:06:04Z</time>
      </trkpt>
      <trkpt lat="44.64767" lon="5.07442">
        <ele>352.56842</ele>
        <time>2015-05-24T12:06:05Z</time>
      </trkpt>
      <trkpt lat="44.64765" lon="5.07435">
        <ele>352.826874</ele>
        <time>2015-05-24T12:06:06Z</time>
      </trkpt>
      <trkpt lat="44.64763" lon="5.07428">
        <ele>352.982513</ele>
        <time>2015-05-24T12:06:07Z</time>
      </trkpt>
      <trkpt lat="44.6476" lon="5.07422">
        <ele>353.110992</ele>
        <time>2015-05-24T12:06:08Z</time>
      </trkpt>
      <trkpt lat="44.64755" lon="5.0741">
        <ele>353.305511</ele>
        <time>2015-05-24T12:06:10Z</time>
      </trkpt>
      <trkpt lat="44.64723" lon="5.07335">
        <ele>353.33606</ele>
        <time>2015-05-24T12:06:21Z</time>
      </trkpt>
      <trkpt lat="44.64679" lon="5.07232">
        <ele>350.367157</ele>
        <time>2015-05-24T12:06:35Z</time>
      </trkpt>
      <trkpt lat="44.64676" lon="5.07225">
        <ele>349.894928</ele>
        <time>2015-05-24T12:06:36Z</time>
      </trkpt>
      <trkpt lat="44.64668" lon="5.0721">
        <ele>350.064575</ele>
        <time>2015-05-24T12:06:38Z</time>
      </trkpt>
      <trkpt lat="44.64651" lon="5.07169">
        <ele>348.191681</ele>
        <time>2015-05-24T12:06:43Z</time>
      </trkpt>
      <trkpt lat="44.64627" lon="5.0712">
        <ele>346.825409</ele>
        <time>2015-05-24T12:06:50Z</time>
      </trkpt>
      <trkpt lat="44.64624" lon="5.07114">
        <ele>346.441101</ele>
        <time>2015-05-24T12:06:51Z</time>
      </trkpt>
      <trkpt lat="44.64615" lon="5.07095">
        <ele>345.16629</ele>
        <time>2015-05-24T12:06:54Z</time>
      </trkpt>
      <trkpt lat="44.646" lon="5.07065">
        <ele>346.000427</ele>
        <time>2015-05-24T12:06:59Z</time>
      </trkpt>
      <trkpt lat="44.64598" lon="5.0706">
        <ele>346.193848</ele>
        <time>2015-05-24T12:07:00Z</time>
      </trkpt>
      <trkpt lat="44.64597" lon="5.07055">
        <ele>346.2836</ele>
        <time>2015-05-24T12:07:01Z</time>
      </trkpt>
      <trkpt lat="44.64597" lon="5.07051">
        <ele>346.184631</ele>
        <time>2015-05-24T12:07:02Z</time>
      </trkpt>
      <trkpt lat="44.64598" lon="5.07046">
        <ele>345.966248</ele>
        <time>2015-05-24T12:07:03Z</time>
      </trkpt>
      <trkpt lat="44.64599" lon="5.07042">
        <ele>345.677185</ele>
        <time>2015-05-24T12:07:04Z</time>
      </trkpt>
      <trkpt lat="44.646" lon="5.07037">
        <ele>345.361572</ele>
        <time>2015-05-24T12:07:05Z</time>
      </trkpt>
      <trkpt lat="44.646" lon="5.07031">
        <ele>345.09549</ele>
        <time>2015-05-24T12:07:06Z</time>
      </trkpt>
      <trkpt lat="44.64601" lon="5.07026">
        <ele>344.995361</ele>
        <time>2015-05-24T12:07:07Z</time>
      </trkpt>
      <trkpt lat="44.64613" lon="5.06988">
        <ele>344.084961</ele>
        <time>2015-05-24T12:07:16Z</time>
      </trkpt>
      <trkpt lat="44.64616" lon="5.06988">
        <ele>343.384369</ele>
        <time>2015-05-24T12:07:17Z</time>
      </trkpt>
      <trkpt lat="44.6462" lon="5.06989">
        <ele>342.447266</ele>
        <time>2015-05-24T12:07:18Z</time>
      </trkpt>
      <trkpt lat="44.64625" lon="5.06989">
        <ele>341.242004</ele>
        <time>2015-05-24T12:07:19Z</time>
      </trkpt>
      <trkpt lat="44.64632" lon="5.06986">
        <ele>339.891357</ele>
        <time>2015-05-24T12:07:20Z</time>
      </trkpt>
      <trkpt lat="44.64638" lon="5.06983">
        <ele>338.424835</ele>
        <time>2015-05-24T12:07:21Z</time>
      </trkpt>
      <trkpt lat="44.64644" lon="5.06978">
        <ele>336.850952</ele>
        <time>2015-05-24T12:07:22Z</time>
      </trkpt>
      <trkpt lat="44.6467" lon="5.06958">
        <ele>333.108063</ele>
        <time>2015-05-24T12:07:26Z</time>
      </trkpt>
      <trkpt lat="44.64676" lon="5.06953">
        <ele>332.710876</ele>
        <time>2015-05-24T12:07:27Z</time>
      </trkpt>
      <trkpt lat="44.64683" lon="5.0695">
        <ele>332.30304</ele>
        <time>2015-05-24T12:07:28Z</time>
      </trkpt>
      <trkpt lat="44.64689" lon="5.06948">
        <ele>331.893311</ele>
        <time>2015-05-24T12:07:29Z</time>
      </trkpt>
      <trkpt lat="44.6471" lon="5.06942">
        <ele>331.418793</ele>
        <time>2015-05-24T12:07:32Z</time>
      </trkpt>
      <trkpt lat="44.64731" lon="5.06935">
        <ele>331.923065</ele>
        <time>2015-05-24T12:07:35Z</time>
      </trkpt>
      <trkpt lat="44.64768" lon="5.06921">
        <ele>334.091888</ele>
        <time>2015-05-24T12:07:44Z</time>
      </trkpt>
      <trkpt lat="44.64789" lon="5.06919">
        <ele>335.83551</ele>
        <time>2015-05-24T12:07:52Z</time>
      </trkpt>
      <trkpt lat="44.6479" lon="5.06916">
        <ele>335.941193</ele>
        <time>2015-05-24T12:07:53Z</time>
      </trkpt>
      <trkpt lat="44.64791" lon="5.06912">
        <ele>336</ele>
        <time>2015-05-24T12:07:54Z</time>
      </trkpt>
      <trkpt lat="44.64792" lon="5.06908">
        <ele>336.183746</ele>
        <time>2015-05-24T12:07:55Z</time>
      </trkpt>
      <trkpt lat="44.64793" lon="5.06904">
        <ele>336.357483</ele>
        <time>2015-05-24T12:07:56Z</time>
      </trkpt>
      <trkpt lat="44.64793" lon="5.06899">
        <ele>336.372498</ele>
        <time>2015-05-24T12:07:57Z</time>
      </trkpt>
      <trkpt lat="44.64792" lon="5.06893">
        <ele>336.30249</ele>
        <time>2015-05-24T12:07:58Z</time>
      </trkpt>
      <trkpt lat="44.64792" lon="5.06886">
        <ele>336.422516</ele>
        <time>2015-05-24T12:07:59Z</time>
      </trkpt>
      <trkpt lat="44.64792" lon="5.0688">
        <ele>336.565002</ele>
        <time>2015-05-24T12:08:00Z</time>
      </trkpt>
      <trkpt lat="44.64793" lon="5.06866">
        <ele>336.776245</ele>
        <time>2015-05-24T12:08:02Z</time>
      </trkpt>
      <trkpt lat="44.64792" lon="5.0686">
        <ele>336.821259</ele>
        <time>2015-05-24T12:08:03Z</time>
      </trkpt>
      <trkpt lat="44.64792" lon="5.06854">
        <ele>336.863251</ele>
        <time>2015-05-24T12:08:04Z</time>
      </trkpt>
      <trkpt lat="44.64791" lon="5.06843">
        <ele>336.89624</ele>
        <time>2015-05-24T12:08:06Z</time>
      </trkpt>
      <trkpt lat="44.64791" lon="5.06836">
        <ele>336.956238</ele>
        <time>2015-05-24T12:08:07Z</time>
      </trkpt>
      <trkpt lat="44.64778" lon="5.06759">
        <ele>336.540009</ele>
        <time>2015-05-24T12:08:18Z</time>
      </trkpt>
      <trkpt lat="44.64776" lon="5.06751">
        <ele>336.407501</ele>
        <time>2015-05-24T12:08:19Z</time>
      </trkpt>
      <trkpt lat="44.64763" lon="5.06698">
        <ele>335.922791</ele>
        <time>2015-05-24T12:08:25Z</time>
      </trkpt>
      <trkpt lat="44.64761" lon="5.06689">
        <ele>335.938385</ele>
        <time>2015-05-24T12:08:26Z</time>
      </trkpt>
      <trkpt lat="44.64742" lon="5.06619">
        <ele>335.279999</ele>
        <time>2015-05-24T12:08:34Z</time>
      </trkpt>
      <trkpt lat="44.64703" lon="5.06505">
        <ele>332.262512</ele>
        <time>2015-05-24T12:08:48Z</time>
      </trkpt>
      <trkpt lat="44.64629" lon="5.06397">
        <ele>326.182526</ele>
        <time>2015-05-24T12:09:04Z</time>
      </trkpt>
      <trkpt lat="44.64618" lon="5.06381">
        <ele>325.252106</ele>
        <time>2015-05-24T12:09:07Z</time>
      </trkpt>
      <trkpt lat="44.64612" lon="5.06371">
        <ele>324.615997</ele>
        <time>2015-05-24T12:09:09Z</time>
      </trkpt>
      <trkpt lat="44.64605" lon="5.06361">
        <ele>323.887817</ele>
        <time>2015-05-24T12:09:11Z</time>
      </trkpt>
      <trkpt lat="44.64599" lon="5.0635">
        <ele>323.049988</ele>
        <time>2015-05-24T12:09:13Z</time>
      </trkpt>
      <trkpt lat="44.64591" lon="5.0633">
        <ele>321.710815</ele>
        <time>2015-05-24T12:09:16Z</time>
      </trkpt>
      <trkpt lat="44.64588" lon="5.06305">
        <ele>321.37558</ele>
        <time>2015-05-24T12:09:19Z</time>
      </trkpt>
      <trkpt lat="44.64588" lon="5.06298">
        <ele>321.351624</ele>
        <time>2015-05-24T12:09:20Z</time>
      </trkpt>
      <trkpt lat="44.64588" lon="5.06284">
        <ele>321.30957</ele>
        <time>2015-05-24T12:09:22Z</time>
      </trkpt>
      <trkpt lat="44.64587" lon="5.06278">
        <ele>321.247772</ele>
        <time>2015-05-24T12:09:23Z</time>
      </trkpt>
      <trkpt lat="44.64585" lon="5.06272">
        <ele>321.126251</ele>
        <time>2015-05-24T12:09:24Z</time>
      </trkpt>
      <trkpt lat="44.64579" lon="5.06261">
        <ele>321.052826</ele>
        <time>2015-05-24T12:09:26Z</time>
      </trkpt>
      <trkpt lat="44.64575" lon="5.06256">
        <ele>321.035217</ele>
        <time>2015-05-24T12:09:27Z</time>
      </trkpt>
      <trkpt lat="44.64566" lon="5.06239">
        <ele>320.951477</ele>
        <time>2015-05-24T12:09:30Z</time>
      </trkpt>
      <trkpt lat="44.64564" lon="5.06232">
        <ele>320.94104</ele>
        <time>2015-05-24T12:09:31Z</time>
      </trkpt>
      <trkpt lat="44.64562" lon="5.0622">
        <ele>320.954315</ele>
        <time>2015-05-24T12:09:33Z</time>
      </trkpt>
      <trkpt lat="44.64562" lon="5.06215">
        <ele>320.999786</ele>
        <time>2015-05-24T12:09:34Z</time>
      </trkpt>
      <trkpt lat="44.64562" lon="5.0621">
        <ele>321.030182</ele>
        <time>2015-05-24T12:09:35Z</time>
      </trkpt>
      <trkpt lat="44.64563" lon="5.06206">
        <ele>321.095459</ele>
        <time>2015-05-24T12:09:36Z</time>
      </trkpt>
      <trkpt lat="44.64565" lon="5.06201">
        <ele>321.222748</ele>
        <time>2015-05-24T12:09:37Z</time>
      </trkpt>
      <trkpt lat="44.64568" lon="5.06197">
        <ele>321.379211</ele>
        <time>2015-05-24T12:09:38Z</time>
      </trkpt>
      <trkpt lat="44.6457" lon="5.06191">
        <ele>321.536469</ele>
        <time>2015-05-24T12:09:39Z</time>
      </trkpt>
      <trkpt lat="44.64572" lon="5.06184">
        <ele>321.698303</ele>
        <time>2015-05-24T12:09:40Z</time>
      </trkpt>
      <trkpt lat="44.64574" lon="5.06178">
        <ele>321.908447</ele>
        <time>2015-05-24T12:09:41Z</time>
      </trkpt>
      <trkpt lat="44.64577" lon="5.06171">
        <ele>322.136414</ele>
        <time>2015-05-24T12:09:42Z</time>
      </trkpt>
      <trkpt lat="44.64588" lon="5.06141">
        <ele>323.212494</ele>
        <time>2015-05-24T12:09:47Z</time>
      </trkpt>
      <trkpt lat="44.64588" lon="5.06133">
        <ele>323.366241</ele>
        <time>2015-05-24T12:09:48Z</time>
      </trkpt>
      <trkpt lat="44.64588" lon="5.06117">
        <ele>323.561249</ele>
        <time>2015-05-24T12:09:50Z</time>
      </trkpt>
      <trkpt lat="44.64587" lon="5.06109">
        <ele>323.59375</ele>
        <time>2015-05-24T12:09:51Z</time>
      </trkpt>
      <trkpt lat="44.64585" lon="5.06102">
        <ele>323.584991</ele>
        <time>2015-05-24T12:09:52Z</time>
      </trkpt>
      <trkpt lat="44.6458" lon="5.06088">
        <ele>323.467499</ele>
        <time>2015-05-24T12:09:54Z</time>
      </trkpt>
      <trkpt lat="44.64581" lon="5.06082">
        <ele>323.58374</ele>
        <time>2015-05-24T12:09:55Z</time>
      </trkpt>
      <trkpt lat="44.64583" lon="5.06078">
        <ele>323.823761</ele>
        <time>2015-05-24T12:09:56Z</time>
      </trkpt>
      <trkpt lat="44.64587" lon="5.06076">
        <ele>324.115692</ele>
        <time>2015-05-24T12:09:57Z</time>
      </trkpt>
      <trkpt lat="44.64591" lon="5.06074">
        <ele>324.430634</ele>
        <time>2015-05-24T12:09:58Z</time>
      </trkpt>
      <trkpt lat="44.64596" lon="5.06074">
        <ele>324.782501</ele>
        <time>2015-05-24T12:09:59Z</time>
      </trkpt>
      <trkpt lat="44.64608" lon="5.06071">
        <ele>325.663544</ele>
        <time>2015-05-24T12:10:01Z</time>
      </trkpt>
      <trkpt lat="44.64614" lon="5.06069">
        <ele>326.176117</ele>
        <time>2015-05-24T12:10:02Z</time>
      </trkpt>
      <trkpt lat="44.64622" lon="5.06067">
        <ele>326.768677</ele>
        <time>2015-05-24T12:10:03Z</time>
      </trkpt>
      <trkpt lat="44.64637" lon="5.0606">
        <ele>328.12677</ele>
        <time>2015-05-24T12:10:05Z</time>
      </trkpt>
      <trkpt lat="44.64644" lon="5.06057">
        <ele>328.807983</ele>
        <time>2015-05-24T12:10:06Z</time>
      </trkpt>
      <trkpt lat="44.6465" lon="5.06054">
        <ele>329.394775</ele>
        <time>2015-05-24T12:10:07Z</time>
      </trkpt>
      <trkpt lat="44.64661" lon="5.06049">
        <ele>330.302612</ele>
        <time>2015-05-24T12:10:09Z</time>
      </trkpt>
    </trkseg>
  </trk>
</gpx>